GEFSMA_prec_meanprecacc_006.txt.gz
Total_Precipitation_Accumulation
0.00 0.00 0.00 0.00 0.00 0.00 0.00 0.00 0.01 0.03 0.07 0.12 0.14 0.12 0.11 0.11 0.10 0.09 0.05 0.02 0.01 0.00 0.00 0.00 0.00 0.02 0.05 0.07 0.17 0.26 0.15 0.08 0.02 0.00 0.00 0.00 0.00 0.00 0.00 0.01 0.01 0.02 0.03
0.00 0.00 0.00 0.00 0.00 0.00 0.00 0.00 0.00 0.00 0.00 0.01 0.02 0.05 0.09 0.11 0.13 0.13 0.07 0.04 0.02 0.00 0.00 0.00 0.00 0.00 0.01 0.03 0.11 0.26 0.23 0.16 0.06 0.01 0.00 0.00 0.00 0.00 0.00 0.00 0.00 0.01 0.02
0.00 0.00 0.00 0.00 0.00 0.00 0.00 0.00 0.00 0.00 0.00 0.00 0.00 0.00 0.01 0.03 0.07 0.09 0.07 0.06 0.04 0.01 0.00 0.00 0.00 0.00 0.00 0.01 0.05 0.15 0.34 0.29 0.17 0.08 0.03 0.00 0.00 0.00 0.00 0.00 0.00 0.00 0.01
0.00 0.00 0.00 0.00 0.00 0.00 0.00 0.00 0.00 0.00 0.00 0.00 0.00 0.00 0.00 0.00 0.00 0.01 0.02 0.03 0.04 0.03 0.01 0.00 0.00 0.00 0.00 0.00 0.02 0.07 0.28 0.33 0.31 0.21 0.11 0.04 0.00 0.00 0.00 0.00 0.00 0.00 0.00
0.00 0.00 0.00 0.00 0.00 0.00 0.00 0.00 0.00 0.00 0.00 0.00 0.00 0.00 0.00 0.00 0.00 0.00 0.00 0.00 0.01 0.01 0.01 0.00 0.00 0.00 0.00 0.00 0.00 0.03 0.13 0.25 0.27 0.26 0.16 0.06 0.01 0.00 0.00 0.00 0.00 0.00 0.00
0.00 0.00 0.00 0.00 0.00 0.00 0.00 0.00 0.00 0.00 0.00 0.00 0.00 0.00 0.00 0.00 0.00 0.00 0.00 0.00 0.00 0.00 0.01 0.00 0.00 0.00 0.00 0.00 0.00 0.00 0.03 0.12 0.15 0.16 0.14 0.07 0.02 0.00 0.00 0.00 0.00 0.00 0.00
0.00 0.00 0.00 0.00 0.00 0.00 0.00 0.00 0.00 0.00 0.00 0.00 0.00 0.00 0.00 0.00 0.00 0.00 0.00 0.00 0.00 0.00 0.00 0.00 0.01 0.01 0.01 0.00 0.00 0.00 0.01 0.03 0.06 0.09 0.10 0.08 0.04 0.01 0.00 0.00 0.00 0.00 0.00
0.00 0.00 0.00 0.01 0.01 0.01 0.00 0.00 0.00 0.00 0.00 0.00 0.00 0.00 0.00 0.00 0.00 0.00 0.00 0.00 0.00 0.00 0.00 0.00 0.01 0.01 0.01 0.02 0.01 0.00 0.01 0.02 0.03 0.05 0.08 0.09 0.09 0.07 0.02 0.00 0.00 0.00 0.00
0.00 0.00 0.00 0.01 0.02 0.01 0.01 0.01 0.01 0.01 0.01 0.00 0.00 0.01 0.02 0.01 0.00 0.00 0.00 0.00 0.00 0.00 0.00 0.00 0.00 0.01 0.02 0.04 0.04 0.02 0.01 0.03 0.04 0.04 0.03 0.07 0.11 0.15 0.11 0.02 0.00 0.00 0.00
0.00 0.00 0.01 0.01 0.01 0.01 0.01 0.02 0.02 0.02 0.03 0.02 0.01 0.00 0.00 0.01 0.01 0.01 0.01 0.03 0.03 0.03 0.02 0.01 0.01 0.01 0.02 0.03 0.05 0.04 0.03 0.02 0.03 0.05 0.05 0.03 0.08 0.11 0.13 0.08 0.02 0.00 0.00
0.00 0.00 0.01 0.01 0.01 0.01 0.01 0.02 0.03 0.03 0.04 0.03 0.02 0.02 0.01 0.00 0.01 0.02 0.02 0.03 0.07 0.08 0.07 0.04 0.04 0.05 0.03 0.03 0.04 0.03 0.03 0.05 0.08 0.09 0.10 0.08 0.11 0.11 0.16 0.15 0.07 0.02 0.01
0.00 0.00 0.00 0.00 0.01 0.01 0.02 0.02 0.03 0.03 0.03 0.03 0.03 0.03 0.02 0.02 0.01 0.02 0.03 0.02 0.02 0.03 0.06 0.07 0.07 0.08 0.08 0.05 0.04 0.03 0.02 0.07 0.15 0.13 0.08 0.11 0.17 0.15 0.16 0.18 0.15 0.07 0.03
0.00 0.00 0.00 0.00 0.00 0.01 0.01 0.02 0.03 0.03 0.02 0.02 0.03 0.03 0.03 0.02 0.02 0.01 0.02 0.02 0.02 0.01 0.01 0.03 0.05 0.06 0.10 0.07 0.04 0.02 0.01 0.02 0.05 0.07 0.05 0.06 0.12 0.16 0.21 0.26 0.24 0.16 0.08
0.00 0.00 0.00 0.00 0.00 0.00 0.01 0.02 0.02 0.02 0.02 0.02 0.02 0.02 0.02 0.02 0.02 0.02 0.02 0.03 0.04 0.03 0.01 0.01 0.02 0.03 0.07 0.09 0.05 0.03 0.01 0.01 0.01 0.02 0.03 0.03 0.04 0.08 0.13 0.25 0.40 0.39 0.27
0.00 0.00 0.00 0.00 0.00 0.00 0.01 0.01 0.01 0.01 0.01 0.02 0.02 0.02 0.02 0.02 0.02 0.03 0.02 0.03 0.04 0.05 0.02 0.01 0.01 0.02 0.04 0.09 0.10 0.06 0.03 0.01 0.00 0.00 0.01 0.03 0.04 0.06 0.08 0.14 0.26 0.45 0.53
0.00 0.00 0.00 0.00 0.00 0.00 0.00 0.01 0.01 0.01 0.01 0.01 0.02 0.02 0.02 0.03 0.03 0.04 0.04 0.04 0.04 0.05 0.04 0.02 0.01 0.01 0.05 0.06 0.07 0.07 0.06 0.03 0.01 0.01 0.01 0.03 0.06 0.09 0.11 0.15 0.19 0.27 0.36
0.00 0.00 0.00 0.00 0.00 0.00 0.00 0.02 0.02 0.01 0.02 0.02 0.02 0.03 0.03 0.05 0.06 0.07 0.07 0.07 0.06 0.06 0.05 0.04 0.02 0.01 0.04 0.04 0.03 0.04 0.07 0.06 0.04 0.03 0.03 0.03 0.07 0.13 0.19 0.23 0.21 0.20 0.21
0.00 0.00 0.00 0.00 0.00 0.00 0.01 0.03 0.04 0.03 0.03 0.02 0.02 0.04 0.06 0.07 0.09 0.08 0.08 0.09 0.08 0.07 0.06 0.04 0.03 0.02 0.02 0.03 0.03 0.05 0.08 0.09 0.07 0.05 0.06 0.06 0.10 0.12 0.16 0.23 0.28 0.27 0.22
0.00 0.00 0.00 0.00 0.00 0.00 0.00 0.02 0.06 0.07 0.03 0.01 0.03 0.06 0.08 0.08 0.07 0.07 0.08 0.08 0.06 0.05 0.05 0.04 0.02 0.02 0.04 0.03 0.04 0.06 0.07 0.10 0.10 0.08 0.07 0.08 0.11 0.15 0.14 0.15 0.19 0.24 0.21
0.00 0.00 0.00 0.00 0.00 0.00 0.00 0.02 0.09 0.08 0.02 0.01 0.02 0.05 0.08 0.11 0.09 0.08 0.06 0.04 0.04 0.04 0.04 0.05 0.04 0.03 0.04 0.05 0.06 0.06 0.06 0.11 0.11 0.10 0.09 0.08 0.10 0.17 0.16 0.11 0.09 0.11 0.12
0.00 0.00 0.00 0.00 0.00 0.00 0.00 0.06 0.16 0.11 0.02 0.01 0.02 0.04 0.09 0.14 0.13 0.14 0.10 0.06 0.04 0.03 0.04 0.05 0.06 0.06 0.06 0.07 0.08 0.08 0.08 0.10 0.11 0.10 0.09 0.07 0.06 0.08 0.11 0.12 0.10 0.09 0.08
0.00 0.00 0.00 0.00 0.00 0.00 0.03 0.16 0.21 0.06 0.02 0.03 0.04 0.04 0.06 0.10 0.11 0.10 0.10 0.09 0.08 0.05 0.04 0.05 0.08 0.09 0.09 0.11 0.11 0.14 0.12 0.08 0.09 0.12 0.09 0.07 0.05 0.06 0.07 0.08 0.10 0.09 0.07
0.00 0.00 0.00 0.00 0.00 0.00 0.07 0.27 0.15 0.02 0.03 0.06 0.04 0.03 0.04 0.07 0.07 0.07 0.08 0.08 0.08 0.11 0.12 0.10 0.14 0.15 0.13 0.13 0.15 0.19 0.17 0.11 0.09 0.15 0.12 0.09 0.06 0.05 0.05 0.08 0.11 0.08 0.06
0.00 0.00 0.00 0.00 0.00 0.00 0.09 0.25 0.08 0.01 0.04 0.05 0.03 0.03 0.03 0.04 0.06 0.05 0.07 0.08 0.10 0.15 0.19 0.19 0.27 0.30 0.23 0.19 0.20 0.27 0.27 0.18 0.13 0.12 0.11 0.10 0.08 0.05 0.05 0.06 0.07 0.06 0.04
0.00 0.00 0.00 0.00 0.00 0.00 0.07 0.18 0.04 0.01 0.03 0.04 0.02 0.02 0.02 0.02 0.02 0.01 0.02 0.04 0.05 0.09 0.13 0.15 0.20 0.28 0.30 0.31 0.34 0.38 0.42 0.30 0.23 0.19 0.13 0.11 0.09 0.06 0.07 0.07 0.05 0.02 0.01
0.00 0.00 0.00 0.00 0.00 0.00 0.04 0.10 0.04 0.00 0.01 0.02 0.01 0.01 0.02 0.02 0.01 0.00 0.00 0.01 0.01 0.03 0.06 0.08 0.12 0.20 0.27 0.33 0.41 0.53 0.65 0.51 0.34 0.28 0.20 0.13 0.09 0.05 0.08 0.10 0.06 0.02 0.00

GEFSMA_prec_meanprecacc_012.txt.gz
Total_Precipitation_Accumulation
0.00 0.00 0.00 0.00 0.00 0.00 0.00 0.00 0.01 0.03 0.07 0.12 0.14 0.12 0.12 0.11 0.12 0.14 0.12 0.12 0.10 0.08 0.09 0.12 0.15 0.17 0.19 0.26 0.46 0.58 0.43 0.32 0.14 0.03 0.00 0.00 0.00 0.00 0.00 0.01 0.02 0.04 0.05
0.00 0.00 0.00 0.00 0.00 0.00 0.00 0.00 0.00 0.00 0.00 0.01 0.02 0.05 0.09 0.12 0.15 0.16 0.14 0.13 0.12 0.09 0.09 0.09 0.11 0.12 0.12 0.14 0.29 0.59 0.56 0.49 0.35 0.16 0.03 0.00 0.00 0.00 0.00 0.00 0.01 0.02 0.04
0.00 0.00 0.00 0.00 0.00 0.00 0.00 0.00 0.00 0.00 0.00 0.00 0.00 0.00 0.01 0.03 0.07 0.12 0.12 0.14 0.16 0.13 0.10 0.11 0.11 0.09 0.07 0.09 0.14 0.34 0.64 0.61 0.53 0.40 0.18 0.03 0.00 0.00 0.00 0.00 0.00 0.01 0.02
0.00 0.00 0.00 0.00 0.00 0.00 0.00 0.00 0.00 0.00 0.00 0.00 0.00 0.00 0.00 0.00 0.00 0.02 0.04 0.09 0.14 0.17 0.15 0.14 0.13 0.11 0.08 0.06 0.08 0.16 0.47 0.57 0.65 0.60 0.44 0.17 0.03 0.00 0.00 0.00 0.00 0.00 0.01
0.00 0.00 0.00 0.00 0.00 0.00 0.00 0.00 0.00 0.00 0.00 0.00 0.00 0.00 0.00 0.00 0.00 0.00 0.00 0.02 0.05 0.11 0.15 0.15 0.14 0.12 0.10 0.07 0.06 0.08 0.21 0.39 0.49 0.58 0.54 0.34 0.12 0.02 0.00 0.00 0.00 0.00 0.00
0.00 0.00 0.00 0.00 0.00 0.00 0.00 0.00 0.00 0.00 0.00 0.00 0.00 0.00 0.00 0.00 0.00 0.00 0.00 0.00 0.01 0.05 0.09 0.12 0.13 0.11 0.09 0.07 0.06 0.05 0.07 0.17 0.26 0.36 0.42 0.38 0.23 0.07 0.01 0.00 0.00 0.00 0.00
0.00 0.00 0.00 0.00 0.00 0.01 0.00 0.00 0.00 0.00 0.00 0.00 0.00 0.00 0.00 0.00 0.00 0.00 0.00 0.00 0.00 0.02 0.05 0.08 0.10 0.11 0.10 0.09 0.07 0.04 0.04 0.06 0.12 0.20 0.28 0.32 0.28 0.14 0.04 0.01 0.00 0.00 0.00
0.00 0.00 0.00 0.01 0.01 0.01 0.00 0.00 0.01 0.02 0.01 0.01 0.01 0.02 0.01 0.00 0.00 0.00 0.00 0.00 0.00 0.00 0.02 0.05 0.07 0.08 0.09 0.09 0.06 0.05 0.04 0.04 0.07 0.13 0.18 0.28 0.34 0.29 0.12 0.03 0.01 0.00 0.00
0.00 0.00 0.00 0.01 0.02 0.01 0.01 0.01 0.02 0.03 0.03 0.01 0.02 0.05 0.08 0.05 0.01 0.00 0.00 0.00 0.00 0.00 0.00 0.01 0.03 0.05 0.07 0.09 0.09 0.06 0.05 0.05 0.06 0.11 0.12 0.18 0.32 0.43 0.28 0.07 0.02 0.01 0.00
0.00 0.00 0.01 0.01 0.01 0.01 0.01 0.02 0.02 0.03 0.05 0.05 0.02 0.02 0.04 0.05 0.06 0.03 0.01 0.03 0.03 0.03 0.02 0.01 0.02 0.03 0.05 0.07 0.09 0.07 0.07 0.06 0.06 0.10 0.15 0.14 0.21 0.33 0.35 0.17 0.04 0.01 0.00
0.00 0.00 0.01 0.01 0.01 0.01 0.01 0.02 0.03 0.03 0.05 0.07 0.06 0.05 0.03 0.02 0.03 0.06 0.03 0.03 0.07 0.08 0.07 0.04 0.05 0.06 0.06 0.07 0.07 0.06 0.07 0.12 0.18 0.16 0.20 0.20 0.25 0.30 0.43 0.33 0.12 0.03 0.01
0.00 0.00 0.00 0.00 0.01 0.01 0.02 0.02 0.03 0.04 0.04 0.04 0.05 0.06 0.07 0.07 0.05 0.06 0.06 0.02 0.02 0.03 0.06 0.08 0.07 0.09 0.11 0.09 0.09 0.08 0.07 0.15 0.30 0.26 0.18 0.22 0.33 0.34 0.41 0.43 0.25 0.10 0.04
0.00 0.00 0.00 0.00 0.00 0.01 0.01 0.02 0.03 0.03 0.02 0.04 0.05 0.05 0.06 0.06 0.05 0.05 0.05 0.04 0.02 0.01 0.01 0.04 0.06 0.08 0.11 0.11 0.09 0.08 0.06 0.09 0.15 0.20 0.13 0.11 0.24 0.37 0.43 0.53 0.44 0.23 0.10
0.00 0.00 0.00 0.00 0.00 0.00 0.01 0.02 0.02 0.02 0.02 0.03 0.03 0.04 0.06 0.05 0.05 0.05 0.06 0.06 0.06 0.03 0.02 0.02 0.03 0.06 0.09 0.12 0.09 0.07 0.04 0.05 0.08 0.13 0.14 0.10 0.12 0.23 0.36 0.54 0.76 0.71 0.43
0.00 0.00 0.00 0.00 0.00 0.00 0.01 0.01 0.01 0.02 0.03 0.03 0.04 0.05 0.06 0.05 0.05 0.05 0.05 0.07 0.09 0.07 0.03 0.02 0.03 0.07 0.12 0.14 0.14 0.11 0.06 0.05 0.06 0.07 0.11 0.13 0.12 0.14 0.20 0.32 0.55 0.86 1.04
0.00 0.00 0.00 0.00 0.00 0.00 0.00 0.01 0.01 0.02 0.03 0.03 0.05 0.06 0.05 0.05 0.05 0.06 0.06 0.06 0.08 0.09 0.06 0.03 0.03 0.07 0.17 0.19 0.16 0.13 0.11 0.08 0.06 0.05 0.05 0.08 0.12 0.15 0.19 0.25 0.33 0.48 0.74
0.00 0.00 0.00 0.00 0.00 0.00 0.00 0.02 0.02 0.02 0.04 0.03 0.04 0.06 0.06 0.07 0.09 0.09 0.10 0.11 0.10 0.10 0.08 0.04 0.03 0.05 0.15 0.21 0.20 0.14 0.12 0.10 0.07 0.06 0.05 0.05 0.08 0.14 0.22 0.29 0.30 0.32 0.38
0.00 0.00 0.00 0.00 0.00 0.00 0.01 0.03 0.04 0.04 0.05 0.05 0.05 0.08 0.09 0.11 0.13 0.12 0.13 0.14 0.13 0.13 0.11 0.06 0.04 0.05 0.10 0.18 0.25 0.24 0.18 0.14 0.10 0.08 0.08 0.07 0.10 0.13 0.17 0.25 0.34 0.37 0.35
0.00 0.00 0.00 0.01 0.01 0.02 0.04 0.04 0.08 0.09 0.08 0.08 0.09 0.11 0.13 0.15 0.15 0.14 0.17 0.16 0.14 0.13 0.13 0.10 0.05 0.05 0.09 0.12 0.22 0.31 0.24 0.18 0.14 0.11 0.09 0.09 0.12 0.15 0.14 0.16 0.23 0.33 0.33
0.00 0.00 0.00 0.01 0.03 0.06 0.10 0.14 0.20 0.19 0.13 0.09 0.07 0.08 0.15 0.24 0.21 0.19 0.18 0.14 0.13 0.12 0.12 0.12 0.07 0.05 0.08 0.10 0.18 0.27 0.28 0.23 0.17 0.13 0.11 0.09 0.11 0.17 0.16 0.11 0.10 0.16 0.26
0.00 0.00 0.00 0.00 0.02 0.10 0.28 0.47 0.50 0.30 0.13 0.05 0.04 0.05 0.14 0.24 0.22 0.26 0.24 0.16 0.12 0.11 0.12 0.13 0.11 0.09 0.10 0.13 0.16 0.19 0.25 0.27 0.20 0.14 0.11 0.08 0.08 0.09 0.13 0.14 0.12 0.12 0.16
0.00 0.00 0.00 0.00 0.01 0.10 0.39 0.63 0.46 0.16 0.06 0.05 0.05 0.05 0.09 0.18 0.15 0.16 0.20 0.20 0.18 0.15 0.12 0.12 0.15 0.16 0.16 0.16 0.17 0.21 0.22 0.22 0.20 0.17 0.12 0.10 0.09 0.10 0.09 0.10 0.14 0.13 0.13
0.00 0.00 0.00 0.00 0.00 0.07 0.36 0.54 0.25 0.07 0.06 0.07 0.06 0.05 0.07 0.14 0.12 0.10 0.14 0.14 0.14 0.17 0.20 0.18 0.22 0.23 0.21 0.20 0.20 0.23 0.22 0.19 0.16 0.20 0.17 0.15 0.12 0.10 0.09 0.15 0.20 0.17 0.14
0.00 0.00 0.00 0.00 0.00 0.04 0.31 0.41 0.11 0.04 0.06 0.05 0.04 0.05 0.04 0.08 0.11 0.06 0.09 0.12 0.15 0.21 0.29 0.29 0.36 0.38 0.29 0.23 0.22 0.29 0.29 0.21 0.16 0.17 0.18 0.20 0.21 0.16 0.18 0.20 0.24 0.21 0.16
0.00 0.00 0.00 0.00 0.00 0.01 0.19 0.30 0.05 0.01 0.03 0.04 0.02 0.03 0.03 0.03 0.06 0.02 0.02 0.06 0.08 0.13 0.19 0.23 0.28 0.34 0.33 0.34 0.36 0.40 0.44 0.33 0.27 0.24 0.22 0.25 0.34 0.29 0.35 0.42 0.35 0.26 0.19
0.00 0.00 0.00 0.00 0.00 0.00 0.08 0.18 0.06 0.00 0.01 0.02 0.01 0.01 0.03 0.03 0.03 0.02 0.00 0.01 0.03 0.06 0.10 0.12 0.16 0.24 0.31 0.36 0.44 0.56 0.69 0.56 0.39 0.38 0.34 0.29 0.38 0.32 0.43 0.57 0.46 0.29 0.20

GEFSMA_prec_meanprecacc_018.txt.gz
Total_Precipitation_Accumulation
0.00 0.00 0.00 0.00 0.00 0.00 0.00 0.00 0.01 0.03 0.07 0.12 0.14 0.12 0.12 0.11 0.12 0.14 0.12 0.12 0.10 0.08 0.09 0.12 0.21 0.35 0.49 0.62 0.79 0.86 0.66 0.50 0.27 0.10 0.05 0.05 0.05 0.04 0.04 0.05 0.05 0.06 0.09
0.00 0.00 0.00 0.00 0.00 0.00 0.00 0.00 0.00 0.00 0.00 0.01 0.02 0.05 0.09 0.12 0.15 0.16 0.14 0.13 0.12 0.09 0.09 0.10 0.14 0.24 0.40 0.57 0.73 0.99 0.89 0.75 0.56 0.31 0.11 0.04 0.03 0.02 0.03 0.04 0.05 0.07 0.09
0.00 0.00 0.00 0.00 0.00 0.00 0.00 0.00 0.00 0.00 0.00 0.00 0.00 0.00 0.01 0.03 0.07 0.12 0.12 0.14 0.16 0.13 0.11 0.12 0.13 0.15 0.24 0.42 0.64 0.88 1.13 1.00 0.83 0.65 0.37 0.12 0.03 0.02 0.02 0.03 0.04 0.06 0.08
0.00 0.00 0.00 0.00 0.00 0.00 0.00 0.00 0.00 0.00 0.00 0.00 0.00 0.00 0.00 0.00 0.00 0.02 0.04 0.09 0.14 0.17 0.15 0.15 0.15 0.14 0.14 0.23 0.42 0.67 1.11 1.17 1.09 0.95 0.76 0.42 0.14 0.03 0.01 0.02 0.03 0.05 0.07
0.00 0.00 0.00 0.00 0.00 0.00 0.00 0.00 0.00 0.00 0.00 0.00 0.00 0.00 0.00 0.00 0.00 0.00 0.00 0.02 0.05 0.11 0.15 0.16 0.16 0.15 0.13 0.13 0.21 0.39 0.72 1.07 1.13 1.06 0.98 0.77 0.42 0.13 0.04 0.02 0.02 0.04 0.06
0.00 0.00 0.00 0.00 0.00 0.00 0.00 0.00 0.00 0.00 0.00 0.00 0.00 0.00 0.00 0.00 0.00 0.00 0.00 0.00 0.01 0.05 0.09 0.12 0.14 0.14 0.13 0.11 0.11 0.18 0.38 0.69 1.01 1.00 0.92 0.92 0.76 0.38 0.14 0.06 0.04 0.04 0.05
0.00 0.00 0.00 0.00 0.00 0.01 0.00 0.00 0.00 0.00 0.01 0.00 0.00 0.00 0.00 0.00 0.00 0.00 0.00 0.00 0.00 0.02 0.06 0.10 0.12 0.13 0.14 0.14 0.11 0.09 0.19 0.40 0.70 1.01 0.89 0.86 0.97 0.77 0.36 0.17 0.11 0.07 0.06
0.00 0.00 0.00 0.01 0.01 0.01 0.00 0.00 0.01 0.02 0.01 0.01 0.02 0.03 0.01 0.00 0.00 0.00 0.00 0.00 0.00 0.00 0.02 0.06 0.11 0.13 0.12 0.13 0.10 0.08 0.08 0.18 0.41 0.73 0.93 0.87 0.99 1.11 0.75 0.33 0.18 0.13 0.11
0.00 0.00 0.00 0.01 0.02 0.01 0.01 0.01 0.02 0.03 0.03 0.01 0.02 0.08 0.12 0.08 0.02 0.00 0.00 0.00 0.00 0.00 0.00 0.02 0.06 0.11 0.13 0.14 0.13 0.10 0.07 0.08 0.17 0.40 0.69 0.82 0.93 1.18 1.17 0.63 0.29 0.18 0.14
0.00 0.00 0.01 0.01 0.01 0.01 0.01 0.02 0.02 0.03 0.05 0.05 0.03 0.03 0.08 0.10 0.11 0.05 0.01 0.03 0.03 0.03 0.02 0.01 0.02 0.06 0.12 0.16 0.17 0.15 0.12 0.09 0.08 0.18 0.42 0.60 0.71 0.96 1.24 1.02 0.50 0.26 0.19
0.00 0.00 0.01 0.01 0.01 0.01 0.01 0.02 0.03 0.03 0.05 0.07 0.07 0.06 0.04 0.03 0.06 0.10 0.05 0.03 0.07 0.08 0.07 0.04 0.05 0.07 0.10 0.17 0.19 0.17 0.17 0.17 0.20 0.18 0.28 0.43 0.61 0.78 1.15 1.25 0.89 0.42 0.25
0.00 0.00 0.00 0.00 0.01 0.01 0.02 0.02 0.03 0.04 0.04 0.04 0.06 0.08 0.10 0.10 0.07 0.09 0.09 0.03 0.02 0.03 0.06 0.08 0.07 0.10 0.13 0.17 0.22 0.26 0.20 0.24 0.35 0.28 0.20 0.28 0.49 0.63 0.91 1.22 1.16 0.77 0.39
0.00 0.00 0.00 0.00 0.00 0.01 0.01 0.02 0.03 0.03 0.02 0.04 0.05 0.06 0.08 0.09 0.08 0.09 0.10 0.06 0.03 0.01 0.01 0.04 0.06 0.08 0.12 0.15 0.20 0.23 0.17 0.19 0.23 0.24 0.15 0.13 0.27 0.46 0.67 1.07 1.25 1.05 0.68
0.00 0.00 0.00 0.00 0.00 0.00 0.01 0.02 0.02 0.02 0.02 0.03 0.04 0.06 0.09 0.06 0.07 0.10 0.12 0.11 0.09 0.03 0.02 0.02 0.03 0.06 0.10 0.15 0.14 0.15 0.12 0.14 0.17 0.19 0.17 0.10 0.13 0.25 0.43 0.77 1.42 1.60 1.24
0.00 0.00 0.00 0.00 0.00 0.00 0.01 0.01 0.02 0.02 0.03 0.04 0.05 0.06 0.08 0.07 0.07 0.08 0.09 0.11 0.15 0.11 0.04 0.02 0.03 0.07 0.12 0.14 0.16 0.14 0.12 0.12 0.13 0.13 0.15 0.14 0.12 0.15 0.21 0.37 0.81 1.59 2.04
0.00 0.00 0.00 0.00 0.01 0.01 0.02 0.03 0.03 0.03 0.04 0.04 0.06 0.08 0.08 0.08 0.09 0.09 0.10 0.10 0.13 0.15 0.10 0.03 0.03 0.07 0.17 0.19 0.17 0.15 0.14 0.14 0.12 0.10 0.10 0.11 0.13 0.15 0.20 0.26 0.40 0.79 1.49
0.00 0.00 0.00 0.01 0.02 0.03 0.04 0.05 0.05 0.05 0.06 0.06 0.08 0.11 0.12 0.14 0.17 0.15 0.16 0.16 0.15 0.16 0.15 0.06 0.03 0.05 0.15 0.21 0.20 0.15 0.15 0.15 0.13 0.11 0.10 0.09 0.11 0.15 0.22 0.29 0.32 0.41 0.72
0.00 0.00 0.00 0.02 0.05 0.08 0.09 0.10 0.10 0.09 0.11 0.12 0.13 0.17 0.19 0.18 0.18 0.16 0.18 0.18 0.17 0.16 0.16 0.09 0.04 0.05 0.10 0.18 0.26 0.26 0.21 0.19 0.16 0.15 0.14 0.12 0.14 0.14 0.18 0.26 0.35 0.39 0.47
0.00 0.00 0.00 0.04 0.11 0.17 0.17 0.14 0.17 0.18 0.17 0.17 0.19 0.21 0.21 0.20 0.18 0.16 0.21 0.20 0.16 0.15 0.16 0.14 0.06 0.05 0.09 0.12 0.23 0.33 0.29 0.24 0.22 0.19 0.17 0.15 0.16 0.18 0.16 0.17 0.24 0.33 0.37
0.00 0.00 0.00 0.02 0.13 0.29 0.29 0.23 0.29 0.26 0.19 0.16 0.13 0.12 0.19 0.29 0.25 0.22 0.23 0.17 0.14 0.14 0.15 0.15 0.10 0.07 0.08 0.11 0.19 0.30 0.36 0.34 0.28 0.24 0.22 0.18 0.17 0.21 0.18 0.12 0.10 0.16 0.28
0.00 0.00 0.00 0.01 0.06 0.38 0.59 0.55 0.54 0.33 0.15 0.07 0.04 0.06 0.16 0.28 0.26 0.30 0.33 0.23 0.16 0.15 0.15 0.16 0.15 0.13 0.12 0.15 0.18 0.24 0.36 0.43 0.37 0.32 0.26 0.19 0.16 0.14 0.15 0.14 0.13 0.13 0.17
0.00 0.00 0.00 0.00 0.02 0.27 0.64 0.68 0.46 0.17 0.07 0.05 0.05 0.05 0.09 0.20 0.19 0.18 0.25 0.26 0.26 0.25 0.20 0.18 0.21 0.22 0.22 0.22 0.21 0.27 0.33 0.41 0.44 0.41 0.35 0.24 0.19 0.16 0.12 0.11 0.14 0.13 0.14
0.00 0.00 0.00 0.00 0.00 0.14 0.54 0.58 0.25 0.07 0.06 0.07 0.06 0.05 0.07 0.15 0.17 0.13 0.14 0.16 0.17 0.23 0.28 0.25 0.29 0.30 0.27 0.25 0.24 0.28 0.31 0.34 0.42 0.54 0.52 0.40 0.27 0.18 0.13 0.16 0.21 0.17 0.15
0.00 0.00 0.00 0.00 0.00 0.07 0.45 0.47 0.11 0.04 0.06 0.05 0.04 0.05 0.05 0.08 0.16 0.11 0.09 0.13 0.17 0.25 0.35 0.36 0.43 0.44 0.34 0.26 0.25 0.32 0.37 0.32 0.34 0.49 0.59 0.56 0.43 0.26 0.22 0.23 0.25 0.22 0.18
0.00 0.00 0.00 0.00 0.00 0.02 0.28 0.39 0.06 0.01 0.03 0.04 0.02 0.03 0.04 0.04 0.09 0.06 0.03 0.06 0.09 0.15 0.21 0.27 0.31 0.37 0.35 0.36 0.38 0.43 0.51 0.43 0.41 0.49 0.58 0.65 0.65 0.47 0.43 0.46 0.37 0.27 0.21
0.00 0.00 0.00 0.00 0.00 0.00 0.12 0.28 0.10 0.01 0.01 0.02 0.01 0.01 0.03 0.06 0.06 0.05 0.01 0.02 0.06 0.08 0.11 0.13 0.17 0.24 0.31 0.37 0.46 0.60 0.77 0.66 0.52 0.58 0.64 0.68 0.80 0.62 0.58 0.66 0.52 0.34 0.25

GEFSMA_prec_meanprecacc_024.txt.gz
Total_Precipitation_Accumulation
0.00 0.00 0.00 0.00 0.00 0.00 0.00 0.00 0.01 0.03 0.07 0.12 0.14 0.12 0.12 0.11 0.12 0.14 0.12 0.12 0.10 0.08 0.09 0.12 0.21 0.35 0.50 0.65 0.86 0.95 0.75 0.60 0.45 0.32 0.30 0.34 0.36 0.34 0.29 0.24 0.19 0.14 0.11
0.00 0.00 0.00 0.00 0.00 0.00 0.00 0.00 0.00 0.00 0.00 0.01 0.02 0.05 0.09 0.12 0.15 0.16 0.14 0.13 0.12 0.09 0.09 0.10 0.14 0.25 0.41 0.59 0.80 1.09 1.01 0.87 0.69 0.48 0.30 0.27 0.29 0.29 0.27 0.25 0.21 0.18 0.14
0.00 0.00 0.00 0.00 0.00 0.00 0.00 0.00 0.00 0.00 0.00 0.00 0.00 0.00 0.01 0.03 0.07 0.12 0.12 0.14 0.16 0.13 0.11 0.12 0.13 0.15 0.24 0.44 0.69 0.98 1.27 1.17 0.98 0.80 0.55 0.30 0.23 0.24 0.23 0.25 0.24 0.22 0.17
0.00 0.00 0.00 0.00 0.00 0.00 0.00 0.00 0.00 0.00 0.00 0.00 0.00 0.00 0.00 0.00 0.00 0.02 0.04 0.09 0.14 0.17 0.15 0.15 0.15 0.14 0.15 0.24 0.45 0.75 1.22 1.33 1.31 1.14 0.96 0.62 0.33 0.21 0.20 0.21 0.23 0.24 0.21
0.00 0.00 0.00 0.00 0.00 0.00 0.00 0.00 0.00 0.00 0.00 0.00 0.00 0.00 0.00 0.00 0.00 0.00 0.00 0.02 0.05 0.11 0.15 0.16 0.16 0.15 0.13 0.14 0.23 0.44 0.82 1.22 1.37 1.33 1.23 1.01 0.63 0.30 0.20 0.18 0.18 0.21 0.22
0.00 0.00 0.00 0.00 0.00 0.00 0.00 0.00 0.00 0.00 0.00 0.00 0.00 0.00 0.00 0.00 0.00 0.00 0.00 0.00 0.01 0.05 0.09 0.12 0.14 0.14 0.13 0.11 0.12 0.21 0.45 0.84 1.25 1.32 1.25 1.22 1.03 0.58 0.29 0.19 0.16 0.17 0.19
0.00 0.00 0.00 0.00 0.00 0.01 0.00 0.00 0.00 0.00 0.01 0.00 0.00 0.00 0.00 0.00 0.00 0.00 0.00 0.00 0.00 0.02 0.06 0.10 0.12 0.13 0.14 0.14 0.11 0.10 0.22 0.49 0.91 1.39 1.38 1.27 1.30 1.04 0.57 0.33 0.24 0.18 0.18
0.00 0.00 0.00 0.01 0.01 0.01 0.00 0.00 0.01 0.02 0.01 0.01 0.02 0.03 0.01 0.00 0.00 0.00 0.00 0.00 0.00 0.00 0.02 0.06 0.11 0.13 0.12 0.13 0.10 0.09 0.10 0.21 0.51 1.04 1.58 1.55 1.45 1.46 1.03 0.58 0.38 0.28 0.24
0.00 0.00 0.00 0.01 0.02 0.01 0.01 0.01 0.02 0.03 0.03 0.01 0.02 0.09 0.13 0.09 0.02 0.00 0.00 0.00 0.00 0.00 0.00 0.02 0.06 0.11 0.13 0.14 0.13 0.11 0.10 0.11 0.21 0.52 1.15 1.74 1.76 1.73 1.55 0.93 0.55 0.38 0.31
0.00 0.00 0.01 0.01 0.01 0.01 0.01 0.02 0.02 0.03 0.06 0.06 0.03 0.04 0.09 0.12 0.13 0.06 0.01 0.03 0.03 0.03 0.02 0.01 0.02 0.06 0.12 0.16 0.18 0.18 0.17 0.14 0.13 0.24 0.61 1.28 1.86 1.93 1.88 1.44 0.81 0.51 0.39
0.00 0.00 0.01 0.01 0.01 0.01 0.01 0.02 0.03 0.04 0.06 0.08 0.08 0.07 0.05 0.04 0.07 0.13 0.06 0.03 0.07 0.08 0.07 0.04 0.05 0.07 0.10 0.17 0.20 0.21 0.24 0.23 0.27 0.25 0.36 0.71 1.50 2.04 2.20 2.00 1.35 0.72 0.48
0.00 0.00 0.00 0.00 0.01 0.01 0.02 0.02 0.04 0.04 0.05 0.05 0.07 0.09 0.11 0.12 0.08 0.10 0.10 0.04 0.02 0.03 0.06 0.08 0.07 0.10 0.13 0.17 0.23 0.31 0.26 0.29 0.42 0.35 0.25 0.36 0.86 1.59 2.17 2.35 1.97 1.23 0.68
0.00 0.00 0.00 0.00 0.00 0.01 0.01 0.02 0.04 0.04 0.03 0.05 0.06 0.07 0.09 0.09 0.09 0.11 0.13 0.07 0.03 0.01 0.01 0.04 0.06 0.08 0.12 0.15 0.20 0.26 0.20 0.23 0.29 0.31 0.20 0.16 0.39 0.90 1.62 2.32 2.45 1.87 1.11
0.00 0.00 0.00 0.00 0.00 0.01 0.01 0.03 0.04 0.03 0.04 0.05 0.05 0.07 0.10 0.08 0.09 0.13 0.16 0.16 0.12 0.04 0.02 0.02 0.03 0.06 0.10 0.15 0.15 0.16 0.13 0.17 0.22 0.26 0.23 0.14 0.16 0.39 0.89 1.69 2.67 2.81 2.01
0.00 0.00 0.00 0.00 0.00 0.01 0.02 0.04 0.04 0.04 0.06 0.07 0.09 0.11 0.14 0.11 0.12 0.13 0.14 0.18 0.24 0.16 0.05 0.02 0.03 0.07 0.12 0.14 0.16 0.15 0.13 0.14 0.16 0.19 0.21 0.19 0.15 0.20 0.37 0.84 1.66 2.77 3.13
0.00 0.00 0.00 0.00 0.01 0.02 0.03 0.05 0.06 0.07 0.11 0.12 0.14 0.17 0.18 0.17 0.16 0.15 0.17 0.17 0.22 0.25 0.14 0.03 0.03 0.07 0.17 0.19 0.17 0.15 0.15 0.16 0.15 0.15 0.17 0.17 0.17 0.18 0.25 0.44 0.86 1.54 2.47
0.00 0.00 0.00 0.01 0.02 0.04 0.06 0.08 0.08 0.10 0.13 0.15 0.18 0.21 0.22 0.23 0.24 0.20 0.21 0.22 0.21 0.23 0.19 0.06 0.03 0.05 0.15 0.21 0.20 0.15 0.15 0.16 0.15 0.16 0.17 0.17 0.17 0.20 0.27 0.36 0.52 0.82 1.33
0.00 0.00 0.00 0.02 0.06 0.09 0.10 0.12 0.12 0.12 0.16 0.18 0.19 0.23 0.24 0.23 0.22 0.20 0.21 0.22 0.20 0.18 0.19 0.11 0.04 0.05 0.10 0.18 0.26 0.26 0.21 0.19 0.18 0.18 0.18 0.19 0.22 0.21 0.23 0.30 0.43 0.60 0.83
0.00 0.00 0.00 0.04 0.12 0.19 0.18 0.14 0.18 0.19 0.18 0.19 0.20 0.23 0.23 0.22 0.21 0.20 0.23 0.22 0.17 0.16 0.18 0.16 0.07 0.05 0.09 0.12 0.23 0.34 0.29 0.25 0.23 0.21 0.20 0.20 0.23 0.26 0.23 0.22 0.28 0.42 0.55
0.00 0.00 0.00 0.02 0.13 0.32 0.34 0.25 0.29 0.26 0.20 0.16 0.13 0.12 0.19 0.30 0.29 0.27 0.26 0.19 0.16 0.15 0.16 0.17 0.11 0.08 0.10 0.13 0.20 0.31 0.37 0.36 0.30 0.25 0.24 0.22 0.24 0.30 0.28 0.20 0.14 0.20 0.35
0.00 0.00 0.00 0.01 0.06 0.41 0.77 0.68 0.55 0.33 0.15 0.07 0.04 0.06 0.16 0.28 0.30 0.36 0.37 0.27 0.19 0.17 0.17 0.18 0.17 0.16 0.17 0.20 0.23 0.26 0.37 0.45 0.41 0.35 0.29 0.23 0.23 0.22 0.24 0.22 0.18 0.16 0.21
0.00 0.00 0.00 0.00 0.02 0.29 0.82 0.84 0.50 0.17 0.07 0.05 0.05 0.05 0.09 0.20 0.21 0.22 0.27 0.28 0.29 0.31 0.27 0.22 0.24 0.26 0.27 0.28 0.26 0.29 0.34 0.43 0.48 0.46 0.39 0.29 0.26 0.27 0.23 0.21 0.21 0.17 0.17
0.00 0.00 0.00 0.00 0.00 0.15 0.65 0.72 0.30 0.07 0.06 0.07 0.06 0.05 0.07 0.15 0.20 0.22 0.17 0.16 0.18 0.26 0.35 0.32 0.34 0.34 0.32 0.29 0.28 0.31 0.32 0.36 0.45 0.58 0.57 0.45 0.34 0.30 0.28 0.31 0.31 0.22 0.18
0.00 0.00 0.00 0.00 0.00 0.07 0.50 0.59 0.20 0.05 0.06 0.05 0.04 0.05 0.05 0.09 0.20 0.22 0.11 0.13 0.18 0.27 0.39 0.42 0.50 0.49 0.38 0.31 0.29 0.35 0.38 0.33 0.35 0.52 0.63 0.60 0.50 0.37 0.38 0.40 0.38 0.28 0.21
0.00 0.00 0.00 0.00 0.00 0.02 0.29 0.48 0.18 0.04 0.03 0.04 0.02 0.03 0.04 0.07 0.14 0.12 0.03 0.07 0.11 0.17 0.23 0.31 0.35 0.40 0.38 0.38 0.41 0.44 0.51 0.44 0.42 0.52 0.61 0.69 0.72 0.56 0.57 0.63 0.53 0.37 0.26
0.00 0.00 0.00 0.00 0.00 0.00 0.12 0.32 0.22 0.06 0.02 0.02 0.01 0.01 0.04 0.10 0.09 0.08 0.02 0.04 0.12 0.11 0.13 0.15 0.18 0.25 0.32 0.38 0.47 0.61 0.78 0.67 0.53 0.60 0.68 0.71 0.84 0.70 0.71 0.82 0.70 0.46 0.31

GEFSMA_prec_meanprecacc_030.txt.gz
Total_Precipitation_Accumulation
0.00 0.00 0.00 0.00 0.00 0.00 0.00 0.00 0.01 0.03 0.07 0.12 0.14 0.12 0.12 0.11 0.12 0.14 0.12 0.12 0.10 0.08 0.09 0.12 0.21 0.35 0.50 0.66 0.86 0.95 0.76 0.62 0.47 0.36 0.36 0.45 0.54 0.58 0.58 0.55 0.53 0.43 0.29
0.00 0.00 0.00 0.00 0.00 0.00 0.00 0.00 0.00 0.00 0.00 0.01 0.02 0.05 0.09 0.12 0.15 0.16 0.14 0.13 0.12 0.09 0.09 0.10 0.14 0.25 0.41 0.59 0.81 1.10 1.02 0.88 0.71 0.52 0.36 0.36 0.43 0.48 0.50 0.53 0.52 0.51 0.42
0.00 0.00 0.00 0.00 0.00 0.00 0.00 0.00 0.00 0.00 0.00 0.00 0.00 0.00 0.01 0.03 0.07 0.12 0.12 0.14 0.16 0.13 0.11 0.12 0.13 0.15 0.24 0.44 0.69 0.99 1.29 1.19 1.01 0.83 0.59 0.37 0.35 0.40 0.44 0.49 0.51 0.50 0.48
0.00 0.00 0.00 0.00 0.00 0.00 0.00 0.00 0.00 0.00 0.00 0.00 0.00 0.00 0.00 0.00 0.00 0.02 0.04 0.09 0.14 0.17 0.15 0.15 0.15 0.14 0.15 0.24 0.45 0.75 1.23 1.35 1.33 1.17 0.99 0.67 0.42 0.36 0.39 0.43 0.50 0.50 0.47
0.00 0.00 0.00 0.00 0.00 0.00 0.00 0.00 0.00 0.00 0.00 0.00 0.00 0.00 0.00 0.00 0.00 0.00 0.00 0.02 0.05 0.11 0.15 0.16 0.16 0.15 0.13 0.14 0.23 0.44 0.83 1.23 1.39 1.36 1.27 1.06 0.71 0.43 0.38 0.40 0.44 0.48 0.47
0.00 0.00 0.00 0.00 0.00 0.00 0.00 0.00 0.00 0.00 0.00 0.00 0.00 0.00 0.00 0.00 0.00 0.00 0.00 0.00 0.01 0.05 0.09 0.12 0.14 0.14 0.13 0.11 0.12 0.21 0.45 0.85 1.26 1.34 1.29 1.27 1.10 0.69 0.44 0.39 0.42 0.47 0.47
0.00 0.00 0.00 0.00 0.00 0.01 0.00 0.00 0.00 0.00 0.01 0.00 0.00 0.00 0.00 0.00 0.00 0.00 0.00 0.00 0.00 0.02 0.06 0.10 0.12 0.13 0.14 0.14 0.11 0.10 0.22 0.49 0.92 1.41 1.41 1.32 1.36 1.13 0.70 0.50 0.46 0.48 0.50
0.00 0.00 0.00 0.01 0.01 0.01 0.00 0.00 0.01 0.02 0.02 0.01 0.03 0.05 0.03 0.00 0.00 0.00 0.00 0.00 0.00 0.00 0.02 0.06 0.11 0.13 0.12 0.13 0.10 0.09 0.10 0.21 0.51 1.05 1.61 1.59 1.51 1.54 1.16 0.74 0.58 0.54 0.57
0.00 0.00 0.00 0.01 0.02 0.01 0.01 0.01 0.02 0.03 0.04 0.02 0.03 0.12 0.18 0.12 0.03 0.00 0.00 0.00 0.00 0.00 0.00 0.02 0.06 0.11 0.13 0.14 0.13 0.11 0.10 0.11 0.21 0.54 1.18 1.78 1.81 1.81 1.67 1.08 0.74 0.62 0.60
0.00 0.00 0.01 0.01 0.01 0.01 0.01 0.02 0.02 0.04 0.07 0.08 0.04 0.06 0.12 0.15 0.17 0.08 0.02 0.03 0.03 0.03 0.02 0.01 0.02 0.06 0.12 0.16 0.18 0.18 0.17 0.14 0.14 0.26 0.65 1.33 1.92 2.01 2.01 1.60 1.00 0.73 0.66
0.00 0.00 0.01 0.01 0.01 0.01 0.01 0.02 0.03 0.04 0.08 0.10 0.11 0.10 0.07 0.06 0.10 0.16 0.07 0.04 0.07 0.08 0.07 0.04 0.05 0.07 0.10 0.17 0.20 0.21 0.24 0.23 0.27 0.27 0.39 0.76 1.56 2.12 2.34 2.20 1.57 0.94 0.74
0.00 0.00 0.00 0.00 0.01 0.01 0.02 0.03 0.04 0.05 0.06 0.07 0.10 0.12 0.15 0.16 0.12 0.14 0.13 0.04 0.03 0.04 0.06 0.08 0.07 0.10 0.13 0.17 0.23 0.31 0.26 0.29 0.42 0.36 0.27 0.39 0.90 1.64 2.25 2.49 2.17 1.46 0.93
0.00 0.00 0.00 0.00 0.00 0.01 0.01 0.03 0.04 0.05 0.04 0.07 0.09 0.11 0.13 0.14 0.14 0.17 0.18 0.10 0.05 0.02 0.01 0.04 0.06 0.08 0.12 0.15 0.20 0.26 0.20 0.23 0.30 0.32 0.21 0.18 0.41 0.92 1.65 2.39 2.60 2.08 1.37
0.00 0.00 0.00 0.00 0.00 0.01 0.01 0.03 0.04 0.04 0.05 0.07 0.08 0.11 0.16 0.13 0.16 0.22 0.26 0.26 0.19 0.06 0.02 0.02 0.04 0.06 0.10 0.15 0.15 0.16 0.13 0.17 0.22 0.26 0.23 0.15 0.18 0.40 0.91 1.73 2.76 3.02 2.29
0.00 0.00 0.00 0.00 0.00 0.01 0.02 0.04 0.05 0.05 0.07 0.09 0.12 0.15 0.19 0.17 0.19 0.22 0.25 0.33 0.41 0.27 0.08 0.02 0.04 0.07 0.13 0.14 0.16 0.15 0.13 0.14 0.16 0.19 0.22 0.21 0.17 0.21 0.39 0.86 1.72 2.91 3.45
0.00 0.00 0.00 0.00 0.01 0.02 0.03 0.05 0.06 0.08 0.11 0.13 0.16 0.20 0.21 0.21 0.21 0.22 0.26 0.29 0.36 0.40 0.22 0.04 0.03 0.07 0.18 0.19 0.17 0.15 0.15 0.16 0.15 0.15 0.17 0.19 0.19 0.20 0.27 0.46 0.90 1.65 2.76
0.00 0.00 0.00 0.01 0.02 0.04 0.06 0.08 0.08 0.10 0.13 0.15 0.18 0.22 0.23 0.25 0.27 0.24 0.27 0.28 0.29 0.31 0.25 0.08 0.03 0.05 0.15 0.21 0.20 0.15 0.15 0.16 0.15 0.16 0.17 0.18 0.19 0.22 0.29 0.38 0.55 0.92 1.56
0.00 0.00 0.00 0.02 0.06 0.09 0.10 0.12 0.13 0.12 0.16 0.18 0.19 0.23 0.25 0.23 0.23 0.22 0.24 0.25 0.23 0.21 0.21 0.12 0.05 0.05 0.10 0.18 0.26 0.27 0.21 0.19 0.18 0.18 0.19 0.21 0.24 0.24 0.26 0.33 0.46 0.66 1.01
0.00 0.00 0.00 0.04 0.12 0.19 0.18 0.15 0.18 0.19 0.18 0.19 0.20 0.23 0.23 0.22 0.22 0.21 0.25 0.24 0.19 0.17 0.19 0.17 0.08 0.06 0.10 0.13 0.24 0.34 0.30 0.26 0.23 0.21 0.21 0.21 0.26 0.29 0.26 0.25 0.32 0.47 0.66
0.00 0.00 0.00 0.02 0.13 0.32 0.35 0.27 0.31 0.27 0.20 0.17 0.13 0.13 0.20 0.30 0.30 0.29 0.29 0.23 0.18 0.16 0.17 0.18 0.12 0.09 0.11 0.14 0.21 0.32 0.38 0.37 0.31 0.26 0.25 0.23 0.26 0.33 0.32 0.23 0.19 0.25 0.43
0.00 0.00 0.00 0.01 0.06 0.41 0.78 0.72 0.62 0.37 0.18 0.09 0.06 0.06 0.16 0.29 0.31 0.40 0.44 0.33 0.23 0.20 0.19 0.20 0.18 0.17 0.18 0.21 0.24 0.27 0.39 0.45 0.42 0.36 0.30 0.25 0.26 0.25 0.27 0.26 0.23 0.23 0.27
0.00 0.00 0.00 0.00 0.02 0.29 0.82 0.89 0.59 0.24 0.11 0.08 0.07 0.06 0.09 0.20 0.22 0.25 0.32 0.34 0.34 0.34 0.31 0.26 0.27 0.28 0.28 0.29 0.28 0.31 0.36 0.45 0.50 0.48 0.41 0.31 0.30 0.32 0.28 0.26 0.27 0.24 0.25
0.00 0.00 0.00 0.00 0.00 0.15 0.65 0.75 0.39 0.15 0.09 0.10 0.07 0.06 0.07 0.16 0.20 0.26 0.23 0.19 0.19 0.29 0.40 0.38 0.37 0.36 0.34 0.31 0.30 0.33 0.34 0.39 0.48 0.61 0.59 0.47 0.39 0.38 0.36 0.40 0.43 0.32 0.27
0.00 0.00 0.00 0.00 0.00 0.07 0.50 0.62 0.29 0.12 0.09 0.08 0.05 0.05 0.05 0.10 0.22 0.31 0.16 0.14 0.19 0.28 0.42 0.45 0.54 0.52 0.40 0.33 0.32 0.37 0.40 0.35 0.37 0.55 0.66 0.64 0.56 0.46 0.50 0.53 0.53 0.41 0.32
0.00 0.00 0.00 0.00 0.00 0.02 0.29 0.52 0.28 0.11 0.07 0.05 0.02 0.03 0.04 0.08 0.18 0.18 0.06 0.08 0.12 0.18 0.25 0.33 0.38 0.43 0.41 0.41 0.45 0.48 0.53 0.46 0.46 0.60 0.70 0.76 0.80 0.68 0.73 0.80 0.73 0.56 0.40
0.00 0.00 0.00 0.00 0.00 0.00 0.13 0.36 0.32 0.13 0.04 0.02 0.02 0.01 0.05 0.12 0.13 0.12 0.05 0.06 0.17 0.16 0.14 0.16 0.19 0.26 0.33 0.39 0.49 0.64 0.80 0.70 0.59 0.73 0.82 0.79 0.96 0.85 0.91 1.03 0.91 0.66 0.46

GEFSMA_prec_meanprecacc_036.txt.gz
Total_Precipitation_Accumulation
0.00 0.00 0.00 0.00 0.00 0.00 0.00 0.00 0.01 0.03 0.07 0.12 0.14 0.12 0.12 0.11 0.12 0.14 0.12 0.12 0.10 0.08 0.09 0.14 0.23 0.38 0.54 0.69 0.89 0.97 0.77 0.63 0.48 0.37 0.37 0.47 0.55 0.60 0.62 0.64 0.68 0.60 0.44
0.00 0.00 0.00 0.00 0.00 0.00 0.00 0.00 0.00 0.00 0.00 0.01 0.02 0.05 0.09 0.12 0.15 0.16 0.14 0.13 0.12 0.09 0.09 0.11 0.16 0.27 0.44 0.63 0.84 1.13 1.05 0.90 0.72 0.53 0.37 0.37 0.44 0.50 0.53 0.58 0.63 0.68 0.60
0.00 0.00 0.00 0.00 0.00 0.00 0.00 0.00 0.00 0.00 0.00 0.00 0.00 0.00 0.01 0.03 0.07 0.12 0.12 0.14 0.16 0.13 0.11 0.12 0.13 0.17 0.27 0.48 0.73 1.03 1.32 1.21 1.03 0.85 0.60 0.38 0.36 0.42 0.46 0.54 0.60 0.65 0.67
0.00 0.00 0.00 0.00 0.00 0.00 0.00 0.00 0.00 0.00 0.00 0.00 0.00 0.00 0.00 0.00 0.00 0.02 0.04 0.09 0.14 0.17 0.15 0.15 0.15 0.15 0.18 0.28 0.50 0.80 1.28 1.39 1.36 1.20 1.01 0.68 0.43 0.38 0.41 0.47 0.56 0.63 0.67
0.00 0.00 0.00 0.00 0.00 0.00 0.00 0.00 0.00 0.00 0.00 0.00 0.00 0.00 0.00 0.00 0.00 0.00 0.00 0.02 0.05 0.11 0.15 0.16 0.16 0.16 0.15 0.17 0.27 0.50 0.88 1.28 1.43 1.39 1.29 1.08 0.72 0.44 0.40 0.43 0.49 0.60 0.67
0.00 0.00 0.00 0.00 0.00 0.00 0.00 0.00 0.00 0.00 0.00 0.00 0.00 0.00 0.00 0.00 0.00 0.00 0.00 0.00 0.01 0.05 0.09 0.12 0.14 0.15 0.14 0.14 0.16 0.26 0.52 0.92 1.32 1.39 1.31 1.28 1.11 0.70 0.46 0.42 0.45 0.56 0.64
0.00 0.00 0.00 0.00 0.00 0.01 0.00 0.00 0.00 0.00 0.01 0.00 0.00 0.00 0.00 0.00 0.00 0.00 0.00 0.00 0.00 0.02 0.06 0.10 0.13 0.14 0.14 0.15 0.13 0.13 0.27 0.56 0.99 1.47 1.45 1.34 1.37 1.14 0.71 0.52 0.49 0.54 0.64
0.00 0.00 0.00 0.01 0.01 0.01 0.00 0.00 0.01 0.02 0.02 0.01 0.03 0.06 0.04 0.01 0.00 0.00 0.00 0.00 0.00 0.00 0.02 0.06 0.12 0.13 0.12 0.14 0.10 0.09 0.10 0.23 0.55 1.10 1.66 1.63 1.53 1.55 1.18 0.76 0.61 0.58 0.67
0.00 0.00 0.00 0.01 0.02 0.01 0.01 0.01 0.02 0.03 0.04 0.02 0.03 0.14 0.23 0.15 0.04 0.00 0.00 0.00 0.00 0.00 0.00 0.02 0.06 0.11 0.13 0.14 0.13 0.11 0.10 0.11 0.22 0.55 1.21 1.82 1.84 1.83 1.69 1.10 0.77 0.66 0.67
0.00 0.00 0.01 0.01 0.01 0.01 0.01 0.02 0.02 0.04 0.07 0.08 0.04 0.06 0.13 0.19 0.23 0.11 0.02 0.03 0.03 0.03 0.02 0.01 0.02 0.06 0.12 0.16 0.18 0.18 0.17 0.14 0.14 0.27 0.66 1.36 1.96 2.05 2.04 1.64 1.04 0.78 0.72
0.00 0.00 0.01 0.01 0.01 0.01 0.01 0.02 0.03 0.04 0.08 0.11 0.11 0.10 0.08 0.07 0.12 0.21 0.10 0.04 0.07 0.08 0.07 0.05 0.06 0.08 0.11 0.18 0.20 0.21 0.24 0.23 0.28 0.28 0.41 0.79 1.60 2.17 2.39 2.26 1.63 1.01 0.80
0.00 0.00 0.00 0.00 0.01 0.01 0.02 0.03 0.04 0.05 0.06 0.07 0.10 0.12 0.16 0.18 0.13 0.18 0.17 0.06 0.03 0.04 0.06 0.08 0.08 0.11 0.14 0.18 0.24 0.32 0.29 0.32 0.45 0.39 0.30 0.42 0.93 1.68 2.29 2.55 2.24 1.52 1.00
0.00 0.00 0.00 0.00 0.00 0.01 0.01 0.03 0.04 0.05 0.04 0.07 0.09 0.11 0.13 0.15 0.15 0.19 0.23 0.13 0.06 0.02 0.01 0.04 0.07 0.09 0.14 0.17 0.22 0.27 0.24 0.27 0.34 0.36 0.25 0.21 0.43 0.93 1.66 2.41 2.63 2.12 1.42
0.00 0.00 0.00 0.00 0.00 0.01 0.01 0.03 0.04 0.04 0.05 0.07 0.08 0.11 0.16 0.13 0.16 0.23 0.29 0.32 0.24 0.07 0.02 0.03 0.04 0.07 0.11 0.16 0.15 0.18 0.15 0.18 0.24 0.28 0.25 0.17 0.19 0.41 0.92 1.74 2.78 3.04 2.32
0.00 0.00 0.00 0.00 0.00 0.01 0.02 0.04 0.05 0.05 0.07 0.09 0.12 0.15 0.19 0.17 0.19 0.22 0.26 0.37 0.50 0.35 0.10 0.03 0.04 0.07 0.13 0.14 0.16 0.15 0.13 0.14 0.17 0.20 0.23 0.22 0.18 0.22 0.39 0.87 1.73 2.93 3.47
0.00 0.00 0.00 0.00 0.01 0.02 0.03 0.05 0.06 0.08 0.11 0.13 0.16 0.20 0.21 0.21 0.21 0.22 0.26 0.29 0.40 0.49 0.29 0.05 0.04 0.08 0.18 0.19 0.17 0.15 0.15 0.16 0.15 0.16 0.18 0.19 0.20 0.21 0.28 0.47 0.91 1.66 2.77
0.00 0.00 0.00 0.01 0.02 0.04 0.06 0.08 0.08 0.10 0.13 0.15 0.18 0.22 0.23 0.25 0.27 0.24 0.27 0.29 0.29 0.34 0.30 0.09 0.03 0.05 0.15 0.21 0.20 0.15 0.15 0.16 0.15 0.16 0.17 0.19 0.20 0.23 0.29 0.38 0.56 0.92 1.57
0.00 0.00 0.00 0.02 0.06 0.09 0.10 0.12 0.13 0.12 0.16 0.18 0.19 0.24 0.25 0.24 0.24 0.22 0.24 0.25 0.23 0.22 0.24 0.14 0.05 0.05 0.10 0.18 0.26 0.27 0.21 0.19 0.18 0.18 0.19 0.21 0.25 0.25 0.26 0.33 0.46 0.67 1.02
0.00 0.00 0.00 0.04 0.12 0.19 0.18 0.15 0.18 0.19 0.19 0.20 0.22 0.25 0.25 0.24 0.23 0.21 0.25 0.25 0.20 0.18 0.21 0.20 0.09 0.06 0.10 0.13 0.24 0.34 0.30 0.26 0.23 0.21 0.21 0.22 0.26 0.30 0.27 0.26 0.33 0.48 0.67
0.00 0.00 0.00 0.02 0.13 0.32 0.35 0.27 0.31 0.29 0.23 0.20 0.16 0.15 0.22 0.32 0.31 0.29 0.31 0.25 0.21 0.20 0.21 0.20 0.13 0.09 0.11 0.14 0.21 0.32 0.38 0.37 0.31 0.26 0.25 0.24 0.27 0.34 0.33 0.24 0.20 0.26 0.44
0.00 0.00 0.00 0.01 0.06 0.41 0.78 0.73 0.66 0.48 0.27 0.15 0.09 0.09 0.17 0.30 0.33 0.43 0.47 0.37 0.30 0.28 0.23 0.21 0.19 0.17 0.18 0.21 0.24 0.27 0.39 0.46 0.42 0.36 0.31 0.25 0.26 0.26 0.28 0.27 0.24 0.24 0.28
0.00 0.00 0.00 0.00 0.02 0.29 0.82 0.90 0.66 0.35 0.20 0.13 0.09 0.07 0.10 0.21 0.23 0.26 0.35 0.40 0.41 0.39 0.34 0.29 0.29 0.29 0.29 0.29 0.28 0.31 0.36 0.46 0.50 0.48 0.41 0.31 0.31 0.33 0.29 0.27 0.28 0.25 0.26
0.00 0.00 0.00 0.00 0.00 0.15 0.65 0.77 0.46 0.23 0.14 0.11 0.08 0.06 0.07 0.16 0.21 0.27 0.28 0.24 0.21 0.30 0.42 0.42 0.41 0.36 0.34 0.31 0.31 0.34 0.35 0.40 0.48 0.61 0.60 0.48 0.39 0.38 0.37 0.42 0.45 0.34 0.29
0.00 0.00 0.00 0.00 0.00 0.07 0.50 0.64 0.35 0.18 0.11 0.08 0.05 0.05 0.05 0.10 0.22 0.37 0.28 0.18 0.19 0.29 0.43 0.47 0.57 0.55 0.43 0.36 0.36 0.41 0.43 0.36 0.37 0.56 0.69 0.65 0.56 0.47 0.52 0.56 0.56 0.44 0.34
0.00 0.00 0.00 0.00 0.00 0.02 0.29 0.53 0.33 0.15 0.08 0.05 0.02 0.03 0.05 0.08 0.19 0.26 0.13 0.10 0.13 0.19 0.26 0.34 0.40 0.46 0.44 0.45 0.49 0.54 0.57 0.48 0.47 0.61 0.74 0.80 0.82 0.71 0.76 0.83 0.76 0.60 0.43
0.00 0.00 0.00 0.00 0.00 0.00 0.13 0.37 0.37 0.18 0.06 0.03 0.02 0.01 0.05 0.13 0.17 0.18 0.08 0.07 0.21 0.22 0.16 0.16 0.19 0.27 0.33 0.39 0.50 0.66 0.82 0.72 0.61 0.75 0.85 0.83 0.99 0.90 0.97 1.08 0.95 0.71 0.51

GEFSMA_prec_meanprecacc_042.txt.gz
Total_Precipitation_Accumulation
0.00 0.00 0.00 0.00 0.00 0.00 0.00 0.00 0.01 0.03 0.07 0.12 0.14 0.12 0.12 0.11 0.12 0.14 0.12 0.12 0.10 0.08 0.09 0.15 0.25 0.42 0.58 0.74 0.96 1.04 0.84 0.69 0.54 0.42 0.41 0.49 0.57 0.61 0.63 0.65 0.70 0.65 0.51
0.00 0.00 0.00 0.00 0.00 0.00 0.00 0.00 0.00 0.00 0.00 0.01 0.02 0.05 0.09 0.12 0.15 0.16 0.14 0.13 0.12 0.09 0.09 0.11 0.17 0.30 0.49 0.69 0.91 1.21 1.13 0.98 0.80 0.59 0.42 0.41 0.47 0.52 0.55 0.60 0.65 0.72 0.66
0.00 0.00 0.00 0.00 0.00 0.00 0.00 0.00 0.00 0.00 0.00 0.00 0.00 0.00 0.01 0.03 0.07 0.12 0.12 0.14 0.16 0.13 0.11 0.12 0.14 0.19 0.32 0.55 0.81 1.11 1.40 1.29 1.11 0.92 0.67 0.43 0.40 0.45 0.49 0.56 0.62 0.69 0.73
0.00 0.00 0.00 0.00 0.00 0.00 0.00 0.00 0.00 0.00 0.00 0.00 0.00 0.00 0.00 0.00 0.00 0.02 0.04 0.09 0.14 0.17 0.15 0.15 0.16 0.17 0.21 0.33 0.57 0.88 1.36 1.47 1.44 1.28 1.09 0.75 0.49 0.42 0.44 0.49 0.59 0.67 0.72
0.00 0.00 0.00 0.00 0.00 0.00 0.00 0.00 0.00 0.00 0.00 0.00 0.00 0.00 0.00 0.00 0.00 0.00 0.00 0.02 0.05 0.11 0.15 0.16 0.16 0.16 0.16 0.20 0.33 0.57 0.97 1.38 1.53 1.49 1.38 1.17 0.80 0.50 0.44 0.46 0.52 0.63 0.72
0.00 0.00 0.00 0.00 0.00 0.00 0.00 0.00 0.00 0.00 0.00 0.00 0.00 0.00 0.00 0.00 0.00 0.00 0.00 0.00 0.01 0.05 0.09 0.12 0.14 0.15 0.15 0.15 0.20 0.34 0.62 1.04 1.45 1.53 1.45 1.40 1.21 0.78 0.52 0.46 0.49 0.59 0.69
0.00 0.00 0.00 0.00 0.00 0.01 0.00 0.00 0.00 0.00 0.01 0.00 0.00 0.00 0.00 0.00 0.00 0.00 0.00 0.00 0.00 0.02 0.06 0.10 0.13 0.14 0.14 0.15 0.15 0.18 0.34 0.67 1.14 1.64 1.63 1.51 1.52 1.26 0.80 0.57 0.53 0.57 0.68
0.00 0.00 0.00 0.01 0.01 0.01 0.00 0.00 0.01 0.02 0.02 0.01 0.03 0.06 0.04 0.01 0.00 0.00 0.00 0.00 0.00 0.00 0.02 0.06 0.12 0.13 0.12 0.14 0.11 0.12 0.16 0.31 0.66 1.26 1.86 1.84 1.73 1.72 1.30 0.85 0.66 0.62 0.71
0.00 0.00 0.00 0.01 0.02 0.01 0.01 0.01 0.02 0.03 0.04 0.02 0.03 0.14 0.23 0.15 0.04 0.00 0.00 0.00 0.00 0.00 0.00 0.02 0.06 0.11 0.14 0.15 0.14 0.12 0.13 0.17 0.30 0.67 1.38 2.03 2.06 2.03 1.85 1.22 0.85 0.71 0.72
0.00 0.00 0.01 0.01 0.01 0.01 0.01 0.02 0.02 0.04 0.07 0.08 0.04 0.06 0.14 0.19 0.24 0.12 0.02 0.03 0.03 0.03 0.02 0.02 0.03 0.07 0.13 0.18 0.21 0.21 0.21 0.22 0.24 0.38 0.80 1.55 2.17 2.27 2.24 1.80 1.14 0.84 0.77
0.00 0.00 0.01 0.01 0.01 0.01 0.01 0.02 0.03 0.04 0.08 0.11 0.11 0.10 0.08 0.07 0.12 0.22 0.10 0.04 0.07 0.08 0.07 0.05 0.06 0.09 0.12 0.20 0.23 0.23 0.30 0.33 0.40 0.40 0.55 0.94 1.78 2.39 2.62 2.47 1.79 1.11 0.87
0.00 0.00 0.00 0.00 0.01 0.01 0.02 0.03 0.04 0.05 0.06 0.07 0.10 0.12 0.16 0.18 0.13 0.18 0.18 0.06 0.03 0.04 0.06 0.08 0.08 0.12 0.15 0.20 0.26 0.35 0.34 0.41 0.56 0.50 0.41 0.54 1.06 1.84 2.50 2.78 2.44 1.66 1.10
0.00 0.00 0.00 0.00 0.00 0.01 0.01 0.03 0.04 0.05 0.04 0.07 0.09 0.11 0.13 0.15 0.15 0.19 0.24 0.14 0.06 0.02 0.01 0.04 0.07 0.10 0.15 0.18 0.22 0.28 0.27 0.32 0.40 0.43 0.33 0.30 0.53 1.04 1.79 2.57 2.81 2.28 1.54
0.00 0.00 0.00 0.00 0.00 0.01 0.01 0.03 0.04 0.04 0.05 0.07 0.08 0.11 0.16 0.13 0.16 0.23 0.30 0.34 0.27 0.08 0.02 0.03 0.04 0.07 0.11 0.16 0.16 0.18 0.16 0.19 0.25 0.32 0.32 0.25 0.27 0.49 0.99 1.82 2.89 3.15 2.42
0.00 0.00 0.00 0.00 0.00 0.01 0.02 0.04 0.05 0.05 0.07 0.09 0.12 0.15 0.19 0.17 0.19 0.22 0.27 0.40 0.56 0.40 0.11 0.03 0.04 0.07 0.13 0.14 0.16 0.15 0.13 0.14 0.18 0.23 0.27 0.27 0.24 0.28 0.45 0.91 1.77 2.98 3.52
0.00 0.00 0.00 0.00 0.01 0.02 0.03 0.05 0.06 0.08 0.11 0.13 0.16 0.20 0.21 0.21 0.22 0.23 0.28 0.32 0.44 0.54 0.32 0.05 0.04 0.08 0.18 0.19 0.17 0.15 0.15 0.16 0.16 0.17 0.19 0.21 0.23 0.24 0.31 0.49 0.93 1.68 2.79
0.00 0.00 0.00 0.01 0.03 0.04 0.06 0.08 0.08 0.10 0.13 0.15 0.18 0.22 0.23 0.25 0.29 0.26 0.29 0.32 0.32 0.37 0.34 0.09 0.03 0.05 0.15 0.21 0.20 0.15 0.15 0.16 0.15 0.16 0.18 0.19 0.21 0.25 0.31 0.40 0.57 0.94 1.58
0.00 0.00 0.00 0.03 0.06 0.09 0.10 0.12 0.13 0.12 0.16 0.18 0.20 0.24 0.26 0.25 0.26 0.24 0.26 0.27 0.24 0.23 0.27 0.16 0.05 0.05 0.10 0.18 0.26 0.27 0.21 0.19 0.18 0.18 0.19 0.22 0.25 0.26 0.27 0.35 0.47 0.68 1.03
0.00 0.00 0.01 0.04 0.12 0.19 0.18 0.15 0.18 0.19 0.19 0.20 0.22 0.26 0.26 0.25 0.25 0.22 0.26 0.26 0.21 0.18 0.22 0.22 0.10 0.06 0.10 0.13 0.24 0.34 0.30 0.26 0.23 0.21 0.21 0.22 0.27 0.31 0.28 0.27 0.34 0.49 0.68
0.01 0.01 0.01 0.03 0.14 0.32 0.35 0.27 0.31 0.29 0.24 0.20 0.17 0.17 0.23 0.33 0.32 0.30 0.32 0.26 0.22 0.22 0.24 0.24 0.16 0.10 0.12 0.14 0.22 0.32 0.38 0.37 0.31 0.26 0.25 0.24 0.27 0.35 0.33 0.25 0.20 0.26 0.44
0.01 0.01 0.01 0.01 0.07 0.41 0.78 0.73 0.66 0.49 0.28 0.17 0.11 0.10 0.18 0.31 0.35 0.46 0.53 0.42 0.36 0.36 0.31 0.28 0.24 0.20 0.19 0.22 0.25 0.28 0.39 0.46 0.42 0.36 0.31 0.25 0.26 0.26 0.28 0.27 0.24 0.24 0.29
0.01 0.01 0.01 0.01 0.03 0.29 0.82 0.90 0.67 0.36 0.22 0.15 0.11 0.07 0.10 0.21 0.23 0.27 0.36 0.42 0.46 0.49 0.46 0.40 0.36 0.33 0.30 0.30 0.28 0.32 0.37 0.47 0.51 0.48 0.41 0.31 0.31 0.33 0.29 0.27 0.28 0.25 0.26
0.01 0.01 0.01 0.01 0.01 0.16 0.66 0.77 0.46 0.24 0.15 0.12 0.09 0.07 0.07 0.16 0.21 0.27 0.29 0.26 0.25 0.33 0.47 0.48 0.47 0.39 0.35 0.32 0.32 0.35 0.36 0.41 0.49 0.61 0.61 0.48 0.39 0.38 0.37 0.42 0.45 0.34 0.29
0.02 0.02 0.01 0.01 0.01 0.07 0.50 0.64 0.35 0.18 0.11 0.08 0.05 0.05 0.05 0.10 0.22 0.38 0.37 0.29 0.24 0.30 0.44 0.50 0.62 0.60 0.47 0.41 0.44 0.48 0.47 0.39 0.38 0.56 0.70 0.67 0.56 0.47 0.52 0.56 0.56 0.44 0.35
0.02 0.02 0.01 0.01 0.01 0.02 0.30 0.53 0.33 0.16 0.08 0.05 0.02 0.03 0.05 0.08 0.20 0.32 0.25 0.17 0.14 0.20 0.27 0.36 0.44 0.51 0.50 0.51 0.58 0.64 0.63 0.51 0.48 0.61 0.74 0.81 0.82 0.71 0.76 0.83 0.76 0.60 0.44
0.02 0.02 0.01 0.01 0.01 0.00 0.13 0.37 0.37 0.18 0.07 0.03 0.02 0.01 0.05 0.13 0.20 0.24 0.14 0.11 0.22 0.26 0.21 0.17 0.20 0.27 0.34 0.40 0.52 0.70 0.86 0.74 0.62 0.75 0.86 0.85 1.00 0.91 0.98 1.08 0.95 0.71 0.51

GEFSMA_prec_meanprecacc_048.txt.gz
Total_Precipitation_Accumulation
0.00 0.00 0.00 0.00 0.00 0.00 0.00 0.00 0.01 0.03 0.07 0.12 0.14 0.12 0.12 0.11 0.12 0.14 0.12 0.12 0.10 0.08 0.09 0.15 0.26 0.43 0.60 0.77 0.99 1.08 0.88 0.72 0.57 0.45 0.44 0.53 0.61 0.64 0.66 0.68 0.73 0.67 0.53
0.00 0.00 0.00 0.00 0.00 0.00 0.00 0.00 0.00 0.00 0.00 0.01 0.02 0.05 0.09 0.12 0.15 0.16 0.14 0.13 0.12 0.09 0.09 0.11 0.17 0.30 0.50 0.72 0.95 1.25 1.17 1.02 0.84 0.63 0.46 0.45 0.51 0.56 0.58 0.63 0.68 0.74 0.68
0.00 0.00 0.00 0.00 0.00 0.00 0.00 0.00 0.00 0.00 0.00 0.00 0.00 0.00 0.01 0.03 0.07 0.12 0.12 0.14 0.16 0.13 0.11 0.12 0.14 0.19 0.33 0.56 0.84 1.14 1.44 1.33 1.15 0.96 0.71 0.47 0.45 0.49 0.53 0.60 0.66 0.72 0.75
0.00 0.00 0.00 0.00 0.00 0.00 0.00 0.00 0.00 0.00 0.00 0.00 0.00 0.00 0.00 0.00 0.00 0.02 0.04 0.09 0.14 0.17 0.15 0.15 0.16 0.17 0.22 0.34 0.58 0.90 1.39 1.51 1.48 1.32 1.14 0.80 0.54 0.47 0.50 0.55 0.64 0.71 0.76
0.00 0.00 0.00 0.00 0.00 0.00 0.00 0.00 0.00 0.00 0.00 0.00 0.00 0.00 0.00 0.00 0.00 0.00 0.00 0.02 0.05 0.11 0.15 0.16 0.16 0.16 0.16 0.20 0.34 0.59 1.01 1.42 1.58 1.55 1.45 1.23 0.87 0.58 0.52 0.53 0.59 0.69 0.77
0.00 0.00 0.00 0.00 0.00 0.00 0.00 0.00 0.00 0.00 0.00 0.00 0.00 0.00 0.00 0.00 0.00 0.00 0.00 0.00 0.01 0.05 0.09 0.12 0.14 0.15 0.15 0.15 0.21 0.35 0.65 1.08 1.51 1.60 1.53 1.50 1.31 0.88 0.63 0.56 0.58 0.67 0.76
0.00 0.00 0.00 0.00 0.00 0.01 0.00 0.00 0.00 0.00 0.01 0.00 0.00 0.00 0.00 0.00 0.00 0.00 0.00 0.00 0.00 0.02 0.06 0.10 0.13 0.14 0.14 0.15 0.15 0.18 0.37 0.72 1.21 1.73 1.73 1.62 1.65 1.40 0.94 0.71 0.66 0.68 0.78
0.00 0.00 0.00 0.01 0.01 0.01 0.00 0.00 0.01 0.02 0.02 0.01 0.03 0.06 0.04 0.01 0.00 0.00 0.00 0.00 0.00 0.00 0.02 0.06 0.12 0.13 0.12 0.14 0.11 0.12 0.17 0.34 0.72 1.35 1.97 1.99 1.91 1.91 1.50 1.04 0.84 0.79 0.85
0.00 0.00 0.00 0.01 0.02 0.01 0.01 0.01 0.02 0.03 0.04 0.02 0.03 0.14 0.23 0.15 0.04 0.00 0.00 0.00 0.00 0.00 0.00 0.02 0.06 0.11 0.14 0.15 0.14 0.12 0.14 0.20 0.36 0.77 1.52 2.22 2.29 2.30 2.14 1.51 1.12 0.95 0.93
0.00 0.00 0.01 0.01 0.01 0.01 0.01 0.02 0.02 0.04 0.07 0.08 0.04 0.06 0.14 0.19 0.24 0.12 0.02 0.03 0.03 0.03 0.02 0.02 0.03 0.07 0.13 0.18 0.21 0.21 0.22 0.23 0.29 0.49 0.97 1.77 2.46 2.61 2.62 2.20 1.53 1.20 1.06
0.00 0.00 0.01 0.01 0.01 0.01 0.01 0.02 0.03 0.04 0.08 0.11 0.11 0.10 0.08 0.07 0.12 0.22 0.10 0.04 0.07 0.08 0.07 0.05 0.06 0.09 0.12 0.20 0.23 0.23 0.30 0.35 0.45 0.50 0.69 1.13 2.02 2.69 2.99 2.89 2.24 1.55 1.25
0.00 0.00 0.00 0.00 0.01 0.01 0.02 0.03 0.04 0.05 0.06 0.07 0.10 0.12 0.16 0.18 0.13 0.18 0.18 0.06 0.03 0.04 0.06 0.08 0.08 0.12 0.15 0.20 0.26 0.35 0.35 0.43 0.59 0.56 0.49 0.64 1.20 2.02 2.75 3.11 2.86 2.13 1.54
0.00 0.00 0.00 0.00 0.00 0.01 0.01 0.03 0.04 0.05 0.05 0.07 0.09 0.11 0.13 0.15 0.15 0.19 0.24 0.14 0.06 0.02 0.01 0.04 0.07 0.10 0.15 0.18 0.22 0.28 0.27 0.33 0.43 0.47 0.38 0.36 0.60 1.14 1.93 2.78 3.13 2.70 2.01
0.00 0.00 0.00 0.00 0.00 0.01 0.01 0.03 0.04 0.04 0.05 0.07 0.08 0.11 0.16 0.13 0.16 0.23 0.30 0.35 0.28 0.08 0.02 0.03 0.04 0.07 0.11 0.16 0.16 0.18 0.16 0.19 0.26 0.33 0.34 0.29 0.32 0.55 1.08 1.94 3.08 3.45 2.81
0.00 0.00 0.00 0.00 0.00 0.01 0.02 0.04 0.05 0.05 0.07 0.10 0.12 0.15 0.19 0.17 0.19 0.22 0.27 0.41 0.58 0.42 0.11 0.03 0.04 0.07 0.13 0.14 0.16 0.15 0.13 0.14 0.18 0.24 0.30 0.30 0.27 0.31 0.49 0.98 1.86 3.14 3.77
0.00 0.00 0.00 0.00 0.01 0.02 0.04 0.06 0.06 0.08 0.11 0.13 0.16 0.20 0.21 0.21 0.22 0.23 0.28 0.33 0.46 0.57 0.34 0.05 0.04 0.08 0.18 0.19 0.17 0.15 0.15 0.16 0.16 0.17 0.20 0.22 0.24 0.27 0.34 0.53 0.97 1.75 2.92
0.00 0.00 0.00 0.01 0.03 0.05 0.07 0.09 0.08 0.10 0.14 0.15 0.18 0.22 0.23 0.25 0.29 0.26 0.29 0.32 0.33 0.39 0.37 0.10 0.03 0.05 0.15 0.21 0.20 0.15 0.15 0.16 0.15 0.16 0.18 0.20 0.23 0.27 0.34 0.43 0.60 0.97 1.64
0.00 0.00 0.01 0.03 0.06 0.10 0.11 0.13 0.13 0.12 0.16 0.18 0.20 0.24 0.26 0.25 0.26 0.24 0.27 0.28 0.25 0.24 0.29 0.18 0.05 0.05 0.10 0.18 0.26 0.27 0.21 0.19 0.18 0.18 0.20 0.23 0.27 0.28 0.30 0.37 0.50 0.71 1.06
0.00 0.00 0.01 0.05 0.13 0.20 0.19 0.15 0.19 0.19 0.19 0.20 0.22 0.26 0.26 0.25 0.25 0.22 0.26 0.26 0.21 0.19 0.23 0.24 0.11 0.06 0.10 0.13 0.24 0.34 0.30 0.26 0.23 0.21 0.21 0.23 0.27 0.32 0.30 0.29 0.36 0.50 0.70
0.01 0.01 0.01 0.03 0.14 0.33 0.36 0.27 0.31 0.30 0.24 0.20 0.17 0.17 0.23 0.33 0.32 0.31 0.33 0.27 0.23 0.24 0.26 0.27 0.18 0.11 0.13 0.15 0.23 0.34 0.39 0.37 0.31 0.26 0.25 0.24 0.27 0.35 0.34 0.26 0.22 0.28 0.46
0.01 0.01 0.01 0.02 0.08 0.42 0.79 0.73 0.67 0.49 0.28 0.17 0.11 0.10 0.18 0.31 0.36 0.48 0.57 0.47 0.43 0.45 0.39 0.35 0.30 0.24 0.23 0.25 0.29 0.31 0.42 0.47 0.42 0.37 0.31 0.26 0.26 0.26 0.28 0.27 0.25 0.25 0.29
0.01 0.02 0.02 0.02 0.04 0.30 0.83 0.91 0.67 0.36 0.22 0.15 0.11 0.08 0.11 0.22 0.24 0.29 0.39 0.45 0.50 0.57 0.56 0.51 0.46 0.40 0.34 0.33 0.32 0.36 0.41 0.50 0.53 0.48 0.42 0.32 0.31 0.33 0.29 0.27 0.28 0.25 0.26
0.02 0.02 0.02 0.02 0.02 0.16 0.66 0.77 0.47 0.24 0.15 0.12 0.09 0.07 0.08 0.16 0.21 0.27 0.29 0.27 0.26 0.35 0.51 0.56 0.56 0.44 0.39 0.34 0.36 0.40 0.40 0.44 0.51 0.62 0.62 0.50 0.40 0.39 0.37 0.42 0.45 0.34 0.29
0.02 0.02 0.02 0.02 0.01 0.08 0.51 0.64 0.35 0.18 0.11 0.08 0.05 0.05 0.05 0.10 0.22 0.38 0.38 0.31 0.27 0.32 0.45 0.53 0.67 0.64 0.53 0.49 0.58 0.62 0.57 0.44 0.41 0.57 0.72 0.70 0.57 0.48 0.52 0.56 0.56 0.44 0.35
0.02 0.02 0.02 0.01 0.01 0.02 0.30 0.53 0.33 0.16 0.08 0.05 0.02 0.03 0.05 0.08 0.20 0.33 0.29 0.22 0.18 0.22 0.28 0.38 0.47 0.55 0.55 0.57 0.65 0.75 0.71 0.56 0.51 0.62 0.76 0.84 0.83 0.71 0.77 0.83 0.76 0.60 0.44
0.02 0.02 0.02 0.01 0.01 0.01 0.14 0.37 0.37 0.19 0.07 0.03 0.02 0.01 0.05 0.13 0.21 0.26 0.17 0.15 0.26 0.28 0.23 0.20 0.21 0.28 0.34 0.40 0.53 0.74 0.91 0.79 0.65 0.77 0.87 0.87 1.02 0.94 1.00 1.09 0.96 0.72 0.51

GEFSMA_prec_meanprecacc_054.txt.gz
Total_Precipitation_Accumulation
0.00 0.00 0.00 0.00 0.00 0.00 0.00 0.00 0.01 0.03 0.07 0.12 0.14 0.12 0.12 0.11 0.12 0.14 0.12 0.12 0.10 0.08 0.09 0.15 0.26 0.43 0.61 0.78 1.00 1.09 0.89 0.74 0.59 0.47 0.46 0.55 0.62 0.65 0.67 0.69 0.74 0.68 0.53
0.00 0.00 0.00 0.00 0.00 0.00 0.00 0.00 0.00 0.00 0.00 0.01 0.02 0.05 0.09 0.12 0.15 0.16 0.14 0.13 0.12 0.09 0.09 0.11 0.17 0.30 0.50 0.72 0.96 1.26 1.18 1.03 0.86 0.65 0.48 0.47 0.53 0.58 0.60 0.65 0.69 0.75 0.69
0.00 0.00 0.00 0.00 0.00 0.00 0.00 0.00 0.00 0.00 0.00 0.00 0.00 0.00 0.01 0.03 0.07 0.12 0.12 0.14 0.16 0.13 0.11 0.12 0.14 0.19 0.33 0.57 0.84 1.15 1.45 1.35 1.17 0.98 0.73 0.50 0.47 0.51 0.55 0.62 0.67 0.73 0.76
0.00 0.00 0.00 0.00 0.00 0.00 0.00 0.00 0.00 0.00 0.00 0.00 0.00 0.00 0.00 0.00 0.00 0.02 0.04 0.09 0.14 0.17 0.15 0.15 0.16 0.17 0.22 0.34 0.58 0.91 1.40 1.52 1.50 1.34 1.16 0.83 0.56 0.50 0.52 0.57 0.66 0.73 0.78
0.00 0.00 0.00 0.00 0.00 0.00 0.00 0.00 0.00 0.00 0.00 0.00 0.00 0.00 0.00 0.00 0.00 0.00 0.00 0.02 0.05 0.11 0.15 0.16 0.16 0.16 0.16 0.20 0.34 0.59 1.01 1.43 1.60 1.57 1.47 1.26 0.89 0.60 0.54 0.56 0.61 0.72 0.79
0.00 0.00 0.00 0.00 0.00 0.00 0.00 0.00 0.00 0.00 0.00 0.00 0.00 0.00 0.00 0.00 0.00 0.00 0.00 0.00 0.01 0.05 0.09 0.12 0.14 0.15 0.15 0.15 0.21 0.35 0.65 1.09 1.52 1.62 1.56 1.52 1.34 0.91 0.65 0.59 0.61 0.70 0.79
0.00 0.00 0.00 0.00 0.00 0.01 0.00 0.00 0.00 0.00 0.01 0.00 0.00 0.00 0.00 0.00 0.00 0.00 0.00 0.00 0.00 0.02 0.06 0.10 0.13 0.14 0.14 0.15 0.15 0.18 0.37 0.72 1.22 1.75 1.76 1.65 1.68 1.43 0.97 0.75 0.70 0.73 0.83
0.00 0.00 0.00 0.01 0.01 0.01 0.00 0.00 0.01 0.02 0.02 0.01 0.03 0.06 0.04 0.01 0.00 0.00 0.00 0.00 0.00 0.00 0.02 0.06 0.12 0.13 0.12 0.14 0.11 0.12 0.17 0.34 0.72 1.36 2.00 2.02 1.95 1.96 1.55 1.10 0.90 0.86 0.93
0.00 0.00 0.00 0.01 0.02 0.01 0.01 0.01 0.02 0.03 0.04 0.02 0.03 0.14 0.23 0.15 0.04 0.00 0.00 0.00 0.00 0.00 0.00 0.02 0.06 0.11 0.14 0.15 0.14 0.12 0.14 0.20 0.36 0.78 1.55 2.26 2.34 2.35 2.20 1.58 1.21 1.06 1.05
0.00 0.00 0.01 0.01 0.01 0.01 0.01 0.02 0.02 0.04 0.07 0.08 0.04 0.06 0.14 0.19 0.24 0.12 0.02 0.03 0.03 0.03 0.02 0.02 0.03 0.07 0.13 0.18 0.21 0.21 0.22 0.23 0.30 0.50 0.99 1.81 2.51 2.67 2.71 2.29 1.64 1.34 1.23
0.00 0.00 0.01 0.01 0.01 0.01 0.01 0.02 0.03 0.04 0.08 0.11 0.11 0.10 0.08 0.07 0.12 0.22 0.10 0.04 0.07 0.08 0.07 0.05 0.06 0.09 0.12 0.20 0.23 0.23 0.30 0.35 0.46 0.51 0.71 1.16 2.06 2.74 3.06 2.98 2.34 1.67 1.39
0.00 0.00 0.00 0.00 0.01 0.01 0.02 0.03 0.04 0.05 0.06 0.07 0.10 0.12 0.16 0.18 0.13 0.18 0.18 0.06 0.03 0.04 0.06 0.08 0.08 0.12 0.15 0.20 0.26 0.35 0.35 0.43 0.60 0.57 0.50 0.66 1.22 2.05 2.79 3.16 2.92 2.20 1.63
0.00 0.00 0.00 0.00 0.00 0.01 0.01 0.03 0.04 0.05 0.05 0.07 0.09 0.11 0.13 0.15 0.15 0.19 0.24 0.14 0.06 0.02 0.01 0.04 0.07 0.10 0.15 0.18 0.22 0.28 0.27 0.33 0.43 0.47 0.39 0.37 0.62 1.16 1.96 2.81 3.17 2.75 2.06
0.00 0.00 0.00 0.00 0.00 0.01 0.01 0.03 0.04 0.04 0.05 0.07 0.08 0.11 0.16 0.13 0.16 0.23 0.30 0.35 0.28 0.08 0.02 0.03 0.04 0.07 0.11 0.16 0.16 0.18 0.16 0.19 0.26 0.33 0.35 0.29 0.33 0.57 1.09 1.96 3.10 3.48 2.85
0.00 0.00 0.00 0.00 0.00 0.01 0.02 0.04 0.05 0.05 0.08 0.10 0.12 0.15 0.19 0.17 0.19 0.22 0.27 0.41 0.58 0.42 0.11 0.03 0.04 0.07 0.13 0.14 0.16 0.15 0.13 0.14 0.18 0.24 0.30 0.30 0.28 0.33 0.51 1.00 1.89 3.16 3.80
0.00 0.00 0.00 0.00 0.01 0.02 0.04 0.06 0.06 0.08 0.11 0.13 0.16 0.20 0.21 0.21 0.22 0.23 0.29 0.33 0.46 0.58 0.34 0.05 0.04 0.08 0.18 0.19 0.17 0.15 0.15 0.16 0.16 0.17 0.20 0.23 0.25 0.28 0.36 0.56 1.01 1.78 2.95
0.00 0.00 0.00 0.01 0.03 0.05 0.07 0.09 0.08 0.10 0.14 0.15 0.18 0.22 0.23 0.26 0.29 0.26 0.29 0.32 0.33 0.40 0.38 0.10 0.03 0.05 0.15 0.21 0.20 0.15 0.15 0.16 0.15 0.16 0.18 0.21 0.24 0.29 0.37 0.47 0.65 1.02 1.70
0.00 0.00 0.01 0.03 0.06 0.10 0.11 0.13 0.13 0.13 0.16 0.18 0.20 0.24 0.26 0.25 0.26 0.24 0.27 0.28 0.25 0.24 0.29 0.18 0.05 0.05 0.10 0.18 0.26 0.27 0.21 0.19 0.18 0.18 0.20 0.24 0.29 0.30 0.33 0.41 0.55 0.76 1.11
0.00 0.00 0.01 0.05 0.13 0.20 0.19 0.15 0.19 0.20 0.19 0.21 0.23 0.26 0.26 0.26 0.25 0.22 0.27 0.27 0.21 0.19 0.23 0.24 0.11 0.06 0.10 0.13 0.24 0.34 0.30 0.26 0.23 0.21 0.21 0.23 0.28 0.33 0.32 0.33 0.41 0.56 0.75
0.01 0.01 0.01 0.03 0.14 0.33 0.36 0.27 0.32 0.30 0.24 0.20 0.17 0.17 0.24 0.34 0.33 0.31 0.33 0.27 0.23 0.25 0.26 0.28 0.19 0.11 0.13 0.15 0.24 0.35 0.40 0.38 0.32 0.26 0.25 0.24 0.28 0.37 0.36 0.29 0.25 0.31 0.49
0.01 0.01 0.01 0.02 0.08 0.42 0.79 0.74 0.67 0.49 0.28 0.17 0.11 0.10 0.19 0.32 0.36 0.49 0.58 0.48 0.44 0.47 0.40 0.37 0.32 0.26 0.24 0.26 0.31 0.33 0.45 0.49 0.43 0.37 0.31 0.26 0.26 0.26 0.28 0.27 0.25 0.25 0.30
0.01 0.02 0.02 0.02 0.04 0.30 0.83 0.91 0.67 0.36 0.22 0.16 0.11 0.08 0.11 0.22 0.25 0.30 0.40 0.47 0.52 0.60 0.60 0.54 0.49 0.43 0.35 0.34 0.33 0.38 0.43 0.52 0.54 0.49 0.43 0.32 0.31 0.33 0.29 0.27 0.29 0.26 0.28
0.02 0.02 0.02 0.02 0.02 0.16 0.66 0.77 0.47 0.25 0.16 0.12 0.09 0.07 0.08 0.16 0.22 0.28 0.31 0.29 0.28 0.37 0.54 0.60 0.60 0.46 0.40 0.35 0.38 0.42 0.42 0.48 0.54 0.63 0.64 0.52 0.40 0.39 0.37 0.42 0.46 0.35 0.31
0.02 0.02 0.02 0.02 0.01 0.08 0.51 0.64 0.36 0.19 0.12 0.09 0.05 0.06 0.06 0.11 0.23 0.40 0.39 0.33 0.28 0.32 0.46 0.54 0.68 0.66 0.54 0.51 0.62 0.70 0.67 0.52 0.44 0.58 0.73 0.73 0.58 0.48 0.52 0.56 0.56 0.45 0.37
0.02 0.02 0.02 0.01 0.01 0.02 0.30 0.53 0.34 0.17 0.10 0.06 0.03 0.04 0.06 0.09 0.21 0.35 0.32 0.24 0.18 0.22 0.28 0.39 0.49 0.57 0.57 0.61 0.70 0.82 0.79 0.61 0.53 0.62 0.76 0.85 0.85 0.72 0.77 0.84 0.76 0.61 0.46
0.02 0.02 0.02 0.01 0.01 0.01 0.14 0.37 0.38 0.20 0.10 0.06 0.04 0.02 0.06 0.15 0.22 0.28 0.21 0.18 0.27 0.28 0.24 0.21 0.22 0.29 0.35 0.41 0.54 0.76 0.94 0.83 0.67 0.78 0.87 0.88 1.04 0.96 1.03 1.09 0.97 0.73 0.54

GEFSMA_prec_meanprecacc_060.txt.gz
Total_Precipitation_Accumulation
0.00 0.00 0.00 0.00 0.00 0.00 0.00 0.00 0.01 0.03 0.07 0.12 0.14 0.12 0.12 0.11 0.12 0.14 0.12 0.12 0.10 0.08 0.09 0.15 0.26 0.43 0.61 0.78 1.01 1.10 0.90 0.75 0.60 0.48 0.48 0.56 0.63 0.67 0.68 0.70 0.74 0.68 0.54
0.00 0.00 0.00 0.00 0.00 0.00 0.00 0.00 0.00 0.00 0.00 0.01 0.02 0.05 0.09 0.12 0.15 0.16 0.14 0.13 0.12 0.09 0.09 0.11 0.17 0.30 0.50 0.72 0.96 1.26 1.18 1.04 0.86 0.66 0.49 0.48 0.55 0.59 0.61 0.66 0.70 0.76 0.70
0.00 0.00 0.00 0.00 0.00 0.00 0.00 0.00 0.00 0.00 0.00 0.00 0.00 0.00 0.01 0.03 0.07 0.12 0.12 0.14 0.16 0.13 0.11 0.12 0.14 0.19 0.33 0.57 0.84 1.15 1.45 1.35 1.17 0.99 0.74 0.51 0.48 0.53 0.56 0.63 0.69 0.74 0.78
0.00 0.00 0.00 0.00 0.00 0.00 0.00 0.00 0.00 0.00 0.00 0.00 0.00 0.00 0.00 0.00 0.00 0.02 0.04 0.09 0.14 0.17 0.15 0.15 0.16 0.17 0.22 0.34 0.58 0.91 1.40 1.52 1.50 1.35 1.17 0.84 0.58 0.51 0.54 0.59 0.68 0.74 0.79
0.00 0.00 0.00 0.00 0.00 0.00 0.00 0.00 0.00 0.00 0.00 0.00 0.00 0.00 0.00 0.00 0.00 0.00 0.00 0.02 0.05 0.11 0.15 0.16 0.16 0.16 0.16 0.20 0.34 0.59 1.01 1.43 1.60 1.57 1.48 1.27 0.91 0.62 0.56 0.58 0.63 0.74 0.82
0.00 0.00 0.00 0.00 0.00 0.00 0.00 0.00 0.00 0.00 0.00 0.00 0.00 0.00 0.00 0.00 0.00 0.00 0.00 0.00 0.01 0.05 0.09 0.12 0.14 0.15 0.15 0.15 0.21 0.35 0.65 1.09 1.52 1.63 1.57 1.54 1.35 0.93 0.68 0.62 0.63 0.73 0.82
0.00 0.00 0.00 0.00 0.00 0.01 0.00 0.00 0.00 0.00 0.01 0.00 0.00 0.00 0.00 0.00 0.00 0.00 0.00 0.00 0.00 0.02 0.06 0.10 0.13 0.14 0.14 0.15 0.15 0.18 0.37 0.72 1.22 1.75 1.76 1.66 1.70 1.45 1.00 0.78 0.73 0.76 0.86
0.00 0.00 0.00 0.01 0.01 0.01 0.00 0.00 0.01 0.02 0.02 0.01 0.03 0.06 0.04 0.01 0.00 0.00 0.00 0.00 0.00 0.00 0.02 0.06 0.12 0.13 0.12 0.14 0.11 0.12 0.17 0.34 0.72 1.36 2.00 2.03 1.96 1.98 1.58 1.13 0.94 0.90 0.97
0.00 0.00 0.00 0.01 0.02 0.01 0.01 0.01 0.02 0.03 0.04 0.02 0.03 0.14 0.23 0.15 0.04 0.00 0.00 0.00 0.00 0.00 0.00 0.02 0.06 0.11 0.14 0.15 0.14 0.12 0.14 0.20 0.36 0.79 1.55 2.27 2.36 2.38 2.24 1.63 1.26 1.10 1.10
0.00 0.00 0.01 0.01 0.01 0.01 0.01 0.02 0.02 0.04 0.07 0.08 0.04 0.06 0.14 0.19 0.24 0.12 0.02 0.03 0.03 0.03 0.02 0.02 0.03 0.07 0.13 0.18 0.21 0.21 0.22 0.23 0.30 0.50 1.00 1.82 2.53 2.71 2.75 2.34 1.70 1.39 1.27
0.00 0.00 0.01 0.01 0.01 0.01 0.01 0.02 0.03 0.04 0.08 0.11 0.11 0.10 0.08 0.07 0.12 0.22 0.10 0.04 0.07 0.08 0.07 0.05 0.06 0.09 0.12 0.20 0.23 0.23 0.30 0.35 0.46 0.51 0.71 1.17 2.08 2.77 3.10 3.02 2.39 1.71 1.43
0.00 0.00 0.00 0.00 0.01 0.01 0.02 0.03 0.04 0.05 0.06 0.07 0.10 0.12 0.16 0.18 0.13 0.18 0.18 0.06 0.03 0.04 0.06 0.08 0.08 0.12 0.15 0.20 0.26 0.35 0.35 0.43 0.60 0.57 0.51 0.67 1.23 2.07 2.81 3.19 2.95 2.24 1.67
0.00 0.00 0.00 0.00 0.00 0.01 0.01 0.03 0.04 0.05 0.05 0.07 0.09 0.11 0.13 0.15 0.15 0.19 0.24 0.14 0.06 0.02 0.01 0.04 0.07 0.10 0.15 0.18 0.22 0.28 0.27 0.33 0.43 0.47 0.39 0.37 0.62 1.17 1.97 2.83 3.19 2.77 2.10
0.00 0.00 0.00 0.00 0.00 0.01 0.01 0.03 0.04 0.04 0.05 0.07 0.08 0.11 0.16 0.13 0.16 0.23 0.30 0.35 0.28 0.08 0.02 0.03 0.04 0.07 0.11 0.16 0.16 0.18 0.16 0.19 0.26 0.33 0.35 0.29 0.34 0.57 1.10 1.98 3.13 3.51 2.88
0.00 0.00 0.00 0.00 0.00 0.01 0.02 0.04 0.05 0.05 0.08 0.10 0.12 0.15 0.19 0.17 0.19 0.22 0.27 0.41 0.58 0.42 0.11 0.03 0.04 0.08 0.13 0.15 0.16 0.15 0.13 0.14 0.18 0.24 0.30 0.31 0.29 0.34 0.53 1.02 1.91 3.18 3.82
0.00 0.00 0.00 0.00 0.01 0.02 0.04 0.06 0.06 0.08 0.11 0.13 0.16 0.20 0.21 0.21 0.22 0.23 0.29 0.33 0.47 0.58 0.34 0.05 0.04 0.08 0.18 0.19 0.17 0.15 0.15 0.16 0.16 0.17 0.20 0.23 0.26 0.29 0.37 0.57 1.02 1.80 2.98
0.00 0.00 0.00 0.01 0.03 0.05 0.07 0.09 0.08 0.10 0.14 0.15 0.18 0.22 0.23 0.26 0.29 0.26 0.29 0.32 0.33 0.40 0.38 0.10 0.03 0.05 0.15 0.21 0.20 0.15 0.15 0.16 0.15 0.16 0.18 0.21 0.24 0.29 0.38 0.48 0.67 1.05 1.73
0.00 0.00 0.01 0.03 0.06 0.10 0.11 0.13 0.13 0.13 0.16 0.18 0.20 0.24 0.26 0.25 0.26 0.24 0.27 0.28 0.25 0.24 0.30 0.18 0.05 0.05 0.10 0.18 0.27 0.27 0.21 0.19 0.18 0.18 0.20 0.24 0.29 0.31 0.35 0.43 0.57 0.78 1.14
0.00 0.00 0.01 0.05 0.13 0.20 0.19 0.15 0.19 0.20 0.19 0.21 0.23 0.26 0.26 0.26 0.25 0.22 0.27 0.27 0.22 0.19 0.24 0.25 0.12 0.06 0.10 0.13 0.24 0.34 0.30 0.26 0.23 0.21 0.22 0.23 0.29 0.34 0.33 0.34 0.43 0.58 0.78
0.01 0.01 0.01 0.03 0.14 0.33 0.36 0.27 0.32 0.30 0.24 0.20 0.17 0.17 0.24 0.34 0.33 0.31 0.34 0.28 0.24 0.26 0.28 0.30 0.20 0.12 0.13 0.15 0.24 0.36 0.40 0.38 0.32 0.26 0.25 0.24 0.28 0.37 0.37 0.29 0.26 0.32 0.50
0.01 0.01 0.01 0.02 0.08 0.42 0.79 0.74 0.67 0.49 0.28 0.17 0.11 0.10 0.19 0.32 0.36 0.49 0.59 0.49 0.45 0.49 0.43 0.40 0.34 0.27 0.24 0.27 0.31 0.33 0.46 0.49 0.43 0.37 0.31 0.26 0.26 0.26 0.28 0.27 0.25 0.25 0.31
0.01 0.02 0.02 0.02 0.04 0.30 0.83 0.91 0.67 0.36 0.22 0.16 0.11 0.08 0.11 0.22 0.25 0.30 0.42 0.49 0.54 0.63 0.62 0.57 0.52 0.44 0.36 0.34 0.34 0.39 0.44 0.53 0.55 0.49 0.43 0.32 0.31 0.33 0.29 0.27 0.29 0.26 0.29
0.02 0.02 0.02 0.02 0.02 0.16 0.66 0.77 0.47 0.25 0.16 0.12 0.09 0.07 0.08 0.16 0.22 0.29 0.33 0.34 0.37 0.46 0.60 0.64 0.64 0.48 0.40 0.35 0.39 0.45 0.44 0.49 0.55 0.63 0.66 0.53 0.40 0.39 0.37 0.42 0.46 0.36 0.32
0.02 0.02 0.02 0.02 0.01 0.08 0.51 0.64 0.36 0.19 0.12 0.09 0.05 0.06 0.06 0.11 0.23 0.41 0.42 0.37 0.33 0.38 0.54 0.65 0.80 0.71 0.55 0.51 0.63 0.72 0.70 0.57 0.47 0.59 0.74 0.74 0.58 0.48 0.52 0.56 0.56 0.46 0.38
0.02 0.02 0.02 0.01 0.01 0.02 0.30 0.53 0.34 0.17 0.10 0.07 0.03 0.04 0.06 0.10 0.21 0.38 0.39 0.29 0.21 0.23 0.30 0.45 0.59 0.66 0.63 0.64 0.75 0.90 0.89 0.70 0.58 0.63 0.76 0.86 0.85 0.72 0.77 0.84 0.76 0.61 0.46
0.02 0.02 0.02 0.01 0.01 0.01 0.14 0.38 0.38 0.21 0.10 0.06 0.05 0.03 0.06 0.15 0.23 0.31 0.30 0.25 0.30 0.29 0.25 0.23 0.26 0.34 0.41 0.46 0.60 0.83 1.01 0.89 0.71 0.80 0.87 0.88 1.04 0.97 1.05 1.10 0.97 0.73 0.54

GEFSMA_prec_meanprecacc_066.txt.gz
Total_Precipitation_Accumulation
0.00 0.00 0.00 0.00 0.00 0.00 0.00 0.00 0.01 0.03 0.07 0.12 0.14 0.12 0.12 0.11 0.12 0.14 0.12 0.12 0.10 0.08 0.09 0.15 0.26 0.43 0.61 0.78 1.01 1.10 0.90 0.75 0.60 0.48 0.48 0.56 0.64 0.67 0.68 0.70 0.75 0.69 0.54
0.00 0.00 0.00 0.00 0.00 0.00 0.00 0.00 0.00 0.00 0.00 0.01 0.02 0.05 0.09 0.12 0.15 0.16 0.14 0.13 0.12 0.09 0.09 0.11 0.17 0.30 0.50 0.72 0.96 1.26 1.18 1.04 0.86 0.66 0.49 0.49 0.55 0.60 0.62 0.66 0.71 0.77 0.71
0.00 0.00 0.00 0.00 0.00 0.00 0.00 0.00 0.00 0.00 0.00 0.00 0.00 0.00 0.01 0.03 0.07 0.12 0.12 0.14 0.16 0.13 0.11 0.12 0.14 0.19 0.33 0.57 0.84 1.15 1.45 1.35 1.17 0.99 0.74 0.51 0.49 0.53 0.57 0.64 0.70 0.75 0.78
0.00 0.00 0.00 0.00 0.00 0.00 0.00 0.00 0.00 0.00 0.00 0.00 0.00 0.00 0.00 0.00 0.00 0.02 0.04 0.09 0.14 0.17 0.15 0.15 0.16 0.17 0.22 0.34 0.58 0.91 1.40 1.52 1.50 1.35 1.17 0.84 0.58 0.52 0.55 0.60 0.69 0.75 0.80
0.00 0.00 0.00 0.00 0.00 0.00 0.00 0.00 0.00 0.00 0.00 0.00 0.00 0.00 0.00 0.00 0.00 0.00 0.00 0.02 0.05 0.11 0.15 0.16 0.16 0.16 0.16 0.20 0.34 0.59 1.01 1.43 1.60 1.57 1.48 1.28 0.91 0.63 0.57 0.59 0.64 0.75 0.83
0.00 0.00 0.00 0.00 0.00 0.00 0.00 0.00 0.00 0.00 0.00 0.00 0.00 0.00 0.00 0.00 0.00 0.00 0.00 0.00 0.01 0.05 0.09 0.12 0.14 0.15 0.15 0.15 0.21 0.35 0.65 1.09 1.53 1.63 1.57 1.54 1.36 0.94 0.68 0.63 0.64 0.74 0.83
0.00 0.00 0.00 0.00 0.00 0.01 0.00 0.00 0.00 0.00 0.01 0.00 0.00 0.00 0.00 0.00 0.00 0.00 0.00 0.00 0.00 0.02 0.06 0.10 0.13 0.14 0.14 0.15 0.15 0.18 0.37 0.72 1.22 1.75 1.76 1.66 1.70 1.46 1.01 0.79 0.74 0.78 0.88
0.00 0.00 0.00 0.01 0.01 0.01 0.00 0.00 0.01 0.02 0.02 0.01 0.03 0.06 0.04 0.01 0.00 0.00 0.00 0.00 0.00 0.00 0.02 0.06 0.12 0.13 0.12 0.14 0.11 0.12 0.17 0.34 0.72 1.37 2.00 2.03 1.97 1.99 1.59 1.15 0.96 0.92 1.00
0.00 0.00 0.00 0.01 0.02 0.01 0.01 0.01 0.02 0.03 0.04 0.02 0.03 0.14 0.23 0.15 0.04 0.00 0.00 0.00 0.00 0.00 0.00 0.02 0.06 0.11 0.14 0.15 0.14 0.12 0.14 0.20 0.36 0.79 1.55 2.27 2.36 2.39 2.25 1.65 1.28 1.13 1.13
0.00 0.00 0.01 0.01 0.01 0.01 0.01 0.02 0.02 0.04 0.07 0.08 0.04 0.06 0.14 0.19 0.24 0.12 0.02 0.03 0.03 0.03 0.02 0.02 0.03 0.07 0.13 0.18 0.21 0.21 0.22 0.23 0.30 0.50 1.00 1.83 2.53 2.72 2.77 2.37 1.73 1.43 1.32
0.00 0.00 0.01 0.01 0.01 0.01 0.01 0.02 0.03 0.04 0.08 0.11 0.11 0.10 0.08 0.07 0.12 0.22 0.10 0.04 0.07 0.08 0.07 0.05 0.06 0.09 0.12 0.20 0.23 0.23 0.30 0.35 0.46 0.51 0.71 1.17 2.08 2.78 3.11 3.05 2.43 1.76 1.47
0.00 0.00 0.00 0.00 0.01 0.01 0.02 0.03 0.04 0.05 0.06 0.07 0.10 0.12 0.16 0.18 0.13 0.18 0.18 0.06 0.03 0.04 0.06 0.08 0.08 0.12 0.15 0.20 0.26 0.35 0.35 0.43 0.60 0.57 0.51 0.67 1.23 2.07 2.82 3.20 2.98 2.27 1.70
0.00 0.00 0.00 0.00 0.00 0.01 0.01 0.03 0.04 0.05 0.05 0.07 0.09 0.11 0.13 0.15 0.15 0.19 0.24 0.14 0.06 0.02 0.01 0.04 0.07 0.10 0.15 0.18 0.22 0.28 0.27 0.33 0.43 0.47 0.39 0.37 0.62 1.17 1.97 2.84 3.20 2.79 2.12
0.00 0.00 0.00 0.00 0.00 0.01 0.01 0.03 0.04 0.04 0.05 0.07 0.08 0.11 0.16 0.13 0.16 0.23 0.30 0.35 0.28 0.08 0.02 0.03 0.04 0.07 0.11 0.16 0.16 0.18 0.16 0.19 0.26 0.33 0.35 0.29 0.34 0.57 1.11 1.98 3.13 3.52 2.89
0.00 0.00 0.00 0.00 0.00 0.01 0.02 0.04 0.05 0.05 0.08 0.10 0.12 0.15 0.19 0.17 0.19 0.22 0.27 0.41 0.58 0.42 0.11 0.03 0.04 0.08 0.13 0.15 0.16 0.15 0.13 0.14 0.18 0.24 0.30 0.31 0.29 0.34 0.53 1.02 1.91 3.19 3.82
0.00 0.00 0.00 0.00 0.01 0.02 0.04 0.06 0.06 0.08 0.11 0.13 0.16 0.20 0.21 0.21 0.22 0.23 0.29 0.33 0.47 0.58 0.34 0.05 0.04 0.08 0.18 0.19 0.17 0.15 0.15 0.16 0.16 0.17 0.20 0.23 0.26 0.29 0.37 0.57 1.03 1.81 2.99
0.00 0.00 0.00 0.01 0.03 0.05 0.07 0.09 0.08 0.10 0.14 0.15 0.18 0.22 0.23 0.26 0.29 0.26 0.29 0.32 0.33 0.40 0.38 0.10 0.03 0.05 0.15 0.21 0.20 0.15 0.15 0.16 0.15 0.16 0.18 0.21 0.24 0.30 0.38 0.48 0.67 1.06 1.74
0.00 0.00 0.01 0.03 0.06 0.10 0.11 0.13 0.13 0.13 0.16 0.18 0.20 0.24 0.26 0.25 0.26 0.24 0.27 0.28 0.25 0.24 0.30 0.18 0.05 0.05 0.10 0.18 0.27 0.27 0.22 0.19 0.18 0.18 0.20 0.24 0.30 0.32 0.35 0.44 0.57 0.79 1.15
0.00 0.00 0.01 0.05 0.13 0.20 0.19 0.15 0.19 0.20 0.19 0.21 0.23 0.26 0.26 0.26 0.25 0.22 0.27 0.27 0.22 0.19 0.24 0.25 0.12 0.06 0.10 0.13 0.25 0.35 0.30 0.26 0.23 0.22 0.22 0.23 0.29 0.34 0.33 0.35 0.44 0.59 0.79
0.01 0.01 0.01 0.03 0.14 0.33 0.36 0.27 0.32 0.30 0.24 0.20 0.17 0.17 0.24 0.34 0.33 0.31 0.34 0.29 0.25 0.27 0.29 0.31 0.20 0.12 0.13 0.15 0.25 0.36 0.41 0.39 0.32 0.27 0.25 0.24 0.28 0.37 0.37 0.30 0.26 0.33 0.51
0.01 0.01 0.01 0.02 0.08 0.42 0.79 0.74 0.67 0.49 0.28 0.17 0.11 0.10 0.19 0.32 0.36 0.50 0.60 0.50 0.46 0.50 0.44 0.42 0.35 0.28 0.26 0.28 0.33 0.35 0.48 0.50 0.44 0.37 0.32 0.26 0.26 0.26 0.28 0.28 0.25 0.26 0.31
0.01 0.02 0.02 0.02 0.04 0.30 0.83 0.91 0.67 0.37 0.22 0.16 0.12 0.08 0.11 0.22 0.25 0.31 0.43 0.51 0.57 0.65 0.65 0.59 0.53 0.46 0.37 0.35 0.35 0.42 0.48 0.56 0.57 0.49 0.43 0.33 0.31 0.33 0.29 0.27 0.29 0.26 0.29
0.02 0.02 0.02 0.02 0.02 0.16 0.66 0.77 0.47 0.25 0.16 0.13 0.09 0.07 0.08 0.17 0.22 0.30 0.34 0.36 0.40 0.51 0.65 0.68 0.67 0.49 0.41 0.36 0.42 0.49 0.47 0.51 0.55 0.63 0.66 0.54 0.40 0.39 0.37 0.42 0.46 0.36 0.32
0.02 0.02 0.02 0.02 0.01 0.08 0.51 0.64 0.36 0.20 0.12 0.09 0.05 0.06 0.06 0.11 0.23 0.42 0.43 0.38 0.33 0.40 0.58 0.72 0.89 0.76 0.57 0.52 0.65 0.75 0.73 0.60 0.49 0.59 0.76 0.76 0.58 0.48 0.52 0.56 0.56 0.46 0.38
0.02 0.02 0.02 0.01 0.01 0.02 0.30 0.54 0.35 0.18 0.10 0.07 0.03 0.04 0.06 0.10 0.22 0.38 0.41 0.32 0.22 0.24 0.30 0.48 0.68 0.77 0.70 0.68 0.78 0.97 0.98 0.79 0.63 0.63 0.77 0.88 0.85 0.72 0.77 0.84 0.76 0.61 0.46
0.02 0.02 0.02 0.01 0.01 0.01 0.14 0.38 0.39 0.21 0.10 0.06 0.05 0.03 0.07 0.16 0.24 0.32 0.32 0.29 0.33 0.30 0.25 0.25 0.29 0.41 0.52 0.60 0.74 0.97 1.13 0.98 0.76 0.82 0.87 0.89 1.05 0.98 1.06 1.10 0.97 0.73 0.54

GEFSMA_prec_meanprecacc_072.txt.gz
Total_Precipitation_Accumulation
0.00 0.00 0.00 0.00 0.00 0.00 0.00 0.00 0.01 0.03 0.07 0.12 0.14 0.12 0.12 0.11 0.12 0.14 0.12 0.12 0.10 0.08 0.09 0.15 0.26 0.43 0.61 0.78 1.01 1.10 0.90 0.75 0.60 0.49 0.48 0.57 0.64 0.67 0.68 0.70 0.75 0.69 0.54
0.00 0.00 0.00 0.00 0.00 0.00 0.00 0.00 0.00 0.00 0.00 0.01 0.02 0.05 0.09 0.12 0.15 0.16 0.14 0.13 0.12 0.09 0.09 0.11 0.17 0.30 0.50 0.72 0.96 1.26 1.18 1.04 0.86 0.67 0.50 0.49 0.55 0.60 0.62 0.67 0.71 0.77 0.71
0.00 0.00 0.00 0.00 0.00 0.00 0.00 0.00 0.00 0.00 0.00 0.00 0.00 0.00 0.01 0.03 0.07 0.12 0.12 0.14 0.16 0.13 0.11 0.12 0.14 0.19 0.33 0.57 0.84 1.15 1.45 1.35 1.17 0.99 0.74 0.52 0.49 0.54 0.58 0.65 0.70 0.76 0.79
0.00 0.00 0.00 0.00 0.00 0.00 0.00 0.00 0.00 0.00 0.00 0.00 0.00 0.00 0.00 0.00 0.00 0.02 0.04 0.09 0.14 0.17 0.15 0.15 0.16 0.17 0.22 0.34 0.58 0.91 1.40 1.53 1.50 1.35 1.17 0.85 0.59 0.52 0.56 0.60 0.70 0.76 0.81
0.00 0.00 0.00 0.00 0.00 0.00 0.00 0.00 0.00 0.00 0.00 0.00 0.00 0.00 0.00 0.00 0.00 0.00 0.00 0.02 0.05 0.11 0.15 0.16 0.16 0.16 0.16 0.20 0.34 0.59 1.01 1.43 1.60 1.58 1.48 1.28 0.92 0.63 0.58 0.60 0.65 0.76 0.84
0.00 0.00 0.00 0.00 0.00 0.00 0.00 0.00 0.00 0.00 0.00 0.00 0.00 0.00 0.00 0.00 0.00 0.00 0.00 0.00 0.01 0.05 0.09 0.12 0.14 0.15 0.15 0.15 0.21 0.35 0.65 1.09 1.53 1.63 1.57 1.54 1.37 0.94 0.69 0.64 0.66 0.75 0.85
0.00 0.00 0.00 0.00 0.00 0.01 0.00 0.00 0.00 0.00 0.01 0.00 0.00 0.00 0.00 0.00 0.00 0.00 0.00 0.00 0.00 0.02 0.06 0.10 0.13 0.14 0.14 0.15 0.15 0.18 0.37 0.72 1.22 1.75 1.77 1.67 1.70 1.46 1.02 0.80 0.76 0.79 0.89
0.00 0.00 0.00 0.01 0.01 0.01 0.00 0.00 0.01 0.02 0.02 0.01 0.03 0.06 0.04 0.01 0.00 0.00 0.00 0.00 0.00 0.00 0.02 0.06 0.12 0.13 0.12 0.14 0.11 0.12 0.17 0.34 0.72 1.37 2.00 2.04 1.97 2.00 1.60 1.16 0.98 0.94 1.02
0.00 0.00 0.00 0.01 0.02 0.01 0.01 0.01 0.02 0.03 0.04 0.02 0.03 0.14 0.23 0.15 0.04 0.00 0.00 0.00 0.00 0.00 0.00 0.02 0.06 0.11 0.14 0.15 0.14 0.12 0.14 0.20 0.36 0.79 1.55 2.27 2.36 2.40 2.27 1.66 1.30 1.16 1.15
0.00 0.00 0.01 0.01 0.01 0.01 0.01 0.02 0.02 0.04 0.07 0.08 0.04 0.06 0.14 0.19 0.24 0.12 0.02 0.03 0.03 0.03 0.02 0.02 0.03 0.07 0.13 0.18 0.21 0.21 0.22 0.23 0.30 0.50 1.00 1.83 2.54 2.72 2.78 2.39 1.76 1.45 1.35
0.00 0.00 0.01 0.01 0.01 0.01 0.01 0.02 0.03 0.04 0.08 0.11 0.11 0.10 0.08 0.07 0.12 0.22 0.10 0.04 0.07 0.08 0.07 0.05 0.06 0.09 0.12 0.20 0.23 0.23 0.30 0.35 0.46 0.51 0.71 1.17 2.08 2.78 3.13 3.07 2.46 1.79 1.51
0.00 0.00 0.00 0.00 0.01 0.01 0.02 0.03 0.04 0.05 0.06 0.07 0.10 0.12 0.16 0.18 0.13 0.18 0.18 0.06 0.03 0.04 0.06 0.08 0.08 0.12 0.15 0.20 0.26 0.35 0.35 0.43 0.60 0.57 0.51 0.67 1.23 2.08 2.83 3.22 3.00 2.30 1.74
0.00 0.00 0.00 0.00 0.00 0.01 0.01 0.03 0.04 0.05 0.05 0.07 0.09 0.11 0.13 0.15 0.15 0.19 0.24 0.14 0.06 0.02 0.01 0.04 0.07 0.10 0.15 0.18 0.22 0.28 0.27 0.33 0.43 0.47 0.39 0.37 0.62 1.17 1.97 2.84 3.22 2.81 2.15
0.00 0.00 0.00 0.00 0.00 0.01 0.01 0.03 0.04 0.04 0.05 0.07 0.08 0.11 0.16 0.13 0.16 0.23 0.30 0.35 0.28 0.08 0.02 0.03 0.04 0.07 0.11 0.16 0.16 0.18 0.16 0.19 0.26 0.33 0.35 0.29 0.34 0.57 1.11 1.98 3.14 3.53 2.91
0.00 0.00 0.00 0.00 0.00 0.01 0.02 0.04 0.05 0.05 0.08 0.10 0.12 0.15 0.19 0.17 0.19 0.22 0.27 0.41 0.58 0.42 0.11 0.03 0.04 0.08 0.13 0.15 0.16 0.15 0.13 0.14 0.18 0.24 0.30 0.31 0.29 0.34 0.53 1.02 1.91 3.19 3.83
0.00 0.00 0.00 0.00 0.01 0.02 0.04 0.06 0.06 0.08 0.11 0.13 0.16 0.20 0.21 0.21 0.22 0.23 0.29 0.33 0.47 0.58 0.34 0.05 0.04 0.08 0.18 0.19 0.17 0.15 0.15 0.16 0.16 0.17 0.20 0.23 0.26 0.29 0.38 0.58 1.03 1.82 2.99
0.00 0.00 0.00 0.01 0.03 0.05 0.07 0.09 0.08 0.10 0.14 0.15 0.18 0.22 0.23 0.26 0.29 0.26 0.29 0.32 0.33 0.40 0.38 0.10 0.03 0.05 0.15 0.21 0.20 0.15 0.15 0.16 0.15 0.16 0.18 0.21 0.25 0.30 0.38 0.49 0.68 1.07 1.75
0.00 0.00 0.01 0.03 0.06 0.10 0.11 0.13 0.13 0.13 0.16 0.18 0.20 0.24 0.26 0.25 0.26 0.24 0.27 0.28 0.25 0.24 0.30 0.18 0.05 0.05 0.10 0.18 0.27 0.27 0.22 0.19 0.18 0.18 0.20 0.24 0.30 0.32 0.36 0.45 0.59 0.80 1.16
0.00 0.00 0.01 0.05 0.13 0.20 0.19 0.15 0.19 0.20 0.19 0.21 0.23 0.26 0.26 0.26 0.25 0.22 0.27 0.27 0.22 0.20 0.24 0.26 0.12 0.06 0.10 0.13 0.25 0.35 0.30 0.26 0.23 0.22 0.22 0.24 0.29 0.35 0.35 0.36 0.46 0.62 0.82
0.01 0.01 0.01 0.03 0.14 0.33 0.36 0.27 0.32 0.30 0.24 0.20 0.17 0.17 0.24 0.34 0.33 0.31 0.35 0.29 0.25 0.27 0.30 0.32 0.21 0.12 0.14 0.16 0.25 0.37 0.41 0.39 0.32 0.27 0.26 0.24 0.28 0.38 0.38 0.32 0.30 0.37 0.55
0.01 0.01 0.01 0.02 0.08 0.42 0.79 0.74 0.67 0.49 0.29 0.17 0.11 0.10 0.19 0.32 0.37 0.51 0.61 0.51 0.48 0.54 0.49 0.46 0.38 0.29 0.27 0.30 0.34 0.36 0.49 0.52 0.45 0.38 0.32 0.26 0.26 0.26 0.28 0.29 0.28 0.30 0.36
0.01 0.02 0.02 0.02 0.04 0.30 0.83 0.91 0.68 0.37 0.22 0.16 0.12 0.09 0.12 0.23 0.26 0.33 0.47 0.55 0.62 0.74 0.75 0.69 0.60 0.50 0.38 0.36 0.36 0.44 0.50 0.59 0.59 0.50 0.44 0.34 0.32 0.34 0.30 0.27 0.29 0.28 0.31
0.02 0.02 0.02 0.02 0.02 0.16 0.66 0.78 0.48 0.26 0.17 0.13 0.10 0.08 0.09 0.17 0.23 0.31 0.35 0.38 0.43 0.56 0.73 0.79 0.80 0.57 0.45 0.39 0.46 0.54 0.51 0.54 0.56 0.64 0.68 0.55 0.41 0.40 0.38 0.42 0.46 0.37 0.34
0.02 0.02 0.02 0.02 0.01 0.08 0.51 0.65 0.37 0.20 0.13 0.09 0.06 0.07 0.07 0.12 0.24 0.43 0.44 0.39 0.34 0.41 0.60 0.77 0.97 0.83 0.62 0.57 0.70 0.80 0.77 0.66 0.53 0.62 0.78 0.78 0.59 0.49 0.53 0.56 0.57 0.47 0.39
0.02 0.02 0.02 0.01 0.01 0.02 0.30 0.54 0.35 0.19 0.11 0.07 0.04 0.04 0.07 0.11 0.23 0.41 0.44 0.34 0.23 0.25 0.32 0.51 0.72 0.83 0.77 0.76 0.87 1.09 1.11 0.91 0.69 0.65 0.78 0.90 0.86 0.73 0.78 0.84 0.77 0.61 0.47
0.02 0.02 0.02 0.01 0.01 0.01 0.14 0.38 0.39 0.22 0.12 0.07 0.06 0.04 0.08 0.18 0.27 0.37 0.36 0.32 0.36 0.31 0.27 0.27 0.31 0.44 0.57 0.68 0.85 1.11 1.24 1.07 0.82 0.85 0.88 0.91 1.06 1.00 1.08 1.10 0.98 0.74 0.54

GEFSMA_prec_meanprecacc_078.txt.gz
Total_Precipitation_Accumulation
0.00 0.00 0.00 0.00 0.00 0.00 0.00 0.00 0.01 0.03 0.07 0.12 0.14 0.12 0.12 0.11 0.12 0.14 0.12 0.12 0.10 0.08 0.09 0.15 0.26 0.43 0.61 0.78 1.01 1.10 0.90 0.75 0.60 0.49 0.48 0.57 0.64 0.67 0.68 0.70 0.75 0.69 0.55
0.00 0.00 0.00 0.00 0.00 0.00 0.00 0.00 0.00 0.00 0.00 0.01 0.02 0.05 0.09 0.12 0.15 0.16 0.14 0.13 0.12 0.09 0.09 0.11 0.17 0.30 0.50 0.72 0.96 1.26 1.19 1.04 0.87 0.67 0.50 0.49 0.56 0.60 0.62 0.67 0.71 0.77 0.71
0.00 0.00 0.00 0.00 0.00 0.00 0.00 0.00 0.00 0.00 0.00 0.00 0.00 0.00 0.01 0.03 0.07 0.12 0.12 0.14 0.16 0.13 0.11 0.12 0.14 0.19 0.33 0.57 0.84 1.15 1.45 1.35 1.17 1.00 0.75 0.52 0.49 0.54 0.58 0.65 0.71 0.76 0.79
0.00 0.00 0.00 0.00 0.00 0.00 0.00 0.00 0.00 0.00 0.00 0.00 0.00 0.00 0.00 0.00 0.00 0.02 0.04 0.09 0.14 0.17 0.15 0.15 0.16 0.17 0.22 0.34 0.58 0.91 1.40 1.53 1.50 1.35 1.18 0.85 0.59 0.53 0.56 0.61 0.70 0.77 0.81
0.00 0.00 0.00 0.00 0.00 0.00 0.00 0.00 0.00 0.00 0.00 0.00 0.00 0.00 0.00 0.00 0.00 0.00 0.00 0.02 0.05 0.11 0.15 0.16 0.16 0.16 0.16 0.20 0.34 0.59 1.01 1.43 1.60 1.58 1.49 1.29 0.93 0.64 0.58 0.60 0.66 0.77 0.85
0.00 0.00 0.00 0.00 0.00 0.00 0.00 0.00 0.00 0.00 0.00 0.00 0.00 0.00 0.00 0.00 0.00 0.00 0.00 0.00 0.01 0.05 0.09 0.12 0.14 0.15 0.15 0.15 0.21 0.35 0.65 1.09 1.53 1.63 1.57 1.55 1.37 0.95 0.70 0.65 0.67 0.77 0.86
0.00 0.00 0.00 0.00 0.00 0.01 0.00 0.00 0.00 0.00 0.01 0.00 0.00 0.00 0.00 0.00 0.00 0.00 0.00 0.00 0.00 0.02 0.06 0.10 0.13 0.14 0.14 0.15 0.15 0.18 0.37 0.72 1.22 1.75 1.77 1.67 1.71 1.48 1.03 0.82 0.77 0.81 0.91
0.00 0.00 0.00 0.01 0.01 0.01 0.00 0.00 0.01 0.02 0.02 0.01 0.03 0.06 0.04 0.01 0.00 0.00 0.00 0.00 0.00 0.00 0.02 0.06 0.12 0.13 0.12 0.14 0.11 0.12 0.17 0.34 0.72 1.37 2.01 2.04 1.98 2.01 1.62 1.19 1.00 0.97 1.04
0.00 0.00 0.00 0.01 0.02 0.01 0.01 0.01 0.02 0.03 0.04 0.02 0.03 0.14 0.23 0.15 0.04 0.00 0.00 0.00 0.00 0.00 0.00 0.02 0.06 0.11 0.14 0.15 0.14 0.12 0.14 0.20 0.36 0.79 1.55 2.27 2.37 2.41 2.29 1.70 1.34 1.20 1.19
0.00 0.00 0.01 0.01 0.01 0.01 0.01 0.02 0.02 0.04 0.07 0.08 0.04 0.06 0.14 0.19 0.24 0.12 0.02 0.03 0.03 0.03 0.02 0.02 0.03 0.07 0.13 0.18 0.21 0.21 0.22 0.23 0.30 0.50 1.00 1.83 2.54 2.74 2.81 2.43 1.81 1.51 1.41
0.00 0.00 0.01 0.01 0.01 0.01 0.01 0.02 0.03 0.04 0.08 0.11 0.11 0.10 0.08 0.07 0.12 0.22 0.10 0.04 0.07 0.08 0.07 0.05 0.06 0.09 0.12 0.20 0.23 0.23 0.30 0.35 0.46 0.51 0.71 1.17 2.09 2.79 3.15 3.11 2.51 1.86 1.59
0.00 0.00 0.00 0.00 0.01 0.01 0.02 0.03 0.04 0.05 0.06 0.07 0.10 0.12 0.16 0.18 0.13 0.18 0.18 0.06 0.03 0.04 0.06 0.08 0.08 0.12 0.15 0.20 0.26 0.35 0.35 0.43 0.60 0.57 0.51 0.67 1.24 2.08 2.84 3.25 3.05 2.37 1.83
0.00 0.00 0.00 0.00 0.00 0.01 0.01 0.03 0.04 0.05 0.05 0.07 0.09 0.11 0.13 0.15 0.15 0.19 0.24 0.14 0.06 0.02 0.01 0.04 0.07 0.10 0.15 0.18 0.22 0.28 0.27 0.33 0.43 0.47 0.39 0.37 0.62 1.17 1.98 2.85 3.24 2.86 2.23
0.00 0.00 0.00 0.00 0.00 0.01 0.01 0.03 0.04 0.04 0.05 0.07 0.08 0.11 0.16 0.13 0.16 0.23 0.30 0.35 0.28 0.08 0.02 0.03 0.04 0.07 0.11 0.16 0.16 0.18 0.16 0.19 0.26 0.33 0.35 0.29 0.34 0.58 1.11 1.99 3.14 3.55 2.95
0.00 0.00 0.00 0.00 0.00 0.01 0.02 0.04 0.05 0.05 0.08 0.10 0.12 0.15 0.19 0.17 0.19 0.22 0.27 0.41 0.59 0.42 0.11 0.03 0.04 0.08 0.13 0.15 0.16 0.15 0.13 0.14 0.18 0.24 0.30 0.31 0.29 0.34 0.53 1.03 1.92 3.20 3.85
0.00 0.00 0.00 0.00 0.01 0.02 0.04 0.06 0.06 0.08 0.11 0.13 0.16 0.20 0.21 0.21 0.22 0.23 0.29 0.33 0.47 0.58 0.35 0.05 0.04 0.08 0.18 0.19 0.17 0.15 0.15 0.16 0.16 0.17 0.20 0.23 0.26 0.30 0.38 0.59 1.04 1.83 3.01
0.00 0.00 0.00 0.01 0.03 0.05 0.07 0.09 0.08 0.10 0.14 0.15 0.18 0.22 0.23 0.26 0.29 0.26 0.30 0.32 0.34 0.40 0.38 0.10 0.03 0.05 0.15 0.22 0.20 0.15 0.15 0.16 0.15 0.16 0.18 0.21 0.25 0.31 0.40 0.51 0.70 1.09 1.78
0.00 0.00 0.01 0.03 0.06 0.10 0.11 0.13 0.13 0.13 0.16 0.18 0.20 0.24 0.26 0.25 0.26 0.24 0.27 0.28 0.26 0.25 0.31 0.19 0.06 0.05 0.11 0.18 0.27 0.27 0.22 0.19 0.18 0.18 0.20 0.24 0.30 0.33 0.37 0.46 0.61 0.83 1.19
0.00 0.00 0.01 0.05 0.13 0.20 0.19 0.15 0.19 0.20 0.19 0.21 0.23 0.26 0.26 0.26 0.25 0.22 0.27 0.27 0.22 0.20 0.25 0.27 0.13 0.07 0.11 0.14 0.25 0.35 0.30 0.26 0.23 0.22 0.22 0.24 0.30 0.35 0.36 0.38 0.48 0.64 0.84
0.01 0.01 0.01 0.03 0.14 0.33 0.36 0.27 0.32 0.30 0.24 0.20 0.17 0.17 0.24 0.34 0.33 0.32 0.35 0.30 0.26 0.29 0.32 0.35 0.23 0.14 0.15 0.16 0.26 0.38 0.42 0.39 0.32 0.27 0.26 0.24 0.28 0.38 0.39 0.33 0.32 0.39 0.59
0.01 0.01 0.01 0.02 0.08 0.42 0.79 0.74 0.67 0.49 0.29 0.17 0.11 0.11 0.19 0.33 0.38 0.52 0.63 0.53 0.51 0.57 0.53 0.52 0.43 0.34 0.30 0.32 0.36 0.37 0.51 0.53 0.46 0.39 0.32 0.26 0.26 0.26 0.28 0.29 0.29 0.32 0.40
0.01 0.02 0.02 0.02 0.04 0.30 0.83 0.91 0.68 0.37 0.22 0.16 0.12 0.09 0.12 0.24 0.27 0.35 0.49 0.59 0.67 0.79 0.82 0.78 0.70 0.59 0.45 0.40 0.39 0.48 0.55 0.63 0.62 0.51 0.44 0.34 0.32 0.34 0.30 0.27 0.29 0.28 0.34
0.02 0.02 0.02 0.02 0.02 0.16 0.66 0.78 0.48 0.26 0.17 0.13 0.10 0.08 0.09 0.18 0.24 0.32 0.37 0.40 0.45 0.59 0.77 0.85 0.87 0.64 0.49 0.42 0.50 0.61 0.57 0.60 0.60 0.65 0.71 0.58 0.42 0.41 0.38 0.42 0.47 0.38 0.35
0.02 0.02 0.02 0.02 0.01 0.08 0.51 0.65 0.37 0.20 0.13 0.10 0.06 0.07 0.08 0.12 0.25 0.44 0.45 0.40 0.35 0.42 0.61 0.80 1.00 0.85 0.64 0.60 0.75 0.86 0.84 0.74 0.58 0.64 0.82 0.84 0.60 0.50 0.53 0.57 0.57 0.47 0.40
0.02 0.02 0.02 0.01 0.01 0.02 0.30 0.54 0.36 0.19 0.12 0.08 0.04 0.05 0.08 0.12 0.24 0.44 0.47 0.37 0.26 0.26 0.33 0.54 0.77 0.88 0.82 0.83 0.97 1.24 1.30 1.10 0.82 0.68 0.80 0.94 0.88 0.74 0.79 0.85 0.77 0.62 0.49
0.02 0.02 0.02 0.01 0.01 0.01 0.14 0.38 0.40 0.23 0.12 0.08 0.06 0.05 0.09 0.20 0.30 0.42 0.41 0.37 0.41 0.33 0.28 0.28 0.34 0.46 0.60 0.71 0.90 1.20 1.36 1.22 0.95 0.92 0.90 0.93 1.08 1.03 1.12 1.11 0.98 0.74 0.54

GEFSMA_prec_meanprecacc_084.txt.gz
Total_Precipitation_Accumulation
0.00 0.00 0.00 0.00 0.00 0.00 0.00 0.00 0.01 0.03 0.07 0.12 0.14 0.12 0.12 0.11 0.12 0.14 0.12 0.12 0.10 0.08 0.09 0.15 0.26 0.43 0.61 0.78 1.01 1.10 0.90 0.75 0.61 0.49 0.49 0.57 0.64 0.68 0.69 0.71 0.75 0.70 0.55
0.00 0.00 0.00 0.00 0.00 0.00 0.00 0.00 0.00 0.00 0.00 0.01 0.02 0.05 0.09 0.12 0.15 0.16 0.14 0.13 0.12 0.09 0.09 0.11 0.17 0.30 0.50 0.72 0.96 1.27 1.19 1.05 0.88 0.68 0.51 0.50 0.56 0.61 0.63 0.68 0.72 0.78 0.72
0.00 0.00 0.00 0.00 0.00 0.00 0.00 0.00 0.00 0.00 0.00 0.00 0.00 0.00 0.01 0.03 0.07 0.12 0.12 0.14 0.16 0.13 0.11 0.12 0.14 0.19 0.33 0.57 0.84 1.16 1.46 1.36 1.18 1.01 0.76 0.54 0.51 0.56 0.60 0.67 0.72 0.78 0.80
0.00 0.00 0.00 0.00 0.00 0.00 0.00 0.00 0.00 0.00 0.00 0.00 0.00 0.00 0.00 0.00 0.00 0.02 0.04 0.09 0.14 0.17 0.15 0.15 0.16 0.17 0.22 0.34 0.58 0.91 1.40 1.53 1.51 1.37 1.20 0.87 0.62 0.56 0.59 0.64 0.73 0.79 0.83
0.00 0.00 0.00 0.00 0.00 0.00 0.00 0.00 0.00 0.00 0.00 0.00 0.00 0.00 0.00 0.00 0.00 0.00 0.00 0.02 0.05 0.11 0.15 0.16 0.16 0.16 0.16 0.20 0.34 0.59 1.01 1.44 1.61 1.59 1.50 1.31 0.95 0.67 0.62 0.64 0.70 0.81 0.88
0.00 0.00 0.00 0.00 0.00 0.00 0.00 0.00 0.00 0.00 0.00 0.00 0.00 0.00 0.00 0.00 0.00 0.00 0.00 0.00 0.01 0.05 0.09 0.12 0.14 0.15 0.15 0.15 0.21 0.35 0.65 1.09 1.53 1.64 1.58 1.57 1.40 0.99 0.74 0.70 0.72 0.82 0.91
0.00 0.00 0.00 0.00 0.00 0.01 0.00 0.00 0.00 0.00 0.01 0.00 0.00 0.00 0.00 0.00 0.00 0.00 0.00 0.00 0.00 0.02 0.06 0.10 0.13 0.14 0.14 0.15 0.15 0.18 0.37 0.72 1.22 1.75 1.77 1.69 1.73 1.50 1.07 0.87 0.83 0.87 0.98
0.00 0.00 0.00 0.01 0.01 0.01 0.00 0.00 0.01 0.02 0.02 0.01 0.03 0.06 0.04 0.01 0.00 0.00 0.00 0.00 0.00 0.00 0.02 0.06 0.12 0.13 0.12 0.14 0.11 0.12 0.17 0.34 0.72 1.37 2.01 2.05 1.99 2.03 1.65 1.23 1.06 1.03 1.12
0.00 0.00 0.00 0.01 0.02 0.01 0.01 0.01 0.02 0.03 0.04 0.02 0.03 0.14 0.23 0.15 0.04 0.00 0.00 0.00 0.00 0.00 0.00 0.02 0.06 0.11 0.14 0.15 0.14 0.12 0.14 0.20 0.36 0.79 1.55 2.27 2.38 2.42 2.31 1.73 1.38 1.25 1.26
0.00 0.00 0.01 0.01 0.01 0.01 0.01 0.02 0.02 0.04 0.07 0.08 0.04 0.06 0.14 0.19 0.24 0.12 0.02 0.03 0.03 0.03 0.02 0.02 0.03 0.07 0.13 0.18 0.21 0.21 0.22 0.23 0.30 0.50 1.00 1.83 2.55 2.75 2.83 2.46 1.84 1.56 1.47
0.00 0.00 0.01 0.01 0.01 0.01 0.01 0.02 0.03 0.04 0.08 0.11 0.11 0.10 0.08 0.07 0.12 0.22 0.10 0.04 0.07 0.08 0.07 0.05 0.06 0.09 0.12 0.20 0.23 0.23 0.30 0.35 0.46 0.51 0.72 1.17 2.09 2.81 3.17 3.14 2.55 1.91 1.65
0.00 0.00 0.00 0.00 0.01 0.01 0.02 0.03 0.04 0.05 0.06 0.07 0.10 0.12 0.16 0.18 0.13 0.18 0.18 0.06 0.03 0.04 0.06 0.08 0.08 0.12 0.15 0.20 0.26 0.35 0.35 0.43 0.60 0.57 0.51 0.67 1.24 2.09 2.85 3.27 3.08 2.41 1.87
0.00 0.00 0.00 0.00 0.00 0.01 0.01 0.03 0.04 0.05 0.05 0.07 0.09 0.11 0.13 0.15 0.15 0.19 0.24 0.14 0.06 0.02 0.01 0.04 0.07 0.10 0.15 0.18 0.22 0.28 0.27 0.33 0.43 0.47 0.39 0.37 0.63 1.17 1.99 2.87 3.26 2.88 2.25
0.00 0.00 0.00 0.00 0.00 0.01 0.01 0.03 0.04 0.04 0.05 0.07 0.08 0.11 0.16 0.13 0.16 0.23 0.30 0.35 0.28 0.08 0.02 0.03 0.04 0.07 0.11 0.16 0.16 0.18 0.16 0.19 0.26 0.33 0.35 0.29 0.34 0.58 1.12 2.00 3.16 3.56 2.96
0.00 0.00 0.00 0.00 0.00 0.01 0.02 0.04 0.05 0.05 0.08 0.10 0.12 0.15 0.19 0.17 0.19 0.22 0.27 0.41 0.59 0.42 0.11 0.03 0.04 0.08 0.13 0.15 0.16 0.15 0.13 0.14 0.18 0.24 0.30 0.31 0.29 0.35 0.55 1.04 1.94 3.22 3.86
0.00 0.00 0.00 0.00 0.01 0.02 0.04 0.06 0.06 0.08 0.11 0.13 0.16 0.20 0.21 0.21 0.22 0.23 0.29 0.33 0.47 0.58 0.35 0.05 0.04 0.08 0.18 0.19 0.17 0.15 0.15 0.16 0.16 0.18 0.21 0.24 0.27 0.31 0.40 0.61 1.07 1.86 3.03
0.00 0.00 0.00 0.01 0.03 0.05 0.07 0.09 0.08 0.10 0.14 0.15 0.18 0.22 0.23 0.26 0.29 0.26 0.30 0.33 0.34 0.40 0.39 0.10 0.04 0.05 0.15 0.22 0.20 0.15 0.15 0.16 0.15 0.16 0.18 0.22 0.26 0.32 0.42 0.53 0.73 1.12 1.81
0.00 0.00 0.01 0.03 0.06 0.10 0.11 0.13 0.13 0.13 0.16 0.18 0.20 0.24 0.26 0.25 0.26 0.24 0.27 0.28 0.26 0.25 0.31 0.20 0.06 0.05 0.11 0.19 0.27 0.27 0.22 0.19 0.18 0.18 0.20 0.25 0.32 0.35 0.40 0.49 0.64 0.86 1.23
0.00 0.00 0.01 0.05 0.13 0.20 0.19 0.15 0.19 0.20 0.19 0.21 0.23 0.26 0.26 0.26 0.25 0.22 0.27 0.28 0.23 0.20 0.25 0.28 0.14 0.07 0.11 0.14 0.25 0.35 0.30 0.26 0.24 0.22 0.22 0.24 0.30 0.37 0.37 0.40 0.51 0.68 0.88
0.01 0.01 0.01 0.03 0.14 0.33 0.36 0.27 0.32 0.30 0.24 0.20 0.17 0.17 0.24 0.34 0.33 0.32 0.35 0.30 0.26 0.29 0.33 0.37 0.26 0.16 0.16 0.17 0.27 0.38 0.43 0.40 0.33 0.27 0.26 0.25 0.29 0.39 0.40 0.35 0.34 0.42 0.61
0.01 0.01 0.01 0.02 0.08 0.42 0.79 0.74 0.67 0.49 0.29 0.17 0.11 0.11 0.19 0.33 0.38 0.53 0.64 0.54 0.53 0.60 0.57 0.56 0.48 0.38 0.33 0.35 0.38 0.39 0.53 0.54 0.47 0.39 0.33 0.26 0.27 0.26 0.29 0.29 0.30 0.33 0.40
0.01 0.02 0.02 0.02 0.04 0.30 0.83 0.91 0.68 0.37 0.22 0.16 0.12 0.09 0.12 0.24 0.27 0.36 0.51 0.61 0.70 0.82 0.86 0.82 0.76 0.65 0.48 0.42 0.41 0.50 0.57 0.67 0.66 0.51 0.45 0.34 0.32 0.34 0.30 0.27 0.29 0.28 0.34
0.02 0.02 0.02 0.02 0.02 0.16 0.66 0.78 0.48 0.26 0.17 0.13 0.10 0.08 0.09 0.18 0.24 0.32 0.37 0.41 0.46 0.61 0.80 0.89 0.92 0.67 0.51 0.43 0.52 0.63 0.60 0.63 0.63 0.67 0.72 0.60 0.42 0.41 0.38 0.42 0.47 0.38 0.36
0.02 0.02 0.02 0.02 0.01 0.08 0.51 0.65 0.37 0.20 0.13 0.10 0.06 0.07 0.08 0.12 0.25 0.45 0.46 0.41 0.36 0.43 0.63 0.82 1.02 0.87 0.66 0.62 0.78 0.92 0.92 0.83 0.65 0.66 0.83 0.86 0.61 0.50 0.53 0.57 0.57 0.48 0.41
0.02 0.02 0.02 0.01 0.01 0.02 0.30 0.54 0.36 0.19 0.12 0.08 0.04 0.05 0.08 0.12 0.25 0.47 0.50 0.39 0.28 0.28 0.35 0.57 0.81 0.93 0.89 0.91 1.05 1.35 1.44 1.26 0.96 0.73 0.81 0.96 0.89 0.74 0.79 0.85 0.77 0.62 0.49
0.02 0.02 0.02 0.01 0.01 0.01 0.14 0.38 0.40 0.23 0.12 0.08 0.07 0.05 0.10 0.22 0.32 0.45 0.44 0.40 0.46 0.36 0.30 0.30 0.36 0.49 0.63 0.73 0.93 1.24 1.42 1.33 1.07 1.01 0.92 0.95 1.09 1.05 1.14 1.11 0.98 0.74 0.55

GEFSMA_prec_meanprecacc_090.txt.gz
Total_Precipitation_Accumulation
0.00 0.00 0.00 0.00 0.00 0.00 0.00 0.00 0.01 0.03 0.07 0.12 0.14 0.12 0.12 0.11 0.12 0.14 0.12 0.12 0.10 0.08 0.09 0.15 0.26 0.43 0.61 0.79 1.02 1.11 0.91 0.77 0.62 0.51 0.51 0.59 0.67 0.70 0.71 0.73 0.77 0.71 0.57
0.00 0.00 0.00 0.00 0.00 0.00 0.00 0.00 0.00 0.00 0.00 0.01 0.02 0.05 0.09 0.12 0.15 0.16 0.14 0.13 0.12 0.09 0.09 0.11 0.17 0.31 0.50 0.73 0.97 1.28 1.20 1.06 0.89 0.70 0.53 0.53 0.59 0.64 0.66 0.71 0.75 0.81 0.75
0.00 0.00 0.00 0.00 0.00 0.00 0.00 0.00 0.00 0.00 0.00 0.00 0.00 0.00 0.01 0.03 0.07 0.12 0.12 0.14 0.16 0.13 0.11 0.12 0.14 0.19 0.33 0.57 0.85 1.16 1.46 1.37 1.19 1.02 0.78 0.56 0.53 0.58 0.63 0.70 0.76 0.81 0.84
0.00 0.00 0.00 0.00 0.00 0.00 0.00 0.00 0.00 0.00 0.00 0.00 0.00 0.00 0.00 0.00 0.00 0.02 0.04 0.09 0.14 0.17 0.15 0.15 0.16 0.17 0.22 0.34 0.58 0.91 1.41 1.54 1.52 1.37 1.20 0.88 0.63 0.57 0.62 0.67 0.77 0.83 0.88
0.00 0.00 0.00 0.00 0.00 0.00 0.00 0.00 0.00 0.00 0.00 0.00 0.00 0.00 0.00 0.00 0.00 0.00 0.00 0.02 0.05 0.11 0.15 0.16 0.16 0.16 0.16 0.20 0.34 0.60 1.01 1.44 1.61 1.59 1.51 1.31 0.96 0.68 0.64 0.67 0.73 0.85 0.93
0.00 0.00 0.00 0.00 0.00 0.00 0.00 0.00 0.00 0.00 0.00 0.00 0.00 0.00 0.00 0.00 0.00 0.00 0.00 0.00 0.01 0.05 0.09 0.12 0.14 0.15 0.15 0.15 0.21 0.35 0.65 1.09 1.53 1.64 1.59 1.57 1.40 0.99 0.75 0.71 0.74 0.85 0.95
0.00 0.00 0.00 0.00 0.00 0.01 0.00 0.00 0.00 0.00 0.01 0.00 0.00 0.00 0.00 0.00 0.00 0.00 0.00 0.00 0.00 0.02 0.06 0.10 0.13 0.14 0.14 0.15 0.15 0.18 0.37 0.72 1.22 1.75 1.77 1.69 1.73 1.51 1.08 0.88 0.84 0.89 1.01
0.00 0.00 0.00 0.01 0.01 0.01 0.00 0.00 0.01 0.02 0.02 0.01 0.03 0.06 0.04 0.01 0.00 0.00 0.00 0.00 0.00 0.00 0.02 0.06 0.12 0.13 0.12 0.14 0.11 0.12 0.17 0.34 0.72 1.37 2.01 2.05 1.99 2.03 1.65 1.23 1.07 1.04 1.14
0.00 0.00 0.00 0.01 0.02 0.01 0.01 0.01 0.02 0.03 0.04 0.02 0.03 0.14 0.23 0.15 0.04 0.00 0.00 0.00 0.00 0.00 0.00 0.02 0.06 0.11 0.14 0.15 0.14 0.12 0.14 0.20 0.36 0.79 1.56 2.28 2.38 2.43 2.32 1.74 1.39 1.27 1.28
0.00 0.00 0.01 0.01 0.01 0.01 0.01 0.02 0.02 0.04 0.07 0.08 0.04 0.06 0.14 0.19 0.24 0.12 0.02 0.03 0.03 0.03 0.02 0.02 0.03 0.07 0.13 0.18 0.21 0.21 0.22 0.23 0.30 0.50 1.00 1.83 2.55 2.76 2.85 2.48 1.87 1.59 1.50
0.00 0.00 0.01 0.01 0.01 0.01 0.01 0.02 0.03 0.04 0.08 0.11 0.11 0.10 0.08 0.07 0.12 0.22 0.10 0.04 0.07 0.08 0.07 0.05 0.06 0.09 0.12 0.20 0.23 0.23 0.30 0.35 0.46 0.51 0.72 1.18 2.10 2.82 3.19 3.17 2.59 1.95 1.69
0.00 0.00 0.00 0.00 0.01 0.01 0.02 0.03 0.04 0.05 0.06 0.07 0.10 0.12 0.16 0.18 0.13 0.18 0.18 0.06 0.03 0.04 0.06 0.08 0.08 0.12 0.15 0.20 0.26 0.35 0.35 0.43 0.60 0.57 0.51 0.67 1.24 2.10 2.87 3.29 3.10 2.43 1.91
0.00 0.00 0.00 0.00 0.00 0.01 0.01 0.03 0.04 0.05 0.05 0.07 0.09 0.11 0.13 0.15 0.15 0.19 0.24 0.14 0.06 0.02 0.01 0.04 0.07 0.10 0.15 0.18 0.22 0.28 0.27 0.33 0.43 0.47 0.39 0.38 0.63 1.18 2.00 2.88 3.27 2.90 2.28
0.00 0.00 0.00 0.00 0.00 0.01 0.01 0.03 0.04 0.04 0.05 0.07 0.08 0.11 0.16 0.13 0.16 0.23 0.30 0.35 0.28 0.08 0.02 0.03 0.04 0.07 0.11 0.16 0.16 0.18 0.16 0.19 0.26 0.34 0.35 0.30 0.35 0.59 1.13 2.01 3.17 3.58 2.98
0.00 0.00 0.00 0.00 0.00 0.01 0.02 0.04 0.05 0.05 0.08 0.10 0.12 0.15 0.19 0.17 0.19 0.22 0.27 0.41 0.59 0.42 0.11 0.03 0.04 0.08 0.13 0.15 0.16 0.15 0.13 0.14 0.19 0.25 0.31 0.32 0.31 0.37 0.56 1.06 1.96 3.24 3.89
0.00 0.00 0.00 0.00 0.01 0.02 0.04 0.06 0.06 0.08 0.11 0.13 0.16 0.20 0.21 0.21 0.22 0.23 0.29 0.33 0.47 0.58 0.35 0.05 0.04 0.08 0.18 0.19 0.17 0.15 0.15 0.16 0.17 0.18 0.21 0.25 0.28 0.32 0.42 0.63 1.09 1.88 3.06
0.00 0.00 0.00 0.01 0.03 0.05 0.07 0.09 0.08 0.10 0.14 0.15 0.18 0.22 0.23 0.26 0.29 0.26 0.30 0.33 0.34 0.40 0.39 0.10 0.04 0.05 0.15 0.22 0.20 0.15 0.15 0.16 0.15 0.16 0.19 0.23 0.28 0.35 0.44 0.56 0.76 1.16 1.85
0.00 0.00 0.01 0.03 0.06 0.10 0.11 0.13 0.13 0.13 0.16 0.18 0.20 0.24 0.26 0.25 0.26 0.24 0.27 0.28 0.26 0.25 0.31 0.20 0.06 0.05 0.11 0.19 0.27 0.27 0.22 0.19 0.18 0.18 0.21 0.26 0.34 0.37 0.43 0.53 0.68 0.90 1.27
0.00 0.00 0.01 0.05 0.13 0.20 0.19 0.15 0.19 0.20 0.19 0.21 0.23 0.26 0.26 0.26 0.25 0.22 0.27 0.28 0.23 0.20 0.25 0.28 0.14 0.08 0.11 0.14 0.25 0.35 0.31 0.26 0.24 0.22 0.22 0.25 0.31 0.38 0.39 0.43 0.55 0.72 0.92
0.01 0.01 0.01 0.03 0.14 0.33 0.36 0.27 0.32 0.30 0.24 0.20 0.17 0.17 0.24 0.34 0.33 0.32 0.35 0.30 0.27 0.30 0.34 0.38 0.27 0.17 0.17 0.18 0.27 0.39 0.43 0.40 0.33 0.27 0.26 0.25 0.29 0.39 0.41 0.37 0.36 0.44 0.63
0.01 0.01 0.01 0.02 0.08 0.42 0.79 0.74 0.67 0.49 0.29 0.17 0.11 0.11 0.19 0.33 0.38 0.53 0.64 0.55 0.53 0.61 0.58 0.59 0.51 0.40 0.34 0.35 0.39 0.39 0.54 0.55 0.47 0.39 0.33 0.26 0.27 0.26 0.29 0.29 0.30 0.33 0.41
0.01 0.02 0.02 0.02 0.04 0.30 0.83 0.91 0.68 0.37 0.22 0.16 0.12 0.09 0.12 0.24 0.27 0.36 0.51 0.62 0.71 0.84 0.88 0.85 0.79 0.69 0.50 0.43 0.42 0.51 0.59 0.70 0.68 0.52 0.45 0.35 0.32 0.34 0.30 0.27 0.29 0.29 0.35
0.02 0.02 0.02 0.02 0.02 0.16 0.66 0.78 0.48 0.26 0.17 0.13 0.10 0.08 0.09 0.18 0.24 0.32 0.37 0.41 0.47 0.62 0.82 0.92 0.96 0.70 0.52 0.45 0.54 0.66 0.63 0.67 0.67 0.68 0.74 0.62 0.43 0.41 0.38 0.42 0.47 0.38 0.37
0.02 0.02 0.02 0.02 0.01 0.08 0.51 0.65 0.37 0.20 0.13 0.10 0.06 0.07 0.08 0.12 0.25 0.45 0.46 0.41 0.36 0.43 0.63 0.83 1.03 0.88 0.68 0.64 0.82 0.99 1.01 0.93 0.72 0.69 0.85 0.90 0.61 0.50 0.53 0.57 0.57 0.48 0.42
0.02 0.02 0.02 0.01 0.01 0.02 0.30 0.54 0.36 0.19 0.12 0.08 0.04 0.05 0.08 0.12 0.25 0.48 0.52 0.40 0.29 0.28 0.36 0.60 0.85 0.97 0.93 0.96 1.11 1.42 1.53 1.36 1.05 0.76 0.82 0.98 0.90 0.75 0.79 0.85 0.77 0.62 0.50
0.02 0.02 0.02 0.01 0.01 0.01 0.14 0.38 0.40 0.23 0.12 0.08 0.07 0.05 0.10 0.22 0.34 0.48 0.46 0.43 0.50 0.39 0.32 0.32 0.38 0.51 0.64 0.74 0.95 1.26 1.46 1.42 1.16 1.05 0.93 0.96 1.11 1.07 1.16 1.11 0.98 0.74 0.55

GEFSMA_prec_meanprecacc_096.txt.gz
Total_Precipitation_Accumulation
0.00 0.00 0.00 0.00 0.00 0.00 0.00 0.00 0.01 0.03 0.07 0.12 0.14 0.12 0.12 0.11 0.12 0.14 0.12 0.12 0.10 0.08 0.09 0.15 0.26 0.44 0.61 0.79 1.02 1.12 0.92 0.78 0.64 0.53 0.52 0.61 0.68 0.72 0.73 0.75 0.80 0.74 0.60
0.00 0.00 0.00 0.00 0.00 0.00 0.00 0.00 0.00 0.00 0.00 0.01 0.02 0.05 0.09 0.12 0.15 0.16 0.14 0.13 0.12 0.09 0.09 0.11 0.17 0.31 0.50 0.73 0.98 1.28 1.21 1.07 0.90 0.71 0.54 0.54 0.60 0.65 0.67 0.72 0.77 0.83 0.77
0.01 0.01 0.01 0.01 0.00 0.00 0.00 0.00 0.00 0.00 0.00 0.00 0.00 0.00 0.01 0.03 0.07 0.12 0.12 0.14 0.16 0.13 0.11 0.12 0.14 0.19 0.33 0.57 0.85 1.16 1.47 1.37 1.20 1.03 0.78 0.56 0.54 0.59 0.64 0.71 0.77 0.83 0.86
0.01 0.01 0.01 0.01 0.00 0.00 0.00 0.00 0.00 0.00 0.00 0.00 0.00 0.00 0.00 0.00 0.00 0.02 0.04 0.09 0.14 0.17 0.15 0.15 0.16 0.17 0.22 0.34 0.58 0.91 1.41 1.54 1.52 1.38 1.21 0.89 0.64 0.58 0.62 0.68 0.77 0.84 0.89
0.01 0.01 0.01 0.01 0.00 0.00 0.00 0.00 0.00 0.00 0.00 0.00 0.00 0.00 0.00 0.00 0.00 0.00 0.00 0.02 0.05 0.11 0.15 0.16 0.16 0.16 0.16 0.20 0.34 0.60 1.01 1.44 1.61 1.59 1.51 1.32 0.96 0.69 0.64 0.67 0.74 0.85 0.94
0.00 0.00 0.00 0.00 0.00 0.01 0.00 0.00 0.00 0.00 0.00 0.00 0.00 0.00 0.00 0.00 0.00 0.00 0.00 0.00 0.01 0.05 0.09 0.12 0.14 0.15 0.15 0.15 0.21 0.35 0.65 1.09 1.53 1.64 1.59 1.57 1.40 1.00 0.76 0.72 0.75 0.86 0.96
0.00 0.00 0.00 0.00 0.01 0.01 0.01 0.00 0.00 0.00 0.01 0.00 0.00 0.00 0.00 0.00 0.00 0.00 0.00 0.00 0.00 0.02 0.06 0.10 0.13 0.14 0.14 0.15 0.15 0.18 0.37 0.72 1.22 1.75 1.77 1.69 1.73 1.51 1.08 0.88 0.85 0.90 1.02
0.00 0.00 0.00 0.01 0.01 0.01 0.00 0.00 0.01 0.02 0.02 0.01 0.03 0.06 0.04 0.01 0.00 0.00 0.00 0.00 0.00 0.00 0.02 0.06 0.12 0.13 0.12 0.14 0.11 0.12 0.17 0.34 0.72 1.37 2.01 2.05 2.00 2.04 1.66 1.24 1.07 1.05 1.15
0.00 0.00 0.00 0.01 0.02 0.01 0.01 0.01 0.02 0.03 0.04 0.02 0.03 0.14 0.23 0.15 0.04 0.00 0.00 0.00 0.00 0.00 0.00 0.02 0.06 0.11 0.14 0.15 0.14 0.12 0.14 0.20 0.36 0.79 1.56 2.28 2.39 2.44 2.33 1.75 1.41 1.28 1.30
0.00 0.00 0.01 0.01 0.01 0.01 0.01 0.02 0.02 0.04 0.07 0.08 0.04 0.06 0.14 0.19 0.24 0.12 0.02 0.03 0.03 0.03 0.02 0.02 0.03 0.07 0.13 0.18 0.21 0.21 0.22 0.23 0.30 0.50 1.01 1.84 2.56 2.77 2.87 2.50 1.89 1.62 1.53
0.00 0.00 0.01 0.01 0.01 0.01 0.01 0.02 0.03 0.04 0.08 0.11 0.11 0.10 0.08 0.07 0.12 0.22 0.10 0.04 0.07 0.08 0.07 0.05 0.06 0.09 0.12 0.20 0.23 0.23 0.30 0.35 0.46 0.52 0.72 1.19 2.11 2.83 3.21 3.19 2.61 1.98 1.72
0.00 0.00 0.00 0.00 0.01 0.01 0.02 0.03 0.04 0.05 0.06 0.07 0.10 0.12 0.16 0.18 0.13 0.18 0.18 0.06 0.03 0.04 0.06 0.08 0.08 0.12 0.15 0.20 0.26 0.35 0.35 0.43 0.60 0.57 0.51 0.68 1.25 2.11 2.88 3.31 3.13 2.46 1.93
0.00 0.00 0.00 0.00 0.00 0.01 0.01 0.03 0.04 0.05 0.05 0.07 0.09 0.11 0.13 0.15 0.15 0.19 0.24 0.14 0.06 0.02 0.01 0.04 0.07 0.10 0.15 0.18 0.22 0.28 0.27 0.33 0.43 0.48 0.40 0.39 0.64 1.19 2.01 2.90 3.29 2.92 2.30
0.00 0.00 0.00 0.00 0.00 0.01 0.01 0.03 0.04 0.04 0.05 0.07 0.08 0.11 0.16 0.13 0.16 0.23 0.30 0.35 0.28 0.08 0.02 0.03 0.04 0.07 0.11 0.16 0.16 0.18 0.16 0.19 0.26 0.34 0.36 0.31 0.36 0.60 1.14 2.03 3.19 3.60 3.01
0.00 0.00 0.00 0.00 0.00 0.01 0.02 0.04 0.05 0.05 0.08 0.10 0.12 0.15 0.19 0.17 0.19 0.22 0.27 0.41 0.59 0.42 0.11 0.03 0.04 0.08 0.13 0.15 0.16 0.15 0.13 0.14 0.19 0.25 0.32 0.33 0.32 0.38 0.58 1.08 1.98 3.27 3.91
0.00 0.00 0.00 0.00 0.01 0.02 0.04 0.06 0.06 0.08 0.11 0.13 0.16 0.20 0.21 0.21 0.22 0.23 0.29 0.33 0.47 0.58 0.35 0.05 0.04 0.08 0.18 0.19 0.17 0.15 0.15 0.16 0.17 0.18 0.21 0.26 0.30 0.34 0.44 0.66 1.12 1.91 3.10
0.00 0.00 0.00 0.01 0.03 0.05 0.07 0.09 0.08 0.10 0.14 0.15 0.18 0.22 0.23 0.26 0.29 0.26 0.30 0.33 0.34 0.40 0.39 0.10 0.04 0.05 0.15 0.22 0.20 0.15 0.15 0.16 0.15 0.16 0.19 0.23 0.29 0.37 0.47 0.59 0.79 1.20 1.89
0.00 0.00 0.01 0.03 0.06 0.10 0.11 0.13 0.13 0.13 0.16 0.18 0.20 0.24 0.26 0.25 0.26 0.24 0.27 0.28 0.26 0.25 0.31 0.20 0.06 0.05 0.11 0.19 0.27 0.27 0.22 0.20 0.18 0.18 0.21 0.27 0.35 0.39 0.45 0.55 0.71 0.94 1.31
0.00 0.00 0.01 0.05 0.13 0.20 0.19 0.15 0.19 0.20 0.19 0.21 0.23 0.26 0.26 0.26 0.25 0.22 0.27 0.28 0.23 0.20 0.25 0.28 0.14 0.08 0.12 0.15 0.26 0.36 0.31 0.26 0.24 0.22 0.22 0.25 0.32 0.39 0.41 0.46 0.58 0.76 0.96
0.01 0.01 0.01 0.03 0.14 0.33 0.36 0.27 0.32 0.30 0.24 0.20 0.17 0.17 0.24 0.34 0.33 0.32 0.35 0.30 0.27 0.30 0.34 0.40 0.29 0.17 0.18 0.18 0.28 0.40 0.44 0.40 0.33 0.27 0.26 0.25 0.29 0.40 0.43 0.39 0.38 0.46 0.65
0.01 0.01 0.01 0.02 0.08 0.42 0.79 0.74 0.67 0.49 0.29 0.17 0.11 0.11 0.19 0.33 0.38 0.53 0.64 0.55 0.54 0.63 0.60 0.61 0.53 0.42 0.36 0.37 0.41 0.41 0.56 0.56 0.48 0.39 0.33 0.27 0.27 0.27 0.29 0.30 0.30 0.33 0.41
0.01 0.02 0.02 0.02 0.04 0.30 0.83 0.91 0.68 0.37 0.22 0.16 0.12 0.09 0.12 0.24 0.28 0.36 0.52 0.63 0.72 0.86 0.91 0.89 0.84 0.73 0.53 0.46 0.45 0.54 0.61 0.72 0.70 0.53 0.46 0.36 0.33 0.35 0.30 0.28 0.30 0.29 0.36
0.02 0.02 0.02 0.02 0.02 0.16 0.66 0.78 0.48 0.26 0.17 0.14 0.10 0.08 0.10 0.18 0.24 0.32 0.37 0.41 0.47 0.63 0.85 0.96 1.00 0.73 0.55 0.47 0.57 0.70 0.68 0.73 0.72 0.70 0.77 0.65 0.44 0.42 0.39 0.43 0.47 0.39 0.39
0.02 0.02 0.02 0.02 0.01 0.08 0.51 0.65 0.37 0.21 0.13 0.10 0.06 0.07 0.08 0.12 0.25 0.45 0.47 0.42 0.37 0.44 0.65 0.85 1.05 0.90 0.71 0.68 0.88 1.09 1.13 1.03 0.79 0.72 0.88 0.94 0.63 0.51 0.54 0.57 0.58 0.49 0.43
0.02 0.02 0.02 0.01 0.01 0.02 0.30 0.54 0.36 0.19 0.12 0.08 0.04 0.05 0.08 0.12 0.26 0.50 0.54 0.42 0.30 0.30 0.37 0.62 0.89 1.02 0.99 1.02 1.18 1.50 1.61 1.43 1.10 0.78 0.84 1.02 0.92 0.76 0.80 0.85 0.77 0.63 0.50
0.02 0.02 0.02 0.01 0.01 0.01 0.14 0.38 0.40 0.23 0.12 0.08 0.07 0.06 0.10 0.23 0.35 0.50 0.49 0.46 0.54 0.42 0.34 0.35 0.41 0.54 0.66 0.75 0.96 1.29 1.50 1.48 1.21 1.09 0.95 0.99 1.14 1.10 1.20 1.12 0.98 0.74 0.55

GEFSMA_prec_meanprecacc_102.txt.gz
Total_Precipitation_Accumulation
0.00 0.00 0.00 0.00 0.00 0.00 0.00 0.00 0.01 0.03 0.07 0.12 0.14 0.12 0.12 0.11 0.12 0.14 0.12 0.12 0.10 0.08 0.09 0.15 0.26 0.44 0.62 0.79 1.03 1.12 0.93 0.78 0.64 0.54 0.54 0.62 0.70 0.73 0.75 0.77 0.82 0.76 0.62
0.01 0.01 0.01 0.01 0.01 0.00 0.00 0.00 0.00 0.00 0.00 0.01 0.02 0.05 0.10 0.12 0.15 0.16 0.14 0.13 0.12 0.09 0.09 0.11 0.17 0.31 0.50 0.73 0.98 1.28 1.21 1.07 0.90 0.71 0.55 0.54 0.61 0.66 0.69 0.74 0.78 0.85 0.79
0.01 0.01 0.01 0.01 0.01 0.00 0.00 0.00 0.00 0.00 0.00 0.00 0.00 0.00 0.01 0.03 0.07 0.12 0.12 0.14 0.16 0.13 0.11 0.12 0.14 0.19 0.33 0.57 0.85 1.16 1.47 1.37 1.20 1.03 0.79 0.57 0.55 0.60 0.65 0.72 0.78 0.84 0.87
0.01 0.01 0.01 0.01 0.01 0.00 0.00 0.01 0.00 0.00 0.00 0.00 0.00 0.00 0.00 0.00 0.00 0.02 0.04 0.09 0.14 0.17 0.15 0.15 0.16 0.17 0.22 0.34 0.58 0.91 1.41 1.54 1.52 1.38 1.21 0.89 0.64 0.58 0.63 0.68 0.78 0.85 0.90
0.01 0.01 0.01 0.01 0.01 0.01 0.01 0.01 0.00 0.00 0.00 0.00 0.00 0.00 0.00 0.00 0.00 0.00 0.00 0.02 0.05 0.11 0.15 0.16 0.16 0.16 0.16 0.20 0.34 0.60 1.01 1.44 1.61 1.59 1.51 1.32 0.96 0.69 0.65 0.68 0.75 0.86 0.95
0.01 0.01 0.01 0.01 0.01 0.01 0.01 0.00 0.00 0.00 0.00 0.00 0.00 0.00 0.00 0.00 0.00 0.00 0.00 0.00 0.01 0.05 0.09 0.12 0.14 0.15 0.15 0.15 0.21 0.35 0.65 1.09 1.53 1.64 1.59 1.57 1.40 1.00 0.76 0.72 0.76 0.86 0.97
0.00 0.00 0.00 0.01 0.01 0.01 0.01 0.00 0.00 0.00 0.01 0.00 0.00 0.00 0.00 0.00 0.00 0.00 0.00 0.00 0.00 0.02 0.06 0.10 0.13 0.14 0.14 0.15 0.15 0.18 0.37 0.72 1.22 1.75 1.78 1.69 1.74 1.52 1.09 0.89 0.86 0.91 1.03
0.00 0.00 0.00 0.01 0.01 0.01 0.00 0.00 0.01 0.02 0.02 0.01 0.03 0.06 0.04 0.01 0.00 0.00 0.00 0.00 0.00 0.00 0.02 0.06 0.12 0.13 0.12 0.14 0.11 0.12 0.17 0.34 0.72 1.37 2.01 2.05 2.00 2.05 1.67 1.26 1.09 1.07 1.17
0.00 0.00 0.01 0.01 0.02 0.01 0.01 0.01 0.02 0.03 0.04 0.02 0.03 0.14 0.23 0.15 0.04 0.00 0.00 0.00 0.00 0.00 0.00 0.02 0.06 0.11 0.14 0.15 0.14 0.12 0.14 0.20 0.36 0.79 1.56 2.29 2.40 2.45 2.35 1.77 1.43 1.31 1.33
0.00 0.00 0.01 0.01 0.01 0.01 0.01 0.02 0.02 0.04 0.07 0.08 0.04 0.06 0.14 0.19 0.24 0.12 0.02 0.03 0.03 0.03 0.02 0.02 0.03 0.07 0.13 0.18 0.21 0.21 0.22 0.23 0.30 0.50 1.01 1.85 2.57 2.79 2.89 2.53 1.92 1.65 1.56
0.00 0.00 0.01 0.01 0.01 0.01 0.01 0.02 0.03 0.04 0.08 0.11 0.11 0.10 0.08 0.07 0.12 0.22 0.10 0.04 0.07 0.08 0.07 0.05 0.06 0.09 0.12 0.20 0.23 0.23 0.30 0.35 0.46 0.52 0.73 1.19 2.12 2.84 3.23 3.22 2.64 2.00 1.75
0.00 0.00 0.00 0.00 0.01 0.01 0.02 0.03 0.04 0.05 0.06 0.07 0.10 0.12 0.16 0.18 0.13 0.18 0.18 0.06 0.03 0.04 0.06 0.08 0.08 0.12 0.15 0.20 0.26 0.35 0.35 0.43 0.60 0.57 0.52 0.68 1.26 2.12 2.90 3.33 3.15 2.48 1.95
0.00 0.00 0.00 0.00 0.00 0.01 0.01 0.03 0.04 0.05 0.05 0.07 0.09 0.11 0.13 0.15 0.15 0.19 0.24 0.14 0.06 0.02 0.01 0.04 0.07 0.10 0.15 0.18 0.22 0.28 0.27 0.33 0.43 0.48 0.40 0.39 0.65 1.20 2.02 2.91 3.31 2.94 2.32
0.00 0.00 0.00 0.00 0.00 0.01 0.01 0.03 0.04 0.04 0.05 0.07 0.08 0.11 0.16 0.13 0.16 0.23 0.30 0.35 0.28 0.08 0.02 0.03 0.04 0.07 0.11 0.16 0.16 0.18 0.16 0.19 0.26 0.34 0.36 0.31 0.37 0.61 1.16 2.05 3.21 3.62 3.03
0.00 0.00 0.00 0.00 0.00 0.01 0.02 0.04 0.05 0.05 0.08 0.10 0.12 0.15 0.19 0.17 0.19 0.22 0.27 0.41 0.59 0.42 0.11 0.03 0.04 0.08 0.13 0.15 0.16 0.15 0.13 0.14 0.19 0.25 0.32 0.34 0.33 0.39 0.60 1.10 2.00 3.29 3.94
0.00 0.00 0.00 0.00 0.01 0.02 0.04 0.06 0.06 0.08 0.11 0.13 0.16 0.20 0.21 0.21 0.22 0.23 0.29 0.33 0.47 0.59 0.35 0.06 0.04 0.08 0.18 0.19 0.17 0.15 0.15 0.16 0.17 0.18 0.22 0.26 0.31 0.36 0.46 0.68 1.15 1.94 3.13
0.00 0.00 0.00 0.01 0.03 0.05 0.07 0.09 0.08 0.10 0.14 0.15 0.18 0.22 0.23 0.26 0.29 0.26 0.30 0.33 0.34 0.40 0.39 0.10 0.04 0.05 0.15 0.22 0.20 0.15 0.15 0.16 0.15 0.16 0.19 0.24 0.31 0.38 0.49 0.62 0.82 1.23 1.93
0.00 0.00 0.01 0.03 0.06 0.10 0.11 0.13 0.13 0.13 0.16 0.18 0.20 0.24 0.26 0.25 0.26 0.24 0.27 0.28 0.26 0.25 0.31 0.20 0.06 0.05 0.11 0.19 0.27 0.27 0.22 0.20 0.18 0.18 0.21 0.28 0.36 0.41 0.47 0.58 0.73 0.97 1.34
0.00 0.00 0.01 0.05 0.13 0.20 0.19 0.15 0.19 0.20 0.19 0.21 0.23 0.26 0.26 0.26 0.25 0.22 0.27 0.28 0.23 0.21 0.26 0.29 0.14 0.08 0.12 0.15 0.26 0.36 0.31 0.27 0.24 0.22 0.23 0.26 0.32 0.40 0.43 0.48 0.61 0.79 1.00
0.01 0.01 0.01 0.03 0.14 0.33 0.36 0.27 0.32 0.30 0.24 0.20 0.17 0.17 0.24 0.34 0.33 0.32 0.35 0.30 0.27 0.30 0.35 0.40 0.29 0.18 0.18 0.19 0.29 0.41 0.45 0.41 0.34 0.27 0.26 0.26 0.30 0.41 0.43 0.40 0.40 0.48 0.67
0.01 0.01 0.01 0.02 0.08 0.42 0.79 0.74 0.67 0.49 0.29 0.17 0.11 0.11 0.19 0.33 0.38 0.53 0.65 0.56 0.55 0.63 0.62 0.63 0.55 0.44 0.37 0.38 0.42 0.43 0.58 0.57 0.49 0.40 0.34 0.27 0.27 0.27 0.29 0.30 0.31 0.35 0.43
0.01 0.02 0.02 0.02 0.04 0.30 0.83 0.91 0.68 0.37 0.22 0.16 0.12 0.09 0.12 0.24 0.28 0.36 0.52 0.63 0.73 0.87 0.92 0.91 0.86 0.75 0.54 0.47 0.47 0.56 0.64 0.75 0.73 0.54 0.48 0.36 0.34 0.36 0.31 0.28 0.30 0.31 0.39
0.02 0.02 0.02 0.02 0.02 0.16 0.67 0.78 0.48 0.26 0.17 0.14 0.10 0.08 0.10 0.18 0.24 0.32 0.37 0.41 0.48 0.63 0.86 0.98 1.03 0.75 0.56 0.48 0.59 0.73 0.71 0.78 0.75 0.72 0.79 0.67 0.45 0.43 0.39 0.43 0.49 0.42 0.42
0.02 0.02 0.02 0.02 0.01 0.08 0.51 0.65 0.37 0.21 0.13 0.10 0.06 0.07 0.08 0.12 0.25 0.45 0.47 0.42 0.38 0.44 0.66 0.87 1.07 0.91 0.72 0.71 0.91 1.14 1.19 1.09 0.82 0.73 0.90 0.97 0.64 0.53 0.55 0.58 0.59 0.51 0.46
0.02 0.02 0.02 0.01 0.01 0.02 0.30 0.54 0.36 0.19 0.12 0.08 0.04 0.05 0.08 0.12 0.26 0.50 0.55 0.44 0.31 0.30 0.39 0.64 0.92 1.05 1.03 1.07 1.23 1.55 1.67 1.49 1.14 0.79 0.85 1.04 0.93 0.77 0.81 0.86 0.78 0.64 0.52
0.02 0.02 0.02 0.01 0.01 0.01 0.14 0.38 0.40 0.23 0.12 0.08 0.07 0.06 0.10 0.23 0.36 0.51 0.51 0.48 0.56 0.43 0.36 0.37 0.43 0.55 0.68 0.77 0.98 1.31 1.52 1.52 1.24 1.11 0.96 1.01 1.15 1.12 1.23 1.13 0.99 0.75 0.56

GEFSMA_prec_meanprecacc_108.txt.gz
Total_Precipitation_Accumulation
0.00 0.00 0.00 0.00 0.00 0.00 0.00 0.00 0.01 0.03 0.07 0.12 0.14 0.12 0.12 0.11 0.12 0.14 0.12 0.12 0.10 0.08 0.09 0.15 0.26 0.44 0.62 0.79 1.03 1.12 0.93 0.78 0.64 0.54 0.54 0.63 0.70 0.74 0.75 0.78 0.83 0.78 0.64
0.01 0.01 0.01 0.01 0.01 0.00 0.00 0.00 0.00 0.00 0.00 0.01 0.02 0.05 0.10 0.12 0.15 0.16 0.14 0.13 0.12 0.09 0.09 0.11 0.17 0.31 0.50 0.73 0.98 1.28 1.21 1.07 0.90 0.71 0.55 0.54 0.61 0.66 0.69 0.74 0.79 0.86 0.80
0.01 0.01 0.01 0.01 0.01 0.00 0.00 0.00 0.00 0.00 0.00 0.00 0.00 0.00 0.01 0.03 0.07 0.12 0.12 0.14 0.16 0.13 0.11 0.12 0.14 0.19 0.33 0.57 0.85 1.16 1.47 1.37 1.20 1.03 0.79 0.57 0.55 0.60 0.65 0.73 0.79 0.85 0.88
0.01 0.01 0.01 0.01 0.01 0.00 0.00 0.01 0.00 0.00 0.00 0.00 0.00 0.00 0.00 0.00 0.00 0.02 0.04 0.09 0.14 0.17 0.15 0.15 0.16 0.17 0.22 0.34 0.58 0.91 1.41 1.54 1.52 1.38 1.21 0.89 0.64 0.59 0.63 0.69 0.79 0.86 0.91
0.01 0.01 0.01 0.01 0.01 0.01 0.01 0.01 0.00 0.00 0.00 0.00 0.00 0.00 0.00 0.00 0.00 0.00 0.00 0.02 0.05 0.11 0.15 0.16 0.16 0.16 0.16 0.20 0.34 0.60 1.01 1.44 1.61 1.59 1.51 1.32 0.97 0.70 0.65 0.69 0.76 0.87 0.96
0.01 0.01 0.01 0.01 0.01 0.01 0.01 0.00 0.00 0.00 0.00 0.00 0.00 0.00 0.00 0.00 0.00 0.00 0.00 0.00 0.01 0.05 0.09 0.12 0.14 0.15 0.15 0.15 0.21 0.35 0.65 1.09 1.53 1.64 1.59 1.57 1.41 1.01 0.77 0.73 0.77 0.88 0.98
0.00 0.00 0.00 0.01 0.01 0.01 0.01 0.00 0.00 0.00 0.01 0.00 0.00 0.00 0.00 0.00 0.00 0.00 0.00 0.00 0.00 0.02 0.06 0.10 0.13 0.14 0.14 0.15 0.15 0.18 0.37 0.72 1.22 1.75 1.78 1.69 1.74 1.53 1.10 0.91 0.88 0.93 1.05
0.00 0.00 0.00 0.01 0.01 0.01 0.00 0.00 0.01 0.02 0.02 0.01 0.03 0.06 0.04 0.01 0.00 0.00 0.00 0.00 0.00 0.00 0.02 0.06 0.12 0.13 0.12 0.14 0.11 0.12 0.17 0.34 0.72 1.37 2.01 2.06 2.01 2.06 1.69 1.27 1.11 1.09 1.19
0.00 0.00 0.01 0.01 0.02 0.01 0.01 0.01 0.02 0.03 0.04 0.02 0.03 0.14 0.23 0.15 0.04 0.00 0.00 0.00 0.00 0.00 0.00 0.02 0.06 0.11 0.14 0.15 0.14 0.12 0.14 0.20 0.36 0.79 1.56 2.29 2.40 2.46 2.37 1.79 1.45 1.33 1.35
0.00 0.00 0.01 0.01 0.01 0.01 0.01 0.02 0.02 0.04 0.07 0.08 0.04 0.06 0.14 0.19 0.24 0.12 0.02 0.03 0.03 0.03 0.02 0.02 0.03 0.07 0.13 0.18 0.21 0.21 0.22 0.23 0.30 0.51 1.01 1.85 2.58 2.80 2.90 2.55 1.94 1.67 1.58
0.00 0.00 0.01 0.01 0.01 0.01 0.01 0.02 0.03 0.04 0.08 0.11 0.11 0.10 0.08 0.07 0.12 0.22 0.10 0.04 0.07 0.08 0.07 0.05 0.06 0.09 0.12 0.20 0.23 0.23 0.30 0.35 0.46 0.52 0.73 1.19 2.12 2.85 3.24 3.23 2.66 2.02 1.77
0.00 0.00 0.01 0.01 0.01 0.01 0.02 0.03 0.04 0.05 0.06 0.07 0.10 0.12 0.16 0.18 0.13 0.18 0.18 0.06 0.03 0.04 0.06 0.08 0.08 0.12 0.15 0.20 0.26 0.35 0.35 0.43 0.60 0.57 0.52 0.68 1.26 2.12 2.91 3.34 3.17 2.50 1.98
0.00 0.00 0.00 0.00 0.00 0.01 0.01 0.03 0.04 0.05 0.05 0.07 0.09 0.11 0.13 0.15 0.15 0.19 0.24 0.14 0.06 0.02 0.01 0.04 0.07 0.10 0.15 0.18 0.22 0.28 0.27 0.33 0.43 0.48 0.40 0.39 0.65 1.21 2.03 2.93 3.33 2.96 2.35
0.00 0.00 0.00 0.00 0.00 0.01 0.01 0.03 0.04 0.04 0.05 0.07 0.08 0.11 0.16 0.13 0.16 0.23 0.30 0.35 0.28 0.08 0.02 0.03 0.04 0.07 0.11 0.16 0.16 0.18 0.16 0.19 0.26 0.34 0.36 0.32 0.37 0.62 1.17 2.06 3.23 3.65 3.06
0.00 0.00 0.00 0.00 0.00 0.01 0.02 0.04 0.05 0.05 0.08 0.10 0.12 0.15 0.19 0.17 0.19 0.22 0.27 0.41 0.59 0.42 0.11 0.03 0.04 0.08 0.13 0.15 0.16 0.15 0.13 0.14 0.19 0.25 0.32 0.34 0.33 0.40 0.61 1.12 2.03 3.32 3.97
0.00 0.00 0.00 0.00 0.01 0.02 0.04 0.06 0.06 0.08 0.11 0.13 0.16 0.20 0.21 0.21 0.22 0.23 0.29 0.33 0.47 0.59 0.35 0.06 0.04 0.08 0.18 0.19 0.17 0.15 0.15 0.16 0.17 0.18 0.22 0.27 0.32 0.37 0.48 0.70 1.17 1.97 3.16
0.00 0.00 0.00 0.01 0.03 0.05 0.07 0.09 0.08 0.10 0.14 0.15 0.18 0.22 0.23 0.26 0.29 0.26 0.30 0.33 0.34 0.40 0.39 0.10 0.04 0.05 0.15 0.22 0.20 0.15 0.15 0.16 0.15 0.16 0.19 0.25 0.32 0.40 0.51 0.64 0.85 1.26 1.96
0.00 0.01 0.01 0.03 0.07 0.10 0.11 0.13 0.13 0.13 0.16 0.19 0.20 0.24 0.26 0.25 0.26 0.24 0.27 0.28 0.26 0.25 0.31 0.20 0.06 0.05 0.11 0.19 0.27 0.27 0.22 0.20 0.18 0.18 0.22 0.29 0.38 0.43 0.49 0.60 0.76 1.00 1.38
0.01 0.01 0.01 0.05 0.13 0.20 0.19 0.15 0.19 0.20 0.20 0.21 0.23 0.26 0.26 0.26 0.25 0.22 0.27 0.28 0.23 0.21 0.26 0.29 0.14 0.08 0.12 0.15 0.26 0.36 0.31 0.27 0.24 0.22 0.23 0.26 0.33 0.41 0.44 0.50 0.63 0.82 1.02
0.01 0.01 0.02 0.03 0.14 0.33 0.36 0.28 0.32 0.30 0.24 0.21 0.17 0.17 0.24 0.34 0.33 0.32 0.36 0.30 0.27 0.31 0.35 0.40 0.29 0.18 0.18 0.19 0.29 0.41 0.45 0.41 0.34 0.27 0.26 0.26 0.31 0.42 0.45 0.41 0.41 0.49 0.68
0.01 0.01 0.02 0.02 0.08 0.42 0.79 0.74 0.67 0.49 0.29 0.17 0.11 0.11 0.19 0.33 0.38 0.53 0.65 0.56 0.55 0.64 0.62 0.63 0.55 0.44 0.37 0.39 0.42 0.43 0.58 0.57 0.49 0.40 0.34 0.27 0.27 0.27 0.29 0.30 0.31 0.35 0.44
0.01 0.02 0.02 0.02 0.04 0.30 0.83 0.91 0.68 0.37 0.22 0.16 0.12 0.09 0.12 0.24 0.28 0.36 0.52 0.63 0.73 0.88 0.93 0.92 0.86 0.75 0.55 0.47 0.47 0.56 0.65 0.77 0.74 0.54 0.48 0.37 0.34 0.36 0.31 0.28 0.31 0.32 0.41
0.02 0.02 0.02 0.02 0.02 0.16 0.67 0.78 0.48 0.26 0.17 0.14 0.10 0.08 0.10 0.18 0.25 0.32 0.37 0.42 0.48 0.64 0.87 0.99 1.04 0.75 0.57 0.49 0.60 0.75 0.74 0.82 0.79 0.73 0.80 0.68 0.45 0.43 0.39 0.43 0.49 0.43 0.45
0.02 0.02 0.02 0.02 0.01 0.08 0.51 0.65 0.37 0.21 0.13 0.10 0.06 0.07 0.08 0.12 0.25 0.46 0.48 0.43 0.38 0.45 0.66 0.87 1.08 0.92 0.73 0.72 0.94 1.19 1.25 1.15 0.85 0.75 0.92 0.99 0.65 0.53 0.55 0.58 0.59 0.51 0.48
0.02 0.02 0.02 0.01 0.01 0.02 0.30 0.54 0.36 0.19 0.12 0.08 0.04 0.05 0.08 0.12 0.26 0.51 0.56 0.45 0.32 0.30 0.39 0.65 0.93 1.07 1.05 1.10 1.27 1.59 1.71 1.54 1.17 0.80 0.85 1.05 0.93 0.78 0.81 0.86 0.78 0.64 0.53
0.02 0.02 0.02 0.01 0.01 0.01 0.14 0.38 0.40 0.23 0.13 0.08 0.07 0.06 0.11 0.24 0.36 0.52 0.52 0.49 0.57 0.43 0.36 0.38 0.44 0.56 0.68 0.77 1.00 1.32 1.55 1.55 1.27 1.14 0.96 1.02 1.16 1.13 1.24 1.13 0.99 0.75 0.56

GEFSMA_prec_meanprecacc_114.txt.gz
Total_Precipitation_Accumulation
0.00 0.00 0.00 0.00 0.00 0.00 0.00 0.00 0.01 0.03 0.07 0.12 0.14 0.12 0.12 0.11 0.12 0.14 0.12 0.12 0.10 0.08 0.09 0.15 0.26 0.44 0.62 0.80 1.03 1.12 0.93 0.78 0.65 0.54 0.54 0.63 0.70 0.74 0.75 0.78 0.84 0.79 0.65
0.01 0.01 0.01 0.01 0.01 0.00 0.00 0.00 0.00 0.00 0.00 0.01 0.02 0.05 0.10 0.12 0.15 0.16 0.14 0.13 0.12 0.09 0.09 0.11 0.17 0.31 0.51 0.73 0.98 1.28 1.21 1.07 0.90 0.71 0.55 0.55 0.61 0.66 0.69 0.75 0.80 0.87 0.81
0.01 0.01 0.01 0.01 0.01 0.00 0.00 0.00 0.00 0.00 0.00 0.00 0.00 0.00 0.01 0.03 0.07 0.12 0.12 0.14 0.16 0.13 0.11 0.12 0.14 0.19 0.33 0.57 0.85 1.17 1.47 1.37 1.20 1.03 0.79 0.57 0.55 0.61 0.66 0.73 0.79 0.85 0.89
0.01 0.01 0.01 0.01 0.01 0.00 0.00 0.01 0.00 0.00 0.00 0.00 0.00 0.00 0.00 0.00 0.00 0.02 0.04 0.09 0.14 0.17 0.15 0.15 0.16 0.17 0.22 0.34 0.59 0.91 1.41 1.54 1.52 1.38 1.21 0.89 0.65 0.59 0.64 0.70 0.80 0.87 0.92
0.01 0.01 0.01 0.01 0.01 0.01 0.01 0.01 0.00 0.00 0.00 0.00 0.00 0.00 0.00 0.00 0.00 0.00 0.00 0.02 0.05 0.11 0.15 0.16 0.16 0.16 0.16 0.20 0.34 0.60 1.01 1.44 1.61 1.59 1.51 1.32 0.97 0.70 0.66 0.70 0.77 0.89 0.98
0.01 0.01 0.01 0.01 0.01 0.01 0.01 0.00 0.00 0.00 0.00 0.00 0.00 0.00 0.00 0.00 0.00 0.00 0.00 0.00 0.01 0.05 0.09 0.12 0.14 0.15 0.15 0.15 0.21 0.35 0.65 1.09 1.53 1.64 1.59 1.58 1.41 1.01 0.78 0.74 0.78 0.89 1.00
0.00 0.00 0.00 0.01 0.01 0.01 0.01 0.00 0.00 0.00 0.01 0.00 0.00 0.00 0.00 0.00 0.00 0.00 0.00 0.00 0.00 0.02 0.06 0.10 0.13 0.14 0.14 0.15 0.15 0.18 0.37 0.72 1.22 1.76 1.78 1.70 1.75 1.53 1.11 0.92 0.89 0.94 1.06
0.00 0.00 0.01 0.01 0.01 0.01 0.00 0.00 0.01 0.02 0.02 0.01 0.03 0.06 0.04 0.01 0.00 0.00 0.00 0.00 0.00 0.00 0.02 0.06 0.12 0.13 0.12 0.14 0.11 0.12 0.17 0.34 0.72 1.37 2.01 2.06 2.02 2.06 1.70 1.29 1.12 1.11 1.21
0.00 0.00 0.01 0.01 0.02 0.01 0.01 0.01 0.02 0.04 0.04 0.02 0.03 0.14 0.23 0.15 0.04 0.00 0.00 0.00 0.00 0.00 0.00 0.02 0.06 0.11 0.14 0.15 0.14 0.12 0.14 0.20 0.36 0.79 1.56 2.29 2.41 2.47 2.38 1.81 1.47 1.35 1.37
0.00 0.00 0.01 0.02 0.01 0.01 0.01 0.02 0.03 0.04 0.07 0.08 0.05 0.06 0.14 0.19 0.24 0.12 0.02 0.03 0.03 0.03 0.02 0.02 0.03 0.07 0.13 0.18 0.21 0.21 0.22 0.23 0.30 0.51 1.01 1.85 2.59 2.81 2.92 2.56 1.96 1.69 1.60
0.00 0.01 0.02 0.01 0.01 0.01 0.02 0.03 0.03 0.05 0.08 0.11 0.11 0.10 0.08 0.07 0.12 0.22 0.10 0.04 0.07 0.08 0.07 0.05 0.06 0.09 0.12 0.20 0.23 0.23 0.30 0.35 0.46 0.52 0.73 1.20 2.13 2.86 3.25 3.25 2.67 2.04 1.79
0.01 0.01 0.01 0.01 0.01 0.01 0.02 0.03 0.04 0.05 0.06 0.08 0.10 0.12 0.16 0.18 0.13 0.18 0.18 0.06 0.03 0.04 0.06 0.08 0.08 0.12 0.15 0.20 0.26 0.35 0.35 0.43 0.60 0.57 0.52 0.69 1.27 2.13 2.91 3.35 3.18 2.52 2.00
0.01 0.01 0.01 0.01 0.01 0.02 0.02 0.03 0.05 0.05 0.05 0.07 0.09 0.11 0.13 0.15 0.15 0.19 0.24 0.14 0.06 0.02 0.01 0.04 0.07 0.10 0.15 0.18 0.22 0.28 0.27 0.33 0.43 0.48 0.40 0.39 0.65 1.21 2.04 2.94 3.34 2.98 2.37
0.01 0.01 0.01 0.01 0.01 0.01 0.02 0.04 0.05 0.05 0.05 0.08 0.09 0.12 0.16 0.13 0.16 0.23 0.30 0.35 0.28 0.08 0.02 0.03 0.04 0.07 0.11 0.16 0.16 0.18 0.16 0.19 0.26 0.34 0.36 0.32 0.38 0.63 1.18 2.08 3.25 3.66 3.07
0.01 0.01 0.01 0.01 0.01 0.02 0.03 0.04 0.05 0.06 0.08 0.10 0.12 0.15 0.19 0.17 0.19 0.22 0.27 0.41 0.59 0.42 0.11 0.03 0.04 0.08 0.13 0.15 0.16 0.15 0.13 0.14 0.19 0.26 0.33 0.34 0.34 0.41 0.62 1.13 2.04 3.33 3.98
0.01 0.01 0.01 0.01 0.02 0.03 0.04 0.06 0.07 0.09 0.12 0.13 0.17 0.20 0.21 0.21 0.22 0.23 0.29 0.33 0.47 0.59 0.35 0.06 0.04 0.08 0.18 0.19 0.17 0.15 0.15 0.16 0.17 0.18 0.22 0.27 0.32 0.38 0.49 0.72 1.19 1.99 3.19
0.01 0.01 0.01 0.02 0.04 0.06 0.08 0.10 0.09 0.11 0.14 0.16 0.19 0.23 0.23 0.26 0.29 0.26 0.30 0.33 0.34 0.41 0.40 0.10 0.04 0.05 0.15 0.22 0.20 0.15 0.15 0.16 0.15 0.16 0.20 0.26 0.33 0.41 0.52 0.66 0.87 1.28 1.99
0.01 0.01 0.01 0.04 0.07 0.11 0.13 0.14 0.14 0.13 0.17 0.19 0.21 0.25 0.27 0.26 0.28 0.26 0.29 0.30 0.27 0.26 0.32 0.20 0.06 0.05 0.11 0.19 0.27 0.27 0.22 0.20 0.18 0.18 0.22 0.29 0.39 0.44 0.50 0.62 0.78 1.02 1.40
0.01 0.01 0.02 0.05 0.14 0.21 0.20 0.16 0.19 0.20 0.20 0.21 0.24 0.27 0.27 0.27 0.27 0.24 0.28 0.28 0.23 0.21 0.26 0.29 0.15 0.08 0.12 0.15 0.26 0.36 0.31 0.27 0.24 0.22 0.23 0.26 0.33 0.42 0.46 0.52 0.66 0.85 1.04
0.01 0.01 0.02 0.04 0.15 0.33 0.36 0.28 0.32 0.31 0.25 0.21 0.18 0.18 0.25 0.34 0.34 0.32 0.36 0.30 0.27 0.31 0.35 0.41 0.30 0.18 0.18 0.19 0.29 0.41 0.45 0.41 0.34 0.27 0.26 0.26 0.31 0.42 0.45 0.42 0.42 0.50 0.69
0.01 0.01 0.02 0.02 0.08 0.42 0.79 0.74 0.67 0.49 0.29 0.18 0.11 0.11 0.19 0.33 0.39 0.53 0.65 0.56 0.55 0.64 0.63 0.64 0.56 0.44 0.37 0.39 0.43 0.43 0.58 0.57 0.49 0.40 0.34 0.27 0.27 0.27 0.29 0.30 0.31 0.35 0.45
0.01 0.02 0.02 0.02 0.04 0.30 0.83 0.91 0.68 0.37 0.22 0.16 0.13 0.09 0.12 0.24 0.28 0.36 0.52 0.64 0.74 0.89 0.94 0.93 0.88 0.77 0.55 0.48 0.47 0.57 0.65 0.78 0.75 0.54 0.49 0.37 0.34 0.36 0.31 0.28 0.31 0.33 0.42
0.02 0.02 0.02 0.02 0.02 0.17 0.67 0.78 0.48 0.26 0.17 0.14 0.10 0.09 0.10 0.18 0.25 0.32 0.38 0.42 0.49 0.65 0.88 1.01 1.05 0.76 0.58 0.50 0.62 0.77 0.77 0.85 0.81 0.74 0.82 0.69 0.45 0.43 0.39 0.43 0.49 0.44 0.46
0.02 0.02 0.02 0.02 0.01 0.08 0.51 0.65 0.37 0.21 0.13 0.10 0.06 0.07 0.08 0.12 0.25 0.46 0.48 0.43 0.38 0.45 0.66 0.88 1.09 0.93 0.75 0.74 0.97 1.22 1.29 1.19 0.88 0.76 0.93 1.00 0.65 0.53 0.55 0.58 0.59 0.52 0.48
0.02 0.02 0.02 0.01 0.01 0.02 0.30 0.54 0.36 0.19 0.12 0.08 0.04 0.05 0.08 0.12 0.26 0.52 0.57 0.45 0.32 0.31 0.39 0.66 0.94 1.08 1.07 1.12 1.29 1.61 1.74 1.57 1.18 0.80 0.86 1.06 0.94 0.78 0.81 0.86 0.78 0.64 0.53
0.02 0.02 0.02 0.01 0.01 0.01 0.14 0.38 0.40 0.23 0.13 0.08 0.07 0.06 0.11 0.24 0.37 0.53 0.53 0.50 0.57 0.44 0.37 0.39 0.45 0.57 0.69 0.78 1.00 1.34 1.56 1.57 1.29 1.15 0.97 1.03 1.17 1.14 1.25 1.13 0.99 0.75 0.56

GEFSMA_prec_meanprecacc_120.txt.gz
Total_Precipitation_Accumulation
0.00 0.00 0.00 0.00 0.00 0.00 0.00 0.00 0.01 0.03 0.07 0.12 0.14 0.12 0.12 0.11 0.12 0.14 0.12 0.12 0.10 0.08 0.09 0.15 0.26 0.44 0.62 0.80 1.03 1.12 0.93 0.78 0.65 0.54 0.54 0.63 0.71 0.74 0.76 0.79 0.84 0.79 0.66
0.01 0.01 0.01 0.01 0.01 0.00 0.00 0.00 0.00 0.00 0.00 0.01 0.02 0.05 0.10 0.12 0.15 0.16 0.14 0.13 0.12 0.09 0.09 0.11 0.18 0.31 0.51 0.73 0.98 1.28 1.21 1.07 0.91 0.72 0.55 0.55 0.62 0.67 0.70 0.75 0.80 0.87 0.82
0.01 0.01 0.01 0.01 0.01 0.00 0.00 0.00 0.00 0.00 0.00 0.00 0.00 0.00 0.01 0.03 0.07 0.12 0.12 0.14 0.16 0.13 0.11 0.12 0.14 0.19 0.33 0.57 0.85 1.17 1.47 1.37 1.20 1.03 0.79 0.57 0.56 0.61 0.66 0.74 0.80 0.86 0.90
0.01 0.01 0.01 0.01 0.01 0.00 0.00 0.01 0.00 0.01 0.00 0.00 0.00 0.00 0.00 0.00 0.00 0.02 0.04 0.09 0.14 0.17 0.15 0.15 0.16 0.17 0.22 0.34 0.59 0.91 1.41 1.54 1.52 1.38 1.21 0.90 0.65 0.60 0.65 0.71 0.81 0.88 0.93
0.01 0.01 0.01 0.01 0.01 0.01 0.01 0.01 0.00 0.00 0.00 0.00 0.00 0.00 0.00 0.00 0.00 0.00 0.00 0.02 0.05 0.11 0.15 0.16 0.16 0.16 0.16 0.20 0.34 0.60 1.01 1.44 1.61 1.59 1.51 1.32 0.97 0.71 0.67 0.71 0.78 0.90 0.99
0.01 0.01 0.01 0.01 0.01 0.01 0.01 0.00 0.00 0.00 0.00 0.00 0.00 0.00 0.00 0.00 0.00 0.00 0.00 0.00 0.01 0.05 0.09 0.12 0.14 0.15 0.15 0.15 0.21 0.35 0.65 1.09 1.53 1.64 1.59 1.58 1.42 1.02 0.78 0.75 0.79 0.90 1.01
0.00 0.01 0.01 0.01 0.01 0.01 0.01 0.00 0.00 0.01 0.01 0.00 0.00 0.00 0.00 0.00 0.00 0.00 0.00 0.00 0.00 0.02 0.06 0.10 0.13 0.14 0.14 0.15 0.15 0.18 0.37 0.72 1.22 1.76 1.78 1.70 1.75 1.54 1.12 0.92 0.90 0.96 1.08
0.00 0.01 0.01 0.01 0.01 0.01 0.01 0.00 0.01 0.02 0.02 0.01 0.03 0.06 0.04 0.01 0.00 0.00 0.00 0.00 0.00 0.00 0.02 0.06 0.12 0.13 0.12 0.14 0.11 0.12 0.17 0.34 0.72 1.37 2.02 2.06 2.02 2.07 1.70 1.29 1.13 1.12 1.22
0.01 0.01 0.01 0.02 0.02 0.01 0.01 0.01 0.02 0.04 0.04 0.02 0.03 0.14 0.24 0.15 0.04 0.00 0.00 0.00 0.00 0.00 0.00 0.02 0.06 0.11 0.14 0.15 0.14 0.12 0.14 0.20 0.36 0.79 1.57 2.30 2.41 2.47 2.38 1.82 1.48 1.36 1.39
0.01 0.01 0.01 0.02 0.02 0.01 0.02 0.02 0.03 0.04 0.07 0.08 0.05 0.06 0.14 0.19 0.24 0.12 0.02 0.03 0.03 0.03 0.02 0.02 0.03 0.07 0.13 0.18 0.21 0.21 0.22 0.23 0.30 0.51 1.01 1.86 2.59 2.82 2.92 2.57 1.97 1.71 1.62
0.01 0.01 0.02 0.02 0.01 0.01 0.02 0.03 0.04 0.05 0.08 0.11 0.11 0.10 0.08 0.07 0.12 0.22 0.10 0.04 0.07 0.08 0.07 0.05 0.06 0.09 0.12 0.20 0.23 0.23 0.30 0.35 0.46 0.52 0.73 1.20 2.13 2.87 3.26 3.26 2.69 2.06 1.80
0.01 0.01 0.02 0.02 0.02 0.02 0.03 0.03 0.05 0.05 0.06 0.08 0.10 0.13 0.16 0.18 0.14 0.18 0.18 0.06 0.03 0.04 0.06 0.08 0.08 0.12 0.15 0.20 0.26 0.35 0.35 0.43 0.60 0.57 0.52 0.69 1.27 2.13 2.92 3.36 3.19 2.53 2.01
0.01 0.02 0.02 0.02 0.02 0.02 0.03 0.04 0.06 0.06 0.05 0.08 0.10 0.12 0.14 0.15 0.15 0.20 0.24 0.14 0.06 0.02 0.01 0.04 0.07 0.10 0.15 0.18 0.22 0.28 0.27 0.33 0.43 0.48 0.40 0.40 0.66 1.22 2.04 2.94 3.35 2.99 2.38
0.01 0.02 0.02 0.02 0.02 0.02 0.03 0.05 0.06 0.06 0.06 0.08 0.09 0.12 0.16 0.13 0.16 0.23 0.30 0.35 0.28 0.08 0.02 0.03 0.04 0.07 0.11 0.16 0.16 0.19 0.16 0.20 0.26 0.34 0.37 0.32 0.38 0.63 1.18 2.08 3.26 3.67 3.09
0.01 0.01 0.01 0.02 0.02 0.02 0.04 0.05 0.06 0.07 0.09 0.11 0.13 0.15 0.20 0.17 0.19 0.22 0.28 0.41 0.59 0.43 0.12 0.03 0.04 0.08 0.13 0.15 0.16 0.16 0.13 0.14 0.19 0.26 0.33 0.35 0.34 0.41 0.63 1.14 2.05 3.34 4.00
0.01 0.01 0.01 0.01 0.02 0.03 0.05 0.07 0.08 0.09 0.13 0.14 0.18 0.21 0.22 0.21 0.22 0.24 0.29 0.34 0.48 0.60 0.36 0.06 0.04 0.08 0.18 0.19 0.17 0.15 0.15 0.16 0.17 0.19 0.22 0.27 0.33 0.39 0.50 0.73 1.20 2.01 3.21
0.01 0.01 0.01 0.02 0.04 0.06 0.08 0.10 0.11 0.12 0.16 0.17 0.20 0.23 0.24 0.26 0.30 0.27 0.31 0.34 0.36 0.43 0.41 0.11 0.04 0.05 0.15 0.22 0.20 0.16 0.15 0.17 0.15 0.16 0.20 0.26 0.34 0.42 0.53 0.67 0.89 1.30 2.01
0.01 0.01 0.02 0.04 0.08 0.12 0.13 0.15 0.16 0.15 0.18 0.20 0.21 0.25 0.27 0.26 0.28 0.26 0.29 0.30 0.28 0.26 0.33 0.21 0.06 0.05 0.11 0.19 0.27 0.27 0.22 0.20 0.18 0.18 0.22 0.30 0.39 0.45 0.52 0.63 0.80 1.05 1.42
0.01 0.01 0.02 0.06 0.14 0.22 0.21 0.17 0.20 0.21 0.21 0.22 0.24 0.28 0.28 0.28 0.27 0.24 0.28 0.29 0.23 0.21 0.26 0.29 0.15 0.08 0.12 0.15 0.26 0.36 0.31 0.27 0.24 0.22 0.23 0.26 0.33 0.42 0.47 0.54 0.68 0.86 1.06
0.01 0.02 0.02 0.04 0.15 0.33 0.37 0.28 0.33 0.31 0.25 0.21 0.18 0.18 0.25 0.35 0.34 0.32 0.36 0.30 0.27 0.31 0.35 0.41 0.30 0.19 0.18 0.19 0.30 0.42 0.45 0.42 0.34 0.28 0.26 0.26 0.31 0.43 0.46 0.42 0.43 0.51 0.70
0.01 0.02 0.02 0.02 0.08 0.42 0.79 0.74 0.67 0.50 0.29 0.18 0.11 0.11 0.19 0.33 0.39 0.54 0.65 0.56 0.56 0.65 0.63 0.65 0.57 0.45 0.38 0.39 0.44 0.44 0.59 0.58 0.49 0.40 0.34 0.27 0.27 0.27 0.29 0.30 0.31 0.36 0.46
0.01 0.02 0.02 0.02 0.04 0.30 0.83 0.92 0.68 0.37 0.23 0.16 0.13 0.09 0.12 0.24 0.28 0.37 0.53 0.64 0.75 0.90 0.95 0.94 0.89 0.78 0.56 0.49 0.49 0.58 0.67 0.79 0.76 0.55 0.49 0.37 0.34 0.36 0.31 0.28 0.31 0.34 0.43
0.02 0.02 0.02 0.02 0.02 0.17 0.67 0.78 0.48 0.26 0.17 0.14 0.10 0.09 0.10 0.18 0.25 0.33 0.38 0.43 0.49 0.65 0.89 1.01 1.06 0.77 0.59 0.51 0.64 0.79 0.79 0.87 0.83 0.75 0.84 0.70 0.45 0.43 0.39 0.43 0.49 0.45 0.46
0.02 0.02 0.02 0.02 0.02 0.08 0.52 0.65 0.37 0.21 0.13 0.10 0.06 0.07 0.08 0.12 0.25 0.46 0.49 0.43 0.38 0.45 0.67 0.88 1.10 0.94 0.76 0.76 0.99 1.25 1.32 1.22 0.89 0.77 0.94 1.02 0.65 0.53 0.55 0.58 0.59 0.52 0.49
0.03 0.02 0.02 0.02 0.01 0.03 0.31 0.55 0.36 0.19 0.12 0.08 0.05 0.05 0.08 0.12 0.26 0.52 0.57 0.45 0.32 0.31 0.39 0.66 0.95 1.09 1.08 1.13 1.30 1.63 1.76 1.59 1.20 0.81 0.87 1.07 0.94 0.78 0.81 0.86 0.78 0.64 0.53
0.03 0.02 0.02 0.01 0.01 0.01 0.14 0.39 0.41 0.24 0.13 0.08 0.07 0.06 0.11 0.24 0.37 0.54 0.53 0.50 0.58 0.44 0.37 0.39 0.45 0.57 0.69 0.78 1.01 1.34 1.58 1.59 1.31 1.17 0.98 1.04 1.18 1.15 1.26 1.13 0.99 0.75 0.56

GEFSMA_prec_meanprecacc_126.txt.gz
Total_Precipitation_Accumulation
0.00 0.00 0.00 0.00 0.00 0.00 0.00 0.00 0.01 0.03 0.07 0.12 0.14 0.12 0.12 0.11 0.12 0.14 0.12 0.12 0.10 0.08 0.10 0.15 0.26 0.44 0.62 0.80 1.03 1.13 0.93 0.79 0.65 0.54 0.54 0.63 0.71 0.75 0.77 0.79 0.85 0.80 0.66
0.01 0.01 0.01 0.01 0.01 0.00 0.00 0.00 0.00 0.00 0.00 0.01 0.02 0.05 0.10 0.12 0.15 0.16 0.14 0.13 0.12 0.09 0.09 0.11 0.18 0.31 0.51 0.73 0.98 1.28 1.21 1.07 0.91 0.72 0.55 0.55 0.62 0.67 0.70 0.76 0.81 0.88 0.83
0.01 0.01 0.01 0.01 0.01 0.00 0.00 0.00 0.00 0.00 0.00 0.00 0.00 0.00 0.01 0.03 0.07 0.12 0.12 0.14 0.16 0.13 0.11 0.12 0.14 0.19 0.33 0.57 0.85 1.17 1.47 1.37 1.20 1.03 0.79 0.57 0.56 0.61 0.67 0.75 0.81 0.87 0.91
0.01 0.01 0.01 0.01 0.01 0.00 0.01 0.01 0.01 0.01 0.01 0.00 0.00 0.00 0.00 0.00 0.00 0.02 0.04 0.09 0.14 0.17 0.15 0.15 0.16 0.17 0.22 0.34 0.59 0.91 1.41 1.54 1.52 1.38 1.21 0.90 0.65 0.60 0.65 0.71 0.82 0.89 0.94
0.01 0.01 0.01 0.01 0.01 0.01 0.01 0.01 0.01 0.00 0.00 0.00 0.00 0.00 0.00 0.00 0.00 0.00 0.00 0.02 0.05 0.11 0.15 0.16 0.16 0.16 0.16 0.20 0.34 0.60 1.01 1.44 1.61 1.60 1.51 1.32 0.98 0.71 0.67 0.71 0.79 0.91 1.00
0.01 0.01 0.01 0.01 0.01 0.01 0.01 0.01 0.01 0.00 0.00 0.01 0.00 0.00 0.00 0.00 0.00 0.00 0.00 0.00 0.01 0.05 0.09 0.12 0.14 0.15 0.15 0.15 0.21 0.35 0.65 1.09 1.53 1.64 1.59 1.58 1.42 1.02 0.79 0.76 0.80 0.91 1.02
0.00 0.01 0.01 0.01 0.01 0.01 0.01 0.01 0.00 0.01 0.01 0.00 0.01 0.00 0.00 0.00 0.00 0.00 0.00 0.00 0.00 0.02 0.06 0.10 0.13 0.14 0.14 0.15 0.15 0.18 0.37 0.72 1.22 1.76 1.78 1.70 1.75 1.54 1.12 0.93 0.91 0.96 1.09
0.00 0.01 0.01 0.01 0.02 0.01 0.01 0.00 0.01 0.02 0.02 0.01 0.03 0.06 0.04 0.01 0.00 0.00 0.00 0.00 0.00 0.00 0.02 0.06 0.12 0.13 0.12 0.14 0.11 0.12 0.17 0.34 0.72 1.37 2.02 2.06 2.02 2.07 1.71 1.30 1.14 1.13 1.24
0.01 0.01 0.01 0.02 0.02 0.02 0.01 0.01 0.02 0.04 0.04 0.02 0.03 0.14 0.24 0.15 0.04 0.00 0.00 0.00 0.00 0.00 0.00 0.02 0.06 0.11 0.14 0.15 0.14 0.12 0.14 0.20 0.36 0.79 1.57 2.30 2.42 2.48 2.39 1.83 1.49 1.38 1.40
0.01 0.01 0.01 0.02 0.02 0.01 0.02 0.02 0.03 0.04 0.08 0.08 0.05 0.06 0.14 0.19 0.24 0.12 0.02 0.03 0.03 0.03 0.02 0.02 0.03 0.07 0.13 0.18 0.21 0.21 0.22 0.23 0.30 0.51 1.02 1.86 2.59 2.82 2.93 2.58 1.99 1.72 1.63
0.01 0.01 0.02 0.02 0.02 0.01 0.02 0.03 0.04 0.05 0.08 0.11 0.11 0.10 0.08 0.07 0.12 0.22 0.10 0.04 0.07 0.08 0.07 0.05 0.06 0.09 0.12 0.20 0.23 0.23 0.30 0.35 0.46 0.52 0.73 1.20 2.13 2.87 3.27 3.27 2.70 2.07 1.81
0.01 0.01 0.02 0.02 0.02 0.02 0.03 0.04 0.05 0.06 0.06 0.08 0.10 0.13 0.16 0.18 0.14 0.18 0.18 0.06 0.03 0.04 0.06 0.08 0.08 0.12 0.15 0.20 0.26 0.35 0.35 0.43 0.60 0.57 0.52 0.69 1.27 2.14 2.92 3.37 3.20 2.54 2.03
0.01 0.02 0.02 0.02 0.02 0.03 0.03 0.04 0.06 0.06 0.06 0.08 0.10 0.12 0.15 0.16 0.16 0.20 0.24 0.14 0.06 0.02 0.02 0.04 0.07 0.10 0.15 0.18 0.22 0.28 0.27 0.34 0.43 0.48 0.40 0.40 0.66 1.22 2.05 2.95 3.36 3.00 2.39
0.02 0.02 0.02 0.02 0.02 0.03 0.03 0.05 0.06 0.06 0.07 0.09 0.10 0.13 0.17 0.14 0.17 0.24 0.31 0.36 0.28 0.08 0.02 0.03 0.04 0.07 0.12 0.16 0.16 0.19 0.16 0.20 0.26 0.34 0.37 0.32 0.38 0.63 1.19 2.09 3.26 3.68 3.10
0.01 0.01 0.01 0.02 0.02 0.03 0.04 0.05 0.06 0.07 0.09 0.11 0.14 0.17 0.21 0.18 0.20 0.23 0.28 0.42 0.60 0.44 0.12 0.03 0.04 0.08 0.13 0.15 0.17 0.16 0.13 0.14 0.19 0.26 0.33 0.35 0.34 0.42 0.64 1.15 2.06 3.36 4.01
0.01 0.01 0.01 0.02 0.02 0.03 0.05 0.07 0.08 0.09 0.13 0.15 0.18 0.22 0.23 0.23 0.24 0.25 0.30 0.35 0.49 0.61 0.37 0.07 0.04 0.08 0.18 0.19 0.17 0.16 0.15 0.17 0.17 0.19 0.22 0.28 0.33 0.40 0.51 0.74 1.21 2.02 3.22
0.01 0.01 0.02 0.03 0.04 0.07 0.08 0.11 0.11 0.13 0.17 0.18 0.21 0.24 0.25 0.28 0.31 0.28 0.31 0.35 0.36 0.43 0.42 0.11 0.04 0.05 0.15 0.22 0.21 0.16 0.15 0.17 0.15 0.16 0.20 0.26 0.35 0.43 0.54 0.68 0.90 1.32 2.03
0.01 0.02 0.02 0.04 0.08 0.12 0.14 0.16 0.17 0.16 0.19 0.21 0.22 0.26 0.28 0.27 0.29 0.27 0.30 0.31 0.29 0.27 0.33 0.21 0.06 0.06 0.11 0.19 0.27 0.28 0.22 0.20 0.18 0.18 0.22 0.30 0.40 0.45 0.53 0.65 0.82 1.07 1.45
0.01 0.02 0.02 0.06 0.15 0.22 0.21 0.17 0.20 0.21 0.21 0.22 0.25 0.28 0.29 0.29 0.28 0.25 0.29 0.29 0.24 0.22 0.26 0.30 0.15 0.08 0.12 0.15 0.26 0.36 0.31 0.27 0.24 0.22 0.23 0.27 0.34 0.43 0.48 0.56 0.69 0.88 1.08
0.01 0.02 0.02 0.04 0.15 0.34 0.37 0.29 0.33 0.31 0.25 0.22 0.19 0.18 0.25 0.35 0.34 0.33 0.36 0.31 0.28 0.31 0.36 0.42 0.31 0.19 0.19 0.19 0.30 0.42 0.46 0.42 0.35 0.28 0.27 0.26 0.31 0.43 0.46 0.43 0.44 0.53 0.72
0.01 0.02 0.02 0.03 0.08 0.42 0.79 0.74 0.67 0.50 0.29 0.18 0.12 0.11 0.19 0.33 0.39 0.54 0.65 0.57 0.56 0.65 0.64 0.66 0.58 0.45 0.39 0.40 0.44 0.45 0.60 0.59 0.49 0.40 0.34 0.27 0.28 0.27 0.29 0.31 0.32 0.37 0.48
0.01 0.02 0.02 0.02 0.04 0.30 0.84 0.92 0.68 0.37 0.23 0.17 0.13 0.09 0.12 0.25 0.28 0.37 0.53 0.65 0.76 0.90 0.96 0.95 0.90 0.78 0.57 0.50 0.49 0.59 0.68 0.80 0.77 0.55 0.50 0.38 0.34 0.36 0.31 0.29 0.32 0.35 0.44
0.02 0.02 0.02 0.02 0.02 0.17 0.67 0.78 0.48 0.26 0.17 0.14 0.10 0.09 0.10 0.18 0.25 0.33 0.38 0.43 0.50 0.66 0.89 1.02 1.07 0.78 0.60 0.52 0.65 0.80 0.80 0.88 0.84 0.76 0.84 0.71 0.46 0.44 0.40 0.44 0.50 0.45 0.47
0.02 0.02 0.02 0.02 0.02 0.08 0.52 0.65 0.38 0.21 0.13 0.10 0.07 0.08 0.08 0.13 0.25 0.47 0.49 0.43 0.38 0.45 0.67 0.89 1.10 0.95 0.76 0.76 1.00 1.26 1.33 1.23 0.90 0.77 0.94 1.03 0.66 0.53 0.55 0.59 0.60 0.53 0.50
0.03 0.02 0.02 0.02 0.01 0.03 0.31 0.55 0.37 0.19 0.12 0.08 0.05 0.05 0.08 0.13 0.27 0.53 0.57 0.45 0.32 0.31 0.39 0.66 0.95 1.10 1.08 1.13 1.31 1.64 1.77 1.60 1.21 0.81 0.87 1.08 0.95 0.78 0.81 0.86 0.78 0.65 0.54
0.03 0.02 0.02 0.01 0.01 0.01 0.14 0.39 0.41 0.24 0.13 0.09 0.08 0.06 0.11 0.24 0.38 0.54 0.53 0.50 0.58 0.45 0.38 0.39 0.46 0.58 0.70 0.78 1.02 1.36 1.59 1.61 1.33 1.18 0.98 1.05 1.19 1.16 1.27 1.14 0.99 0.75 0.56

GEFSMA_prec_meanprecacc_132.txt.gz
Total_Precipitation_Accumulation
0.00 0.00 0.00 0.00 0.00 0.00 0.00 0.00 0.01 0.03 0.07 0.12 0.14 0.12 0.12 0.11 0.12 0.14 0.12 0.12 0.10 0.08 0.10 0.15 0.27 0.44 0.62 0.80 1.03 1.13 0.93 0.79 0.65 0.54 0.54 0.63 0.71 0.75 0.77 0.80 0.86 0.81 0.67
0.01 0.01 0.01 0.01 0.01 0.00 0.00 0.00 0.00 0.00 0.00 0.01 0.02 0.05 0.10 0.12 0.15 0.16 0.14 0.13 0.12 0.09 0.09 0.11 0.18 0.31 0.51 0.73 0.98 1.28 1.21 1.07 0.91 0.72 0.55 0.55 0.62 0.67 0.71 0.76 0.82 0.89 0.83
0.01 0.01 0.01 0.01 0.01 0.00 0.00 0.00 0.00 0.00 0.00 0.00 0.00 0.00 0.01 0.03 0.07 0.12 0.12 0.14 0.16 0.13 0.11 0.12 0.14 0.19 0.33 0.57 0.85 1.17 1.47 1.37 1.20 1.03 0.79 0.57 0.56 0.61 0.67 0.75 0.82 0.88 0.92
0.01 0.01 0.01 0.01 0.01 0.00 0.01 0.01 0.01 0.01 0.01 0.00 0.00 0.00 0.00 0.00 0.00 0.02 0.04 0.09 0.14 0.17 0.15 0.15 0.16 0.17 0.22 0.34 0.59 0.91 1.41 1.54 1.52 1.38 1.22 0.90 0.65 0.60 0.65 0.72 0.82 0.90 0.95
0.01 0.01 0.01 0.01 0.01 0.01 0.01 0.01 0.01 0.00 0.00 0.00 0.00 0.00 0.00 0.00 0.00 0.00 0.00 0.02 0.05 0.11 0.15 0.16 0.16 0.16 0.16 0.20 0.34 0.60 1.01 1.44 1.61 1.60 1.52 1.32 0.98 0.71 0.67 0.72 0.79 0.91 1.01
0.01 0.01 0.01 0.01 0.01 0.01 0.01 0.01 0.01 0.00 0.00 0.01 0.00 0.00 0.00 0.00 0.00 0.00 0.00 0.00 0.01 0.05 0.09 0.12 0.14 0.15 0.15 0.15 0.21 0.35 0.65 1.09 1.53 1.64 1.60 1.58 1.42 1.02 0.79 0.77 0.81 0.92 1.04
0.00 0.01 0.01 0.01 0.01 0.01 0.01 0.01 0.00 0.01 0.01 0.00 0.01 0.00 0.00 0.00 0.00 0.00 0.00 0.00 0.00 0.02 0.06 0.10 0.13 0.14 0.14 0.15 0.15 0.18 0.37 0.72 1.22 1.76 1.78 1.70 1.76 1.55 1.13 0.94 0.92 0.98 1.10
0.00 0.01 0.01 0.01 0.02 0.01 0.01 0.00 0.01 0.02 0.02 0.01 0.03 0.06 0.04 0.01 0.00 0.00 0.00 0.00 0.00 0.00 0.02 0.06 0.12 0.13 0.12 0.14 0.11 0.12 0.17 0.34 0.73 1.37 2.02 2.07 2.03 2.08 1.72 1.31 1.16 1.15 1.26
0.01 0.01 0.01 0.02 0.02 0.02 0.01 0.01 0.02 0.04 0.04 0.02 0.03 0.14 0.24 0.15 0.04 0.00 0.00 0.00 0.00 0.00 0.00 0.02 0.06 0.11 0.14 0.15 0.14 0.12 0.14 0.20 0.36 0.79 1.57 2.30 2.42 2.49 2.41 1.84 1.51 1.40 1.43
0.01 0.01 0.01 0.02 0.02 0.01 0.02 0.02 0.03 0.04 0.08 0.08 0.05 0.06 0.14 0.20 0.24 0.12 0.02 0.03 0.03 0.03 0.02 0.02 0.03 0.07 0.13 0.18 0.21 0.21 0.22 0.23 0.30 0.51 1.02 1.86 2.60 2.83 2.95 2.61 2.02 1.76 1.67
0.01 0.01 0.02 0.02 0.02 0.01 0.02 0.03 0.04 0.05 0.08 0.11 0.11 0.10 0.08 0.07 0.12 0.23 0.11 0.04 0.07 0.08 0.07 0.05 0.06 0.09 0.12 0.20 0.23 0.23 0.30 0.35 0.46 0.52 0.73 1.20 2.14 2.88 3.29 3.29 2.73 2.11 1.85
0.01 0.01 0.02 0.02 0.02 0.02 0.03 0.04 0.05 0.06 0.06 0.08 0.11 0.13 0.16 0.19 0.14 0.19 0.19 0.06 0.03 0.04 0.06 0.08 0.08 0.12 0.15 0.20 0.26 0.35 0.35 0.43 0.60 0.58 0.52 0.69 1.28 2.15 2.94 3.39 3.23 2.58 2.07
0.01 0.02 0.02 0.02 0.02 0.03 0.03 0.04 0.06 0.06 0.06 0.08 0.11 0.13 0.15 0.17 0.17 0.21 0.25 0.15 0.07 0.02 0.02 0.04 0.07 0.10 0.15 0.18 0.22 0.28 0.27 0.34 0.43 0.48 0.41 0.40 0.67 1.23 2.07 2.97 3.39 3.04 2.44
0.02 0.02 0.02 0.02 0.02 0.03 0.03 0.05 0.06 0.06 0.07 0.09 0.10 0.13 0.17 0.14 0.18 0.25 0.32 0.37 0.30 0.09 0.02 0.03 0.04 0.07 0.12 0.16 0.16 0.19 0.16 0.20 0.27 0.35 0.37 0.33 0.40 0.65 1.21 2.12 3.30 3.72 3.13
0.01 0.01 0.01 0.02 0.02 0.03 0.04 0.06 0.07 0.07 0.09 0.11 0.14 0.17 0.21 0.19 0.20 0.24 0.29 0.43 0.62 0.45 0.12 0.03 0.04 0.08 0.13 0.15 0.17 0.16 0.13 0.14 0.19 0.26 0.34 0.36 0.36 0.43 0.66 1.17 2.08 3.38 4.04
0.01 0.01 0.01 0.02 0.02 0.03 0.05 0.07 0.08 0.10 0.13 0.15 0.18 0.22 0.23 0.24 0.24 0.26 0.31 0.35 0.50 0.62 0.38 0.07 0.04 0.08 0.18 0.20 0.17 0.16 0.15 0.17 0.17 0.19 0.23 0.29 0.35 0.41 0.53 0.76 1.23 2.05 3.25
0.01 0.02 0.02 0.03 0.05 0.07 0.09 0.11 0.11 0.13 0.17 0.18 0.21 0.25 0.26 0.28 0.31 0.29 0.32 0.35 0.37 0.44 0.43 0.12 0.05 0.05 0.16 0.22 0.21 0.16 0.15 0.17 0.15 0.16 0.20 0.27 0.36 0.44 0.56 0.69 0.92 1.34 2.06
0.02 0.02 0.02 0.05 0.08 0.12 0.14 0.16 0.17 0.16 0.19 0.21 0.22 0.27 0.29 0.28 0.29 0.28 0.31 0.32 0.29 0.28 0.34 0.22 0.07 0.06 0.11 0.19 0.27 0.28 0.22 0.20 0.18 0.19 0.22 0.31 0.41 0.46 0.53 0.66 0.84 1.10 1.48
0.02 0.02 0.03 0.06 0.15 0.22 0.21 0.17 0.21 0.21 0.21 0.23 0.25 0.29 0.29 0.29 0.29 0.26 0.30 0.30 0.24 0.22 0.27 0.30 0.15 0.09 0.12 0.15 0.26 0.36 0.31 0.27 0.24 0.22 0.23 0.27 0.34 0.43 0.49 0.57 0.72 0.91 1.10
0.01 0.02 0.03 0.05 0.16 0.34 0.37 0.29 0.33 0.32 0.26 0.22 0.19 0.19 0.25 0.35 0.35 0.33 0.37 0.31 0.28 0.32 0.36 0.42 0.31 0.19 0.19 0.19 0.30 0.42 0.46 0.42 0.35 0.28 0.27 0.26 0.31 0.44 0.47 0.44 0.45 0.54 0.73
0.01 0.02 0.02 0.03 0.09 0.42 0.80 0.74 0.68 0.50 0.30 0.18 0.12 0.11 0.20 0.34 0.40 0.54 0.66 0.57 0.57 0.66 0.65 0.66 0.58 0.46 0.39 0.40 0.44 0.45 0.60 0.59 0.49 0.41 0.34 0.28 0.28 0.27 0.30 0.31 0.32 0.38 0.50
0.02 0.02 0.02 0.02 0.04 0.30 0.84 0.92 0.68 0.38 0.23 0.17 0.13 0.09 0.13 0.25 0.29 0.38 0.54 0.66 0.76 0.91 0.97 0.96 0.90 0.79 0.57 0.50 0.50 0.59 0.68 0.81 0.77 0.55 0.50 0.38 0.34 0.37 0.31 0.29 0.32 0.37 0.47
0.02 0.02 0.02 0.02 0.02 0.17 0.67 0.78 0.49 0.27 0.17 0.14 0.11 0.09 0.10 0.19 0.26 0.34 0.40 0.44 0.50 0.66 0.90 1.02 1.07 0.78 0.60 0.53 0.65 0.81 0.80 0.89 0.85 0.76 0.85 0.71 0.46 0.44 0.40 0.44 0.50 0.47 0.49
0.03 0.03 0.02 0.02 0.02 0.09 0.52 0.66 0.38 0.21 0.13 0.10 0.07 0.08 0.09 0.13 0.26 0.47 0.49 0.44 0.39 0.46 0.67 0.89 1.11 0.95 0.77 0.77 1.00 1.26 1.33 1.23 0.90 0.78 0.95 1.03 0.66 0.53 0.55 0.59 0.60 0.53 0.51
0.03 0.03 0.02 0.02 0.02 0.03 0.31 0.55 0.37 0.20 0.12 0.09 0.05 0.06 0.09 0.13 0.27 0.53 0.58 0.46 0.33 0.31 0.40 0.67 0.96 1.10 1.08 1.14 1.32 1.64 1.78 1.61 1.22 0.82 0.87 1.08 0.95 0.79 0.81 0.86 0.78 0.65 0.54
0.03 0.03 0.02 0.02 0.01 0.01 0.15 0.39 0.42 0.24 0.14 0.09 0.08 0.07 0.12 0.25 0.38 0.54 0.54 0.51 0.58 0.45 0.38 0.39 0.46 0.58 0.70 0.79 1.02 1.36 1.60 1.62 1.34 1.19 0.99 1.06 1.19 1.16 1.28 1.14 0.99 0.75 0.56

GEFSMA_prec_meanprecacc_138.txt.gz
Total_Precipitation_Accumulation
0.00 0.00 0.00 0.00 0.00 0.00 0.00 0.00 0.01 0.03 0.07 0.12 0.14 0.12 0.12 0.11 0.12 0.14 0.12 0.12 0.10 0.08 0.10 0.16 0.27 0.44 0.62 0.80 1.03 1.13 0.93 0.79 0.65 0.54 0.54 0.63 0.71 0.75 0.77 0.80 0.86 0.81 0.68
0.01 0.01 0.01 0.01 0.01 0.00 0.00 0.00 0.00 0.00 0.00 0.01 0.02 0.05 0.10 0.12 0.15 0.16 0.14 0.13 0.12 0.09 0.09 0.12 0.18 0.31 0.51 0.73 0.98 1.29 1.21 1.07 0.91 0.72 0.56 0.55 0.62 0.68 0.71 0.77 0.82 0.89 0.84
0.01 0.01 0.01 0.01 0.01 0.00 0.00 0.00 0.00 0.00 0.00 0.00 0.00 0.00 0.01 0.03 0.07 0.12 0.12 0.14 0.16 0.13 0.11 0.12 0.14 0.19 0.33 0.57 0.85 1.17 1.47 1.37 1.20 1.03 0.79 0.58 0.56 0.62 0.67 0.76 0.82 0.89 0.93
0.01 0.01 0.01 0.01 0.01 0.00 0.01 0.01 0.01 0.01 0.01 0.00 0.00 0.00 0.00 0.00 0.00 0.02 0.04 0.09 0.14 0.17 0.15 0.15 0.16 0.17 0.22 0.34 0.59 0.91 1.41 1.54 1.52 1.38 1.22 0.90 0.66 0.61 0.66 0.72 0.83 0.91 0.96
0.01 0.01 0.01 0.01 0.01 0.01 0.01 0.01 0.01 0.00 0.00 0.00 0.00 0.00 0.00 0.00 0.00 0.00 0.00 0.02 0.05 0.11 0.15 0.16 0.16 0.16 0.16 0.20 0.34 0.60 1.01 1.44 1.61 1.60 1.52 1.33 0.99 0.72 0.68 0.73 0.81 0.93 1.03
0.01 0.01 0.01 0.01 0.01 0.01 0.01 0.01 0.01 0.00 0.00 0.01 0.00 0.00 0.00 0.00 0.00 0.00 0.00 0.00 0.01 0.05 0.09 0.12 0.14 0.15 0.15 0.15 0.21 0.35 0.65 1.09 1.53 1.65 1.60 1.59 1.43 1.03 0.80 0.78 0.82 0.95 1.06
0.00 0.01 0.01 0.01 0.01 0.01 0.01 0.01 0.00 0.01 0.01 0.00 0.01 0.00 0.00 0.00 0.00 0.00 0.00 0.00 0.00 0.02 0.06 0.10 0.13 0.14 0.14 0.15 0.15 0.18 0.37 0.72 1.23 1.76 1.79 1.71 1.77 1.56 1.14 0.96 0.94 1.01 1.14
0.00 0.01 0.01 0.01 0.02 0.01 0.01 0.00 0.01 0.02 0.02 0.01 0.03 0.06 0.04 0.01 0.00 0.00 0.00 0.00 0.00 0.00 0.02 0.06 0.12 0.13 0.12 0.14 0.11 0.12 0.17 0.34 0.73 1.37 2.02 2.08 2.04 2.09 1.74 1.34 1.19 1.19 1.31
0.01 0.01 0.01 0.02 0.02 0.02 0.01 0.01 0.02 0.04 0.04 0.02 0.03 0.14 0.24 0.16 0.04 0.00 0.00 0.00 0.00 0.00 0.00 0.02 0.06 0.11 0.14 0.15 0.14 0.12 0.14 0.20 0.36 0.79 1.58 2.31 2.43 2.51 2.43 1.88 1.56 1.46 1.50
0.01 0.01 0.01 0.02 0.02 0.01 0.02 0.02 0.03 0.04 0.08 0.08 0.05 0.06 0.14 0.20 0.24 0.12 0.02 0.03 0.04 0.03 0.02 0.02 0.03 0.07 0.13 0.18 0.21 0.21 0.22 0.23 0.30 0.51 1.02 1.87 2.61 2.86 2.98 2.65 2.07 1.82 1.73
0.01 0.01 0.02 0.02 0.02 0.01 0.02 0.03 0.04 0.05 0.08 0.11 0.11 0.10 0.08 0.07 0.13 0.23 0.11 0.04 0.07 0.08 0.07 0.05 0.06 0.09 0.12 0.20 0.23 0.23 0.30 0.35 0.46 0.52 0.74 1.21 2.15 2.90 3.31 3.33 2.77 2.15 1.90
0.01 0.01 0.02 0.02 0.02 0.02 0.03 0.04 0.05 0.06 0.06 0.08 0.11 0.13 0.16 0.19 0.15 0.20 0.19 0.06 0.03 0.04 0.06 0.09 0.09 0.12 0.15 0.20 0.26 0.35 0.35 0.43 0.60 0.58 0.53 0.70 1.29 2.16 2.96 3.42 3.26 2.61 2.11
0.01 0.02 0.02 0.02 0.02 0.03 0.03 0.04 0.06 0.06 0.06 0.08 0.11 0.13 0.15 0.17 0.17 0.21 0.26 0.16 0.07 0.02 0.02 0.04 0.08 0.10 0.15 0.18 0.22 0.28 0.27 0.34 0.43 0.48 0.41 0.41 0.68 1.24 2.08 2.99 3.42 3.07 2.47
0.02 0.02 0.02 0.02 0.02 0.03 0.04 0.05 0.06 0.06 0.07 0.10 0.10 0.13 0.18 0.15 0.18 0.25 0.32 0.38 0.31 0.10 0.03 0.03 0.04 0.07 0.12 0.16 0.16 0.19 0.16 0.20 0.27 0.35 0.38 0.34 0.40 0.66 1.22 2.14 3.32 3.74 3.15
0.02 0.02 0.02 0.02 0.02 0.03 0.04 0.07 0.08 0.08 0.10 0.12 0.14 0.17 0.22 0.19 0.21 0.24 0.30 0.45 0.64 0.46 0.13 0.03 0.04 0.08 0.13 0.15 0.17 0.16 0.13 0.14 0.19 0.26 0.34 0.36 0.36 0.44 0.67 1.19 2.10 3.39 4.06
0.02 0.02 0.02 0.02 0.02 0.04 0.05 0.08 0.09 0.10 0.14 0.15 0.19 0.22 0.24 0.24 0.25 0.26 0.31 0.36 0.51 0.63 0.39 0.07 0.05 0.08 0.19 0.20 0.17 0.16 0.15 0.17 0.17 0.19 0.23 0.29 0.35 0.42 0.54 0.77 1.24 2.06 3.28
0.02 0.02 0.02 0.03 0.05 0.08 0.09 0.12 0.12 0.13 0.17 0.19 0.22 0.25 0.26 0.28 0.32 0.29 0.32 0.36 0.38 0.45 0.44 0.13 0.05 0.06 0.16 0.22 0.21 0.16 0.15 0.17 0.15 0.16 0.20 0.27 0.36 0.45 0.56 0.70 0.93 1.36 2.09
0.02 0.02 0.03 0.05 0.09 0.13 0.15 0.17 0.17 0.16 0.20 0.22 0.23 0.27 0.29 0.28 0.30 0.28 0.31 0.33 0.30 0.29 0.35 0.23 0.07 0.06 0.11 0.19 0.27 0.28 0.22 0.20 0.18 0.19 0.22 0.31 0.41 0.46 0.54 0.67 0.85 1.12 1.50
0.03 0.03 0.03 0.07 0.15 0.23 0.22 0.18 0.21 0.22 0.22 0.23 0.26 0.29 0.30 0.30 0.29 0.26 0.31 0.31 0.25 0.23 0.28 0.31 0.16 0.09 0.12 0.15 0.27 0.37 0.32 0.27 0.24 0.23 0.24 0.27 0.34 0.44 0.49 0.58 0.73 0.93 1.13
0.03 0.03 0.03 0.05 0.16 0.34 0.37 0.29 0.34 0.32 0.26 0.23 0.19 0.19 0.26 0.36 0.35 0.34 0.38 0.32 0.29 0.32 0.37 0.43 0.32 0.20 0.20 0.20 0.31 0.43 0.46 0.42 0.35 0.28 0.27 0.26 0.31 0.44 0.47 0.45 0.46 0.56 0.76
0.02 0.03 0.03 0.03 0.09 0.43 0.80 0.75 0.68 0.51 0.30 0.19 0.12 0.12 0.20 0.35 0.40 0.55 0.66 0.58 0.57 0.66 0.65 0.67 0.59 0.47 0.40 0.41 0.45 0.46 0.60 0.59 0.50 0.41 0.34 0.28 0.28 0.28 0.30 0.31 0.33 0.40 0.52
0.03 0.03 0.03 0.03 0.05 0.31 0.84 0.93 0.69 0.38 0.23 0.17 0.13 0.10 0.13 0.26 0.30 0.39 0.54 0.66 0.76 0.91 0.97 0.97 0.91 0.80 0.58 0.50 0.50 0.60 0.68 0.81 0.77 0.55 0.50 0.38 0.34 0.37 0.32 0.29 0.33 0.38 0.48
0.03 0.03 0.03 0.03 0.03 0.18 0.68 0.79 0.49 0.27 0.18 0.14 0.11 0.10 0.11 0.20 0.27 0.34 0.40 0.45 0.51 0.67 0.91 1.03 1.07 0.79 0.61 0.54 0.66 0.81 0.80 0.89 0.85 0.76 0.85 0.71 0.46 0.44 0.40 0.44 0.51 0.47 0.50
0.04 0.03 0.03 0.03 0.02 0.09 0.53 0.66 0.39 0.22 0.14 0.11 0.08 0.09 0.09 0.14 0.26 0.48 0.50 0.45 0.40 0.47 0.68 0.90 1.11 0.96 0.78 0.78 1.01 1.27 1.33 1.23 0.90 0.78 0.95 1.03 0.66 0.54 0.55 0.59 0.60 0.53 0.51
0.04 0.04 0.03 0.02 0.02 0.04 0.32 0.56 0.38 0.20 0.13 0.09 0.05 0.06 0.09 0.13 0.28 0.54 0.58 0.46 0.33 0.32 0.41 0.68 0.97 1.11 1.09 1.14 1.32 1.64 1.78 1.61 1.22 0.82 0.87 1.09 0.95 0.79 0.81 0.86 0.78 0.65 0.54
0.04 0.04 0.03 0.02 0.02 0.02 0.16 0.40 0.42 0.25 0.14 0.10 0.08 0.07 0.12 0.25 0.39 0.55 0.54 0.51 0.59 0.45 0.39 0.40 0.47 0.58 0.70 0.79 1.02 1.36 1.60 1.62 1.34 1.19 0.99 1.06 1.19 1.17 1.28 1.14 0.99 0.75 0.56

GEFSMA_prec_meanprecacc_144.txt.gz
Total_Precipitation_Accumulation
0.01 0.00 0.00 0.01 0.00 0.00 0.00 0.00 0.01 0.03 0.07 0.12 0.14 0.12 0.12 0.11 0.12 0.14 0.12 0.12 0.10 0.09 0.10 0.16 0.28 0.45 0.62 0.80 1.03 1.13 0.93 0.79 0.65 0.54 0.55 0.64 0.71 0.75 0.77 0.81 0.87 0.82 0.68
0.01 0.01 0.01 0.01 0.01 0.01 0.00 0.00 0.00 0.00 0.00 0.01 0.02 0.05 0.10 0.12 0.15 0.16 0.14 0.13 0.12 0.09 0.09 0.12 0.19 0.32 0.51 0.74 0.98 1.29 1.21 1.07 0.91 0.72 0.56 0.56 0.63 0.68 0.72 0.78 0.83 0.90 0.85
0.01 0.01 0.01 0.01 0.01 0.01 0.00 0.00 0.00 0.00 0.00 0.00 0.00 0.00 0.01 0.03 0.07 0.12 0.12 0.14 0.16 0.13 0.11 0.12 0.15 0.20 0.33 0.57 0.85 1.17 1.47 1.38 1.20 1.04 0.80 0.58 0.57 0.63 0.68 0.77 0.84 0.90 0.95
0.01 0.01 0.01 0.01 0.01 0.00 0.01 0.01 0.01 0.01 0.01 0.00 0.00 0.00 0.00 0.00 0.00 0.02 0.04 0.09 0.14 0.17 0.15 0.15 0.16 0.17 0.22 0.34 0.59 0.92 1.41 1.54 1.53 1.39 1.22 0.91 0.67 0.62 0.67 0.74 0.85 0.93 0.99
0.01 0.01 0.01 0.01 0.01 0.01 0.01 0.01 0.01 0.00 0.01 0.00 0.00 0.00 0.00 0.00 0.00 0.00 0.00 0.02 0.05 0.11 0.15 0.16 0.16 0.16 0.16 0.20 0.34 0.60 1.02 1.44 1.62 1.61 1.53 1.34 1.00 0.73 0.70 0.75 0.83 0.95 1.05
0.01 0.01 0.01 0.01 0.01 0.01 0.01 0.01 0.01 0.00 0.00 0.01 0.00 0.00 0.00 0.00 0.00 0.00 0.00 0.00 0.01 0.05 0.09 0.12 0.14 0.15 0.15 0.15 0.21 0.35 0.65 1.09 1.54 1.65 1.61 1.60 1.44 1.05 0.82 0.80 0.85 0.97 1.09
0.01 0.01 0.01 0.01 0.01 0.01 0.01 0.01 0.00 0.01 0.01 0.01 0.01 0.01 0.00 0.00 0.00 0.00 0.00 0.00 0.00 0.02 0.06 0.10 0.13 0.14 0.14 0.15 0.15 0.18 0.37 0.72 1.23 1.77 1.80 1.72 1.78 1.57 1.16 0.98 0.97 1.04 1.18
0.01 0.01 0.01 0.01 0.02 0.01 0.01 0.00 0.01 0.02 0.02 0.01 0.03 0.06 0.04 0.01 0.00 0.00 0.00 0.00 0.00 0.00 0.02 0.06 0.12 0.13 0.12 0.14 0.11 0.12 0.17 0.34 0.73 1.38 2.03 2.09 2.05 2.11 1.76 1.37 1.22 1.23 1.35
0.01 0.01 0.01 0.02 0.02 0.02 0.01 0.01 0.02 0.04 0.04 0.02 0.03 0.14 0.24 0.16 0.04 0.00 0.00 0.00 0.00 0.00 0.01 0.02 0.06 0.11 0.14 0.15 0.14 0.12 0.14 0.20 0.37 0.80 1.58 2.32 2.44 2.52 2.45 1.90 1.59 1.49 1.53
0.02 0.01 0.01 0.02 0.02 0.01 0.02 0.02 0.03 0.04 0.08 0.08 0.05 0.06 0.14 0.20 0.24 0.12 0.02 0.03 0.04 0.03 0.02 0.02 0.03 0.07 0.13 0.18 0.21 0.21 0.22 0.23 0.30 0.51 1.03 1.88 2.62 2.87 3.00 2.67 2.09 1.84 1.76
0.02 0.02 0.02 0.02 0.02 0.01 0.02 0.03 0.04 0.05 0.08 0.11 0.11 0.10 0.08 0.07 0.13 0.23 0.11 0.04 0.07 0.08 0.07 0.05 0.06 0.09 0.12 0.20 0.23 0.23 0.30 0.35 0.46 0.53 0.74 1.21 2.16 2.91 3.33 3.35 2.79 2.17 1.93
0.02 0.03 0.02 0.02 0.02 0.02 0.03 0.04 0.05 0.06 0.06 0.08 0.11 0.13 0.17 0.19 0.15 0.20 0.20 0.07 0.03 0.04 0.06 0.09 0.09 0.12 0.15 0.20 0.26 0.35 0.35 0.43 0.60 0.58 0.53 0.70 1.29 2.17 2.97 3.43 3.28 2.63 2.14
0.03 0.02 0.02 0.02 0.02 0.03 0.03 0.04 0.06 0.06 0.06 0.08 0.11 0.13 0.15 0.17 0.17 0.21 0.26 0.16 0.07 0.02 0.02 0.04 0.08 0.10 0.15 0.18 0.22 0.28 0.27 0.34 0.43 0.49 0.41 0.41 0.68 1.25 2.09 3.01 3.43 3.09 2.49
0.03 0.02 0.02 0.02 0.02 0.03 0.04 0.05 0.06 0.06 0.07 0.10 0.11 0.13 0.18 0.15 0.18 0.26 0.33 0.38 0.31 0.10 0.03 0.03 0.04 0.07 0.12 0.17 0.16 0.19 0.16 0.20 0.27 0.35 0.38 0.34 0.41 0.66 1.23 2.14 3.33 3.75 3.17
0.03 0.03 0.02 0.02 0.03 0.03 0.04 0.07 0.08 0.09 0.11 0.12 0.15 0.17 0.22 0.19 0.21 0.24 0.30 0.45 0.64 0.47 0.14 0.03 0.05 0.08 0.14 0.15 0.17 0.16 0.14 0.14 0.19 0.26 0.34 0.37 0.36 0.45 0.67 1.19 2.11 3.41 4.07
0.03 0.03 0.03 0.02 0.03 0.04 0.05 0.08 0.09 0.11 0.14 0.15 0.19 0.23 0.25 0.25 0.25 0.26 0.32 0.36 0.51 0.64 0.40 0.08 0.05 0.08 0.19 0.20 0.18 0.16 0.15 0.17 0.17 0.19 0.23 0.29 0.35 0.42 0.54 0.77 1.26 2.08 3.29
0.03 0.04 0.03 0.04 0.06 0.08 0.10 0.12 0.12 0.14 0.17 0.19 0.22 0.26 0.27 0.29 0.32 0.29 0.32 0.36 0.38 0.46 0.45 0.14 0.05 0.06 0.16 0.23 0.21 0.16 0.15 0.17 0.15 0.16 0.20 0.27 0.36 0.45 0.57 0.71 0.94 1.38 2.11
0.04 0.04 0.04 0.06 0.10 0.13 0.15 0.17 0.18 0.17 0.20 0.22 0.24 0.28 0.30 0.29 0.30 0.28 0.31 0.34 0.31 0.30 0.36 0.23 0.08 0.07 0.12 0.19 0.27 0.28 0.22 0.20 0.19 0.19 0.22 0.31 0.41 0.47 0.54 0.68 0.86 1.13 1.52
0.05 0.04 0.04 0.08 0.17 0.24 0.22 0.18 0.21 0.22 0.22 0.24 0.26 0.30 0.30 0.30 0.30 0.27 0.32 0.32 0.27 0.24 0.29 0.32 0.16 0.09 0.13 0.15 0.27 0.37 0.32 0.28 0.24 0.23 0.24 0.27 0.34 0.44 0.49 0.58 0.74 0.94 1.14
0.05 0.05 0.05 0.06 0.17 0.35 0.38 0.30 0.34 0.32 0.26 0.23 0.20 0.19 0.26 0.36 0.36 0.35 0.38 0.33 0.30 0.33 0.37 0.43 0.32 0.20 0.20 0.21 0.32 0.44 0.47 0.43 0.35 0.28 0.27 0.26 0.31 0.44 0.47 0.45 0.46 0.56 0.76
0.06 0.05 0.05 0.05 0.11 0.44 0.81 0.75 0.69 0.51 0.31 0.19 0.13 0.12 0.21 0.35 0.41 0.56 0.67 0.59 0.58 0.67 0.66 0.67 0.59 0.47 0.41 0.42 0.46 0.46 0.61 0.59 0.50 0.41 0.34 0.28 0.28 0.28 0.30 0.31 0.33 0.41 0.53
0.10 0.07 0.05 0.05 0.06 0.32 0.86 0.94 0.70 0.39 0.24 0.18 0.14 0.10 0.14 0.26 0.31 0.40 0.56 0.67 0.77 0.92 0.97 0.97 0.92 0.81 0.59 0.51 0.51 0.60 0.68 0.81 0.78 0.55 0.50 0.38 0.34 0.37 0.32 0.29 0.33 0.38 0.49
0.09 0.09 0.07 0.05 0.05 0.19 0.70 0.81 0.51 0.28 0.18 0.15 0.12 0.10 0.12 0.20 0.28 0.35 0.41 0.46 0.52 0.68 0.91 1.04 1.09 0.80 0.62 0.54 0.66 0.82 0.81 0.89 0.85 0.76 0.85 0.71 0.46 0.44 0.40 0.44 0.51 0.47 0.50
0.07 0.07 0.07 0.06 0.04 0.11 0.55 0.68 0.41 0.23 0.14 0.12 0.08 0.09 0.10 0.14 0.27 0.48 0.50 0.45 0.40 0.47 0.69 0.91 1.12 0.97 0.78 0.78 1.01 1.27 1.34 1.23 0.91 0.78 0.95 1.03 0.66 0.54 0.55 0.59 0.60 0.53 0.51
0.07 0.06 0.06 0.05 0.04 0.06 0.34 0.58 0.40 0.21 0.14 0.10 0.07 0.07 0.10 0.14 0.29 0.55 0.58 0.47 0.34 0.33 0.42 0.69 0.98 1.12 1.10 1.15 1.32 1.65 1.78 1.62 1.22 0.82 0.87 1.09 0.95 0.79 0.81 0.86 0.78 0.65 0.54
0.08 0.07 0.05 0.05 0.05 0.04 0.19 0.43 0.44 0.26 0.15 0.11 0.09 0.08 0.14 0.26 0.40 0.56 0.54 0.52 0.60 0.46 0.39 0.41 0.47 0.59 0.70 0.79 1.03 1.36 1.60 1.63 1.35 1.19 0.99 1.07 1.19 1.17 1.28 1.14 0.99 0.75 0.56

GEFSMA_prec_meanprecacc_150.txt.gz
Total_Precipitation_Accumulation
0.02 0.01 0.01 0.01 0.01 0.01 0.01 0.01 0.01 0.03 0.08 0.12 0.15 0.12 0.12 0.11 0.12 0.14 0.12 0.12 0.10 0.09 0.11 0.17 0.28 0.46 0.62 0.80 1.03 1.13 0.94 0.79 0.66 0.55 0.55 0.65 0.72 0.76 0.79 0.82 0.88 0.83 0.70
0.02 0.02 0.01 0.01 0.01 0.01 0.01 0.00 0.00 0.00 0.00 0.01 0.02 0.05 0.10 0.12 0.15 0.16 0.14 0.14 0.13 0.10 0.10 0.12 0.20 0.33 0.51 0.74 0.98 1.29 1.22 1.08 0.92 0.73 0.57 0.57 0.64 0.69 0.73 0.79 0.84 0.92 0.87
0.02 0.02 0.02 0.02 0.01 0.01 0.00 0.00 0.00 0.00 0.00 0.00 0.00 0.00 0.01 0.03 0.07 0.12 0.12 0.14 0.16 0.13 0.11 0.12 0.16 0.21 0.33 0.57 0.85 1.17 1.47 1.38 1.21 1.04 0.81 0.59 0.58 0.64 0.69 0.78 0.85 0.92 0.96
0.02 0.02 0.02 0.02 0.01 0.01 0.01 0.01 0.01 0.01 0.01 0.00 0.00 0.00 0.00 0.00 0.00 0.02 0.04 0.09 0.14 0.17 0.15 0.15 0.17 0.18 0.22 0.34 0.59 0.92 1.42 1.55 1.53 1.39 1.23 0.92 0.68 0.63 0.68 0.75 0.87 0.94 1.00
0.03 0.02 0.02 0.02 0.01 0.01 0.01 0.01 0.01 0.00 0.01 0.00 0.00 0.00 0.00 0.00 0.00 0.00 0.00 0.02 0.05 0.11 0.15 0.16 0.16 0.16 0.16 0.20 0.34 0.60 1.02 1.45 1.62 1.61 1.54 1.35 1.00 0.74 0.71 0.76 0.84 0.97 1.07
0.04 0.02 0.02 0.01 0.01 0.01 0.01 0.01 0.01 0.00 0.00 0.01 0.00 0.00 0.00 0.00 0.00 0.00 0.00 0.00 0.01 0.05 0.09 0.12 0.14 0.15 0.15 0.15 0.21 0.36 0.65 1.10 1.54 1.66 1.62 1.61 1.45 1.06 0.83 0.82 0.87 0.99 1.12
0.04 0.02 0.02 0.01 0.01 0.01 0.01 0.01 0.00 0.01 0.01 0.01 0.01 0.01 0.00 0.00 0.00 0.00 0.00 0.00 0.00 0.02 0.06 0.10 0.13 0.14 0.14 0.15 0.15 0.18 0.37 0.72 1.23 1.77 1.80 1.73 1.79 1.58 1.18 1.00 0.99 1.06 1.21
0.05 0.03 0.02 0.02 0.02 0.02 0.01 0.00 0.01 0.02 0.02 0.01 0.03 0.06 0.04 0.01 0.00 0.00 0.00 0.00 0.00 0.00 0.02 0.06 0.12 0.13 0.12 0.14 0.11 0.12 0.17 0.34 0.73 1.38 2.04 2.09 2.06 2.12 1.77 1.38 1.24 1.25 1.38
0.06 0.03 0.03 0.02 0.02 0.02 0.01 0.01 0.02 0.04 0.04 0.02 0.03 0.14 0.24 0.16 0.05 0.00 0.00 0.00 0.00 0.01 0.01 0.02 0.06 0.11 0.14 0.15 0.14 0.12 0.14 0.20 0.37 0.80 1.59 2.33 2.45 2.53 2.47 1.92 1.61 1.52 1.56
0.08 0.04 0.03 0.03 0.02 0.02 0.02 0.02 0.03 0.04 0.08 0.09 0.05 0.06 0.14 0.20 0.24 0.12 0.02 0.03 0.04 0.03 0.02 0.02 0.03 0.07 0.13 0.18 0.21 0.21 0.22 0.23 0.30 0.52 1.03 1.88 2.63 2.88 3.02 2.70 2.12 1.87 1.79
0.10 0.06 0.05 0.03 0.02 0.02 0.02 0.03 0.04 0.05 0.08 0.11 0.12 0.10 0.08 0.07 0.13 0.23 0.11 0.04 0.08 0.08 0.07 0.05 0.06 0.09 0.12 0.20 0.23 0.23 0.30 0.35 0.46 0.53 0.74 1.22 2.16 2.92 3.34 3.36 2.81 2.19 1.95
0.13 0.09 0.06 0.04 0.02 0.02 0.03 0.04 0.05 0.06 0.06 0.08 0.11 0.13 0.17 0.19 0.15 0.20 0.20 0.07 0.03 0.04 0.06 0.09 0.09 0.12 0.15 0.20 0.26 0.35 0.35 0.43 0.60 0.58 0.53 0.70 1.29 2.17 2.98 3.44 3.29 2.65 2.16
0.15 0.09 0.08 0.05 0.03 0.03 0.03 0.04 0.06 0.06 0.06 0.08 0.11 0.13 0.15 0.17 0.17 0.21 0.26 0.16 0.07 0.02 0.02 0.04 0.08 0.10 0.15 0.18 0.22 0.28 0.27 0.34 0.43 0.49 0.41 0.41 0.68 1.25 2.09 3.01 3.44 3.10 2.51
0.16 0.09 0.08 0.07 0.05 0.04 0.04 0.05 0.06 0.06 0.07 0.10 0.11 0.13 0.18 0.15 0.18 0.26 0.33 0.39 0.31 0.10 0.03 0.03 0.04 0.07 0.12 0.17 0.16 0.19 0.16 0.20 0.27 0.35 0.38 0.34 0.41 0.67 1.23 2.15 3.34 3.77 3.19
0.20 0.12 0.09 0.07 0.06 0.06 0.06 0.07 0.08 0.09 0.11 0.12 0.15 0.17 0.22 0.19 0.21 0.24 0.30 0.45 0.64 0.47 0.14 0.04 0.05 0.08 0.14 0.15 0.17 0.16 0.14 0.14 0.19 0.26 0.34 0.37 0.37 0.45 0.68 1.20 2.12 3.42 4.09
0.21 0.14 0.11 0.09 0.06 0.06 0.07 0.09 0.10 0.11 0.14 0.15 0.19 0.23 0.25 0.25 0.25 0.27 0.32 0.37 0.51 0.64 0.40 0.08 0.05 0.09 0.19 0.20 0.18 0.16 0.15 0.17 0.17 0.19 0.23 0.29 0.36 0.43 0.55 0.78 1.26 2.09 3.31
0.21 0.16 0.13 0.12 0.10 0.10 0.11 0.13 0.12 0.14 0.17 0.19 0.22 0.26 0.27 0.29 0.32 0.30 0.33 0.36 0.38 0.46 0.46 0.14 0.05 0.06 0.17 0.23 0.21 0.16 0.15 0.17 0.15 0.17 0.21 0.28 0.36 0.45 0.57 0.71 0.95 1.39 2.12
0.20 0.17 0.14 0.14 0.16 0.16 0.17 0.18 0.18 0.17 0.20 0.22 0.24 0.28 0.30 0.29 0.30 0.29 0.32 0.34 0.32 0.31 0.37 0.24 0.08 0.07 0.12 0.20 0.28 0.28 0.22 0.20 0.19 0.19 0.23 0.31 0.41 0.47 0.54 0.68 0.87 1.14 1.52
0.18 0.16 0.15 0.16 0.23 0.28 0.24 0.19 0.22 0.22 0.22 0.24 0.26 0.30 0.30 0.30 0.30 0.27 0.32 0.32 0.27 0.24 0.29 0.32 0.17 0.10 0.13 0.15 0.27 0.37 0.32 0.28 0.25 0.23 0.24 0.27 0.34 0.44 0.49 0.58 0.74 0.94 1.14
0.20 0.15 0.14 0.13 0.22 0.40 0.41 0.32 0.35 0.32 0.26 0.23 0.20 0.19 0.26 0.36 0.36 0.35 0.38 0.33 0.30 0.34 0.38 0.44 0.33 0.21 0.20 0.21 0.32 0.44 0.47 0.43 0.35 0.28 0.27 0.26 0.31 0.44 0.47 0.45 0.46 0.57 0.77
0.24 0.16 0.13 0.12 0.16 0.49 0.85 0.78 0.70 0.52 0.31 0.19 0.13 0.12 0.21 0.36 0.42 0.56 0.68 0.59 0.59 0.68 0.66 0.68 0.60 0.48 0.41 0.42 0.46 0.46 0.61 0.59 0.50 0.41 0.34 0.28 0.28 0.28 0.30 0.31 0.33 0.41 0.53
0.30 0.20 0.13 0.12 0.12 0.37 0.90 0.97 0.72 0.39 0.24 0.18 0.14 0.11 0.14 0.27 0.31 0.41 0.57 0.68 0.78 0.92 0.98 0.98 0.93 0.81 0.59 0.52 0.51 0.60 0.69 0.81 0.78 0.55 0.50 0.38 0.34 0.37 0.32 0.29 0.33 0.39 0.49
0.26 0.25 0.17 0.11 0.09 0.23 0.75 0.85 0.55 0.31 0.20 0.16 0.12 0.11 0.12 0.21 0.29 0.35 0.42 0.47 0.53 0.69 0.92 1.04 1.09 0.81 0.62 0.55 0.67 0.82 0.81 0.90 0.85 0.77 0.85 0.72 0.46 0.44 0.40 0.44 0.51 0.48 0.51
0.19 0.22 0.21 0.15 0.10 0.15 0.58 0.72 0.45 0.27 0.17 0.13 0.10 0.11 0.11 0.16 0.29 0.50 0.51 0.46 0.41 0.48 0.70 0.91 1.13 0.97 0.79 0.78 1.01 1.27 1.34 1.24 0.91 0.78 0.95 1.04 0.66 0.54 0.55 0.59 0.60 0.53 0.51
0.18 0.19 0.18 0.16 0.14 0.13 0.40 0.62 0.44 0.25 0.19 0.14 0.09 0.09 0.12 0.15 0.31 0.56 0.59 0.48 0.35 0.34 0.43 0.71 1.00 1.13 1.11 1.16 1.33 1.65 1.79 1.62 1.23 0.82 0.87 1.09 0.96 0.79 0.81 0.86 0.78 0.65 0.54
0.18 0.17 0.17 0.16 0.14 0.13 0.27 0.49 0.49 0.29 0.19 0.14 0.12 0.09 0.16 0.28 0.42 0.58 0.55 0.53 0.61 0.48 0.41 0.42 0.48 0.60 0.71 0.80 1.04 1.37 1.61 1.63 1.36 1.20 0.99 1.07 1.20 1.17 1.29 1.14 0.99 0.75 0.56

GEFSMA_prec_meanprecacc_156.txt.gz
Total_Precipitation_Accumulation
0.12 0.08 0.07 0.06 0.05 0.02 0.01 0.01 0.01 0.03 0.08 0.12 0.15 0.12 0.12 0.11 0.12 0.14 0.12 0.12 0.11 0.10 0.11 0.17 0.29 0.46 0.63 0.81 1.04 1.14 0.95 0.80 0.66 0.56 0.56 0.65 0.73 0.77 0.79 0.83 0.89 0.84 0.71
0.12 0.09 0.08 0.06 0.05 0.03 0.01 0.01 0.00 0.00 0.00 0.01 0.02 0.05 0.10 0.12 0.15 0.16 0.14 0.14 0.13 0.10 0.10 0.13 0.20 0.33 0.52 0.75 0.99 1.30 1.23 1.08 0.92 0.73 0.57 0.57 0.64 0.70 0.74 0.80 0.85 0.93 0.88
0.15 0.12 0.09 0.07 0.05 0.03 0.02 0.01 0.00 0.00 0.00 0.00 0.00 0.00 0.01 0.03 0.07 0.12 0.12 0.14 0.16 0.14 0.12 0.13 0.16 0.21 0.34 0.58 0.86 1.18 1.48 1.39 1.21 1.05 0.81 0.60 0.58 0.65 0.70 0.79 0.86 0.93 0.98
0.19 0.15 0.12 0.08 0.05 0.04 0.03 0.02 0.01 0.01 0.01 0.01 0.00 0.00 0.00 0.00 0.00 0.02 0.04 0.09 0.14 0.17 0.15 0.15 0.17 0.19 0.22 0.35 0.59 0.92 1.42 1.55 1.54 1.40 1.24 0.92 0.68 0.64 0.69 0.76 0.88 0.96 1.02
0.23 0.20 0.16 0.10 0.06 0.04 0.03 0.02 0.01 0.01 0.01 0.00 0.00 0.00 0.00 0.00 0.00 0.00 0.00 0.02 0.05 0.11 0.15 0.16 0.17 0.17 0.17 0.20 0.34 0.60 1.02 1.45 1.63 1.62 1.54 1.35 1.01 0.75 0.72 0.77 0.86 0.99 1.09
0.24 0.23 0.20 0.15 0.09 0.06 0.04 0.02 0.01 0.01 0.01 0.01 0.00 0.00 0.00 0.00 0.00 0.00 0.00 0.00 0.01 0.05 0.09 0.12 0.14 0.15 0.15 0.16 0.21 0.36 0.65 1.10 1.55 1.66 1.62 1.61 1.46 1.07 0.84 0.83 0.88 1.01 1.14
0.27 0.23 0.22 0.20 0.15 0.08 0.05 0.03 0.01 0.01 0.01 0.01 0.01 0.01 0.00 0.00 0.00 0.00 0.00 0.00 0.00 0.02 0.06 0.11 0.13 0.14 0.15 0.15 0.15 0.18 0.37 0.73 1.23 1.78 1.81 1.74 1.80 1.59 1.19 1.02 1.01 1.09 1.24
0.31 0.26 0.23 0.21 0.19 0.12 0.06 0.03 0.02 0.03 0.02 0.01 0.03 0.06 0.04 0.01 0.00 0.00 0.00 0.00 0.00 0.00 0.02 0.06 0.12 0.13 0.12 0.14 0.11 0.12 0.17 0.34 0.73 1.39 2.05 2.10 2.07 2.13 1.79 1.41 1.27 1.28 1.41
0.34 0.28 0.24 0.21 0.20 0.17 0.10 0.05 0.04 0.04 0.05 0.02 0.03 0.14 0.24 0.16 0.05 0.00 0.00 0.00 0.01 0.01 0.01 0.02 0.06 0.11 0.14 0.15 0.14 0.12 0.14 0.20 0.37 0.80 1.59 2.33 2.46 2.55 2.49 1.95 1.64 1.55 1.58
0.39 0.34 0.28 0.25 0.20 0.18 0.13 0.07 0.05 0.05 0.08 0.09 0.05 0.06 0.14 0.20 0.24 0.12 0.02 0.03 0.04 0.03 0.02 0.02 0.03 0.07 0.13 0.18 0.21 0.21 0.22 0.23 0.30 0.52 1.03 1.88 2.63 2.89 3.03 2.72 2.14 1.89 1.80
0.40 0.40 0.33 0.30 0.25 0.20 0.15 0.10 0.06 0.06 0.08 0.11 0.12 0.10 0.08 0.07 0.13 0.23 0.11 0.04 0.08 0.08 0.07 0.05 0.06 0.09 0.12 0.20 0.23 0.23 0.30 0.35 0.46 0.53 0.74 1.22 2.17 2.93 3.35 3.38 2.83 2.21 1.97
0.43 0.40 0.37 0.30 0.26 0.24 0.19 0.12 0.08 0.07 0.07 0.08 0.11 0.13 0.17 0.19 0.15 0.20 0.20 0.07 0.03 0.04 0.06 0.09 0.09 0.12 0.15 0.20 0.26 0.35 0.35 0.43 0.60 0.58 0.53 0.71 1.30 2.18 2.98 3.45 3.30 2.66 2.18
0.45 0.41 0.38 0.32 0.26 0.22 0.19 0.15 0.11 0.08 0.06 0.09 0.11 0.13 0.15 0.17 0.17 0.21 0.26 0.16 0.07 0.02 0.02 0.04 0.08 0.10 0.15 0.18 0.22 0.28 0.27 0.34 0.43 0.49 0.41 0.41 0.68 1.25 2.10 3.02 3.45 3.11 2.53
0.45 0.38 0.38 0.34 0.28 0.22 0.17 0.16 0.12 0.09 0.08 0.10 0.11 0.14 0.18 0.15 0.18 0.26 0.33 0.39 0.31 0.10 0.03 0.03 0.04 0.07 0.12 0.17 0.16 0.19 0.16 0.20 0.27 0.35 0.38 0.34 0.41 0.67 1.24 2.16 3.35 3.78 3.20
0.47 0.42 0.39 0.39 0.31 0.26 0.21 0.18 0.16 0.13 0.13 0.14 0.15 0.17 0.22 0.19 0.21 0.24 0.30 0.45 0.64 0.47 0.14 0.04 0.05 0.08 0.14 0.15 0.17 0.16 0.14 0.15 0.20 0.27 0.34 0.37 0.37 0.45 0.68 1.21 2.12 3.43 4.10
0.46 0.45 0.42 0.38 0.35 0.29 0.25 0.22 0.20 0.17 0.18 0.17 0.20 0.23 0.25 0.25 0.25 0.27 0.32 0.37 0.51 0.64 0.40 0.08 0.05 0.09 0.19 0.20 0.19 0.17 0.16 0.17 0.17 0.19 0.23 0.29 0.36 0.43 0.55 0.78 1.27 2.10 3.32
0.42 0.41 0.40 0.38 0.34 0.33 0.32 0.30 0.24 0.23 0.24 0.22 0.23 0.27 0.27 0.29 0.32 0.30 0.33 0.36 0.38 0.46 0.46 0.14 0.06 0.07 0.17 0.23 0.21 0.16 0.15 0.17 0.15 0.17 0.21 0.28 0.36 0.45 0.57 0.72 0.96 1.40 2.12
0.38 0.38 0.35 0.37 0.35 0.34 0.34 0.35 0.32 0.27 0.27 0.26 0.25 0.28 0.30 0.29 0.30 0.29 0.32 0.34 0.32 0.31 0.38 0.25 0.09 0.07 0.12 0.20 0.28 0.28 0.22 0.20 0.19 0.19 0.23 0.31 0.41 0.47 0.55 0.68 0.87 1.14 1.53
0.36 0.36 0.35 0.36 0.41 0.42 0.38 0.33 0.34 0.31 0.29 0.28 0.28 0.31 0.31 0.30 0.30 0.27 0.32 0.33 0.28 0.25 0.29 0.33 0.18 0.10 0.13 0.16 0.27 0.38 0.33 0.28 0.25 0.23 0.24 0.27 0.35 0.44 0.49 0.58 0.74 0.95 1.15
0.36 0.33 0.32 0.32 0.40 0.53 0.52 0.43 0.45 0.41 0.33 0.27 0.23 0.21 0.26 0.37 0.36 0.35 0.39 0.33 0.30 0.34 0.39 0.45 0.34 0.21 0.21 0.22 0.33 0.45 0.48 0.43 0.35 0.28 0.27 0.27 0.32 0.44 0.48 0.45 0.47 0.57 0.78
0.41 0.34 0.30 0.29 0.32 0.62 0.95 0.88 0.80 0.60 0.37 0.24 0.16 0.14 0.22 0.36 0.42 0.56 0.68 0.60 0.59 0.69 0.68 0.70 0.62 0.49 0.42 0.44 0.48 0.48 0.62 0.60 0.50 0.41 0.34 0.28 0.28 0.28 0.30 0.32 0.34 0.42 0.54
0.47 0.38 0.31 0.28 0.27 0.49 1.01 1.08 0.82 0.48 0.31 0.23 0.18 0.13 0.16 0.28 0.32 0.41 0.57 0.68 0.79 0.94 1.00 1.00 0.95 0.84 0.61 0.54 0.53 0.62 0.70 0.82 0.79 0.56 0.51 0.39 0.36 0.38 0.32 0.30 0.34 0.40 0.50
0.40 0.41 0.33 0.27 0.22 0.35 0.85 0.96 0.66 0.40 0.27 0.21 0.16 0.14 0.15 0.23 0.30 0.36 0.43 0.48 0.54 0.71 0.94 1.07 1.12 0.83 0.65 0.57 0.69 0.84 0.83 0.92 0.87 0.78 0.87 0.74 0.48 0.46 0.41 0.45 0.52 0.48 0.51
0.31 0.36 0.35 0.28 0.21 0.25 0.70 0.83 0.57 0.39 0.28 0.20 0.14 0.14 0.14 0.18 0.30 0.51 0.53 0.48 0.43 0.51 0.74 0.95 1.17 1.01 0.82 0.82 1.05 1.30 1.37 1.26 0.93 0.80 0.97 1.05 0.67 0.55 0.56 0.60 0.61 0.54 0.52
0.28 0.30 0.32 0.30 0.24 0.21 0.49 0.71 0.54 0.37 0.30 0.23 0.15 0.13 0.15 0.18 0.33 0.58 0.62 0.50 0.38 0.37 0.48 0.76 1.04 1.17 1.15 1.19 1.36 1.68 1.81 1.65 1.26 0.84 0.89 1.10 0.97 0.80 0.83 0.88 0.79 0.66 0.55
0.29 0.27 0.29 0.29 0.26 0.21 0.35 0.58 0.59 0.39 0.30 0.24 0.19 0.14 0.20 0.31 0.45 0.61 0.58 0.56 0.64 0.51 0.44 0.46 0.52 0.63 0.74 0.82 1.06 1.39 1.63 1.66 1.39 1.23 1.01 1.09 1.22 1.19 1.30 1.15 1.00 0.76 0.56

GEFSMA_prec_meanprecacc_162.txt.gz
Total_Precipitation_Accumulation
0.19 0.18 0.19 0.20 0.18 0.16 0.14 0.11 0.07 0.07 0.09 0.13 0.15 0.12 0.12 0.11 0.12 0.14 0.12 0.12 0.11 0.11 0.13 0.19 0.29 0.47 0.64 0.82 1.05 1.15 0.95 0.81 0.67 0.56 0.56 0.66 0.73 0.78 0.80 0.83 0.90 0.85 0.72
0.19 0.18 0.18 0.18 0.18 0.17 0.15 0.12 0.09 0.05 0.03 0.02 0.03 0.05 0.10 0.12 0.15 0.16 0.14 0.14 0.13 0.11 0.12 0.15 0.21 0.34 0.52 0.75 1.00 1.30 1.23 1.09 0.92 0.74 0.58 0.58 0.65 0.70 0.74 0.80 0.86 0.94 0.90
0.21 0.20 0.20 0.19 0.17 0.17 0.16 0.14 0.12 0.09 0.05 0.03 0.01 0.00 0.01 0.03 0.07 0.12 0.12 0.14 0.17 0.14 0.13 0.14 0.18 0.22 0.34 0.58 0.86 1.18 1.48 1.39 1.22 1.05 0.82 0.60 0.59 0.65 0.71 0.80 0.87 0.94 0.99
0.23 0.22 0.22 0.21 0.20 0.20 0.19 0.16 0.12 0.10 0.07 0.04 0.02 0.01 0.00 0.00 0.00 0.02 0.04 0.09 0.14 0.17 0.16 0.16 0.18 0.20 0.23 0.35 0.60 0.93 1.42 1.56 1.54 1.40 1.24 0.93 0.69 0.64 0.70 0.77 0.89 0.97 1.04
0.27 0.25 0.23 0.22 0.22 0.22 0.21 0.19 0.14 0.10 0.08 0.05 0.03 0.01 0.00 0.00 0.00 0.00 0.00 0.02 0.06 0.11 0.15 0.17 0.17 0.18 0.18 0.21 0.35 0.60 1.02 1.46 1.63 1.62 1.55 1.36 1.02 0.76 0.73 0.78 0.87 1.01 1.12
0.30 0.28 0.27 0.24 0.24 0.25 0.23 0.20 0.15 0.12 0.09 0.06 0.04 0.02 0.01 0.00 0.00 0.00 0.00 0.00 0.02 0.05 0.10 0.13 0.15 0.15 0.16 0.16 0.21 0.36 0.66 1.10 1.55 1.67 1.63 1.62 1.46 1.07 0.85 0.85 0.90 1.03 1.16
0.32 0.30 0.30 0.30 0.28 0.26 0.24 0.21 0.18 0.16 0.13 0.08 0.06 0.05 0.03 0.01 0.00 0.00 0.00 0.00 0.00 0.02 0.06 0.11 0.13 0.14 0.15 0.16 0.15 0.19 0.37 0.73 1.24 1.78 1.81 1.74 1.80 1.60 1.21 1.04 1.03 1.11 1.26
0.36 0.31 0.30 0.30 0.30 0.29 0.25 0.22 0.19 0.19 0.18 0.12 0.10 0.11 0.08 0.04 0.02 0.01 0.00 0.00 0.00 0.01 0.02 0.06 0.12 0.13 0.13 0.14 0.11 0.12 0.18 0.35 0.74 1.39 2.05 2.11 2.08 2.15 1.81 1.43 1.29 1.30 1.43
0.41 0.34 0.30 0.29 0.29 0.29 0.28 0.25 0.22 0.20 0.20 0.16 0.11 0.19 0.28 0.18 0.06 0.01 0.01 0.00 0.01 0.01 0.01 0.02 0.06 0.11 0.14 0.16 0.15 0.13 0.14 0.20 0.37 0.81 1.60 2.34 2.47 2.56 2.51 1.97 1.66 1.57 1.60
0.50 0.42 0.36 0.32 0.28 0.27 0.27 0.26 0.24 0.22 0.23 0.22 0.14 0.12 0.18 0.22 0.25 0.13 0.02 0.03 0.04 0.03 0.02 0.02 0.03 0.07 0.13 0.18 0.21 0.21 0.22 0.23 0.30 0.52 1.04 1.89 2.64 2.90 3.05 2.73 2.16 1.91 1.83
0.54 0.51 0.44 0.40 0.35 0.29 0.26 0.26 0.25 0.24 0.25 0.25 0.21 0.17 0.12 0.10 0.14 0.24 0.12 0.05 0.08 0.09 0.07 0.05 0.06 0.09 0.12 0.21 0.23 0.23 0.30 0.35 0.46 0.53 0.75 1.22 2.17 2.93 3.36 3.39 2.85 2.23 1.99
0.56 0.54 0.49 0.41 0.37 0.34 0.30 0.28 0.26 0.24 0.22 0.21 0.22 0.21 0.21 0.22 0.17 0.21 0.20 0.08 0.04 0.04 0.06 0.09 0.09 0.12 0.16 0.20 0.26 0.35 0.35 0.43 0.60 0.58 0.53 0.71 1.30 2.18 2.99 3.46 3.32 2.68 2.19
0.60 0.56 0.52 0.44 0.36 0.31 0.29 0.27 0.28 0.26 0.22 0.23 0.22 0.21 0.21 0.21 0.20 0.23 0.28 0.18 0.09 0.03 0.02 0.04 0.08 0.10 0.15 0.19 0.22 0.28 0.27 0.34 0.43 0.49 0.41 0.42 0.69 1.26 2.10 3.03 3.46 3.12 2.54
0.57 0.51 0.51 0.47 0.40 0.34 0.29 0.27 0.26 0.24 0.23 0.24 0.22 0.22 0.24 0.20 0.22 0.29 0.36 0.42 0.33 0.11 0.03 0.03 0.04 0.07 0.12 0.17 0.16 0.19 0.16 0.20 0.27 0.35 0.38 0.35 0.41 0.67 1.24 2.16 3.35 3.79 3.21
0.57 0.54 0.51 0.52 0.45 0.40 0.36 0.31 0.29 0.25 0.25 0.26 0.26 0.27 0.29 0.25 0.27 0.29 0.34 0.48 0.67 0.49 0.14 0.04 0.05 0.08 0.14 0.15 0.17 0.16 0.14 0.15 0.20 0.27 0.35 0.37 0.37 0.46 0.69 1.21 2.13 3.44 4.11
0.54 0.56 0.56 0.52 0.50 0.45 0.41 0.37 0.33 0.30 0.29 0.29 0.31 0.35 0.34 0.32 0.31 0.32 0.37 0.40 0.53 0.65 0.41 0.08 0.05 0.09 0.19 0.20 0.19 0.17 0.16 0.17 0.18 0.20 0.24 0.30 0.36 0.43 0.55 0.79 1.28 2.11 3.33
0.52 0.53 0.55 0.54 0.51 0.51 0.48 0.45 0.39 0.36 0.35 0.33 0.34 0.38 0.38 0.38 0.39 0.35 0.38 0.39 0.40 0.47 0.46 0.15 0.06 0.07 0.17 0.23 0.21 0.16 0.15 0.17 0.16 0.18 0.22 0.28 0.37 0.46 0.58 0.73 0.96 1.40 2.13
0.54 0.56 0.54 0.57 0.55 0.55 0.53 0.51 0.47 0.41 0.39 0.38 0.37 0.39 0.40 0.38 0.39 0.35 0.36 0.37 0.34 0.33 0.38 0.26 0.09 0.08 0.12 0.20 0.28 0.28 0.23 0.21 0.20 0.21 0.24 0.32 0.42 0.48 0.56 0.69 0.88 1.15 1.54
0.51 0.53 0.53 0.54 0.60 0.62 0.57 0.49 0.49 0.47 0.43 0.40 0.40 0.42 0.40 0.39 0.39 0.34 0.38 0.37 0.31 0.27 0.30 0.33 0.18 0.10 0.13 0.16 0.28 0.38 0.34 0.30 0.26 0.25 0.26 0.29 0.36 0.45 0.50 0.59 0.75 0.96 1.16
0.52 0.48 0.47 0.49 0.57 0.70 0.69 0.59 0.61 0.56 0.48 0.41 0.36 0.33 0.37 0.45 0.43 0.41 0.44 0.38 0.34 0.37 0.40 0.46 0.34 0.22 0.21 0.22 0.34 0.46 0.50 0.45 0.37 0.30 0.29 0.29 0.34 0.46 0.49 0.47 0.48 0.59 0.79
0.56 0.49 0.46 0.46 0.51 0.81 1.13 1.06 0.97 0.78 0.54 0.39 0.30 0.28 0.34 0.45 0.48 0.63 0.73 0.64 0.63 0.71 0.69 0.71 0.63 0.51 0.43 0.45 0.49 0.49 0.64 0.63 0.53 0.43 0.37 0.31 0.31 0.31 0.33 0.34 0.36 0.44 0.56
0.59 0.51 0.47 0.46 0.46 0.70 1.21 1.27 0.99 0.65 0.49 0.39 0.33 0.27 0.28 0.39 0.40 0.48 0.63 0.73 0.83 0.97 1.02 1.02 0.97 0.85 0.63 0.55 0.55 0.64 0.73 0.87 0.83 0.60 0.55 0.44 0.40 0.41 0.35 0.33 0.37 0.42 0.52
0.54 0.55 0.48 0.43 0.40 0.53 1.06 1.16 0.84 0.56 0.43 0.37 0.31 0.27 0.27 0.34 0.40 0.44 0.50 0.53 0.58 0.74 0.97 1.08 1.13 0.85 0.66 0.59 0.72 0.89 0.88 0.97 0.92 0.83 0.91 0.78 0.52 0.49 0.44 0.48 0.54 0.50 0.53
0.44 0.48 0.49 0.43 0.39 0.42 0.88 1.03 0.79 0.57 0.43 0.34 0.27 0.26 0.26 0.30 0.41 0.59 0.59 0.53 0.48 0.54 0.76 0.97 1.18 1.02 0.83 0.84 1.08 1.35 1.43 1.32 0.99 0.84 1.00 1.09 0.71 0.58 0.59 0.62 0.63 0.56 0.53
0.40 0.40 0.44 0.44 0.39 0.37 0.65 0.89 0.77 0.59 0.48 0.38 0.29 0.26 0.27 0.29 0.44 0.68 0.69 0.57 0.43 0.41 0.51 0.79 1.07 1.20 1.18 1.23 1.40 1.72 1.86 1.70 1.30 0.88 0.92 1.13 1.00 0.83 0.85 0.89 0.81 0.68 0.56
0.42 0.39 0.41 0.42 0.38 0.34 0.50 0.73 0.77 0.60 0.50 0.42 0.36 0.29 0.33 0.43 0.55 0.69 0.66 0.62 0.69 0.54 0.47 0.49 0.56 0.68 0.78 0.87 1.11 1.42 1.66 1.70 1.43 1.27 1.04 1.11 1.23 1.21 1.32 1.16 1.01 0.77 0.57

GEFSMA_prec_meanprecacc_168.txt.gz
Total_Precipitation_Accumulation
0.23 0.22 0.22 0.22 0.21 0.19 0.19 0.18 0.17 0.17 0.19 0.22 0.21 0.16 0.14 0.14 0.13 0.15 0.13 0.13 0.12 0.12 0.16 0.22 0.32 0.49 0.65 0.83 1.06 1.15 0.96 0.81 0.67 0.57 0.57 0.66 0.74 0.78 0.80 0.84 0.90 0.86 0.73
0.24 0.22 0.21 0.21 0.21 0.21 0.20 0.19 0.17 0.15 0.12 0.11 0.10 0.10 0.13 0.14 0.16 0.17 0.15 0.15 0.14 0.12 0.14 0.18 0.25 0.37 0.54 0.76 1.00 1.31 1.24 1.10 0.93 0.74 0.58 0.58 0.65 0.71 0.75 0.81 0.87 0.95 0.91
0.28 0.25 0.23 0.21 0.20 0.19 0.20 0.21 0.20 0.18 0.15 0.11 0.09 0.07 0.06 0.07 0.09 0.13 0.13 0.15 0.17 0.15 0.14 0.17 0.21 0.26 0.37 0.60 0.87 1.19 1.49 1.40 1.23 1.06 0.82 0.61 0.60 0.66 0.72 0.81 0.88 0.95 1.01
0.30 0.28 0.27 0.25 0.23 0.23 0.23 0.23 0.21 0.20 0.17 0.13 0.10 0.08 0.07 0.06 0.05 0.04 0.06 0.09 0.15 0.18 0.17 0.18 0.21 0.23 0.26 0.37 0.61 0.94 1.43 1.56 1.55 1.41 1.25 0.94 0.70 0.65 0.71 0.78 0.90 0.98 1.06
0.33 0.30 0.27 0.28 0.28 0.27 0.24 0.24 0.22 0.20 0.18 0.15 0.13 0.11 0.09 0.07 0.05 0.04 0.03 0.04 0.06 0.12 0.16 0.18 0.19 0.20 0.20 0.23 0.37 0.62 1.03 1.46 1.64 1.63 1.56 1.37 1.03 0.77 0.74 0.80 0.89 1.02 1.13
0.37 0.34 0.31 0.28 0.29 0.31 0.27 0.24 0.21 0.19 0.17 0.16 0.15 0.14 0.13 0.10 0.08 0.05 0.03 0.02 0.03 0.06 0.10 0.13 0.16 0.17 0.17 0.18 0.23 0.37 0.67 1.11 1.56 1.68 1.64 1.62 1.47 1.08 0.86 0.86 0.92 1.05 1.18
0.43 0.38 0.37 0.35 0.33 0.31 0.28 0.25 0.23 0.22 0.20 0.18 0.18 0.18 0.15 0.13 0.11 0.07 0.04 0.03 0.02 0.03 0.07 0.11 0.13 0.14 0.16 0.17 0.16 0.20 0.38 0.74 1.25 1.79 1.82 1.75 1.81 1.61 1.22 1.05 1.05 1.12 1.28
0.54 0.44 0.39 0.37 0.36 0.34 0.30 0.26 0.23 0.24 0.24 0.21 0.20 0.23 0.22 0.18 0.14 0.09 0.06 0.04 0.02 0.02 0.03 0.07 0.12 0.13 0.13 0.15 0.11 0.13 0.18 0.36 0.75 1.40 2.06 2.11 2.08 2.15 1.82 1.44 1.31 1.32 1.45
0.56 0.49 0.42 0.37 0.37 0.37 0.35 0.31 0.27 0.24 0.25 0.23 0.20 0.30 0.39 0.29 0.15 0.09 0.07 0.05 0.04 0.02 0.02 0.03 0.07 0.12 0.14 0.16 0.15 0.13 0.14 0.21 0.38 0.82 1.61 2.34 2.47 2.57 2.52 1.98 1.67 1.58 1.62
0.58 0.52 0.48 0.44 0.38 0.36 0.35 0.34 0.31 0.27 0.28 0.29 0.24 0.22 0.27 0.29 0.32 0.19 0.08 0.08 0.08 0.06 0.04 0.03 0.04 0.07 0.13 0.18 0.21 0.21 0.22 0.24 0.31 0.53 1.05 1.90 2.65 2.91 3.06 2.75 2.17 1.93 1.85
0.63 0.59 0.52 0.50 0.47 0.41 0.37 0.36 0.34 0.31 0.31 0.31 0.29 0.26 0.22 0.19 0.21 0.30 0.18 0.10 0.13 0.13 0.11 0.07 0.08 0.09 0.13 0.21 0.23 0.24 0.31 0.36 0.47 0.54 0.76 1.23 2.18 2.95 3.38 3.41 2.86 2.25 2.01
0.69 0.66 0.60 0.51 0.48 0.47 0.43 0.40 0.37 0.35 0.31 0.28 0.28 0.29 0.30 0.31 0.24 0.27 0.26 0.13 0.09 0.08 0.10 0.12 0.12 0.14 0.17 0.22 0.27 0.36 0.36 0.44 0.61 0.59 0.54 0.72 1.31 2.19 3.00 3.47 3.33 2.69 2.21
0.74 0.69 0.66 0.59 0.51 0.45 0.43 0.41 0.42 0.38 0.33 0.31 0.30 0.29 0.30 0.30 0.28 0.31 0.35 0.26 0.16 0.09 0.07 0.08 0.11 0.12 0.17 0.20 0.24 0.29 0.27 0.34 0.44 0.49 0.42 0.42 0.69 1.26 2.11 3.04 3.47 3.14 2.55
0.69 0.63 0.62 0.58 0.51 0.45 0.40 0.40 0.40 0.37 0.35 0.34 0.31 0.30 0.34 0.30 0.33 0.39 0.46 0.52 0.43 0.19 0.10 0.08 0.07 0.09 0.13 0.18 0.18 0.20 0.17 0.21 0.28 0.36 0.38 0.35 0.41 0.68 1.25 2.17 3.36 3.80 3.22
0.64 0.63 0.61 0.60 0.53 0.48 0.44 0.40 0.39 0.36 0.36 0.35 0.35 0.35 0.38 0.35 0.37 0.39 0.44 0.58 0.77 0.58 0.21 0.08 0.07 0.10 0.15 0.17 0.18 0.17 0.14 0.15 0.20 0.27 0.35 0.37 0.37 0.46 0.69 1.21 2.14 3.45 4.12
0.61 0.64 0.64 0.60 0.58 0.51 0.49 0.47 0.43 0.40 0.40 0.39 0.41 0.43 0.43 0.41 0.40 0.41 0.46 0.49 0.62 0.73 0.48 0.13 0.08 0.11 0.21 0.22 0.20 0.18 0.16 0.18 0.18 0.20 0.24 0.30 0.37 0.44 0.56 0.79 1.29 2.12 3.34
0.61 0.62 0.63 0.62 0.60 0.60 0.57 0.54 0.48 0.45 0.45 0.43 0.43 0.47 0.47 0.46 0.48 0.44 0.47 0.50 0.49 0.55 0.53 0.20 0.10 0.10 0.20 0.25 0.23 0.17 0.16 0.17 0.16 0.18 0.22 0.29 0.37 0.46 0.59 0.74 0.98 1.43 2.16
0.62 0.64 0.63 0.65 0.63 0.64 0.63 0.62 0.57 0.49 0.48 0.46 0.44 0.46 0.47 0.45 0.46 0.42 0.44 0.46 0.44 0.41 0.45 0.31 0.13 0.11 0.16 0.23 0.30 0.30 0.24 0.22 0.20 0.21 0.25 0.33 0.43 0.50 0.58 0.71 0.90 1.17 1.57
0.59 0.60 0.61 0.64 0.70 0.71 0.68 0.61 0.61 0.57 0.51 0.47 0.46 0.48 0.47 0.46 0.45 0.40 0.43 0.42 0.37 0.34 0.37 0.38 0.22 0.14 0.16 0.19 0.31 0.41 0.35 0.30 0.27 0.25 0.27 0.31 0.38 0.47 0.52 0.61 0.78 0.99 1.20
0.61 0.58 0.56 0.60 0.69 0.84 0.83 0.72 0.72 0.66 0.57 0.50 0.43 0.40 0.44 0.52 0.50 0.47 0.49 0.43 0.39 0.43 0.47 0.52 0.39 0.25 0.24 0.26 0.37 0.49 0.52 0.46 0.38 0.31 0.30 0.31 0.36 0.48 0.51 0.49 0.51 0.61 0.82
0.62 0.56 0.54 0.55 0.60 0.93 1.27 1.21 1.11 0.90 0.64 0.49 0.38 0.35 0.41 0.52 0.55 0.69 0.79 0.69 0.68 0.77 0.75 0.77 0.69 0.55 0.47 0.48 0.52 0.52 0.66 0.65 0.54 0.44 0.38 0.32 0.33 0.33 0.35 0.37 0.39 0.46 0.59
0.68 0.61 0.57 0.54 0.53 0.79 1.33 1.41 1.14 0.80 0.62 0.52 0.44 0.36 0.36 0.47 0.48 0.56 0.70 0.79 0.88 1.02 1.07 1.07 1.02 0.89 0.65 0.57 0.56 0.66 0.75 0.89 0.85 0.61 0.56 0.45 0.42 0.44 0.37 0.35 0.39 0.44 0.54
0.68 0.68 0.58 0.50 0.46 0.61 1.15 1.27 0.98 0.71 0.58 0.51 0.44 0.39 0.38 0.44 0.50 0.53 0.59 0.61 0.65 0.80 1.01 1.12 1.16 0.87 0.68 0.61 0.74 0.90 0.90 0.99 0.94 0.84 0.93 0.80 0.54 0.51 0.45 0.49 0.57 0.53 0.55
0.57 0.59 0.58 0.52 0.47 0.50 0.97 1.12 0.89 0.69 0.58 0.49 0.41 0.40 0.38 0.41 0.52 0.71 0.70 0.64 0.56 0.60 0.81 1.00 1.20 1.04 0.85 0.86 1.11 1.38 1.45 1.35 1.01 0.87 1.02 1.10 0.72 0.59 0.60 0.63 0.66 0.58 0.54
0.49 0.49 0.53 0.54 0.50 0.47 0.75 1.00 0.88 0.70 0.63 0.55 0.44 0.40 0.40 0.41 0.55 0.79 0.80 0.66 0.50 0.46 0.56 0.84 1.11 1.23 1.22 1.27 1.45 1.77 1.90 1.74 1.34 0.91 0.94 1.15 1.01 0.85 0.87 0.91 0.83 0.70 0.57
0.49 0.47 0.50 0.52 0.48 0.45 0.61 0.85 0.89 0.71 0.63 0.57 0.52 0.45 0.49 0.57 0.68 0.81 0.76 0.71 0.77 0.61 0.52 0.55 0.62 0.74 0.84 0.93 1.18 1.47 1.71 1.76 1.48 1.31 1.07 1.14 1.26 1.24 1.35 1.19 1.03 0.79 0.59

GEFSMA_prec_meanprecacc_174.txt.gz
Total_Precipitation_Accumulation
0.32 0.29 0.29 0.29 0.28 0.24 0.22 0.21 0.20 0.19 0.22 0.26 0.28 0.24 0.23 0.21 0.19 0.19 0.15 0.15 0.13 0.13 0.18 0.26 0.36 0.52 0.68 0.85 1.07 1.16 0.96 0.82 0.68 0.57 0.57 0.67 0.74 0.79 0.81 0.85 0.91 0.87 0.74
0.35 0.30 0.28 0.27 0.28 0.26 0.24 0.21 0.19 0.16 0.14 0.13 0.13 0.14 0.19 0.21 0.22 0.22 0.19 0.17 0.16 0.13 0.16 0.21 0.29 0.41 0.58 0.79 1.02 1.32 1.24 1.10 0.94 0.75 0.59 0.59 0.66 0.71 0.76 0.82 0.87 0.95 0.91
0.41 0.37 0.32 0.27 0.26 0.25 0.26 0.25 0.24 0.21 0.17 0.13 0.11 0.10 0.10 0.12 0.15 0.19 0.19 0.19 0.20 0.17 0.16 0.20 0.25 0.30 0.42 0.65 0.92 1.22 1.50 1.40 1.23 1.06 0.83 0.61 0.60 0.66 0.72 0.81 0.89 0.96 1.02
0.45 0.42 0.40 0.36 0.31 0.28 0.27 0.28 0.26 0.25 0.20 0.16 0.12 0.11 0.10 0.10 0.10 0.11 0.13 0.17 0.21 0.22 0.20 0.21 0.24 0.28 0.32 0.43 0.67 0.98 1.45 1.57 1.56 1.42 1.26 0.94 0.70 0.66 0.72 0.79 0.91 1.00 1.07
0.49 0.46 0.41 0.39 0.41 0.37 0.31 0.29 0.26 0.24 0.22 0.18 0.15 0.13 0.11 0.10 0.10 0.10 0.09 0.09 0.11 0.16 0.21 0.22 0.22 0.24 0.25 0.29 0.43 0.68 1.07 1.48 1.65 1.64 1.56 1.38 1.04 0.78 0.75 0.81 0.90 1.03 1.14
0.53 0.52 0.46 0.40 0.40 0.41 0.36 0.31 0.28 0.25 0.23 0.22 0.20 0.17 0.16 0.13 0.11 0.10 0.09 0.08 0.08 0.11 0.15 0.18 0.20 0.20 0.22 0.23 0.28 0.44 0.73 1.15 1.59 1.69 1.65 1.64 1.48 1.09 0.87 0.87 0.93 1.06 1.19
0.57 0.54 0.52 0.49 0.43 0.39 0.35 0.31 0.29 0.28 0.27 0.25 0.26 0.25 0.21 0.17 0.15 0.12 0.10 0.08 0.07 0.08 0.12 0.16 0.17 0.18 0.19 0.21 0.21 0.25 0.44 0.79 1.28 1.81 1.84 1.76 1.82 1.62 1.23 1.07 1.06 1.14 1.29
0.71 0.58 0.52 0.50 0.46 0.41 0.37 0.32 0.30 0.31 0.31 0.28 0.27 0.29 0.28 0.25 0.19 0.13 0.11 0.09 0.07 0.07 0.08 0.11 0.16 0.17 0.16 0.18 0.15 0.17 0.23 0.40 0.78 1.43 2.07 2.12 2.10 2.16 1.83 1.45 1.32 1.33 1.47
0.76 0.67 0.56 0.49 0.46 0.44 0.42 0.37 0.34 0.32 0.33 0.30 0.26 0.35 0.44 0.33 0.19 0.13 0.11 0.09 0.07 0.07 0.06 0.07 0.11 0.16 0.18 0.19 0.18 0.16 0.18 0.24 0.42 0.85 1.63 2.36 2.48 2.58 2.53 1.99 1.68 1.60 1.64
0.79 0.72 0.66 0.59 0.49 0.43 0.41 0.40 0.38 0.35 0.36 0.37 0.31 0.30 0.33 0.33 0.36 0.23 0.12 0.12 0.12 0.10 0.08 0.07 0.08 0.12 0.18 0.22 0.25 0.24 0.24 0.26 0.34 0.56 1.08 1.92 2.66 2.92 3.08 2.76 2.19 1.94 1.87
0.82 0.82 0.73 0.69 0.64 0.52 0.42 0.40 0.39 0.38 0.38 0.39 0.37 0.33 0.30 0.26 0.26 0.35 0.22 0.15 0.18 0.18 0.15 0.12 0.12 0.14 0.16 0.25 0.27 0.27 0.34 0.38 0.49 0.56 0.78 1.26 2.20 2.97 3.39 3.43 2.88 2.27 2.02
0.84 0.84 0.79 0.72 0.68 0.63 0.53 0.46 0.43 0.40 0.37 0.35 0.36 0.36 0.37 0.38 0.30 0.32 0.31 0.18 0.15 0.14 0.16 0.19 0.18 0.19 0.21 0.25 0.30 0.40 0.40 0.47 0.63 0.61 0.56 0.73 1.33 2.22 3.03 3.50 3.35 2.71 2.22
0.86 0.84 0.84 0.77 0.68 0.61 0.55 0.51 0.50 0.47 0.42 0.41 0.40 0.38 0.38 0.36 0.34 0.37 0.42 0.32 0.23 0.16 0.14 0.17 0.18 0.19 0.23 0.25 0.29 0.34 0.32 0.38 0.46 0.51 0.43 0.43 0.70 1.28 2.14 3.07 3.50 3.16 2.57
0.80 0.74 0.77 0.76 0.69 0.62 0.55 0.51 0.49 0.45 0.44 0.45 0.44 0.43 0.43 0.38 0.40 0.47 0.55 0.60 0.51 0.28 0.19 0.17 0.14 0.16 0.20 0.24 0.23 0.27 0.22 0.25 0.31 0.38 0.40 0.36 0.42 0.68 1.26 2.19 3.38 3.81 3.24
0.71 0.71 0.70 0.71 0.65 0.61 0.57 0.51 0.48 0.44 0.44 0.44 0.45 0.47 0.50 0.45 0.45 0.48 0.54 0.68 0.87 0.68 0.31 0.17 0.16 0.18 0.22 0.23 0.25 0.23 0.20 0.21 0.26 0.32 0.38 0.40 0.39 0.47 0.70 1.23 2.15 3.46 4.13
0.67 0.69 0.70 0.68 0.68 0.62 0.59 0.55 0.50 0.46 0.46 0.44 0.47 0.52 0.53 0.50 0.49 0.50 0.55 0.58 0.70 0.82 0.57 0.21 0.16 0.19 0.29 0.30 0.28 0.24 0.22 0.25 0.25 0.27 0.29 0.33 0.39 0.45 0.57 0.80 1.29 2.13 3.36
0.66 0.66 0.68 0.68 0.67 0.68 0.65 0.63 0.56 0.51 0.51 0.49 0.50 0.54 0.55 0.56 0.58 0.53 0.55 0.57 0.57 0.63 0.62 0.28 0.18 0.18 0.30 0.36 0.33 0.26 0.24 0.27 0.24 0.25 0.29 0.34 0.40 0.48 0.60 0.75 0.99 1.43 2.17
0.67 0.68 0.67 0.70 0.68 0.69 0.68 0.68 0.63 0.56 0.55 0.53 0.52 0.55 0.55 0.54 0.56 0.51 0.52 0.53 0.51 0.49 0.53 0.40 0.22 0.21 0.26 0.32 0.39 0.39 0.33 0.31 0.29 0.28 0.31 0.39 0.48 0.53 0.59 0.72 0.91 1.18 1.58
0.65 0.65 0.66 0.70 0.75 0.76 0.71 0.65 0.65 0.63 0.58 0.55 0.55 0.58 0.57 0.56 0.57 0.51 0.52 0.50 0.43 0.41 0.44 0.47 0.32 0.25 0.28 0.31 0.43 0.52 0.45 0.39 0.35 0.32 0.33 0.37 0.43 0.51 0.55 0.63 0.79 1.00 1.21
0.71 0.66 0.62 0.65 0.75 0.90 0.89 0.78 0.78 0.72 0.64 0.57 0.51 0.50 0.54 0.62 0.60 0.58 0.60 0.53 0.48 0.51 0.55 0.60 0.48 0.36 0.36 0.38 0.49 0.61 0.63 0.56 0.46 0.38 0.36 0.36 0.42 0.54 0.55 0.51 0.53 0.63 0.83
0.70 0.63 0.60 0.60 0.67 1.02 1.35 1.29 1.19 0.97 0.71 0.56 0.47 0.45 0.50 0.62 0.65 0.79 0.89 0.79 0.77 0.86 0.84 0.86 0.77 0.64 0.57 0.60 0.63 0.61 0.76 0.74 0.63 0.52 0.44 0.37 0.38 0.39 0.40 0.40 0.41 0.48 0.60
0.76 0.66 0.61 0.58 0.59 0.87 1.41 1.48 1.21 0.87 0.69 0.58 0.51 0.44 0.44 0.54 0.56 0.64 0.79 0.88 0.97 1.11 1.16 1.15 1.09 0.96 0.72 0.64 0.64 0.74 0.84 0.98 0.94 0.68 0.62 0.50 0.46 0.49 0.43 0.39 0.43 0.47 0.56
0.74 0.74 0.63 0.55 0.53 0.66 1.21 1.32 1.03 0.76 0.63 0.56 0.50 0.46 0.45 0.51 0.58 0.61 0.67 0.71 0.75 0.89 1.11 1.20 1.24 0.93 0.73 0.66 0.81 0.99 0.99 1.06 0.99 0.90 0.99 0.87 0.60 0.56 0.50 0.54 0.62 0.57 0.58
0.63 0.66 0.64 0.58 0.52 0.55 1.02 1.18 0.95 0.73 0.63 0.55 0.47 0.46 0.45 0.48 0.60 0.80 0.81 0.75 0.66 0.69 0.89 1.08 1.27 1.09 0.91 0.92 1.18 1.46 1.55 1.45 1.10 0.93 1.09 1.18 0.79 0.65 0.65 0.67 0.69 0.61 0.58
0.55 0.54 0.58 0.58 0.54 0.52 0.79 1.04 0.93 0.74 0.67 0.60 0.49 0.46 0.47 0.49 0.64 0.89 0.91 0.79 0.61 0.54 0.62 0.90 1.17 1.30 1.29 1.36 1.55 1.88 2.03 1.85 1.43 0.99 1.01 1.21 1.08 0.90 0.92 0.95 0.87 0.74 0.61
0.54 0.51 0.54 0.56 0.52 0.48 0.65 0.88 0.93 0.76 0.68 0.63 0.58 0.50 0.55 0.65 0.77 0.90 0.85 0.82 0.88 0.69 0.59 0.62 0.70 0.82 0.93 1.03 1.29 1.58 1.82 1.87 1.58 1.39 1.14 1.20 1.32 1.29 1.40 1.23 1.06 0.82 0.62

GEFSMA_prec_meanprecacc_180.txt.gz
Total_Precipitation_Accumulation
0.43 0.40 0.37 0.36 0.33 0.28 0.25 0.24 0.23 0.22 0.24 0.28 0.29 0.25 0.24 0.22 0.21 0.21 0.17 0.17 0.16 0.16 0.24 0.33 0.42 0.58 0.73 0.88 1.10 1.18 0.98 0.84 0.70 0.59 0.58 0.67 0.75 0.79 0.81 0.85 0.91 0.87 0.74
0.44 0.40 0.37 0.34 0.34 0.31 0.27 0.24 0.22 0.20 0.16 0.15 0.14 0.15 0.20 0.22 0.24 0.25 0.21 0.20 0.19 0.16 0.20 0.28 0.36 0.48 0.66 0.86 1.07 1.36 1.27 1.12 0.95 0.76 0.59 0.59 0.66 0.72 0.76 0.82 0.88 0.96 0.92
0.50 0.47 0.43 0.36 0.33 0.31 0.30 0.29 0.28 0.25 0.20 0.16 0.13 0.11 0.11 0.13 0.17 0.21 0.21 0.21 0.23 0.20 0.19 0.24 0.32 0.38 0.51 0.75 1.01 1.29 1.55 1.43 1.25 1.08 0.84 0.62 0.60 0.67 0.73 0.82 0.89 0.97 1.02
0.53 0.53 0.52 0.48 0.42 0.36 0.33 0.33 0.31 0.29 0.25 0.21 0.17 0.14 0.13 0.12 0.12 0.13 0.15 0.18 0.22 0.24 0.23 0.26 0.31 0.37 0.42 0.55 0.79 1.09 1.53 1.62 1.59 1.43 1.27 0.95 0.71 0.66 0.72 0.80 0.92 1.00 1.07
0.57 0.55 0.53 0.53 0.56 0.52 0.42 0.36 0.32 0.27 0.25 0.22 0.20 0.18 0.16 0.14 0.14 0.13 0.12 0.11 0.13 0.18 0.23 0.25 0.28 0.33 0.36 0.43 0.58 0.82 1.19 1.57 1.71 1.68 1.59 1.39 1.05 0.78 0.76 0.81 0.91 1.04 1.15
0.61 0.62 0.58 0.53 0.54 0.58 0.54 0.44 0.36 0.30 0.27 0.25 0.22 0.21 0.19 0.17 0.15 0.13 0.11 0.10 0.09 0.12 0.17 0.20 0.23 0.25 0.29 0.33 0.42 0.61 0.91 1.30 1.70 1.77 1.70 1.67 1.50 1.11 0.89 0.88 0.94 1.07 1.20
0.64 0.63 0.65 0.63 0.57 0.54 0.51 0.46 0.41 0.36 0.31 0.28 0.29 0.29 0.25 0.21 0.19 0.16 0.13 0.11 0.09 0.09 0.13 0.18 0.20 0.21 0.24 0.29 0.31 0.37 0.59 0.95 1.44 1.94 1.93 1.83 1.87 1.65 1.25 1.09 1.08 1.15 1.31
0.77 0.68 0.65 0.65 0.63 0.57 0.53 0.47 0.44 0.43 0.39 0.32 0.31 0.34 0.33 0.29 0.23 0.17 0.14 0.12 0.10 0.09 0.10 0.13 0.18 0.19 0.19 0.22 0.20 0.25 0.35 0.55 0.96 1.61 2.23 2.24 2.18 2.22 1.87 1.48 1.34 1.35 1.48
0.82 0.75 0.68 0.63 0.63 0.61 0.57 0.52 0.48 0.44 0.43 0.37 0.30 0.40 0.49 0.38 0.24 0.17 0.14 0.12 0.10 0.09 0.08 0.09 0.13 0.18 0.20 0.22 0.21 0.21 0.26 0.38 0.56 1.03 1.81 2.53 2.62 2.67 2.59 2.04 1.71 1.62 1.66
0.89 0.81 0.77 0.71 0.63 0.58 0.54 0.52 0.51 0.48 0.48 0.46 0.37 0.33 0.36 0.37 0.41 0.29 0.18 0.18 0.17 0.14 0.11 0.09 0.10 0.14 0.21 0.27 0.29 0.29 0.31 0.37 0.48 0.72 1.26 2.11 2.86 3.10 3.19 2.82 2.23 1.97 1.89
0.93 0.93 0.87 0.82 0.77 0.67 0.57 0.52 0.51 0.53 0.52 0.49 0.44 0.38 0.33 0.28 0.30 0.40 0.29 0.22 0.26 0.25 0.20 0.16 0.16 0.17 0.20 0.29 0.32 0.32 0.39 0.45 0.61 0.71 0.95 1.45 2.41 3.18 3.58 3.54 2.94 2.31 2.06
0.95 0.95 0.92 0.87 0.82 0.79 0.71 0.60 0.53 0.52 0.52 0.48 0.45 0.44 0.44 0.43 0.35 0.37 0.36 0.24 0.22 0.21 0.23 0.25 0.23 0.23 0.25 0.30 0.36 0.47 0.47 0.54 0.72 0.74 0.72 0.90 1.52 2.41 3.21 3.66 3.46 2.77 2.26
0.96 0.94 0.94 0.89 0.83 0.78 0.75 0.70 0.64 0.60 0.56 0.55 0.52 0.47 0.45 0.43 0.40 0.44 0.49 0.39 0.30 0.22 0.21 0.24 0.24 0.25 0.29 0.31 0.35 0.42 0.41 0.47 0.56 0.62 0.57 0.59 0.87 1.46 2.33 3.24 3.63 3.24 2.63
0.88 0.83 0.85 0.83 0.78 0.73 0.72 0.72 0.70 0.64 0.63 0.62 0.57 0.54 0.54 0.47 0.48 0.54 0.62 0.68 0.60 0.35 0.25 0.24 0.21 0.22 0.26 0.31 0.30 0.35 0.31 0.37 0.43 0.50 0.53 0.50 0.57 0.81 1.41 2.37 3.54 3.92 3.31
0.78 0.79 0.78 0.79 0.73 0.68 0.67 0.65 0.65 0.62 0.62 0.60 0.60 0.61 0.61 0.55 0.54 0.56 0.61 0.77 0.96 0.77 0.39 0.24 0.23 0.25 0.28 0.30 0.34 0.31 0.28 0.31 0.37 0.44 0.51 0.53 0.52 0.58 0.81 1.35 2.31 3.59 4.21
0.73 0.75 0.76 0.75 0.74 0.68 0.66 0.64 0.61 0.59 0.59 0.57 0.58 0.63 0.63 0.60 0.57 0.56 0.61 0.66 0.79 0.91 0.65 0.27 0.23 0.27 0.38 0.37 0.37 0.33 0.30 0.35 0.38 0.40 0.43 0.46 0.51 0.57 0.67 0.90 1.40 2.25 3.44
0.72 0.71 0.72 0.73 0.72 0.72 0.71 0.70 0.63 0.59 0.60 0.57 0.57 0.61 0.62 0.63 0.65 0.59 0.61 0.65 0.66 0.72 0.70 0.34 0.23 0.26 0.39 0.46 0.43 0.37 0.36 0.38 0.36 0.40 0.42 0.47 0.52 0.60 0.71 0.85 1.08 1.53 2.25
0.75 0.75 0.73 0.76 0.73 0.74 0.74 0.74 0.69 0.61 0.60 0.58 0.57 0.59 0.60 0.59 0.62 0.59 0.59 0.60 0.59 0.56 0.60 0.46 0.28 0.26 0.33 0.41 0.50 0.51 0.48 0.46 0.43 0.42 0.44 0.52 0.62 0.66 0.72 0.83 1.01 1.28 1.66
0.76 0.73 0.73 0.77 0.82 0.83 0.77 0.70 0.71 0.67 0.62 0.59 0.59 0.63 0.62 0.63 0.63 0.59 0.60 0.57 0.50 0.47 0.51 0.53 0.38 0.31 0.34 0.38 0.52 0.63 0.59 0.55 0.50 0.48 0.47 0.51 0.58 0.66 0.69 0.74 0.88 1.09 1.29
0.80 0.72 0.68 0.72 0.82 0.98 0.95 0.83 0.84 0.78 0.68 0.62 0.57 0.56 0.61 0.70 0.69 0.67 0.70 0.61 0.55 0.59 0.62 0.68 0.55 0.43 0.43 0.45 0.58 0.72 0.75 0.69 0.61 0.52 0.51 0.51 0.58 0.69 0.69 0.64 0.62 0.71 0.91
0.77 0.70 0.66 0.67 0.74 1.07 1.40 1.33 1.25 1.03 0.76 0.61 0.53 0.52 0.58 0.70 0.75 0.89 1.00 0.89 0.86 0.95 0.93 0.95 0.85 0.71 0.65 0.67 0.72 0.70 0.86 0.85 0.76 0.66 0.59 0.52 0.53 0.55 0.55 0.54 0.53 0.58 0.68
0.81 0.72 0.67 0.64 0.65 0.92 1.46 1.52 1.25 0.91 0.74 0.63 0.56 0.51 0.52 0.63 0.66 0.76 0.91 0.99 1.06 1.19 1.24 1.23 1.15 1.02 0.79 0.70 0.71 0.83 0.94 1.09 1.08 0.83 0.77 0.67 0.61 0.64 0.56 0.50 0.54 0.57 0.64
0.82 0.81 0.69 0.61 0.57 0.70 1.25 1.36 1.07 0.80 0.68 0.61 0.55 0.53 0.53 0.60 0.67 0.70 0.77 0.80 0.83 0.97 1.17 1.27 1.30 0.97 0.78 0.71 0.88 1.08 1.08 1.17 1.11 1.03 1.14 1.03 0.75 0.70 0.61 0.64 0.72 0.65 0.66
0.69 0.73 0.71 0.64 0.57 0.58 1.06 1.21 0.98 0.77 0.67 0.58 0.51 0.52 0.52 0.55 0.67 0.87 0.88 0.82 0.72 0.75 0.94 1.13 1.32 1.14 0.95 0.97 1.24 1.54 1.65 1.57 1.23 1.06 1.20 1.32 0.93 0.77 0.76 0.77 0.79 0.68 0.64
0.59 0.59 0.64 0.63 0.58 0.55 0.83 1.08 0.96 0.77 0.70 0.62 0.52 0.50 0.51 0.53 0.69 0.94 0.96 0.84 0.67 0.60 0.69 0.96 1.23 1.36 1.36 1.43 1.63 1.98 2.15 1.99 1.58 1.13 1.12 1.32 1.19 1.00 1.02 1.04 0.94 0.80 0.66
0.58 0.55 0.58 0.59 0.55 0.51 0.69 0.92 0.96 0.78 0.70 0.64 0.60 0.52 0.57 0.67 0.79 0.93 0.89 0.87 0.94 0.75 0.65 0.68 0.76 0.90 1.00 1.11 1.38 1.69 1.94 1.99 1.70 1.52 1.24 1.29 1.41 1.37 1.49 1.31 1.13 0.89 0.69

GEFSMA_prec_meanprecacc_186.txt.gz
Total_Precipitation_Accumulation
0.44 0.42 0.40 0.40 0.39 0.34 0.32 0.33 0.30 0.27 0.27 0.31 0.32 0.27 0.26 0.24 0.22 0.22 0.18 0.18 0.17 0.19 0.29 0.40 0.51 0.68 0.84 0.98 1.19 1.26 1.04 0.87 0.73 0.62 0.61 0.70 0.77 0.80 0.82 0.86 0.92 0.88 0.75
0.46 0.42 0.40 0.37 0.38 0.36 0.34 0.31 0.30 0.26 0.21 0.19 0.17 0.18 0.22 0.24 0.26 0.26 0.23 0.21 0.20 0.18 0.23 0.34 0.45 0.59 0.78 0.98 1.19 1.45 1.35 1.18 1.00 0.80 0.63 0.62 0.69 0.74 0.78 0.83 0.89 0.97 0.93
0.52 0.48 0.45 0.39 0.36 0.36 0.36 0.36 0.34 0.31 0.26 0.20 0.17 0.14 0.14 0.15 0.19 0.23 0.23 0.22 0.24 0.21 0.21 0.28 0.38 0.47 0.62 0.88 1.14 1.40 1.65 1.51 1.32 1.13 0.88 0.66 0.64 0.70 0.76 0.84 0.91 0.98 1.03
0.55 0.54 0.54 0.51 0.46 0.42 0.40 0.39 0.38 0.35 0.31 0.26 0.21 0.17 0.16 0.15 0.15 0.16 0.17 0.20 0.24 0.25 0.25 0.28 0.34 0.43 0.52 0.67 0.92 1.22 1.64 1.72 1.67 1.50 1.33 1.00 0.75 0.70 0.76 0.83 0.94 1.02 1.09
0.59 0.57 0.54 0.55 0.60 0.57 0.49 0.44 0.40 0.35 0.32 0.27 0.24 0.22 0.20 0.17 0.16 0.16 0.15 0.13 0.15 0.19 0.24 0.27 0.30 0.36 0.43 0.52 0.70 0.96 1.31 1.68 1.81 1.77 1.67 1.47 1.11 0.84 0.81 0.86 0.95 1.07 1.17
0.64 0.64 0.60 0.56 0.58 0.62 0.61 0.52 0.45 0.40 0.36 0.32 0.29 0.26 0.24 0.21 0.19 0.16 0.14 0.12 0.12 0.14 0.19 0.22 0.25 0.27 0.32 0.38 0.51 0.73 1.04 1.45 1.83 1.90 1.82 1.78 1.61 1.21 0.98 0.97 1.02 1.13 1.24
0.67 0.65 0.67 0.66 0.61 0.58 0.56 0.54 0.50 0.47 0.44 0.40 0.39 0.37 0.32 0.26 0.24 0.20 0.15 0.13 0.11 0.11 0.15 0.20 0.22 0.23 0.26 0.32 0.36 0.46 0.71 1.11 1.62 2.12 2.10 1.97 2.00 1.78 1.38 1.21 1.19 1.25 1.39
0.81 0.70 0.67 0.68 0.68 0.62 0.58 0.54 0.53 0.56 0.54 0.46 0.43 0.44 0.43 0.38 0.29 0.21 0.17 0.14 0.12 0.11 0.12 0.15 0.20 0.21 0.21 0.24 0.24 0.31 0.44 0.69 1.14 1.82 2.46 2.48 2.39 2.40 2.02 1.62 1.48 1.49 1.61
0.86 0.79 0.72 0.66 0.69 0.67 0.64 0.58 0.55 0.54 0.57 0.51 0.42 0.50 0.59 0.46 0.29 0.21 0.17 0.15 0.12 0.11 0.10 0.11 0.15 0.20 0.22 0.25 0.24 0.25 0.33 0.47 0.72 1.23 2.06 2.81 2.93 2.94 2.81 2.22 1.88 1.79 1.81
0.92 0.86 0.83 0.76 0.69 0.66 0.62 0.59 0.58 0.56 0.60 0.61 0.50 0.43 0.44 0.44 0.46 0.33 0.21 0.20 0.19 0.17 0.13 0.12 0.13 0.17 0.24 0.30 0.32 0.33 0.36 0.44 0.60 0.88 1.46 2.35 3.14 3.42 3.54 3.16 2.50 2.21 2.11
0.97 0.97 0.94 0.89 0.83 0.74 0.64 0.59 0.59 0.61 0.62 0.63 0.57 0.48 0.41 0.34 0.35 0.45 0.33 0.26 0.30 0.28 0.24 0.20 0.20 0.21 0.24 0.33 0.36 0.37 0.45 0.51 0.70 0.84 1.11 1.64 2.63 3.44 3.91 3.91 3.28 2.60 2.30
1.00 1.00 1.00 0.94 0.88 0.86 0.78 0.67 0.62 0.63 0.62 0.60 0.59 0.55 0.53 0.51 0.41 0.43 0.42 0.28 0.26 0.25 0.27 0.31 0.30 0.30 0.32 0.37 0.42 0.53 0.52 0.59 0.78 0.83 0.85 1.05 1.71 2.63 3.46 3.93 3.76 3.07 2.53
1.01 1.00 1.01 0.96 0.89 0.84 0.83 0.78 0.73 0.69 0.67 0.67 0.65 0.61 0.57 0.53 0.48 0.51 0.55 0.44 0.34 0.26 0.25 0.29 0.31 0.33 0.38 0.40 0.43 0.49 0.46 0.53 0.62 0.69 0.68 0.74 1.02 1.65 2.54 3.45 3.86 3.52 2.91
0.92 0.88 0.90 0.89 0.84 0.79 0.78 0.80 0.79 0.74 0.74 0.76 0.72 0.70 0.68 0.58 0.57 0.62 0.69 0.74 0.65 0.39 0.29 0.28 0.26 0.29 0.35 0.40 0.41 0.46 0.39 0.43 0.49 0.56 0.59 0.61 0.72 0.98 1.61 2.57 3.74 4.14 3.55
0.81 0.83 0.82 0.83 0.78 0.74 0.72 0.72 0.73 0.72 0.75 0.76 0.77 0.79 0.78 0.68 0.66 0.67 0.70 0.84 1.04 0.85 0.45 0.29 0.28 0.31 0.36 0.39 0.45 0.42 0.38 0.41 0.46 0.51 0.57 0.61 0.65 0.74 0.98 1.51 2.47 3.78 4.43
0.77 0.79 0.81 0.79 0.79 0.75 0.73 0.72 0.69 0.66 0.71 0.72 0.73 0.79 0.81 0.76 0.70 0.67 0.71 0.74 0.88 1.01 0.74 0.34 0.29 0.34 0.46 0.46 0.46 0.43 0.41 0.47 0.48 0.49 0.51 0.55 0.61 0.70 0.83 1.04 1.51 2.38 3.61
0.76 0.75 0.76 0.77 0.77 0.79 0.79 0.81 0.74 0.67 0.69 0.70 0.70 0.73 0.75 0.75 0.77 0.69 0.69 0.71 0.73 0.80 0.78 0.40 0.28 0.32 0.48 0.55 0.52 0.45 0.44 0.47 0.45 0.49 0.51 0.58 0.63 0.69 0.82 0.97 1.20 1.63 2.36
0.80 0.79 0.78 0.80 0.79 0.80 0.82 0.85 0.81 0.71 0.69 0.69 0.67 0.68 0.69 0.68 0.71 0.65 0.64 0.65 0.64 0.62 0.67 0.52 0.32 0.30 0.38 0.48 0.58 0.60 0.56 0.54 0.51 0.51 0.54 0.62 0.73 0.76 0.81 0.93 1.12 1.39 1.77
0.83 0.79 0.79 0.82 0.87 0.88 0.84 0.80 0.82 0.76 0.71 0.67 0.66 0.68 0.68 0.69 0.70 0.64 0.64 0.61 0.54 0.51 0.55 0.58 0.42 0.35 0.40 0.45 0.60 0.71 0.66 0.63 0.60 0.58 0.59 0.63 0.70 0.77 0.81 0.86 1.01 1.22 1.42
0.87 0.78 0.74 0.78 0.89 1.04 1.03 0.92 0.95 0.87 0.75 0.68 0.62 0.60 0.65 0.75 0.74 0.72 0.74 0.64 0.58 0.62 0.66 0.72 0.60 0.49 0.51 0.54 0.66 0.80 0.83 0.78 0.72 0.63 0.63 0.65 0.73 0.81 0.82 0.76 0.74 0.84 1.04
0.85 0.75 0.70 0.72 0.81 1.15 1.48 1.43 1.35 1.10 0.82 0.67 0.59 0.58 0.63 0.76 0.80 0.93 1.03 0.92 0.90 0.99 0.97 0.99 0.90 0.78 0.74 0.77 0.81 0.79 0.94 0.95 0.88 0.75 0.69 0.65 0.68 0.68 0.68 0.67 0.66 0.70 0.80
0.88 0.77 0.71 0.68 0.71 0.99 1.54 1.61 1.34 0.98 0.79 0.68 0.61 0.56 0.57 0.69 0.71 0.79 0.94 1.02 1.09 1.22 1.28 1.27 1.22 1.10 0.88 0.80 0.80 0.91 1.02 1.18 1.19 0.92 0.85 0.78 0.74 0.77 0.68 0.62 0.68 0.70 0.76
0.87 0.87 0.74 0.65 0.62 0.77 1.31 1.42 1.14 0.85 0.72 0.66 0.59 0.57 0.57 0.64 0.70 0.72 0.80 0.83 0.86 1.00 1.22 1.32 1.37 1.06 0.87 0.79 0.95 1.15 1.15 1.24 1.19 1.11 1.22 1.14 0.86 0.81 0.73 0.76 0.85 0.77 0.77
0.75 0.80 0.76 0.68 0.61 0.64 1.11 1.27 1.03 0.80 0.70 0.62 0.54 0.55 0.54 0.57 0.69 0.89 0.90 0.85 0.76 0.79 0.99 1.19 1.40 1.22 1.03 1.04 1.31 1.61 1.72 1.64 1.30 1.14 1.28 1.41 1.03 0.88 0.87 0.89 0.91 0.79 0.73
0.64 0.65 0.69 0.68 0.63 0.60 0.88 1.13 1.00 0.79 0.73 0.65 0.54 0.51 0.52 0.54 0.70 0.96 0.99 0.88 0.71 0.64 0.74 1.03 1.31 1.44 1.43 1.50 1.70 2.06 2.22 2.07 1.66 1.20 1.18 1.39 1.28 1.11 1.14 1.17 1.08 0.93 0.76
0.63 0.60 0.62 0.63 0.59 0.54 0.72 0.96 1.00 0.80 0.72 0.66 0.61 0.54 0.59 0.69 0.82 0.96 0.93 0.91 0.97 0.78 0.69 0.74 0.82 0.95 1.05 1.15 1.44 1.74 2.00 2.06 1.77 1.58 1.29 1.35 1.49 1.47 1.61 1.43 1.24 0.99 0.77

GEFSMA_prec_meanprecacc_192.txt.gz
Total_Precipitation_Accumulation
0.46 0.43 0.40 0.40 0.39 0.35 0.34 0.36 0.35 0.32 0.34 0.39 0.39 0.34 0.31 0.27 0.24 0.24 0.20 0.21 0.18 0.19 0.31 0.44 0.57 0.74 0.90 1.06 1.26 1.33 1.10 0.92 0.78 0.67 0.65 0.73 0.80 0.83 0.85 0.89 0.95 0.91 0.78
0.47 0.43 0.40 0.37 0.39 0.38 0.35 0.33 0.32 0.30 0.26 0.24 0.22 0.22 0.26 0.27 0.28 0.28 0.25 0.24 0.22 0.19 0.25 0.37 0.50 0.65 0.86 1.08 1.29 1.54 1.43 1.26 1.07 0.86 0.69 0.67 0.73 0.78 0.82 0.88 0.93 1.01 0.97
0.56 0.51 0.47 0.40 0.37 0.37 0.37 0.38 0.37 0.34 0.30 0.25 0.21 0.19 0.18 0.19 0.22 0.25 0.25 0.25 0.27 0.23 0.22 0.31 0.42 0.53 0.70 0.97 1.25 1.51 1.74 1.60 1.41 1.22 0.96 0.73 0.70 0.75 0.81 0.89 0.96 1.03 1.08
0.59 0.59 0.58 0.54 0.48 0.44 0.41 0.41 0.40 0.38 0.34 0.29 0.25 0.21 0.20 0.20 0.18 0.19 0.21 0.23 0.27 0.28 0.26 0.30 0.38 0.47 0.58 0.75 1.03 1.33 1.74 1.81 1.77 1.61 1.43 1.10 0.84 0.78 0.83 0.90 1.00 1.07 1.14
0.61 0.60 0.59 0.60 0.63 0.60 0.51 0.46 0.42 0.37 0.35 0.31 0.28 0.26 0.24 0.22 0.21 0.21 0.19 0.17 0.18 0.22 0.27 0.29 0.32 0.40 0.47 0.58 0.79 1.06 1.41 1.77 1.91 1.90 1.81 1.60 1.23 0.95 0.91 0.95 1.02 1.14 1.23
0.66 0.66 0.63 0.61 0.63 0.66 0.63 0.54 0.47 0.42 0.38 0.35 0.32 0.31 0.30 0.28 0.24 0.21 0.19 0.17 0.15 0.17 0.21 0.24 0.27 0.31 0.36 0.43 0.58 0.81 1.13 1.54 1.93 2.01 1.97 1.97 1.81 1.38 1.12 1.08 1.11 1.21 1.32
0.71 0.70 0.71 0.71 0.67 0.63 0.59 0.56 0.53 0.50 0.47 0.44 0.44 0.42 0.37 0.34 0.33 0.27 0.21 0.18 0.17 0.16 0.18 0.22 0.25 0.26 0.29 0.35 0.40 0.51 0.79 1.20 1.72 2.24 2.23 2.14 2.20 2.00 1.58 1.36 1.31 1.37 1.51
0.86 0.76 0.73 0.74 0.72 0.65 0.61 0.56 0.55 0.58 0.57 0.49 0.47 0.50 0.50 0.46 0.39 0.31 0.26 0.20 0.17 0.15 0.15 0.18 0.23 0.24 0.24 0.26 0.25 0.34 0.49 0.77 1.22 1.92 2.59 2.63 2.57 2.62 2.28 1.86 1.68 1.67 1.77
0.90 0.83 0.75 0.69 0.72 0.70 0.66 0.60 0.57 0.57 0.60 0.55 0.46 0.55 0.65 0.54 0.38 0.31 0.27 0.23 0.19 0.16 0.14 0.14 0.18 0.23 0.25 0.26 0.26 0.27 0.35 0.53 0.80 1.33 2.17 2.94 3.09 3.16 3.07 2.48 2.15 2.05 2.03
0.93 0.88 0.85 0.78 0.71 0.68 0.65 0.61 0.60 0.59 0.63 0.64 0.54 0.47 0.49 0.50 0.54 0.43 0.31 0.29 0.28 0.23 0.18 0.15 0.16 0.20 0.27 0.32 0.34 0.34 0.37 0.47 0.65 0.97 1.57 2.47 3.28 3.60 3.78 3.41 2.77 2.47 2.34
0.98 0.99 0.96 0.91 0.85 0.76 0.67 0.62 0.62 0.64 0.65 0.66 0.60 0.52 0.45 0.39 0.41 0.53 0.43 0.35 0.38 0.36 0.31 0.25 0.23 0.24 0.27 0.35 0.37 0.39 0.47 0.54 0.74 0.91 1.23 1.80 2.79 3.62 4.15 4.20 3.60 2.96 2.63
1.01 1.01 1.01 0.96 0.90 0.89 0.81 0.70 0.66 0.67 0.66 0.64 0.64 0.59 0.58 0.56 0.47 0.49 0.48 0.36 0.35 0.34 0.34 0.36 0.34 0.34 0.35 0.39 0.45 0.57 0.56 0.62 0.81 0.88 0.93 1.19 1.88 2.82 3.67 4.18 4.01 3.32 2.81
1.03 1.02 1.03 1.00 0.93 0.88 0.86 0.81 0.77 0.74 0.72 0.73 0.73 0.69 0.64 0.59 0.55 0.59 0.64 0.52 0.42 0.34 0.33 0.35 0.36 0.37 0.42 0.45 0.49 0.57 0.53 0.59 0.67 0.73 0.73 0.81 1.13 1.79 2.72 3.66 4.08 3.71 3.11
0.94 0.90 0.93 0.92 0.88 0.84 0.83 0.85 0.83 0.79 0.80 0.82 0.80 0.79 0.77 0.67 0.65 0.71 0.79 0.86 0.76 0.49 0.37 0.34 0.32 0.34 0.41 0.47 0.48 0.53 0.46 0.52 0.58 0.65 0.66 0.68 0.80 1.08 1.76 2.75 3.95 4.35 3.75
0.84 0.86 0.85 0.86 0.81 0.78 0.76 0.76 0.77 0.76 0.80 0.82 0.83 0.86 0.87 0.78 0.76 0.75 0.80 0.96 1.17 0.97 0.55 0.36 0.33 0.36 0.40 0.44 0.50 0.48 0.44 0.49 0.54 0.61 0.68 0.71 0.73 0.83 1.11 1.69 2.64 3.96 4.58
0.79 0.81 0.83 0.82 0.82 0.78 0.76 0.76 0.72 0.69 0.75 0.78 0.80 0.86 0.88 0.83 0.78 0.76 0.82 0.85 0.98 1.12 0.84 0.41 0.34 0.38 0.50 0.50 0.51 0.47 0.46 0.55 0.56 0.58 0.61 0.66 0.72 0.79 0.95 1.20 1.67 2.51 3.70
0.77 0.77 0.78 0.80 0.80 0.82 0.81 0.84 0.79 0.70 0.73 0.76 0.79 0.82 0.81 0.81 0.83 0.79 0.81 0.83 0.83 0.89 0.86 0.46 0.32 0.35 0.51 0.59 0.56 0.50 0.51 0.55 0.55 0.61 0.64 0.70 0.77 0.82 0.94 1.10 1.35 1.77 2.46
0.81 0.81 0.80 0.82 0.81 0.82 0.84 0.87 0.84 0.75 0.73 0.75 0.77 0.77 0.76 0.76 0.78 0.73 0.74 0.74 0.72 0.68 0.71 0.56 0.35 0.32 0.40 0.50 0.61 0.64 0.62 0.61 0.60 0.63 0.67 0.75 0.85 0.88 0.93 1.03 1.23 1.53 1.90
0.86 0.82 0.82 0.84 0.89 0.90 0.85 0.82 0.84 0.80 0.75 0.74 0.75 0.77 0.76 0.77 0.78 0.71 0.70 0.68 0.61 0.56 0.59 0.61 0.44 0.36 0.41 0.47 0.63 0.76 0.72 0.69 0.67 0.67 0.69 0.74 0.80 0.86 0.90 0.97 1.10 1.32 1.52
0.89 0.81 0.79 0.83 0.93 1.08 1.06 0.94 0.98 0.91 0.80 0.75 0.69 0.67 0.71 0.82 0.81 0.78 0.80 0.70 0.64 0.66 0.69 0.74 0.62 0.51 0.53 0.56 0.70 0.86 0.91 0.85 0.79 0.70 0.72 0.76 0.84 0.91 0.91 0.87 0.85 0.92 1.11
0.87 0.78 0.74 0.77 0.87 1.21 1.54 1.48 1.39 1.15 0.88 0.72 0.65 0.64 0.70 0.82 0.86 0.98 1.07 0.96 0.93 1.02 0.99 1.01 0.92 0.82 0.78 0.82 0.87 0.87 1.01 1.03 0.95 0.82 0.75 0.74 0.78 0.78 0.79 0.79 0.78 0.79 0.87
0.91 0.81 0.74 0.72 0.75 1.03 1.59 1.68 1.40 1.03 0.85 0.74 0.67 0.63 0.64 0.75 0.77 0.85 0.98 1.05 1.12 1.25 1.30 1.30 1.24 1.13 0.93 0.86 0.88 0.99 1.06 1.23 1.25 0.98 0.92 0.87 0.83 0.87 0.81 0.77 0.82 0.80 0.83
0.92 0.92 0.79 0.69 0.66 0.81 1.37 1.48 1.20 0.90 0.77 0.71 0.66 0.63 0.62 0.69 0.75 0.76 0.84 0.86 0.89 1.03 1.24 1.35 1.40 1.09 0.91 0.85 1.03 1.21 1.19 1.27 1.25 1.17 1.28 1.22 0.95 0.93 0.86 0.91 1.00 0.91 0.86
0.80 0.85 0.81 0.72 0.65 0.69 1.17 1.32 1.09 0.86 0.74 0.67 0.60 0.60 0.58 0.61 0.73 0.92 0.93 0.87 0.78 0.80 1.01 1.21 1.43 1.26 1.08 1.10 1.37 1.66 1.76 1.68 1.35 1.19 1.33 1.48 1.09 0.96 0.97 1.03 1.07 0.95 0.85
0.70 0.71 0.74 0.73 0.67 0.65 0.95 1.19 1.05 0.83 0.77 0.68 0.58 0.55 0.55 0.56 0.73 0.99 1.01 0.89 0.73 0.65 0.75 1.05 1.35 1.48 1.48 1.56 1.76 2.10 2.26 2.11 1.70 1.24 1.21 1.42 1.32 1.17 1.24 1.32 1.27 1.12 0.91
0.69 0.67 0.68 0.69 0.63 0.58 0.78 1.03 1.05 0.84 0.75 0.69 0.63 0.56 0.62 0.71 0.84 0.98 0.94 0.92 0.99 0.80 0.71 0.76 0.85 0.98 1.08 1.19 1.48 1.78 2.03 2.09 1.80 1.61 1.32 1.37 1.52 1.53 1.71 1.57 1.40 1.16 0.94

GEFSMA_prec_meanprecacc_198.txt.gz
Total_Precipitation_Accumulation
0.48 0.45 0.42 0.42 0.40 0.36 0.34 0.36 0.36 0.34 0.36 0.40 0.41 0.37 0.37 0.33 0.30 0.29 0.25 0.25 0.22 0.21 0.33 0.47 0.59 0.78 0.96 1.12 1.31 1.37 1.14 0.96 0.82 0.71 0.69 0.77 0.84 0.87 0.89 0.93 0.99 0.95 0.83
0.50 0.45 0.42 0.39 0.39 0.38 0.36 0.34 0.33 0.31 0.28 0.26 0.24 0.25 0.31 0.33 0.34 0.33 0.29 0.29 0.26 0.23 0.28 0.40 0.53 0.69 0.90 1.14 1.35 1.60 1.47 1.30 1.11 0.90 0.73 0.71 0.78 0.83 0.86 0.92 0.99 1.07 1.03
0.57 0.53 0.48 0.42 0.38 0.38 0.38 0.39 0.38 0.36 0.32 0.27 0.23 0.21 0.21 0.22 0.26 0.31 0.31 0.30 0.31 0.28 0.26 0.34 0.46 0.57 0.74 1.02 1.31 1.57 1.80 1.66 1.46 1.26 1.00 0.77 0.75 0.80 0.86 0.95 1.02 1.09 1.15
0.60 0.60 0.59 0.56 0.50 0.46 0.43 0.42 0.41 0.40 0.37 0.32 0.28 0.24 0.23 0.22 0.22 0.24 0.26 0.29 0.32 0.32 0.31 0.34 0.42 0.53 0.63 0.80 1.09 1.40 1.81 1.87 1.82 1.65 1.48 1.14 0.88 0.82 0.88 0.97 1.08 1.16 1.22
0.62 0.61 0.61 0.62 0.65 0.62 0.53 0.47 0.43 0.39 0.37 0.33 0.31 0.29 0.27 0.24 0.25 0.25 0.23 0.22 0.24 0.27 0.31 0.33 0.38 0.45 0.54 0.65 0.84 1.12 1.48 1.84 1.98 1.95 1.86 1.66 1.30 1.01 0.96 1.02 1.11 1.23 1.32
0.67 0.67 0.64 0.63 0.65 0.68 0.65 0.55 0.48 0.44 0.40 0.38 0.35 0.34 0.33 0.30 0.27 0.24 0.23 0.22 0.21 0.22 0.27 0.30 0.32 0.37 0.44 0.51 0.64 0.86 1.19 1.61 2.01 2.08 2.03 2.02 1.88 1.48 1.23 1.18 1.21 1.31 1.42
0.72 0.71 0.73 0.73 0.70 0.68 0.63 0.58 0.54 0.52 0.49 0.45 0.46 0.46 0.41 0.37 0.36 0.30 0.24 0.23 0.22 0.21 0.24 0.29 0.31 0.32 0.37 0.45 0.50 0.59 0.85 1.26 1.79 2.30 2.28 2.18 2.26 2.08 1.71 1.51 1.45 1.48 1.60
0.87 0.77 0.75 0.75 0.74 0.68 0.64 0.59 0.58 0.61 0.59 0.52 0.49 0.53 0.53 0.50 0.42 0.34 0.29 0.24 0.23 0.24 0.24 0.25 0.29 0.30 0.32 0.37 0.36 0.45 0.59 0.84 1.30 1.99 2.65 2.67 2.61 2.66 2.34 1.97 1.83 1.82 1.90
0.91 0.84 0.76 0.70 0.73 0.71 0.68 0.62 0.58 0.59 0.62 0.57 0.48 0.57 0.68 0.58 0.40 0.33 0.30 0.27 0.24 0.23 0.22 0.23 0.27 0.30 0.32 0.34 0.34 0.34 0.43 0.59 0.86 1.39 2.23 3.00 3.13 3.20 3.11 2.55 2.26 2.20 2.20
0.95 0.89 0.87 0.79 0.72 0.70 0.66 0.63 0.61 0.61 0.65 0.66 0.56 0.50 0.51 0.53 0.56 0.45 0.33 0.32 0.32 0.29 0.25 0.23 0.23 0.28 0.34 0.38 0.39 0.39 0.42 0.51 0.69 1.01 1.63 2.54 3.35 3.67 3.84 3.47 2.83 2.56 2.49
1.00 1.00 0.97 0.92 0.86 0.77 0.68 0.63 0.63 0.66 0.68 0.68 0.62 0.54 0.48 0.41 0.44 0.56 0.46 0.39 0.43 0.41 0.37 0.32 0.29 0.30 0.33 0.41 0.42 0.43 0.51 0.57 0.77 0.95 1.27 1.85 2.87 3.71 4.24 4.29 3.68 3.02 2.70
1.02 1.02 1.02 0.97 0.91 0.90 0.82 0.72 0.67 0.68 0.67 0.66 0.66 0.62 0.61 0.60 0.50 0.53 0.51 0.40 0.40 0.40 0.41 0.44 0.42 0.40 0.40 0.44 0.50 0.61 0.60 0.66 0.84 0.91 0.96 1.22 1.93 2.89 3.75 4.26 4.09 3.39 2.88
1.04 1.03 1.04 1.01 0.95 0.90 0.88 0.83 0.78 0.76 0.74 0.75 0.75 0.73 0.68 0.63 0.59 0.64 0.69 0.56 0.46 0.38 0.39 0.43 0.44 0.44 0.48 0.50 0.53 0.60 0.56 0.63 0.72 0.77 0.76 0.84 1.16 1.83 2.77 3.73 4.16 3.80 3.19
0.95 0.91 0.94 0.94 0.91 0.85 0.84 0.85 0.85 0.82 0.83 0.85 0.83 0.83 0.82 0.72 0.70 0.77 0.85 0.93 0.81 0.53 0.43 0.42 0.40 0.42 0.48 0.52 0.52 0.57 0.50 0.56 0.62 0.69 0.70 0.71 0.83 1.11 1.81 2.82 4.02 4.43 3.84
0.86 0.88 0.87 0.88 0.83 0.79 0.77 0.77 0.79 0.78 0.82 0.85 0.87 0.90 0.91 0.83 0.81 0.82 0.87 1.04 1.23 1.02 0.59 0.41 0.40 0.44 0.47 0.49 0.55 0.52 0.47 0.52 0.58 0.64 0.71 0.74 0.77 0.87 1.15 1.75 2.70 4.02 4.67
0.82 0.83 0.86 0.85 0.85 0.79 0.77 0.77 0.74 0.71 0.77 0.80 0.83 0.88 0.90 0.87 0.83 0.82 0.88 0.91 1.04 1.17 0.89 0.46 0.40 0.44 0.56 0.55 0.56 0.52 0.52 0.60 0.60 0.61 0.63 0.69 0.75 0.83 1.00 1.27 1.75 2.60 3.80
0.79 0.78 0.80 0.82 0.82 0.83 0.82 0.86 0.81 0.73 0.75 0.78 0.81 0.84 0.84 0.85 0.88 0.84 0.87 0.90 0.90 0.96 0.93 0.53 0.38 0.40 0.57 0.64 0.61 0.57 0.57 0.59 0.59 0.65 0.67 0.73 0.79 0.86 1.00 1.17 1.42 1.87 2.58
0.82 0.82 0.81 0.83 0.82 0.83 0.85 0.89 0.86 0.77 0.76 0.77 0.79 0.79 0.79 0.79 0.83 0.79 0.80 0.81 0.79 0.75 0.79 0.63 0.41 0.38 0.47 0.56 0.67 0.71 0.67 0.65 0.63 0.68 0.72 0.80 0.90 0.93 0.99 1.11 1.32 1.64 2.03
0.87 0.84 0.84 0.85 0.90 0.91 0.87 0.84 0.86 0.82 0.77 0.77 0.78 0.81 0.79 0.81 0.83 0.77 0.77 0.75 0.68 0.64 0.66 0.68 0.51 0.43 0.47 0.52 0.69 0.84 0.79 0.74 0.72 0.73 0.76 0.81 0.87 0.93 0.97 1.04 1.19 1.43 1.64
0.91 0.83 0.80 0.84 0.94 1.10 1.09 0.97 1.00 0.94 0.83 0.77 0.73 0.72 0.76 0.87 0.88 0.86 0.87 0.76 0.70 0.73 0.77 0.80 0.67 0.56 0.58 0.60 0.76 0.95 1.00 0.92 0.85 0.76 0.78 0.82 0.91 1.00 0.99 0.93 0.94 1.03 1.22
0.88 0.79 0.76 0.79 0.89 1.23 1.58 1.52 1.42 1.19 0.91 0.76 0.68 0.69 0.76 0.89 0.93 1.04 1.13 1.01 0.98 1.07 1.04 1.06 0.96 0.86 0.82 0.86 0.93 0.95 1.08 1.08 1.02 0.89 0.81 0.79 0.83 0.84 0.86 0.85 0.85 0.89 0.98
0.92 0.83 0.77 0.75 0.79 1.06 1.63 1.72 1.44 1.07 0.88 0.77 0.71 0.67 0.69 0.81 0.84 0.91 1.04 1.11 1.18 1.30 1.34 1.34 1.29 1.18 0.97 0.91 0.94 1.05 1.11 1.27 1.31 1.04 0.97 0.92 0.88 0.92 0.86 0.82 0.89 0.91 0.95
0.94 0.95 0.83 0.73 0.70 0.86 1.42 1.53 1.24 0.93 0.79 0.74 0.69 0.67 0.67 0.74 0.81 0.80 0.88 0.91 0.93 1.06 1.28 1.39 1.44 1.13 0.96 0.90 1.09 1.27 1.23 1.31 1.29 1.21 1.32 1.27 1.00 0.98 0.91 0.96 1.07 1.01 0.97
0.83 0.89 0.88 0.79 0.71 0.75 1.22 1.37 1.13 0.88 0.76 0.69 0.63 0.64 0.62 0.65 0.76 0.95 0.95 0.90 0.80 0.83 1.04 1.24 1.46 1.29 1.12 1.15 1.43 1.71 1.81 1.73 1.39 1.21 1.36 1.52 1.14 1.01 1.02 1.08 1.16 1.07 0.96
0.74 0.75 0.80 0.79 0.74 0.71 0.99 1.23 1.08 0.85 0.79 0.71 0.60 0.57 0.58 0.59 0.76 1.02 1.03 0.91 0.75 0.68 0.78 1.09 1.39 1.51 1.51 1.60 1.81 2.14 2.31 2.16 1.74 1.28 1.26 1.48 1.36 1.20 1.28 1.38 1.38 1.24 1.01
0.73 0.71 0.74 0.75 0.69 0.63 0.82 1.06 1.08 0.86 0.77 0.71 0.65 0.58 0.64 0.74 0.88 1.02 0.97 0.94 1.01 0.83 0.73 0.78 0.87 1.00 1.10 1.22 1.52 1.81 2.07 2.12 1.82 1.65 1.36 1.43 1.57 1.57 1.75 1.64 1.49 1.26 1.04

GEFSMA_prec_meanprecacc_204.txt.gz
Total_Precipitation_Accumulation
0.49 0.46 0.43 0.42 0.41 0.36 0.34 0.37 0.36 0.35 0.36 0.41 0.41 0.38 0.37 0.33 0.30 0.30 0.26 0.27 0.25 0.24 0.38 0.54 0.67 0.85 1.02 1.17 1.37 1.42 1.18 1.00 0.86 0.74 0.72 0.81 0.88 0.91 0.92 0.96 1.03 0.99 0.87
0.51 0.46 0.43 0.40 0.40 0.38 0.36 0.34 0.34 0.32 0.28 0.26 0.25 0.26 0.31 0.33 0.34 0.34 0.30 0.30 0.29 0.25 0.31 0.46 0.61 0.76 0.97 1.20 1.40 1.65 1.51 1.34 1.15 0.94 0.76 0.74 0.81 0.87 0.90 0.96 1.02 1.11 1.07
0.58 0.53 0.49 0.43 0.39 0.38 0.38 0.39 0.39 0.36 0.32 0.28 0.24 0.22 0.22 0.23 0.27 0.31 0.32 0.31 0.33 0.30 0.30 0.39 0.54 0.67 0.84 1.10 1.38 1.64 1.84 1.70 1.50 1.29 1.04 0.81 0.78 0.83 0.89 0.99 1.06 1.13 1.19
0.60 0.61 0.60 0.56 0.50 0.46 0.43 0.43 0.42 0.41 0.37 0.32 0.29 0.25 0.25 0.24 0.23 0.25 0.27 0.30 0.34 0.34 0.33 0.38 0.47 0.63 0.76 0.92 1.20 1.49 1.88 1.92 1.88 1.71 1.53 1.19 0.92 0.86 0.91 1.00 1.12 1.20 1.25
0.63 0.62 0.61 0.62 0.66 0.63 0.54 0.48 0.44 0.40 0.38 0.34 0.32 0.30 0.28 0.26 0.26 0.27 0.24 0.23 0.25 0.29 0.34 0.37 0.43 0.54 0.66 0.79 1.00 1.27 1.61 1.93 2.05 2.03 1.94 1.73 1.36 1.07 1.02 1.07 1.15 1.27 1.37
0.68 0.68 0.65 0.63 0.66 0.69 0.66 0.56 0.49 0.44 0.40 0.38 0.36 0.35 0.34 0.32 0.28 0.25 0.24 0.23 0.22 0.24 0.31 0.36 0.38 0.45 0.55 0.65 0.79 1.04 1.34 1.72 2.08 2.16 2.12 2.12 1.96 1.56 1.31 1.26 1.28 1.37 1.49
0.73 0.73 0.74 0.74 0.71 0.68 0.65 0.60 0.55 0.53 0.50 0.46 0.47 0.47 0.41 0.38 0.37 0.31 0.26 0.24 0.24 0.23 0.26 0.34 0.40 0.41 0.49 0.59 0.64 0.75 1.02 1.41 1.89 2.39 2.37 2.26 2.33 2.17 1.80 1.61 1.54 1.57 1.70
0.88 0.79 0.76 0.77 0.75 0.69 0.65 0.60 0.59 0.62 0.60 0.53 0.50 0.54 0.55 0.52 0.44 0.36 0.30 0.25 0.25 0.25 0.26 0.29 0.37 0.42 0.45 0.52 0.52 0.62 0.78 1.05 1.46 2.12 2.75 2.75 2.69 2.75 2.44 2.08 1.92 1.91 1.99
0.92 0.85 0.78 0.71 0.74 0.73 0.69 0.62 0.59 0.60 0.63 0.58 0.49 0.59 0.70 0.60 0.42 0.35 0.32 0.28 0.26 0.26 0.26 0.27 0.32 0.40 0.44 0.50 0.49 0.51 0.61 0.81 1.07 1.56 2.36 3.09 3.21 3.28 3.21 2.66 2.37 2.29 2.27
0.97 0.92 0.88 0.80 0.73 0.71 0.67 0.63 0.62 0.61 0.66 0.67 0.57 0.51 0.53 0.55 0.60 0.48 0.35 0.34 0.33 0.31 0.29 0.28 0.29 0.35 0.43 0.50 0.53 0.52 0.54 0.65 0.84 1.15 1.76 2.64 3.44 3.75 3.93 3.57 2.96 2.68 2.58
1.02 1.02 0.99 0.93 0.87 0.78 0.69 0.64 0.64 0.66 0.68 0.69 0.64 0.56 0.50 0.44 0.46 0.59 0.48 0.41 0.45 0.43 0.40 0.37 0.36 0.37 0.42 0.51 0.56 0.56 0.61 0.66 0.88 1.06 1.38 1.96 2.96 3.79 4.33 4.38 3.79 3.15 2.81
1.04 1.03 1.03 0.99 0.93 0.92 0.83 0.73 0.68 0.69 0.69 0.68 0.68 0.65 0.64 0.62 0.52 0.55 0.55 0.44 0.44 0.43 0.44 0.48 0.49 0.48 0.49 0.55 0.63 0.75 0.71 0.75 0.92 0.99 1.05 1.32 2.01 2.96 3.81 4.33 4.17 3.50 3.04
1.05 1.04 1.06 1.04 0.99 0.93 0.90 0.84 0.79 0.77 0.75 0.76 0.78 0.76 0.70 0.65 0.61 0.66 0.71 0.60 0.50 0.43 0.44 0.47 0.49 0.51 0.56 0.60 0.67 0.73 0.67 0.72 0.79 0.83 0.82 0.90 1.22 1.89 2.83 3.80 4.23 3.88 3.32
0.96 0.92 0.95 0.97 0.94 0.88 0.86 0.86 0.86 0.83 0.84 0.87 0.85 0.86 0.83 0.73 0.71 0.78 0.88 0.96 0.86 0.59 0.48 0.46 0.44 0.48 0.54 0.60 0.65 0.70 0.59 0.64 0.69 0.74 0.75 0.75 0.86 1.15 1.86 2.88 4.10 4.51 3.92
0.89 0.90 0.89 0.90 0.85 0.81 0.78 0.78 0.80 0.79 0.84 0.87 0.89 0.91 0.92 0.84 0.82 0.84 0.90 1.08 1.32 1.10 0.63 0.44 0.44 0.49 0.54 0.58 0.68 0.63 0.57 0.61 0.66 0.70 0.77 0.80 0.82 0.91 1.20 1.79 2.75 4.09 4.76
0.84 0.85 0.88 0.86 0.86 0.80 0.78 0.78 0.75 0.72 0.78 0.81 0.84 0.90 0.92 0.88 0.84 0.83 0.90 0.94 1.07 1.22 0.94 0.49 0.43 0.48 0.62 0.63 0.66 0.63 0.63 0.72 0.69 0.68 0.69 0.75 0.82 0.88 1.04 1.30 1.78 2.63 3.85
0.79 0.78 0.81 0.82 0.83 0.84 0.84 0.88 0.83 0.75 0.77 0.80 0.82 0.85 0.85 0.86 0.90 0.85 0.88 0.92 0.93 0.99 0.97 0.55 0.40 0.43 0.62 0.71 0.68 0.65 0.67 0.70 0.67 0.71 0.73 0.78 0.84 0.90 1.04 1.20 1.46 1.90 2.61
0.83 0.82 0.81 0.84 0.83 0.84 0.87 0.91 0.87 0.79 0.77 0.79 0.80 0.81 0.80 0.81 0.85 0.82 0.82 0.84 0.82 0.78 0.82 0.66 0.44 0.42 0.51 0.62 0.73 0.79 0.77 0.74 0.72 0.76 0.79 0.87 0.97 0.97 1.03 1.15 1.35 1.68 2.06
0.88 0.84 0.85 0.86 0.91 0.92 0.89 0.85 0.87 0.84 0.79 0.78 0.80 0.82 0.80 0.83 0.85 0.79 0.80 0.77 0.70 0.66 0.68 0.70 0.54 0.47 0.51 0.56 0.73 0.89 0.86 0.83 0.80 0.81 0.84 0.89 0.96 1.02 1.04 1.09 1.24 1.47 1.68
0.92 0.84 0.81 0.85 0.95 1.11 1.10 0.99 1.02 0.95 0.84 0.79 0.74 0.74 0.78 0.89 0.90 0.87 0.89 0.78 0.71 0.75 0.78 0.83 0.71 0.60 0.63 0.64 0.80 1.00 1.08 1.01 0.95 0.85 0.87 0.91 1.00 1.08 1.07 1.01 1.01 1.08 1.27
0.89 0.81 0.77 0.80 0.90 1.24 1.60 1.53 1.44 1.20 0.93 0.77 0.69 0.70 0.77 0.90 0.95 1.07 1.16 1.03 1.00 1.09 1.06 1.08 1.00 0.90 0.86 0.89 0.96 1.00 1.14 1.15 1.13 0.99 0.90 0.88 0.91 0.91 0.94 0.96 0.96 0.98 1.06
0.94 0.85 0.79 0.77 0.81 1.08 1.65 1.75 1.46 1.08 0.90 0.79 0.73 0.69 0.71 0.83 0.86 0.94 1.07 1.14 1.21 1.34 1.38 1.37 1.31 1.21 1.01 0.94 0.97 1.09 1.15 1.32 1.37 1.12 1.04 0.99 0.94 0.99 0.93 0.91 1.00 1.01 1.04
0.97 0.98 0.87 0.77 0.74 0.89 1.44 1.56 1.27 0.95 0.82 0.77 0.71 0.69 0.69 0.76 0.83 0.82 0.91 0.94 0.97 1.10 1.31 1.42 1.48 1.16 0.99 0.94 1.12 1.30 1.27 1.35 1.32 1.27 1.38 1.32 1.06 1.05 0.98 1.04 1.16 1.09 1.05
0.87 0.94 0.92 0.83 0.75 0.78 1.25 1.41 1.17 0.91 0.79 0.72 0.65 0.66 0.64 0.67 0.78 0.97 0.97 0.92 0.82 0.85 1.06 1.27 1.49 1.32 1.16 1.19 1.47 1.75 1.85 1.76 1.41 1.24 1.41 1.57 1.19 1.06 1.07 1.14 1.24 1.15 1.04
0.78 0.80 0.84 0.82 0.77 0.74 1.02 1.27 1.12 0.89 0.82 0.74 0.63 0.60 0.60 0.62 0.79 1.05 1.06 0.94 0.77 0.69 0.80 1.11 1.42 1.54 1.54 1.64 1.85 2.17 2.34 2.18 1.76 1.30 1.28 1.51 1.39 1.23 1.31 1.42 1.44 1.30 1.07
0.75 0.73 0.75 0.76 0.71 0.66 0.85 1.10 1.12 0.89 0.80 0.75 0.68 0.62 0.67 0.77 0.91 1.05 1.00 0.97 1.03 0.85 0.75 0.80 0.89 1.02 1.12 1.25 1.56 1.84 2.10 2.15 1.85 1.67 1.38 1.45 1.59 1.59 1.77 1.66 1.51 1.29 1.08

GEFSMA_prec_meanprecacc_210.txt.gz
Total_Precipitation_Accumulation
0.49 0.46 0.43 0.42 0.41 0.36 0.34 0.37 0.36 0.35 0.36 0.41 0.42 0.38 0.37 0.33 0.30 0.30 0.26 0.27 0.25 0.25 0.40 0.57 0.71 0.91 1.09 1.26 1.46 1.51 1.26 1.06 0.91 0.79 0.77 0.85 0.92 0.95 0.96 0.99 1.06 1.01 0.89
0.51 0.46 0.43 0.40 0.40 0.39 0.37 0.35 0.34 0.32 0.28 0.27 0.25 0.26 0.31 0.34 0.35 0.34 0.31 0.31 0.29 0.26 0.32 0.48 0.63 0.81 1.04 1.29 1.51 1.78 1.62 1.42 1.21 1.00 0.82 0.80 0.86 0.91 0.94 1.00 1.06 1.14 1.11
0.60 0.55 0.50 0.44 0.40 0.39 0.39 0.40 0.39 0.37 0.33 0.28 0.25 0.23 0.22 0.24 0.27 0.32 0.32 0.32 0.33 0.31 0.31 0.40 0.55 0.70 0.90 1.20 1.50 1.78 1.99 1.82 1.58 1.35 1.09 0.86 0.84 0.88 0.93 1.02 1.09 1.16 1.23
0.63 0.63 0.61 0.58 0.52 0.48 0.45 0.44 0.43 0.41 0.38 0.33 0.29 0.26 0.25 0.24 0.23 0.25 0.27 0.30 0.34 0.35 0.34 0.38 0.48 0.64 0.81 1.01 1.30 1.62 2.02 2.07 1.99 1.78 1.60 1.26 1.00 0.93 0.98 1.06 1.17 1.24 1.29
0.66 0.64 0.63 0.64 0.68 0.65 0.55 0.49 0.45 0.40 0.39 0.35 0.32 0.31 0.28 0.26 0.26 0.27 0.25 0.23 0.25 0.30 0.34 0.37 0.44 0.55 0.70 0.88 1.11 1.40 1.75 2.10 2.21 2.15 2.05 1.82 1.45 1.15 1.10 1.16 1.24 1.34 1.42
0.71 0.71 0.67 0.64 0.67 0.70 0.67 0.57 0.49 0.45 0.41 0.39 0.36 0.35 0.35 0.32 0.28 0.26 0.25 0.24 0.22 0.24 0.31 0.36 0.39 0.46 0.57 0.71 0.90 1.17 1.49 1.90 2.27 2.31 2.25 2.23 2.07 1.67 1.41 1.35 1.38 1.47 1.57
0.76 0.76 0.76 0.75 0.72 0.69 0.66 0.61 0.56 0.53 0.50 0.46 0.48 0.47 0.42 0.39 0.38 0.32 0.27 0.25 0.25 0.24 0.27 0.36 0.41 0.42 0.50 0.62 0.74 0.88 1.16 1.57 2.08 2.57 2.54 2.41 2.47 2.29 1.91 1.71 1.66 1.71 1.84
0.90 0.81 0.78 0.78 0.76 0.70 0.66 0.61 0.60 0.64 0.62 0.54 0.51 0.55 0.56 0.53 0.44 0.37 0.32 0.27 0.26 0.27 0.28 0.31 0.38 0.43 0.46 0.53 0.59 0.73 0.89 1.18 1.64 2.31 2.95 2.96 2.88 2.93 2.58 2.20 2.04 2.04 2.13
0.93 0.87 0.79 0.73 0.76 0.74 0.70 0.64 0.61 0.61 0.65 0.60 0.51 0.62 0.73 0.63 0.44 0.36 0.33 0.29 0.27 0.28 0.27 0.29 0.33 0.41 0.46 0.53 0.55 0.59 0.70 0.90 1.23 1.76 2.60 3.33 3.43 3.50 3.39 2.81 2.50 2.40 2.37
0.98 0.93 0.89 0.82 0.75 0.72 0.68 0.65 0.64 0.63 0.68 0.69 0.59 0.53 0.55 0.58 0.62 0.50 0.36 0.35 0.35 0.32 0.30 0.29 0.30 0.36 0.45 0.53 0.60 0.61 0.61 0.72 0.96 1.33 1.98 2.89 3.67 3.94 4.08 3.69 3.06 2.79 2.70
1.03 1.03 1.00 0.95 0.89 0.79 0.70 0.65 0.65 0.68 0.70 0.71 0.66 0.58 0.52 0.46 0.48 0.62 0.50 0.43 0.47 0.45 0.41 0.38 0.36 0.38 0.43 0.54 0.59 0.64 0.71 0.75 1.00 1.20 1.54 2.13 3.13 3.95 4.48 4.52 3.90 3.25 2.93
1.05 1.04 1.04 1.00 0.95 0.93 0.84 0.74 0.70 0.71 0.70 0.70 0.71 0.67 0.65 0.64 0.56 0.59 0.57 0.46 0.45 0.45 0.46 0.50 0.50 0.50 0.52 0.59 0.68 0.82 0.82 0.89 1.07 1.15 1.20 1.46 2.14 3.09 3.94 4.46 4.29 3.62 3.14
1.05 1.05 1.07 1.05 1.00 0.94 0.91 0.85 0.82 0.79 0.77 0.79 0.81 0.78 0.71 0.67 0.64 0.70 0.76 0.63 0.52 0.46 0.46 0.49 0.51 0.54 0.59 0.64 0.76 0.84 0.81 0.87 0.94 1.00 0.97 1.02 1.32 1.99 2.92 3.89 4.33 3.98 3.42
0.96 0.92 0.96 0.98 0.95 0.90 0.87 0.87 0.87 0.84 0.85 0.89 0.87 0.87 0.85 0.76 0.74 0.81 0.90 0.99 0.89 0.62 0.50 0.49 0.48 0.51 0.58 0.66 0.79 0.88 0.77 0.80 0.84 0.89 0.89 0.86 0.95 1.24 1.93 2.95 4.18 4.60 4.00
0.89 0.91 0.90 0.90 0.86 0.82 0.79 0.79 0.80 0.79 0.84 0.88 0.90 0.93 0.94 0.86 0.85 0.86 0.92 1.11 1.35 1.14 0.67 0.48 0.48 0.52 0.57 0.64 0.81 0.76 0.70 0.73 0.76 0.80 0.88 0.90 0.90 0.99 1.27 1.87 2.82 4.16 4.81
0.84 0.86 0.89 0.87 0.86 0.81 0.79 0.79 0.75 0.73 0.79 0.82 0.85 0.91 0.93 0.89 0.86 0.85 0.92 0.96 1.09 1.25 0.97 0.52 0.45 0.51 0.64 0.67 0.72 0.69 0.72 0.82 0.80 0.79 0.80 0.84 0.90 0.95 1.10 1.37 1.85 2.69 3.90
0.80 0.79 0.81 0.83 0.83 0.84 0.84 0.88 0.83 0.75 0.78 0.80 0.83 0.86 0.86 0.87 0.91 0.87 0.90 0.93 0.94 1.00 0.99 0.57 0.42 0.45 0.64 0.73 0.71 0.69 0.73 0.76 0.76 0.82 0.83 0.86 0.90 0.97 1.12 1.27 1.52 1.96 2.67
0.83 0.82 0.82 0.85 0.83 0.85 0.87 0.91 0.88 0.79 0.78 0.80 0.81 0.82 0.81 0.82 0.86 0.83 0.83 0.85 0.83 0.79 0.82 0.67 0.45 0.44 0.53 0.63 0.76 0.82 0.79 0.77 0.76 0.81 0.83 0.91 1.00 1.02 1.09 1.22 1.43 1.75 2.13
0.88 0.84 0.85 0.87 0.91 0.92 0.89 0.85 0.88 0.84 0.80 0.79 0.81 0.84 0.81 0.84 0.86 0.80 0.80 0.78 0.71 0.66 0.69 0.72 0.56 0.49 0.53 0.58 0.75 0.90 0.87 0.85 0.82 0.84 0.87 0.93 1.00 1.06 1.09 1.14 1.30 1.54 1.75
0.92 0.84 0.81 0.85 0.96 1.11 1.10 0.99 1.03 0.96 0.86 0.80 0.75 0.75 0.80 0.90 0.90 0.88 0.90 0.79 0.72 0.76 0.80 0.85 0.72 0.61 0.64 0.66 0.81 1.01 1.09 1.04 0.99 0.90 0.92 0.96 1.05 1.14 1.13 1.07 1.07 1.15 1.33
0.89 0.81 0.78 0.81 0.91 1.25 1.60 1.54 1.45 1.21 0.94 0.78 0.71 0.72 0.79 0.92 0.97 1.08 1.17 1.04 1.02 1.11 1.08 1.10 1.01 0.92 0.87 0.90 0.98 1.01 1.16 1.19 1.19 1.06 0.97 0.92 0.96 0.96 1.00 1.03 1.03 1.05 1.12
0.94 0.85 0.80 0.78 0.81 1.08 1.66 1.76 1.47 1.09 0.91 0.80 0.74 0.70 0.73 0.85 0.88 0.96 1.09 1.17 1.24 1.36 1.40 1.39 1.34 1.23 1.02 0.95 0.98 1.11 1.19 1.36 1.43 1.16 1.08 1.03 1.00 1.05 1.00 0.98 1.08 1.08 1.10
0.97 0.98 0.87 0.78 0.74 0.89 1.45 1.58 1.28 0.96 0.82 0.78 0.73 0.72 0.72 0.79 0.85 0.84 0.92 0.95 0.98 1.12 1.33 1.44 1.50 1.18 1.02 0.97 1.14 1.34 1.32 1.40 1.38 1.31 1.40 1.35 1.10 1.10 1.04 1.12 1.25 1.16 1.11
0.87 0.94 0.93 0.84 0.76 0.80 1.27 1.43 1.18 0.93 0.81 0.73 0.67 0.69 0.68 0.71 0.81 0.99 0.98 0.93 0.83 0.86 1.07 1.28 1.51 1.34 1.18 1.21 1.50 1.80 1.91 1.80 1.45 1.27 1.43 1.60 1.23 1.11 1.12 1.20 1.32 1.22 1.10
0.79 0.81 0.85 0.84 0.79 0.76 1.04 1.29 1.14 0.91 0.84 0.75 0.66 0.64 0.64 0.65 0.83 1.08 1.08 0.95 0.78 0.70 0.81 1.13 1.43 1.56 1.56 1.66 1.88 2.20 2.38 2.22 1.80 1.33 1.31 1.54 1.42 1.27 1.36 1.49 1.51 1.37 1.12
0.76 0.75 0.77 0.79 0.74 0.68 0.87 1.12 1.14 0.91 0.82 0.77 0.72 0.65 0.71 0.81 0.95 1.09 1.02 0.98 1.05 0.86 0.76 0.81 0.90 1.04 1.14 1.27 1.59 1.87 2.14 2.19 1.88 1.71 1.42 1.48 1.62 1.61 1.82 1.72 1.58 1.35 1.13

GEFSMA_prec_meanprecacc_216.txt.gz
Total_Precipitation_Accumulation
0.49 0.46 0.43 0.43 0.41 0.37 0.35 0.38 0.37 0.35 0.37 0.41 0.42 0.38 0.37 0.34 0.30 0.30 0.27 0.28 0.25 0.26 0.41 0.59 0.74 0.94 1.12 1.28 1.48 1.54 1.30 1.13 1.00 0.88 0.88 0.98 1.03 1.01 1.01 1.05 1.12 1.06 0.94
0.52 0.47 0.44 0.41 0.41 0.40 0.37 0.35 0.35 0.33 0.29 0.27 0.26 0.26 0.32 0.34 0.35 0.35 0.31 0.31 0.29 0.27 0.33 0.49 0.66 0.84 1.07 1.31 1.54 1.80 1.65 1.47 1.29 1.10 0.93 0.93 0.99 1.00 1.00 1.05 1.11 1.19 1.16
0.61 0.56 0.51 0.45 0.41 0.40 0.40 0.41 0.40 0.37 0.33 0.28 0.25 0.23 0.23 0.24 0.28 0.32 0.32 0.32 0.33 0.31 0.31 0.41 0.57 0.73 0.93 1.23 1.53 1.81 2.02 1.85 1.66 1.47 1.23 1.02 1.02 1.07 1.07 1.13 1.16 1.21 1.28
0.65 0.64 0.63 0.60 0.54 0.49 0.46 0.45 0.43 0.42 0.38 0.34 0.30 0.26 0.25 0.25 0.24 0.25 0.27 0.30 0.34 0.35 0.34 0.39 0.49 0.66 0.84 1.04 1.33 1.65 2.05 2.09 2.05 1.90 1.75 1.44 1.20 1.16 1.17 1.19 1.27 1.32 1.35
0.70 0.67 0.66 0.67 0.70 0.67 0.57 0.51 0.45 0.41 0.40 0.35 0.33 0.31 0.29 0.26 0.26 0.27 0.25 0.23 0.25 0.30 0.35 0.38 0.44 0.56 0.71 0.89 1.13 1.42 1.78 2.13 2.26 2.26 2.20 2.00 1.63 1.32 1.28 1.29 1.34 1.43 1.50
0.76 0.75 0.70 0.67 0.70 0.72 0.69 0.58 0.50 0.46 0.41 0.40 0.37 0.36 0.35 0.33 0.29 0.26 0.25 0.24 0.23 0.25 0.32 0.37 0.40 0.47 0.58 0.72 0.92 1.19 1.53 1.95 2.33 2.43 2.41 2.42 2.26 1.84 1.59 1.52 1.49 1.59 1.69
0.83 0.84 0.82 0.79 0.75 0.71 0.67 0.62 0.57 0.54 0.51 0.47 0.48 0.47 0.42 0.39 0.38 0.32 0.27 0.25 0.25 0.24 0.28 0.36 0.42 0.43 0.51 0.63 0.75 0.89 1.18 1.61 2.14 2.68 2.68 2.60 2.66 2.46 2.09 1.90 1.81 1.86 2.01
0.96 0.88 0.86 0.86 0.82 0.74 0.69 0.64 0.62 0.65 0.62 0.54 0.52 0.56 0.57 0.53 0.45 0.38 0.33 0.28 0.27 0.28 0.29 0.31 0.39 0.44 0.47 0.55 0.60 0.74 0.91 1.21 1.69 2.42 3.09 3.12 3.10 3.14 2.76 2.37 2.20 2.17 2.26
0.97 0.90 0.83 0.78 0.82 0.80 0.74 0.68 0.64 0.64 0.66 0.61 0.53 0.63 0.75 0.65 0.46 0.38 0.35 0.31 0.28 0.29 0.29 0.30 0.34 0.42 0.47 0.54 0.56 0.59 0.71 0.92 1.25 1.83 2.69 3.44 3.59 3.69 3.60 3.01 2.68 2.57 2.54
1.02 0.96 0.92 0.84 0.78 0.77 0.72 0.68 0.66 0.65 0.70 0.70 0.60 0.54 0.58 0.61 0.65 0.52 0.38 0.36 0.36 0.34 0.32 0.30 0.31 0.37 0.45 0.53 0.62 0.62 0.62 0.73 0.98 1.39 2.07 2.99 3.77 4.11 4.33 3.96 3.29 3.01 2.91
1.07 1.07 1.03 0.97 0.91 0.82 0.72 0.67 0.67 0.69 0.71 0.72 0.67 0.60 0.54 0.48 0.50 0.64 0.52 0.44 0.49 0.46 0.44 0.40 0.38 0.39 0.44 0.55 0.60 0.65 0.72 0.77 1.04 1.27 1.63 2.25 3.24 4.08 4.66 4.72 4.09 3.45 3.16
1.06 1.06 1.06 1.01 0.96 0.94 0.86 0.75 0.71 0.71 0.71 0.71 0.72 0.69 0.67 0.66 0.58 0.61 0.60 0.48 0.48 0.47 0.49 0.53 0.52 0.51 0.54 0.61 0.71 0.85 0.84 0.93 1.14 1.24 1.30 1.57 2.26 3.22 4.07 4.59 4.40 3.75 3.33
1.06 1.06 1.08 1.06 1.01 0.96 0.92 0.87 0.84 0.81 0.78 0.80 0.82 0.79 0.73 0.69 0.66 0.73 0.80 0.67 0.55 0.48 0.49 0.53 0.55 0.57 0.62 0.68 0.81 0.90 0.87 0.95 1.03 1.11 1.10 1.18 1.48 2.17 3.06 3.99 4.41 4.06 3.51
0.97 0.93 0.96 0.99 0.96 0.91 0.89 0.89 0.89 0.85 0.86 0.90 0.88 0.88 0.86 0.77 0.76 0.84 0.94 1.03 0.92 0.64 0.52 0.53 0.53 0.57 0.65 0.73 0.89 1.00 0.93 0.93 0.94 0.99 1.00 0.95 1.06 1.35 2.02 3.02 4.23 4.65 4.06
0.90 0.92 0.91 0.91 0.86 0.83 0.80 0.80 0.81 0.81 0.85 0.88 0.91 0.94 0.95 0.87 0.86 0.87 0.94 1.13 1.37 1.16 0.69 0.51 0.51 0.57 0.64 0.73 0.91 0.85 0.79 0.82 0.84 0.88 0.95 0.96 0.95 1.04 1.33 1.91 2.86 4.20 4.86
0.85 0.86 0.90 0.88 0.87 0.82 0.80 0.80 0.76 0.74 0.79 0.82 0.85 0.92 0.94 0.91 0.88 0.87 0.95 1.00 1.12 1.27 1.00 0.54 0.47 0.53 0.67 0.72 0.79 0.75 0.78 0.88 0.85 0.84 0.86 0.90 0.96 1.01 1.15 1.40 1.88 2.72 3.93
0.81 0.80 0.82 0.84 0.84 0.85 0.85 0.89 0.84 0.76 0.78 0.81 0.83 0.86 0.87 0.88 0.93 0.89 0.93 0.97 0.96 1.02 1.01 0.59 0.43 0.46 0.66 0.76 0.75 0.72 0.77 0.80 0.79 0.86 0.88 0.90 0.95 1.03 1.18 1.32 1.56 1.99 2.70
0.84 0.83 0.82 0.85 0.84 0.86 0.88 0.92 0.89 0.80 0.78 0.80 0.82 0.82 0.82 0.82 0.87 0.84 0.85 0.86 0.84 0.80 0.84 0.69 0.47 0.45 0.54 0.65 0.77 0.84 0.81 0.80 0.78 0.83 0.86 0.93 1.03 1.05 1.12 1.26 1.47 1.79 2.16
0.88 0.85 0.85 0.87 0.92 0.93 0.90 0.86 0.89 0.85 0.80 0.79 0.81 0.84 0.82 0.84 0.87 0.81 0.82 0.79 0.72 0.67 0.71 0.74 0.58 0.50 0.54 0.59 0.76 0.91 0.89 0.87 0.84 0.86 0.89 0.96 1.03 1.09 1.12 1.17 1.34 1.58 1.79
0.92 0.84 0.82 0.86 0.96 1.12 1.11 1.00 1.04 0.97 0.86 0.80 0.76 0.75 0.80 0.91 0.91 0.89 0.91 0.80 0.74 0.77 0.81 0.87 0.74 0.62 0.65 0.67 0.82 1.02 1.11 1.06 1.02 0.92 0.95 0.99 1.08 1.16 1.15 1.09 1.10 1.19 1.37
0.90 0.81 0.78 0.81 0.91 1.25 1.61 1.55 1.46 1.22 0.95 0.79 0.71 0.72 0.79 0.93 0.98 1.10 1.19 1.06 1.03 1.12 1.09 1.11 1.02 0.92 0.88 0.91 0.99 1.03 1.18 1.22 1.22 1.10 1.00 0.95 0.98 0.99 1.02 1.05 1.05 1.08 1.15
0.94 0.86 0.80 0.78 0.82 1.09 1.66 1.78 1.48 1.09 0.91 0.81 0.75 0.71 0.73 0.85 0.89 0.97 1.11 1.18 1.25 1.37 1.41 1.40 1.35 1.24 1.03 0.96 1.00 1.13 1.21 1.39 1.46 1.20 1.12 1.06 1.03 1.09 1.03 1.01 1.11 1.12 1.13
0.97 0.99 0.87 0.78 0.75 0.90 1.45 1.59 1.29 0.96 0.83 0.78 0.74 0.72 0.72 0.79 0.86 0.85 0.93 0.96 0.99 1.13 1.34 1.46 1.52 1.20 1.03 0.98 1.16 1.36 1.34 1.43 1.40 1.33 1.43 1.38 1.13 1.13 1.06 1.15 1.28 1.19 1.13
0.88 0.94 0.93 0.84 0.77 0.80 1.27 1.43 1.19 0.93 0.81 0.73 0.68 0.70 0.69 0.72 0.83 1.01 1.00 0.94 0.84 0.87 1.09 1.30 1.53 1.36 1.19 1.23 1.51 1.82 1.92 1.82 1.47 1.29 1.45 1.63 1.25 1.14 1.15 1.23 1.36 1.26 1.13
0.80 0.81 0.85 0.84 0.79 0.76 1.05 1.29 1.15 0.91 0.84 0.76 0.67 0.66 0.67 0.67 0.86 1.12 1.10 0.97 0.80 0.72 0.84 1.15 1.45 1.57 1.58 1.68 1.89 2.21 2.40 2.23 1.82 1.35 1.33 1.57 1.44 1.28 1.38 1.52 1.55 1.42 1.17
0.77 0.75 0.77 0.79 0.74 0.68 0.88 1.13 1.15 0.91 0.83 0.78 0.74 0.69 0.76 0.84 0.98 1.12 1.06 1.01 1.08 0.89 0.78 0.82 0.91 1.04 1.15 1.28 1.60 1.88 2.15 2.22 1.92 1.75 1.46 1.52 1.65 1.64 1.85 1.76 1.62 1.39 1.17

GEFSMA_prec_meanprecacc_222.txt.gz
Total_Precipitation_Accumulation
0.51 0.48 0.45 0.45 0.43 0.39 0.37 0.39 0.38 0.36 0.38 0.42 0.42 0.38 0.38 0.34 0.31 0.30 0.27 0.28 0.25 0.26 0.42 0.60 0.75 0.96 1.15 1.31 1.51 1.57 1.33 1.16 1.03 0.92 0.92 1.03 1.11 1.13 1.13 1.17 1.25 1.19 1.02
0.55 0.49 0.46 0.43 0.43 0.43 0.41 0.39 0.37 0.35 0.30 0.28 0.26 0.27 0.32 0.34 0.35 0.35 0.31 0.31 0.30 0.27 0.34 0.50 0.67 0.86 1.10 1.34 1.57 1.84 1.68 1.50 1.32 1.13 0.97 0.98 1.07 1.12 1.13 1.17 1.24 1.33 1.28
0.64 0.60 0.54 0.47 0.43 0.43 0.42 0.43 0.41 0.38 0.34 0.29 0.25 0.23 0.23 0.25 0.28 0.33 0.32 0.32 0.34 0.31 0.31 0.41 0.57 0.74 0.96 1.26 1.56 1.84 2.04 1.87 1.68 1.50 1.26 1.06 1.08 1.17 1.22 1.26 1.29 1.33 1.39
0.70 0.67 0.66 0.62 0.57 0.52 0.47 0.46 0.44 0.42 0.38 0.34 0.30 0.27 0.26 0.25 0.24 0.26 0.28 0.31 0.35 0.36 0.35 0.39 0.50 0.68 0.87 1.06 1.36 1.67 2.07 2.12 2.07 1.92 1.78 1.47 1.25 1.25 1.34 1.40 1.45 1.47 1.48
0.78 0.74 0.70 0.71 0.74 0.69 0.59 0.52 0.47 0.42 0.40 0.36 0.33 0.32 0.29 0.26 0.26 0.27 0.25 0.24 0.26 0.31 0.35 0.38 0.45 0.57 0.72 0.90 1.15 1.45 1.80 2.15 2.28 2.28 2.22 2.03 1.68 1.41 1.42 1.50 1.51 1.59 1.66
0.85 0.84 0.77 0.72 0.74 0.75 0.71 0.61 0.52 0.47 0.42 0.40 0.38 0.37 0.36 0.34 0.29 0.26 0.25 0.24 0.23 0.25 0.32 0.37 0.40 0.47 0.58 0.72 0.93 1.21 1.56 1.98 2.36 2.46 2.44 2.44 2.30 1.90 1.66 1.64 1.63 1.72 1.86
0.92 0.92 0.90 0.85 0.79 0.75 0.70 0.64 0.59 0.56 0.52 0.48 0.49 0.48 0.43 0.40 0.39 0.33 0.27 0.26 0.25 0.24 0.28 0.37 0.42 0.44 0.52 0.64 0.76 0.90 1.20 1.63 2.16 2.70 2.71 2.62 2.71 2.54 2.18 2.00 1.95 2.00 2.17
1.02 0.96 0.96 0.94 0.89 0.80 0.74 0.68 0.65 0.67 0.64 0.56 0.53 0.57 0.58 0.54 0.45 0.38 0.33 0.28 0.27 0.28 0.29 0.32 0.39 0.45 0.48 0.55 0.61 0.75 0.92 1.23 1.71 2.45 3.12 3.15 3.15 3.22 2.85 2.45 2.29 2.30 2.40
0.99 0.94 0.90 0.86 0.90 0.88 0.82 0.75 0.70 0.69 0.71 0.65 0.55 0.65 0.77 0.66 0.46 0.39 0.36 0.32 0.29 0.30 0.29 0.30 0.35 0.42 0.47 0.54 0.56 0.60 0.72 0.94 1.28 1.86 2.73 3.47 3.65 3.80 3.72 3.09 2.75 2.67 2.66
1.03 0.98 0.96 0.89 0.83 0.81 0.77 0.72 0.71 0.70 0.75 0.75 0.64 0.58 0.60 0.63 0.67 0.54 0.39 0.37 0.37 0.35 0.33 0.31 0.31 0.38 0.46 0.54 0.63 0.63 0.64 0.77 1.03 1.43 2.11 3.02 3.81 4.17 4.41 4.03 3.37 3.10 3.02
1.08 1.09 1.05 1.00 0.94 0.85 0.76 0.70 0.70 0.72 0.74 0.76 0.71 0.63 0.57 0.51 0.53 0.67 0.54 0.46 0.50 0.47 0.44 0.41 0.39 0.41 0.46 0.56 0.62 0.67 0.74 0.81 1.08 1.31 1.68 2.29 3.29 4.14 4.74 4.81 4.21 3.58 3.26
1.07 1.08 1.08 1.04 0.99 0.97 0.88 0.78 0.74 0.74 0.73 0.72 0.74 0.71 0.69 0.68 0.60 0.63 0.61 0.49 0.49 0.48 0.50 0.54 0.55 0.55 0.59 0.64 0.74 0.88 0.86 0.95 1.17 1.26 1.33 1.61 2.31 3.28 4.17 4.71 4.52 3.85 3.42
1.07 1.07 1.09 1.08 1.03 0.98 0.95 0.89 0.86 0.83 0.80 0.81 0.83 0.80 0.74 0.70 0.67 0.74 0.81 0.68 0.55 0.49 0.50 0.54 0.58 0.61 0.67 0.72 0.86 0.96 0.92 1.00 1.08 1.17 1.16 1.25 1.58 2.26 3.14 4.07 4.47 4.12 3.58
0.97 0.94 0.97 1.00 0.98 0.92 0.91 0.91 0.91 0.87 0.88 0.91 0.89 0.89 0.87 0.77 0.77 0.85 0.96 1.05 0.93 0.65 0.53 0.54 0.56 0.61 0.70 0.79 0.94 1.06 1.02 1.02 1.02 1.08 1.09 1.06 1.16 1.42 2.08 3.09 4.30 4.72 4.13
0.90 0.93 0.91 0.92 0.87 0.84 0.82 0.81 0.83 0.82 0.86 0.90 0.92 0.95 0.96 0.87 0.87 0.89 0.96 1.16 1.40 1.19 0.71 0.53 0.54 0.60 0.67 0.77 0.97 0.90 0.86 0.88 0.89 0.92 1.00 1.01 1.00 1.09 1.39 1.97 2.92 4.25 4.91
0.85 0.87 0.90 0.89 0.88 0.83 0.82 0.82 0.78 0.75 0.80 0.83 0.86 0.93 0.95 0.91 0.89 0.89 0.97 1.02 1.15 1.31 1.03 0.56 0.50 0.55 0.69 0.74 0.82 0.78 0.80 0.91 0.88 0.87 0.90 0.95 1.01 1.06 1.20 1.46 1.94 2.77 3.99
0.81 0.80 0.83 0.85 0.86 0.86 0.86 0.91 0.86 0.78 0.79 0.81 0.84 0.87 0.88 0.89 0.94 0.90 0.94 0.98 0.98 1.05 1.04 0.61 0.46 0.49 0.67 0.77 0.76 0.73 0.77 0.81 0.81 0.89 0.91 0.94 1.00 1.07 1.23 1.37 1.61 2.05 2.75
0.84 0.84 0.83 0.86 0.85 0.87 0.89 0.93 0.90 0.82 0.80 0.81 0.82 0.82 0.82 0.83 0.89 0.85 0.86 0.87 0.85 0.82 0.86 0.71 0.49 0.47 0.55 0.66 0.78 0.84 0.82 0.80 0.79 0.86 0.89 0.97 1.07 1.09 1.16 1.31 1.52 1.84 2.20
0.89 0.86 0.86 0.88 0.93 0.94 0.92 0.88 0.90 0.86 0.81 0.80 0.82 0.84 0.82 0.85 0.88 0.82 0.83 0.80 0.73 0.69 0.73 0.75 0.60 0.52 0.55 0.60 0.77 0.92 0.90 0.88 0.84 0.86 0.90 0.98 1.06 1.12 1.15 1.20 1.37 1.62 1.83
0.93 0.84 0.82 0.86 0.97 1.12 1.12 1.02 1.07 0.99 0.87 0.81 0.76 0.76 0.80 0.91 0.92 0.91 0.93 0.82 0.76 0.79 0.83 0.88 0.76 0.64 0.66 0.68 0.84 1.04 1.12 1.07 1.03 0.93 0.96 1.00 1.09 1.18 1.16 1.10 1.12 1.21 1.39
0.90 0.82 0.78 0.81 0.91 1.26 1.61 1.57 1.48 1.24 0.96 0.81 0.73 0.73 0.80 0.94 0.99 1.11 1.21 1.09 1.05 1.14 1.11 1.12 1.04 0.94 0.89 0.93 1.01 1.05 1.20 1.22 1.23 1.10 1.01 0.96 0.99 1.00 1.03 1.06 1.07 1.10 1.16
0.95 0.86 0.81 0.78 0.82 1.09 1.68 1.79 1.50 1.11 0.93 0.82 0.76 0.72 0.74 0.86 0.90 0.98 1.13 1.21 1.27 1.39 1.43 1.42 1.37 1.26 1.05 0.97 1.02 1.15 1.23 1.40 1.46 1.20 1.12 1.07 1.04 1.10 1.04 1.02 1.13 1.14 1.15
0.98 0.99 0.88 0.79 0.75 0.90 1.46 1.60 1.31 0.98 0.84 0.80 0.75 0.73 0.73 0.80 0.87 0.86 0.94 0.97 1.00 1.14 1.36 1.47 1.53 1.22 1.04 1.00 1.18 1.38 1.36 1.43 1.41 1.34 1.44 1.39 1.13 1.13 1.07 1.16 1.30 1.21 1.15
0.88 0.94 0.93 0.84 0.77 0.81 1.28 1.44 1.20 0.94 0.82 0.75 0.70 0.71 0.70 0.73 0.83 1.02 1.00 0.94 0.85 0.88 1.09 1.30 1.53 1.37 1.21 1.24 1.53 1.83 1.93 1.83 1.48 1.30 1.46 1.64 1.26 1.14 1.16 1.24 1.37 1.28 1.15
0.80 0.82 0.85 0.84 0.79 0.77 1.06 1.30 1.16 0.92 0.85 0.78 0.68 0.67 0.68 0.68 0.87 1.13 1.11 0.97 0.81 0.73 0.85 1.16 1.46 1.59 1.59 1.70 1.91 2.22 2.41 2.24 1.83 1.36 1.34 1.58 1.45 1.29 1.39 1.53 1.56 1.43 1.19
0.77 0.75 0.77 0.79 0.74 0.69 0.89 1.14 1.16 0.92 0.84 0.80 0.76 0.71 0.77 0.86 1.01 1.14 1.06 1.02 1.09 0.90 0.80 0.84 0.93 1.06 1.16 1.29 1.61 1.89 2.17 2.23 1.93 1.76 1.47 1.53 1.66 1.65 1.86 1.77 1.63 1.40 1.18

GEFSMA_prec_meanprecacc_228.txt.gz
Total_Precipitation_Accumulation
0.52 0.49 0.46 0.45 0.43 0.39 0.37 0.39 0.38 0.37 0.38 0.42 0.42 0.38 0.38 0.34 0.31 0.30 0.27 0.28 0.26 0.27 0.43 0.61 0.76 0.97 1.16 1.33 1.54 1.59 1.35 1.18 1.05 0.93 0.93 1.05 1.13 1.16 1.20 1.27 1.38 1.32 1.12
0.57 0.51 0.47 0.44 0.44 0.43 0.41 0.39 0.38 0.35 0.31 0.28 0.27 0.27 0.32 0.34 0.35 0.35 0.31 0.31 0.30 0.28 0.34 0.51 0.68 0.87 1.12 1.36 1.60 1.86 1.71 1.52 1.34 1.14 0.98 1.00 1.08 1.15 1.17 1.25 1.36 1.49 1.44
0.67 0.61 0.56 0.49 0.44 0.44 0.43 0.44 0.42 0.38 0.34 0.29 0.25 0.23 0.23 0.25 0.28 0.33 0.32 0.32 0.34 0.32 0.32 0.41 0.58 0.75 0.98 1.29 1.59 1.86 2.07 1.90 1.70 1.52 1.27 1.08 1.09 1.18 1.25 1.32 1.40 1.52 1.58
0.76 0.72 0.69 0.65 0.60 0.54 0.50 0.47 0.44 0.43 0.39 0.34 0.30 0.27 0.26 0.25 0.24 0.26 0.28 0.31 0.35 0.36 0.35 0.40 0.50 0.69 0.89 1.09 1.38 1.70 2.10 2.14 2.09 1.95 1.80 1.49 1.27 1.27 1.36 1.43 1.54 1.58 1.58
0.87 0.82 0.77 0.76 0.78 0.74 0.63 0.55 0.49 0.43 0.41 0.37 0.34 0.32 0.29 0.27 0.27 0.27 0.25 0.24 0.26 0.31 0.35 0.38 0.45 0.58 0.72 0.91 1.17 1.48 1.83 2.19 2.31 2.30 2.25 2.05 1.69 1.43 1.44 1.53 1.55 1.64 1.72
0.96 0.95 0.87 0.80 0.80 0.80 0.75 0.64 0.55 0.49 0.44 0.42 0.39 0.37 0.37 0.34 0.29 0.26 0.26 0.25 0.23 0.25 0.32 0.37 0.40 0.47 0.59 0.73 0.94 1.24 1.60 2.01 2.39 2.49 2.47 2.47 2.32 1.93 1.69 1.67 1.67 1.77 1.90
1.02 1.03 1.01 0.96 0.89 0.83 0.76 0.70 0.63 0.60 0.55 0.49 0.50 0.49 0.44 0.41 0.39 0.33 0.28 0.27 0.26 0.25 0.28 0.37 0.42 0.44 0.52 0.64 0.77 0.92 1.24 1.67 2.21 2.74 2.74 2.67 2.76 2.58 2.22 2.03 1.98 2.04 2.22
1.10 1.06 1.06 1.06 1.01 0.91 0.84 0.77 0.72 0.73 0.69 0.60 0.56 0.61 0.61 0.56 0.46 0.39 0.34 0.29 0.28 0.29 0.30 0.32 0.40 0.45 0.48 0.56 0.61 0.76 0.95 1.27 1.76 2.48 3.16 3.19 3.22 3.31 2.92 2.50 2.34 2.36 2.46
1.05 1.02 0.97 0.94 0.99 0.98 0.91 0.81 0.76 0.75 0.77 0.70 0.59 0.70 0.81 0.70 0.49 0.40 0.37 0.32 0.29 0.30 0.30 0.31 0.35 0.43 0.47 0.55 0.57 0.61 0.73 0.97 1.32 1.91 2.77 3.51 3.70 3.86 3.77 3.14 2.80 2.73 2.73
1.07 1.02 1.00 0.94 0.90 0.87 0.82 0.77 0.74 0.73 0.78 0.78 0.67 0.60 0.62 0.65 0.69 0.55 0.40 0.37 0.38 0.35 0.33 0.31 0.32 0.38 0.46 0.55 0.64 0.64 0.66 0.79 1.05 1.47 2.15 3.05 3.85 4.21 4.45 4.08 3.43 3.18 3.11
1.11 1.12 1.07 1.02 0.98 0.89 0.79 0.73 0.72 0.74 0.76 0.77 0.72 0.64 0.58 0.52 0.54 0.68 0.54 0.46 0.50 0.47 0.45 0.41 0.39 0.41 0.47 0.57 0.63 0.69 0.77 0.83 1.11 1.33 1.70 2.32 3.32 4.18 4.79 4.87 4.30 3.66 3.35
1.10 1.11 1.11 1.06 1.00 0.99 0.92 0.82 0.77 0.77 0.75 0.74 0.75 0.71 0.69 0.69 0.60 0.63 0.62 0.50 0.49 0.48 0.50 0.55 0.55 0.56 0.59 0.65 0.75 0.91 0.89 0.97 1.19 1.28 1.36 1.64 2.34 3.32 4.22 4.77 4.59 3.93 3.51
1.08 1.09 1.12 1.10 1.05 1.00 0.96 0.91 0.89 0.86 0.83 0.83 0.85 0.81 0.75 0.70 0.67 0.74 0.82 0.68 0.56 0.49 0.50 0.55 0.58 0.61 0.68 0.73 0.87 0.99 0.97 1.05 1.12 1.20 1.20 1.29 1.63 2.33 3.21 4.13 4.53 4.19 3.65
1.00 0.97 0.99 1.02 1.00 0.95 0.92 0.92 0.93 0.90 0.91 0.93 0.91 0.90 0.88 0.78 0.77 0.86 0.97 1.05 0.94 0.65 0.53 0.55 0.56 0.62 0.71 0.80 0.95 1.08 1.05 1.08 1.10 1.17 1.17 1.13 1.23 1.50 2.16 3.17 4.38 4.79 4.18
0.92 0.95 0.94 0.93 0.88 0.86 0.84 0.82 0.84 0.84 0.89 0.92 0.94 0.96 0.97 0.88 0.87 0.89 0.96 1.16 1.41 1.20 0.72 0.53 0.54 0.61 0.68 0.78 0.98 0.92 0.87 0.90 0.92 0.97 1.05 1.05 1.04 1.14 1.44 2.04 2.99 4.32 4.96
0.86 0.88 0.91 0.90 0.89 0.84 0.83 0.83 0.79 0.76 0.82 0.86 0.89 0.95 0.96 0.92 0.89 0.89 0.97 1.03 1.16 1.32 1.05 0.58 0.52 0.57 0.71 0.75 0.84 0.79 0.82 0.94 0.92 0.91 0.94 0.98 1.05 1.09 1.24 1.50 1.99 2.82 4.04
0.83 0.81 0.83 0.85 0.86 0.87 0.86 0.92 0.87 0.79 0.81 0.83 0.86 0.89 0.89 0.91 0.94 0.91 0.94 0.98 0.99 1.06 1.06 0.63 0.48 0.51 0.69 0.79 0.77 0.73 0.78 0.82 0.83 0.92 0.94 0.96 1.02 1.10 1.26 1.40 1.65 2.09 2.80
0.86 0.85 0.84 0.87 0.86 0.88 0.90 0.93 0.91 0.83 0.82 0.83 0.84 0.84 0.84 0.84 0.89 0.86 0.86 0.87 0.86 0.83 0.88 0.73 0.51 0.49 0.57 0.67 0.79 0.86 0.83 0.82 0.80 0.88 0.91 0.99 1.09 1.11 1.19 1.33 1.55 1.86 2.23
0.89 0.87 0.87 0.89 0.93 0.95 0.92 0.89 0.92 0.87 0.83 0.83 0.84 0.86 0.84 0.86 0.89 0.83 0.84 0.81 0.74 0.70 0.74 0.76 0.60 0.53 0.56 0.62 0.79 0.94 0.93 0.91 0.87 0.89 0.92 1.00 1.08 1.14 1.17 1.23 1.41 1.65 1.86
0.93 0.85 0.83 0.87 0.97 1.13 1.13 1.03 1.08 1.00 0.89 0.83 0.79 0.79 0.83 0.93 0.93 0.92 0.94 0.84 0.77 0.80 0.83 0.89 0.77 0.65 0.67 0.70 0.87 1.08 1.16 1.11 1.06 0.95 0.98 1.01 1.11 1.20 1.18 1.13 1.15 1.25 1.41
0.91 0.82 0.79 0.82 0.92 1.26 1.62 1.58 1.49 1.25 0.98 0.83 0.75 0.75 0.82 0.96 1.01 1.13 1.23 1.10 1.07 1.15 1.12 1.14 1.05 0.95 0.91 0.95 1.03 1.08 1.23 1.25 1.25 1.12 1.03 0.97 1.00 1.01 1.04 1.08 1.09 1.12 1.19
0.95 0.87 0.81 0.79 0.82 1.10 1.68 1.81 1.51 1.12 0.94 0.84 0.79 0.75 0.76 0.88 0.92 1.00 1.15 1.22 1.28 1.40 1.45 1.44 1.38 1.27 1.05 0.98 1.03 1.17 1.25 1.42 1.49 1.22 1.14 1.08 1.04 1.11 1.05 1.03 1.14 1.15 1.17
0.98 1.00 0.89 0.80 0.76 0.91 1.48 1.62 1.32 0.99 0.85 0.81 0.77 0.76 0.75 0.82 0.89 0.88 0.96 0.99 1.01 1.16 1.37 1.49 1.55 1.22 1.05 1.01 1.20 1.40 1.37 1.46 1.43 1.36 1.45 1.40 1.14 1.14 1.07 1.17 1.31 1.23 1.18
0.89 0.95 0.94 0.85 0.78 0.82 1.30 1.46 1.22 0.96 0.84 0.76 0.71 0.73 0.73 0.75 0.85 1.03 1.02 0.96 0.86 0.89 1.10 1.31 1.54 1.38 1.22 1.25 1.54 1.85 1.95 1.84 1.49 1.32 1.47 1.65 1.27 1.15 1.16 1.24 1.38 1.30 1.17
0.82 0.84 0.86 0.85 0.81 0.78 1.07 1.33 1.18 0.94 0.87 0.79 0.69 0.68 0.70 0.71 0.90 1.15 1.12 0.98 0.82 0.75 0.86 1.18 1.47 1.60 1.60 1.71 1.92 2.23 2.42 2.25 1.84 1.37 1.35 1.59 1.46 1.30 1.39 1.53 1.57 1.44 1.20
0.78 0.78 0.79 0.80 0.75 0.69 0.90 1.16 1.17 0.94 0.86 0.81 0.77 0.71 0.79 0.88 1.03 1.17 1.08 1.03 1.10 0.91 0.80 0.85 0.94 1.07 1.16 1.30 1.62 1.90 2.17 2.24 1.94 1.77 1.47 1.54 1.67 1.66 1.87 1.77 1.63 1.40 1.18

GEFSMA_prec_meanprecacc_234.txt.gz
Total_Precipitation_Accumulation
0.55 0.51 0.47 0.47 0.44 0.40 0.38 0.40 0.39 0.37 0.38 0.42 0.42 0.38 0.38 0.34 0.31 0.30 0.27 0.28 0.26 0.27 0.43 0.62 0.77 0.99 1.19 1.36 1.56 1.62 1.39 1.22 1.08 0.97 0.96 1.07 1.15 1.18 1.21 1.29 1.41 1.38 1.23
0.60 0.53 0.49 0.46 0.45 0.44 0.42 0.40 0.38 0.35 0.31 0.28 0.27 0.27 0.32 0.34 0.35 0.35 0.31 0.31 0.30 0.28 0.34 0.51 0.69 0.90 1.15 1.40 1.64 1.90 1.74 1.55 1.37 1.18 1.02 1.02 1.11 1.17 1.19 1.27 1.38 1.53 1.53
0.71 0.65 0.58 0.51 0.46 0.45 0.44 0.45 0.42 0.39 0.34 0.29 0.26 0.24 0.23 0.25 0.29 0.33 0.32 0.32 0.34 0.32 0.32 0.42 0.59 0.77 1.02 1.33 1.62 1.90 2.09 1.92 1.73 1.55 1.31 1.11 1.12 1.20 1.27 1.34 1.43 1.55 1.65
0.82 0.77 0.74 0.69 0.63 0.56 0.51 0.49 0.45 0.44 0.40 0.35 0.30 0.27 0.26 0.25 0.24 0.26 0.28 0.31 0.35 0.36 0.35 0.40 0.50 0.70 0.91 1.11 1.41 1.73 2.13 2.17 2.12 1.97 1.83 1.52 1.29 1.29 1.39 1.46 1.56 1.61 1.62
0.94 0.89 0.84 0.82 0.84 0.77 0.65 0.56 0.50 0.45 0.43 0.38 0.35 0.33 0.30 0.27 0.27 0.28 0.25 0.24 0.26 0.31 0.36 0.39 0.46 0.58 0.73 0.93 1.19 1.51 1.87 2.22 2.34 2.33 2.27 2.07 1.72 1.45 1.47 1.56 1.59 1.68 1.76
1.05 1.03 0.94 0.87 0.86 0.86 0.79 0.66 0.56 0.51 0.46 0.44 0.41 0.39 0.38 0.35 0.30 0.27 0.26 0.25 0.24 0.26 0.32 0.38 0.41 0.48 0.59 0.74 0.96 1.27 1.63 2.05 2.43 2.52 2.50 2.50 2.35 1.96 1.73 1.72 1.72 1.81 1.95
1.18 1.15 1.09 1.05 0.98 0.91 0.83 0.74 0.67 0.63 0.57 0.51 0.53 0.52 0.46 0.42 0.41 0.34 0.29 0.27 0.26 0.25 0.28 0.37 0.42 0.44 0.52 0.65 0.78 0.93 1.26 1.71 2.25 2.78 2.78 2.70 2.79 2.61 2.25 2.07 2.02 2.08 2.26
1.34 1.32 1.25 1.21 1.14 1.04 0.97 0.87 0.79 0.79 0.75 0.64 0.60 0.65 0.64 0.59 0.49 0.40 0.35 0.30 0.29 0.30 0.30 0.32 0.40 0.46 0.48 0.56 0.61 0.77 0.96 1.29 1.79 2.52 3.19 3.23 3.25 3.34 2.95 2.53 2.37 2.39 2.50
1.15 1.18 1.17 1.15 1.17 1.13 1.05 0.96 0.87 0.85 0.86 0.77 0.65 0.76 0.87 0.75 0.53 0.43 0.40 0.35 0.31 0.31 0.30 0.31 0.35 0.43 0.47 0.55 0.57 0.62 0.74 0.98 1.34 1.93 2.80 3.55 3.74 3.89 3.80 3.17 2.84 2.77 2.77
1.13 1.11 1.11 1.09 1.04 0.99 0.93 0.89 0.85 0.81 0.86 0.85 0.73 0.65 0.66 0.68 0.72 0.58 0.41 0.39 0.38 0.36 0.33 0.31 0.32 0.38 0.46 0.55 0.64 0.65 0.67 0.80 1.07 1.49 2.19 3.10 3.89 4.25 4.49 4.12 3.47 3.22 3.15
1.17 1.18 1.14 1.11 1.08 0.99 0.89 0.83 0.82 0.83 0.82 0.81 0.74 0.66 0.59 0.52 0.54 0.69 0.55 0.46 0.50 0.47 0.45 0.41 0.39 0.41 0.47 0.57 0.63 0.70 0.78 0.84 1.12 1.35 1.73 2.35 3.37 4.24 4.84 4.92 4.34 3.71 3.39
1.15 1.16 1.15 1.11 1.06 1.05 0.99 0.89 0.84 0.85 0.82 0.78 0.77 0.73 0.70 0.70 0.60 0.64 0.62 0.50 0.49 0.48 0.50 0.55 0.55 0.56 0.60 0.65 0.76 0.92 0.90 0.98 1.20 1.29 1.37 1.67 2.38 3.36 4.26 4.82 4.63 3.99 3.58
1.12 1.12 1.15 1.14 1.08 1.03 1.00 0.97 0.94 0.91 0.88 0.89 0.88 0.83 0.76 0.71 0.68 0.75 0.82 0.68 0.56 0.49 0.50 0.55 0.58 0.62 0.68 0.73 0.88 0.99 0.97 1.06 1.13 1.22 1.22 1.32 1.67 2.37 3.25 4.18 4.60 4.27 3.73
1.05 1.01 1.03 1.06 1.03 0.98 0.96 0.96 0.96 0.92 0.93 0.97 0.95 0.93 0.90 0.79 0.78 0.87 0.98 1.06 0.94 0.65 0.53 0.55 0.56 0.62 0.71 0.80 0.96 1.09 1.05 1.09 1.12 1.18 1.20 1.16 1.27 1.56 2.23 3.26 4.47 4.87 4.27
1.00 1.01 0.99 0.98 0.92 0.90 0.87 0.86 0.87 0.86 0.90 0.93 0.96 0.99 0.99 0.90 0.89 0.91 0.97 1.17 1.42 1.20 0.72 0.53 0.55 0.61 0.69 0.78 0.98 0.92 0.87 0.91 0.94 0.98 1.07 1.09 1.10 1.23 1.53 2.11 3.04 4.37 5.02
0.92 0.93 0.96 0.95 0.92 0.87 0.87 0.87 0.81 0.77 0.83 0.87 0.90 0.97 0.99 0.95 0.92 0.91 0.99 1.03 1.16 1.33 1.05 0.59 0.53 0.58 0.71 0.76 0.84 0.80 0.83 0.95 0.94 0.94 0.98 1.03 1.09 1.13 1.28 1.55 2.02 2.86 4.07
0.88 0.86 0.87 0.90 0.90 0.90 0.89 0.94 0.90 0.82 0.82 0.84 0.87 0.90 0.91 0.93 0.97 0.93 0.96 0.99 0.99 1.06 1.06 0.64 0.51 0.53 0.70 0.79 0.77 0.74 0.79 0.84 0.86 0.95 0.96 0.98 1.04 1.11 1.27 1.42 1.67 2.11 2.82
0.90 0.91 0.89 0.91 0.90 0.91 0.92 0.94 0.92 0.85 0.85 0.84 0.84 0.85 0.85 0.86 0.92 0.89 0.88 0.89 0.87 0.84 0.89 0.73 0.51 0.51 0.59 0.68 0.79 0.86 0.84 0.82 0.82 0.90 0.93 1.01 1.11 1.13 1.21 1.35 1.56 1.87 2.25
0.91 0.90 0.92 0.93 0.97 0.99 0.96 0.91 0.92 0.88 0.84 0.85 0.86 0.87 0.84 0.87 0.91 0.85 0.86 0.83 0.76 0.71 0.74 0.77 0.61 0.53 0.57 0.63 0.80 0.94 0.93 0.92 0.88 0.90 0.94 1.02 1.10 1.17 1.21 1.27 1.44 1.67 1.88
0.95 0.87 0.85 0.90 1.01 1.17 1.16 1.07 1.10 1.01 0.89 0.85 0.81 0.80 0.84 0.94 0.95 0.93 0.96 0.85 0.79 0.81 0.84 0.89 0.77 0.65 0.68 0.70 0.88 1.09 1.17 1.12 1.07 0.96 0.99 1.04 1.15 1.24 1.23 1.17 1.19 1.28 1.45
0.93 0.84 0.80 0.83 0.94 1.29 1.65 1.61 1.52 1.27 0.99 0.84 0.76 0.77 0.83 0.97 1.02 1.15 1.24 1.11 1.08 1.17 1.13 1.15 1.06 0.96 0.91 0.95 1.04 1.08 1.24 1.26 1.27 1.13 1.04 0.98 1.03 1.05 1.09 1.11 1.12 1.16 1.23
0.97 0.88 0.83 0.81 0.84 1.11 1.70 1.83 1.53 1.14 0.96 0.85 0.80 0.76 0.77 0.89 0.93 1.02 1.16 1.23 1.30 1.42 1.46 1.45 1.39 1.28 1.06 0.99 1.04 1.18 1.26 1.44 1.50 1.24 1.16 1.10 1.06 1.14 1.08 1.06 1.18 1.19 1.21
1.01 1.02 0.90 0.81 0.78 0.92 1.50 1.64 1.34 1.01 0.87 0.83 0.78 0.77 0.77 0.83 0.90 0.89 0.97 0.99 1.02 1.17 1.38 1.50 1.56 1.23 1.06 1.01 1.21 1.41 1.39 1.47 1.45 1.37 1.47 1.41 1.15 1.16 1.10 1.19 1.33 1.25 1.20
0.91 0.97 0.96 0.87 0.79 0.84 1.32 1.49 1.24 0.98 0.86 0.79 0.73 0.74 0.74 0.76 0.87 1.05 1.02 0.96 0.87 0.90 1.11 1.32 1.55 1.39 1.23 1.26 1.56 1.86 1.96 1.85 1.49 1.32 1.48 1.65 1.27 1.16 1.17 1.25 1.39 1.30 1.18
0.83 0.85 0.88 0.86 0.82 0.79 1.09 1.34 1.20 0.95 0.88 0.81 0.71 0.70 0.72 0.72 0.91 1.17 1.13 0.99 0.82 0.75 0.87 1.19 1.48 1.61 1.62 1.72 1.94 2.25 2.43 2.27 1.85 1.37 1.35 1.59 1.46 1.30 1.39 1.54 1.58 1.45 1.21
0.79 0.79 0.80 0.82 0.76 0.70 0.91 1.17 1.19 0.95 0.87 0.83 0.78 0.73 0.81 0.90 1.05 1.19 1.09 1.05 1.11 0.92 0.81 0.86 0.95 1.08 1.18 1.31 1.64 1.91 2.19 2.26 1.96 1.78 1.48 1.54 1.67 1.66 1.88 1.77 1.64 1.41 1.19

GEFSMA_prec_meanprecacc_240.txt.gz
Total_Precipitation_Accumulation
0.59 0.54 0.50 0.49 0.45 0.41 0.39 0.41 0.40 0.38 0.39 0.43 0.43 0.39 0.38 0.34 0.31 0.30 0.27 0.28 0.26 0.27 0.43 0.62 0.78 1.01 1.22 1.39 1.60 1.65 1.41 1.24 1.10 0.98 0.98 1.09 1.17 1.20 1.23 1.31 1.42 1.40 1.26
0.65 0.56 0.52 0.49 0.47 0.46 0.44 0.42 0.40 0.37 0.32 0.30 0.28 0.28 0.32 0.34 0.35 0.35 0.31 0.31 0.30 0.28 0.34 0.52 0.70 0.92 1.18 1.44 1.67 1.92 1.76 1.57 1.39 1.19 1.04 1.05 1.13 1.19 1.21 1.28 1.40 1.55 1.56
0.79 0.69 0.62 0.55 0.50 0.47 0.46 0.47 0.45 0.42 0.38 0.32 0.28 0.25 0.24 0.25 0.29 0.33 0.33 0.32 0.34 0.32 0.32 0.42 0.59 0.78 1.04 1.35 1.65 1.92 2.11 1.94 1.74 1.56 1.32 1.13 1.14 1.23 1.29 1.37 1.46 1.58 1.68
0.90 0.84 0.78 0.74 0.68 0.61 0.55 0.50 0.47 0.45 0.42 0.37 0.33 0.29 0.28 0.26 0.25 0.26 0.28 0.31 0.35 0.36 0.35 0.40 0.51 0.71 0.93 1.13 1.43 1.75 2.14 2.18 2.13 1.99 1.84 1.54 1.31 1.32 1.42 1.49 1.61 1.66 1.67
1.02 0.97 0.91 0.88 0.89 0.83 0.71 0.59 0.52 0.46 0.44 0.40 0.37 0.35 0.32 0.29 0.29 0.29 0.26 0.24 0.26 0.31 0.36 0.39 0.46 0.59 0.74 0.94 1.21 1.53 1.89 2.24 2.36 2.35 2.29 2.09 1.74 1.48 1.49 1.59 1.63 1.72 1.80
1.13 1.11 1.03 0.95 0.94 0.94 0.89 0.74 0.59 0.52 0.47 0.45 0.42 0.41 0.40 0.38 0.33 0.30 0.28 0.26 0.24 0.26 0.33 0.38 0.41 0.48 0.59 0.74 0.97 1.28 1.65 2.08 2.46 2.54 2.52 2.52 2.38 1.98 1.76 1.75 1.75 1.85 1.99
1.35 1.29 1.21 1.15 1.08 1.00 0.91 0.82 0.72 0.66 0.58 0.52 0.54 0.53 0.47 0.43 0.42 0.36 0.31 0.28 0.27 0.26 0.29 0.37 0.43 0.44 0.52 0.65 0.78 0.94 1.27 1.73 2.27 2.80 2.80 2.73 2.82 2.64 2.27 2.09 2.05 2.11 2.30
1.51 1.52 1.45 1.35 1.25 1.16 1.07 0.95 0.85 0.82 0.77 0.66 0.62 0.66 0.65 0.60 0.50 0.41 0.36 0.30 0.30 0.30 0.30 0.33 0.40 0.46 0.49 0.56 0.61 0.77 0.97 1.31 1.80 2.54 3.22 3.26 3.28 3.38 2.99 2.57 2.41 2.43 2.54
1.28 1.32 1.31 1.27 1.32 1.27 1.18 1.07 0.95 0.90 0.89 0.79 0.67 0.78 0.89 0.76 0.54 0.44 0.41 0.36 0.32 0.32 0.31 0.31 0.36 0.43 0.48 0.55 0.57 0.62 0.75 0.99 1.35 1.95 2.83 3.58 3.77 3.93 3.85 3.22 2.88 2.81 2.80
1.24 1.20 1.22 1.19 1.14 1.14 1.09 1.02 0.96 0.88 0.91 0.90 0.77 0.69 0.69 0.70 0.74 0.60 0.43 0.40 0.40 0.37 0.34 0.32 0.32 0.39 0.47 0.55 0.64 0.66 0.67 0.80 1.08 1.51 2.21 3.14 3.93 4.30 4.54 4.16 3.51 3.25 3.18
1.29 1.30 1.24 1.20 1.18 1.09 0.99 0.94 0.94 0.94 0.91 0.88 0.81 0.73 0.65 0.57 0.58 0.71 0.57 0.48 0.52 0.49 0.46 0.42 0.40 0.42 0.47 0.57 0.63 0.70 0.79 0.85 1.12 1.36 1.74 2.38 3.41 4.28 4.88 4.97 4.39 3.75 3.42
1.28 1.30 1.30 1.22 1.17 1.16 1.08 0.97 0.92 0.94 0.91 0.87 0.85 0.79 0.76 0.74 0.64 0.66 0.64 0.51 0.50 0.49 0.51 0.56 0.56 0.56 0.60 0.65 0.76 0.92 0.91 0.98 1.20 1.30 1.38 1.67 2.39 3.39 4.30 4.87 4.69 4.04 3.62
1.24 1.23 1.26 1.24 1.19 1.16 1.12 1.06 1.01 0.98 0.95 0.95 0.94 0.88 0.81 0.76 0.71 0.77 0.84 0.70 0.56 0.49 0.50 0.55 0.58 0.62 0.68 0.73 0.88 0.99 0.98 1.07 1.14 1.22 1.23 1.33 1.68 2.39 3.28 4.23 4.69 4.34 3.79
1.15 1.11 1.13 1.13 1.09 1.06 1.05 1.04 1.03 0.98 0.98 1.01 0.99 0.97 0.93 0.82 0.81 0.89 1.00 1.08 0.95 0.66 0.53 0.55 0.56 0.62 0.71 0.80 0.96 1.09 1.06 1.09 1.12 1.19 1.20 1.17 1.28 1.58 2.26 3.30 4.55 4.99 4.34
1.10 1.12 1.11 1.07 0.99 0.95 0.93 0.92 0.92 0.90 0.94 0.96 0.98 1.02 1.02 0.93 0.91 0.92 0.99 1.18 1.43 1.22 0.72 0.53 0.55 0.61 0.69 0.78 0.99 0.92 0.88 0.92 0.94 0.99 1.08 1.11 1.13 1.26 1.56 2.16 3.11 4.47 5.11
1.03 1.05 1.09 1.08 1.01 0.93 0.92 0.91 0.86 0.81 0.86 0.89 0.92 0.98 1.01 0.98 0.94 0.93 1.00 1.05 1.18 1.34 1.07 0.60 0.54 0.58 0.71 0.76 0.84 0.80 0.83 0.96 0.96 0.97 1.01 1.06 1.11 1.15 1.30 1.58 2.08 2.93 4.14
0.95 0.94 0.96 1.00 0.99 0.95 0.93 0.98 0.93 0.85 0.85 0.86 0.89 0.92 0.92 0.95 1.00 0.95 0.98 1.01 1.01 1.08 1.07 0.65 0.51 0.54 0.71 0.79 0.77 0.74 0.80 0.85 0.88 0.97 0.98 1.00 1.05 1.13 1.29 1.45 1.72 2.15 2.85
0.94 0.95 0.94 0.97 0.97 0.98 0.97 0.98 0.95 0.88 0.88 0.87 0.87 0.86 0.86 0.87 0.94 0.91 0.91 0.91 0.89 0.85 0.90 0.74 0.52 0.52 0.60 0.69 0.80 0.86 0.84 0.83 0.82 0.91 0.94 1.02 1.12 1.15 1.22 1.37 1.59 1.90 2.27
0.94 0.94 0.95 0.97 1.02 1.04 1.01 0.95 0.95 0.90 0.86 0.87 0.88 0.89 0.86 0.89 0.92 0.88 0.89 0.86 0.78 0.73 0.76 0.78 0.62 0.54 0.57 0.63 0.80 0.95 0.93 0.92 0.89 0.91 0.95 1.03 1.11 1.18 1.22 1.30 1.47 1.69 1.89
0.97 0.89 0.89 0.93 1.04 1.20 1.20 1.11 1.13 1.03 0.91 0.86 0.83 0.82 0.86 0.96 0.97 0.95 0.98 0.88 0.82 0.84 0.87 0.91 0.78 0.66 0.68 0.71 0.88 1.10 1.18 1.12 1.08 0.97 1.00 1.04 1.16 1.25 1.25 1.22 1.25 1.32 1.47
0.95 0.87 0.84 0.87 0.96 1.31 1.67 1.64 1.55 1.30 1.01 0.85 0.78 0.78 0.85 0.99 1.04 1.17 1.27 1.14 1.10 1.20 1.17 1.18 1.09 0.98 0.93 0.96 1.04 1.09 1.24 1.27 1.27 1.13 1.04 0.99 1.04 1.05 1.10 1.14 1.18 1.21 1.28
1.00 0.91 0.86 0.84 0.87 1.14 1.73 1.86 1.56 1.16 0.98 0.87 0.82 0.78 0.79 0.91 0.95 1.04 1.19 1.26 1.32 1.44 1.50 1.49 1.43 1.30 1.08 1.00 1.05 1.19 1.27 1.44 1.51 1.24 1.16 1.10 1.06 1.14 1.09 1.08 1.20 1.21 1.24
1.05 1.05 0.93 0.84 0.81 0.95 1.53 1.67 1.37 1.03 0.89 0.85 0.80 0.79 0.79 0.85 0.92 0.91 1.00 1.02 1.05 1.20 1.42 1.53 1.59 1.26 1.08 1.03 1.23 1.43 1.40 1.48 1.45 1.37 1.47 1.41 1.15 1.16 1.11 1.20 1.35 1.26 1.22
0.95 1.01 0.98 0.90 0.83 0.87 1.36 1.53 1.28 1.01 0.88 0.81 0.75 0.77 0.76 0.78 0.89 1.09 1.07 1.00 0.90 0.92 1.13 1.34 1.57 1.41 1.25 1.29 1.59 1.89 1.99 1.87 1.51 1.33 1.48 1.66 1.27 1.16 1.18 1.27 1.41 1.32 1.20
0.86 0.88 0.90 0.89 0.85 0.83 1.13 1.38 1.24 0.98 0.92 0.84 0.74 0.73 0.75 0.75 0.95 1.22 1.18 1.03 0.86 0.78 0.89 1.21 1.50 1.63 1.65 1.76 1.97 2.29 2.47 2.30 1.87 1.38 1.36 1.60 1.47 1.30 1.40 1.55 1.59 1.46 1.22
0.83 0.82 0.83 0.84 0.78 0.72 0.93 1.19 1.21 0.97 0.90 0.85 0.81 0.75 0.83 0.92 1.08 1.22 1.12 1.08 1.15 0.95 0.83 0.88 0.97 1.09 1.19 1.33 1.67 1.95 2.24 2.31 1.99 1.80 1.49 1.56 1.68 1.67 1.89 1.78 1.65 1.42 1.21